<?xml version='1.0' encoding='UTF-8'?><gpx version="1.1" creator="JPX - https://github.com/jenetics/jpx" xmlns="http://www.topografix.com/GPX/1/1"><trk><trkseg><trkpt lat="43.9467149" lon="8.0021857"><ele>81.0</ele><time>2026-04-10T14:54:48.285Z</time></trkpt><trkpt lat="43.9466246" lon="8.0022082"><ele>81.0</ele><time>2026-04-10T14:54:51.286Z</time></trkpt><trkpt lat="43.9466001" lon="8.0023135"><ele>81.0</ele><time>2026-04-10T14:54:54.285Z</time></trkpt><trkpt lat="43.9466676" lon="8.0023433"><ele>81.0</ele><time>2026-04-10T14:54:56.286Z</time></trkpt><trkpt lat="43.9467472" lon="8.0023117"><ele>81.0</ele><time>2026-04-10T14:54:58.286Z</time></trkpt><trkpt lat="43.9468198" lon="8.002367"><ele>81.0</ele><time>2026-04-10T14:55:00.286Z</time></trkpt><trkpt lat="43.9469448" lon="8.0023996"><ele>81.0</ele><time>2026-04-10T14:55:02.286Z</time></trkpt><trkpt lat="43.9470269" lon="8.0023957"><ele>81.0</ele><time>2026-04-10T14:55:03.285Z</time></trkpt><trkpt lat="43.9471136" lon="8.0023884"><ele>81.0</ele><time>2026-04-10T14:55:04.285Z</time></trkpt><trkpt lat="43.9472129" lon="8.0023745"><ele>81.0</ele><time>2026-04-10T14:55:05.286Z</time></trkpt><trkpt lat="43.9473155" lon="8.0023589"><ele>81.0</ele><time>2026-04-10T14:55:06.286Z</time></trkpt><trkpt lat="43.9474285" lon="8.0023519"><ele>82.25</ele><time>2026-04-10T14:55:07.287Z</time></trkpt><trkpt lat="43.947544" lon="8.0023632"><ele>83.5</ele><time>2026-04-10T14:55:08.285Z</time></trkpt><trkpt lat="43.9476651" lon="8.0023786"><ele>84.75</ele><time>2026-04-10T14:55:09.286Z</time></trkpt><trkpt lat="43.9477829" lon="8.0023994"><ele>86.0</ele><time>2026-04-10T14:55:10.285Z</time></trkpt><trkpt lat="43.9478974" lon="8.002424"><ele>86.0</ele><time>2026-04-10T14:55:11.286Z</time></trkpt><trkpt lat="43.947999" lon="8.0024398"><ele>86.0</ele><time>2026-04-10T14:55:12.286Z</time></trkpt><trkpt lat="43.9480976" lon="8.002457"><ele>86.0</ele><time>2026-04-10T14:55:13.286Z</time></trkpt><trkpt lat="43.9482088" lon="8.002477"><ele>86.0</ele><time>2026-04-10T14:55:14.286Z</time></trkpt><trkpt lat="43.9483261" lon="8.002499"><ele>86.0</ele><time>2026-04-10T14:55:15.285Z</time></trkpt><trkpt lat="43.9484477" lon="8.0025198"><ele>87.25</ele><time>2026-04-10T14:55:16.286Z</time></trkpt><trkpt lat="43.9485765" lon="8.0025408"><ele>88.5</ele><time>2026-04-10T14:55:17.286Z</time></trkpt><trkpt lat="43.9487168" lon="8.0025732"><ele>89.75</ele><time>2026-04-10T14:55:18.286Z</time></trkpt><trkpt lat="43.9488478" lon="8.0025996"><ele>91.0</ele><time>2026-04-10T14:55:19.286Z</time></trkpt><trkpt lat="43.9489886" lon="8.0026329"><ele>91.0</ele><time>2026-04-10T14:55:20.286Z</time></trkpt><trkpt lat="43.949132" lon="8.0026553"><ele>91.0</ele><time>2026-04-10T14:55:21.285Z</time></trkpt><trkpt lat="43.9492772" lon="8.0026812"><ele>91.0</ele><time>2026-04-10T14:55:22.285Z</time></trkpt><trkpt lat="43.9494324" lon="8.0027064"><ele>91.0</ele><time>2026-04-10T14:55:23.286Z</time></trkpt><trkpt lat="43.9495846" lon="8.0027196"><ele>90.33333333333333</ele><time>2026-04-10T14:55:24.286Z</time></trkpt><trkpt lat="43.949737" lon="8.0027338"><ele>89.66666666666667</ele><time>2026-04-10T14:55:25.286Z</time></trkpt><trkpt lat="43.9498859" lon="8.0027454"><ele>89.0</ele><time>2026-04-10T14:55:26.285Z</time></trkpt><trkpt lat="43.9500348" lon="8.0027494"><ele>89.5</ele><time>2026-04-10T14:55:27.285Z</time></trkpt><trkpt lat="43.9501808" lon="8.0027555"><ele>90.0</ele><time>2026-04-10T14:55:28.285Z</time></trkpt><trkpt lat="43.9503313" lon="8.0027635"><ele>90.5</ele><time>2026-04-10T14:55:29.285Z</time></trkpt><trkpt lat="43.9504816" lon="8.0027764"><ele>91.0</ele><time>2026-04-10T14:55:30.285Z</time></trkpt><trkpt lat="43.9506202" lon="8.0027856"><ele>91.0</ele><time>2026-04-10T14:55:31.286Z</time></trkpt><trkpt lat="43.9507451" lon="8.0027952"><ele>91.0</ele><time>2026-04-10T14:55:32.285Z</time></trkpt><trkpt lat="43.9508624" lon="8.0028009"><ele>91.0</ele><time>2026-04-10T14:55:33.285Z</time></trkpt><trkpt lat="43.950971" lon="8.002782"><ele>91.0</ele><time>2026-04-10T14:55:34.286Z</time></trkpt><trkpt lat="43.9510678" lon="8.0027166"><ele>92.5</ele><time>2026-04-10T14:55:35.287Z</time></trkpt><trkpt lat="43.9511509" lon="8.0026076"><ele>94.0</ele><time>2026-04-10T14:55:36.285Z</time></trkpt><trkpt lat="43.9512309" lon="8.0024579"><ele>95.5</ele><time>2026-04-10T14:55:37.285Z</time></trkpt><trkpt lat="43.9513106" lon="8.0022903"><ele>97.0</ele><time>2026-04-10T14:55:38.285Z</time></trkpt><trkpt lat="43.951392" lon="8.0021195"><ele>97.0</ele><time>2026-04-10T14:55:39.286Z</time></trkpt><trkpt lat="43.951476" lon="8.0019507"><ele>97.0</ele><time>2026-04-10T14:55:40.286Z</time></trkpt><trkpt lat="43.9515523" lon="8.0017834"><ele>97.0</ele><time>2026-04-10T14:55:41.286Z</time></trkpt><trkpt lat="43.9516344" lon="8.0016135"><ele>97.0</ele><time>2026-04-10T14:55:42.285Z</time></trkpt><trkpt lat="43.951726" lon="8.0014376"><ele>103.0</ele><time>2026-04-10T14:55:43.287Z</time></trkpt><trkpt lat="43.9518178" lon="8.0012479"><ele>109.0</ele><time>2026-04-10T14:55:44.286Z</time></trkpt><trkpt lat="43.9519051" lon="8.0010558"><ele>115.0</ele><time>2026-04-10T14:55:45.287Z</time></trkpt><trkpt lat="43.951986" lon="8.0008709"><ele>112.0</ele><time>2026-04-10T14:55:46.286Z</time></trkpt><trkpt lat="43.9520568" lon="8.0006954"><ele>109.0</ele><time>2026-04-10T14:55:47.288Z</time></trkpt><trkpt lat="43.9521275" lon="8.0005328"><ele>106.0</ele><time>2026-04-10T14:55:48.285Z</time></trkpt><trkpt lat="43.9522113" lon="8.0003861"><ele>103.0</ele><time>2026-04-10T14:55:49.285Z</time></trkpt><trkpt lat="43.9522943" lon="8.0002475"><ele>103.0</ele><time>2026-04-10T14:55:50.285Z</time></trkpt><trkpt lat="43.9523668" lon="8.0000993"><ele>103.0</ele><time>2026-04-10T14:55:51.286Z</time></trkpt><trkpt lat="43.9524186" lon="7.999939"><ele>103.0</ele><time>2026-04-10T14:55:52.286Z</time></trkpt><trkpt lat="43.9524548" lon="7.9997878"><ele>103.0</ele><time>2026-04-10T14:55:53.287Z</time></trkpt><trkpt lat="43.9524973" lon="7.9996659"><ele>104.4</ele><time>2026-04-10T14:55:54.285Z</time></trkpt><trkpt lat="43.9525503" lon="7.9995608"><ele>105.80000000000001</ele><time>2026-04-10T14:55:55.286Z</time></trkpt><trkpt lat="43.9526219" lon="7.999509"><ele>107.2</ele><time>2026-04-10T14:55:56.286Z</time></trkpt><trkpt lat="43.9527038" lon="7.9995036"><ele>108.6</ele><time>2026-04-10T14:55:57.285Z</time></trkpt><trkpt lat="43.9528102" lon="7.9995196"><ele>110.0</ele><time>2026-04-10T14:55:58.285Z</time></trkpt><trkpt lat="43.9529173" lon="7.9995306"><ele>110.0</ele><time>2026-04-10T14:55:59.287Z</time></trkpt><trkpt lat="43.9530221" lon="7.9995237"><ele>110.0</ele><time>2026-04-10T14:56:00.286Z</time></trkpt><trkpt lat="43.9531338" lon="7.9995093"><ele>110.0</ele><time>2026-04-10T14:56:01.286Z</time></trkpt><trkpt lat="43.9532399" lon="7.9994992"><ele>110.0</ele><time>2026-04-10T14:56:02.287Z</time></trkpt><trkpt lat="43.9533322" lon="7.9995121"><ele>110.0</ele><time>2026-04-10T14:56:03.285Z</time></trkpt><trkpt lat="43.9533972" lon="7.9995626"><ele>109.99999999999999</ele><time>2026-04-10T14:56:04.285Z</time></trkpt><trkpt lat="43.9534285" lon="7.9996426"><ele>110.0</ele><time>2026-04-10T14:56:05.285Z</time></trkpt><trkpt lat="43.9534198" lon="7.9997313"><ele>110.0</ele><time>2026-04-10T14:56:06.285Z</time></trkpt><trkpt lat="43.9533716" lon="7.9998444"><ele>110.0</ele><time>2026-04-10T14:56:07.285Z</time></trkpt><trkpt lat="43.9533416" lon="7.9999596"><ele>109.99999999999999</ele><time>2026-04-10T14:56:08.286Z</time></trkpt><trkpt lat="43.9533484" lon="8.0000619"><ele>110.0</ele><time>2026-04-10T14:56:09.286Z</time></trkpt><trkpt lat="43.9533928" lon="8.0001402"><ele>109.99999999999999</ele><time>2026-04-10T14:56:10.286Z</time></trkpt><trkpt lat="43.9534615" lon="8.0001794"><ele>110.0</ele><time>2026-04-10T14:56:11.285Z</time></trkpt><trkpt lat="43.9535427" lon="8.0001914"><ele>110.0</ele><time>2026-04-10T14:56:12.287Z</time></trkpt><trkpt lat="43.9536356" lon="8.000198"><ele>110.0</ele><time>2026-04-10T14:56:13.286Z</time></trkpt><trkpt lat="43.9537271" lon="8.0001996"><ele>109.99999999999999</ele><time>2026-04-10T14:56:14.285Z</time></trkpt><trkpt lat="43.9538282" lon="8.0002201"><ele>110.0</ele><time>2026-04-10T14:56:15.285Z</time></trkpt><trkpt lat="43.9539298" lon="8.0002592"><ele>110.0</ele><time>2026-04-10T14:56:16.285Z</time></trkpt><trkpt lat="43.954037" lon="8.0002974"><ele>110.0</ele><time>2026-04-10T14:56:17.286Z</time></trkpt><trkpt lat="43.9541683" lon="8.0003441"><ele>110.0</ele><time>2026-04-10T14:56:18.285Z</time></trkpt><trkpt lat="43.9543038" lon="8.0003948"><ele>110.0</ele><time>2026-04-10T14:56:19.285Z</time></trkpt><trkpt lat="43.9544352" lon="8.0004352"><ele>113.0</ele><time>2026-04-10T14:56:20.285Z</time></trkpt><trkpt lat="43.9545628" lon="8.0004232"><ele>116.0</ele><time>2026-04-10T14:56:21.286Z</time></trkpt><trkpt lat="43.9546923" lon="8.0004038"><ele>119.0</ele><time>2026-04-10T14:56:22.285Z</time></trkpt><trkpt lat="43.9547988" lon="8.0003315"><ele>122.0</ele><time>2026-04-10T14:56:23.285Z</time></trkpt><trkpt lat="43.9549126" lon="8.000237"><ele>122.0</ele><time>2026-04-10T14:56:24.286Z</time></trkpt><trkpt lat="43.9550263" lon="8.0001253"><ele>122.0</ele><time>2026-04-10T14:56:25.285Z</time></trkpt><trkpt lat="43.9551351" lon="8.0000331"><ele>122.0</ele><time>2026-04-10T14:56:26.286Z</time></trkpt><trkpt lat="43.9552398" lon="7.9999538"><ele>122.0</ele><time>2026-04-10T14:56:27.286Z</time></trkpt><trkpt lat="43.9552996" lon="7.9998432"><ele>128.4</ele><time>2026-04-10T14:56:28.285Z</time></trkpt><trkpt lat="43.9553532" lon="7.9997252"><ele>134.79999999999998</ele><time>2026-04-10T14:56:29.286Z</time></trkpt><trkpt lat="43.9553765" lon="7.9995928"><ele>141.2</ele><time>2026-04-10T14:56:30.286Z</time></trkpt><trkpt lat="43.9553865" lon="7.9994565"><ele>147.6</ele><time>2026-04-10T14:56:31.287Z</time></trkpt><trkpt lat="43.9554175" lon="7.9993402"><ele>154.0</ele><time>2026-04-10T14:56:32.287Z</time></trkpt><trkpt lat="43.9554625" lon="7.9992305"><ele>150.8</ele><time>2026-04-10T14:56:33.285Z</time></trkpt><trkpt lat="43.9555284" lon="7.9991368"><ele>147.60000000000002</ele><time>2026-04-10T14:56:34.286Z</time></trkpt><trkpt lat="43.9556032" lon="7.9990579"><ele>144.4</ele><time>2026-04-10T14:56:35.286Z</time></trkpt><trkpt lat="43.955695" lon="7.9990114"><ele>141.20000000000002</ele><time>2026-04-10T14:56:36.285Z</time></trkpt><trkpt lat="43.9557891" lon="7.9989359"><ele>138.0</ele><time>2026-04-10T14:56:37.287Z</time></trkpt><trkpt lat="43.95585" lon="7.998829"><ele>145.2</ele><time>2026-04-10T14:56:38.286Z</time></trkpt><trkpt lat="43.9558801" lon="7.9987188"><ele>152.4</ele><time>2026-04-10T14:56:39.285Z</time></trkpt><trkpt lat="43.9559001" lon="7.9986065"><ele>159.6</ele><time>2026-04-10T14:56:40.285Z</time></trkpt><trkpt lat="43.9559849" lon="7.9985246"><ele>166.79999999999998</ele><time>2026-04-10T14:56:42.285Z</time></trkpt><trkpt lat="43.9560355" lon="7.9986101"><ele>174.0</ele><time>2026-04-10T14:56:44.287Z</time></trkpt><trkpt lat="43.9559994" lon="7.9987941"><ele>174.0</ele><time>2026-04-10T14:56:46.285Z</time></trkpt><trkpt lat="43.9559587" lon="7.9989244"><ele>174.0</ele><time>2026-04-10T14:56:47.286Z</time></trkpt><trkpt lat="43.9559151" lon="7.999054"><ele>174.0</ele><time>2026-04-10T14:56:48.285Z</time></trkpt><trkpt lat="43.9558444" lon="7.999161"><ele>174.0</ele><time>2026-04-10T14:56:49.286Z</time></trkpt><trkpt lat="43.9557709" lon="7.9992668"><ele>174.0</ele><time>2026-04-10T14:56:50.285Z</time></trkpt><trkpt lat="43.9557272" lon="7.9993963"><ele>169.0</ele><time>2026-04-10T14:56:51.287Z</time></trkpt><trkpt lat="43.9556896" lon="7.9995505"><ele>164.0</ele><time>2026-04-10T14:56:52.285Z</time></trkpt><trkpt lat="43.955665" lon="7.9997193"><ele>159.0</ele><time>2026-04-10T14:56:53.286Z</time></trkpt><trkpt lat="43.9556441" lon="7.9999099"><ele>154.0</ele><time>2026-04-10T14:56:54.286Z</time></trkpt><trkpt lat="43.9556197" lon="8.0001061"><ele>154.0</ele><time>2026-04-10T14:56:55.285Z</time></trkpt><trkpt lat="43.9555907" lon="8.0003042"><ele>154.0</ele><time>2026-04-10T14:56:56.285Z</time></trkpt><trkpt lat="43.9555539" lon="8.0005016"><ele>154.0</ele><time>2026-04-10T14:56:57.285Z</time></trkpt><trkpt lat="43.9555008" lon="8.0006895"><ele>154.0</ele><time>2026-04-10T14:56:58.285Z</time></trkpt><trkpt lat="43.9554455" lon="8.0008711"><ele>157.0</ele><time>2026-04-10T14:56:59.287Z</time></trkpt><trkpt lat="43.9553753" lon="8.0010303"><ele>160.0</ele><time>2026-04-10T14:57:00.285Z</time></trkpt><trkpt lat="43.9552971" lon="8.0011687"><ele>163.0</ele><time>2026-04-10T14:57:01.286Z</time></trkpt><trkpt lat="43.9552204" lon="8.0012802"><ele>166.0</ele><time>2026-04-10T14:57:02.285Z</time></trkpt><trkpt lat="43.9551269" lon="8.0013429"><ele>164.8</ele><time>2026-04-10T14:57:03.286Z</time></trkpt><trkpt lat="43.9550163" lon="8.0013881"><ele>163.60000000000002</ele><time>2026-04-10T14:57:04.285Z</time></trkpt><trkpt lat="43.9549116" lon="8.0014242"><ele>162.4</ele><time>2026-04-10T14:57:05.286Z</time></trkpt><trkpt lat="43.9548191" lon="8.001502"><ele>161.2</ele><time>2026-04-10T14:57:06.285Z</time></trkpt><trkpt lat="43.954742" lon="8.0016205"><ele>160.0</ele><time>2026-04-10T14:57:07.285Z</time></trkpt><trkpt lat="43.9546781" lon="8.0017715"><ele>160.0</ele><time>2026-04-10T14:57:08.287Z</time></trkpt><trkpt lat="43.9546351" lon="8.0019439"><ele>160.0</ele><time>2026-04-10T14:57:09.286Z</time></trkpt><trkpt lat="43.9546092" lon="8.0021293"><ele>160.0</ele><time>2026-04-10T14:57:10.287Z</time></trkpt><trkpt lat="43.9546028" lon="8.0023168"><ele>160.0</ele><time>2026-04-10T14:57:11.285Z</time></trkpt><trkpt lat="43.9546126" lon="8.0024963"><ele>162.5</ele><time>2026-04-10T14:57:12.285Z</time></trkpt><trkpt lat="43.954637" lon="8.0026535"><ele>165.0</ele><time>2026-04-10T14:57:13.287Z</time></trkpt><trkpt lat="43.9546848" lon="8.0028018"><ele>167.5</ele><time>2026-04-10T14:57:14.286Z</time></trkpt><trkpt lat="43.9547566" lon="8.0029426"><ele>170.0</ele><time>2026-04-10T14:57:15.285Z</time></trkpt><trkpt lat="43.9548475" lon="8.0030592"><ele>170.0</ele><time>2026-04-10T14:57:16.286Z</time></trkpt><trkpt lat="43.9549349" lon="8.0031507"><ele>170.0</ele><time>2026-04-10T14:57:17.285Z</time></trkpt><trkpt lat="43.9550253" lon="8.0031876"><ele>170.0</ele><time>2026-04-10T14:57:18.286Z</time></trkpt><trkpt lat="43.955121" lon="8.0031739"><ele>170.0</ele><time>2026-04-10T14:57:19.286Z</time></trkpt><trkpt lat="43.9552189" lon="8.0031372"><ele>170.0</ele><time>2026-04-10T14:57:20.285Z</time></trkpt><trkpt lat="43.9553101" lon="8.0031357"><ele>173.83333333333331</ele><time>2026-04-10T14:57:21.285Z</time></trkpt><trkpt lat="43.9553935" lon="8.0031827"><ele>177.66666666666666</ele><time>2026-04-10T14:57:22.286Z</time></trkpt><trkpt lat="43.9554612" lon="8.0032372"><ele>181.5</ele><time>2026-04-10T14:57:23.286Z</time></trkpt><trkpt lat="43.9555104" lon="8.0032934"><ele>185.33333333333331</ele><time>2026-04-10T14:57:24.285Z</time></trkpt><trkpt lat="43.9555734" lon="8.0033148"><ele>189.16666666666666</ele><time>2026-04-10T14:57:25.286Z</time></trkpt><trkpt lat="43.9556574" lon="8.0032277"><ele>193.0</ele><time>2026-04-10T14:57:27.286Z</time></trkpt><trkpt lat="43.9556636" lon="8.0031357"><ele>192.99999999999997</ele><time>2026-04-10T14:57:28.286Z</time></trkpt><trkpt lat="43.955643" lon="8.0030414"><ele>193.0</ele><time>2026-04-10T14:57:29.285Z</time></trkpt><trkpt lat="43.9555988" lon="8.0029608"><ele>193.0</ele><time>2026-04-10T14:57:30.285Z</time></trkpt><trkpt lat="43.9555526" lon="8.0028852"><ele>193.0</ele><time>2026-04-10T14:57:31.285Z</time></trkpt><trkpt lat="43.955516" lon="8.0028001"><ele>192.99999999999997</ele><time>2026-04-10T14:57:32.286Z</time></trkpt><trkpt lat="43.9554969" lon="8.0026818"><ele>193.0</ele><time>2026-04-10T14:57:33.287Z</time></trkpt><trkpt lat="43.9555053" lon="8.0025468"><ele>190.25</ele><time>2026-04-10T14:57:34.286Z</time></trkpt><trkpt lat="43.9555315" lon="8.0024012"><ele>187.5</ele><time>2026-04-10T14:57:35.287Z</time></trkpt><trkpt lat="43.9555672" lon="8.0022542"><ele>184.75</ele><time>2026-04-10T14:57:36.286Z</time></trkpt><trkpt lat="43.9556216" lon="8.0021013"><ele>182.0</ele><time>2026-04-10T14:57:37.286Z</time></trkpt><trkpt lat="43.9556892" lon="8.0019522"><ele>182.0</ele><time>2026-04-10T14:57:38.285Z</time></trkpt><trkpt lat="43.9557719" lon="8.0018272"><ele>182.0</ele><time>2026-04-10T14:57:39.286Z</time></trkpt><trkpt lat="43.9558599" lon="8.0017121"><ele>182.0</ele><time>2026-04-10T14:57:40.285Z</time></trkpt><trkpt lat="43.9559496" lon="8.0016192"><ele>182.0</ele><time>2026-04-10T14:57:41.285Z</time></trkpt><trkpt lat="43.9560384" lon="8.0015469"><ele>183.6</ele><time>2026-04-10T14:57:42.285Z</time></trkpt><trkpt lat="43.9561352" lon="8.0015804"><ele>185.2</ele><time>2026-04-10T14:57:43.285Z</time></trkpt><trkpt lat="43.9562264" lon="8.0015906"><ele>186.8</ele><time>2026-04-10T14:57:44.285Z</time></trkpt><trkpt lat="43.9563204" lon="8.001578"><ele>188.4</ele><time>2026-04-10T14:57:45.287Z</time></trkpt><trkpt lat="43.9564002" lon="8.0015238"><ele>190.0</ele><time>2026-04-10T14:57:46.286Z</time></trkpt><trkpt lat="43.9564521" lon="8.0014316"><ele>190.0</ele><time>2026-04-10T14:57:47.286Z</time></trkpt><trkpt lat="43.956505" lon="8.0013099"><ele>190.0</ele><time>2026-04-10T14:57:48.285Z</time></trkpt><trkpt lat="43.9565687" lon="8.0011805"><ele>190.0</ele><time>2026-04-10T14:57:49.286Z</time></trkpt><trkpt lat="43.9566696" lon="8.0010663"><ele>190.0</ele><time>2026-04-10T14:57:50.285Z</time></trkpt><trkpt lat="43.9567643" lon="8.0009439"><ele>194.75</ele><time>2026-04-10T14:57:51.285Z</time></trkpt><trkpt lat="43.956856" lon="8.0008013"><ele>199.5</ele><time>2026-04-10T14:57:52.285Z</time></trkpt><trkpt lat="43.9569332" lon="8.0006426"><ele>204.25</ele><time>2026-04-10T14:57:53.286Z</time></trkpt><trkpt lat="43.9570116" lon="8.0004819"><ele>209.0</ele><time>2026-04-10T14:57:54.286Z</time></trkpt><trkpt lat="43.9570799" lon="8.0002984"><ele>209.0</ele><time>2026-04-10T14:57:55.285Z</time></trkpt><trkpt lat="43.9571435" lon="8.0001438"><ele>209.0</ele><time>2026-04-10T14:57:56.287Z</time></trkpt><trkpt lat="43.9572143" lon="7.9999985"><ele>209.0</ele><time>2026-04-10T14:57:57.286Z</time></trkpt><trkpt lat="43.9573162" lon="7.9999034"><ele>209.0</ele><time>2026-04-10T14:57:58.287Z</time></trkpt><trkpt lat="43.9574197" lon="7.9998139"><ele>216.5</ele><time>2026-04-10T14:57:59.286Z</time></trkpt><trkpt lat="43.9575395" lon="7.9997484"><ele>224.0</ele><time>2026-04-10T14:58:00.286Z</time></trkpt><trkpt lat="43.9576415" lon="7.9996807"><ele>231.5</ele><time>2026-04-10T14:58:01.285Z</time></trkpt><trkpt lat="43.9577225" lon="7.9995891"><ele>239.0</ele><time>2026-04-10T14:58:02.286Z</time></trkpt><trkpt lat="43.957792" lon="7.9994762"><ele>239.0</ele><time>2026-04-10T14:58:03.286Z</time></trkpt><trkpt lat="43.9578598" lon="7.9993476"><ele>239.0</ele><time>2026-04-10T14:58:04.286Z</time></trkpt><trkpt lat="43.9579643" lon="7.9992446"><ele>239.0</ele><time>2026-04-10T14:58:05.285Z</time></trkpt><trkpt lat="43.9580609" lon="7.9991152"><ele>239.0</ele><time>2026-04-10T14:58:06.287Z</time></trkpt><trkpt lat="43.9581564" lon="7.998984"><ele>235.75</ele><time>2026-04-10T14:58:07.285Z</time></trkpt><trkpt lat="43.9582277" lon="7.9988321"><ele>232.5</ele><time>2026-04-10T14:58:08.285Z</time></trkpt><trkpt lat="43.9582954" lon="7.9986915"><ele>229.25</ele><time>2026-04-10T14:58:09.287Z</time></trkpt><trkpt lat="43.9583801" lon="7.9985934"><ele>226.0</ele><time>2026-04-10T14:58:10.287Z</time></trkpt><trkpt lat="43.9584767" lon="7.9984927"><ele>228.75</ele><time>2026-04-10T14:58:11.286Z</time></trkpt><trkpt lat="43.9586049" lon="7.9984148"><ele>231.5</ele><time>2026-04-10T14:58:12.285Z</time></trkpt><trkpt lat="43.9587313" lon="7.9983324"><ele>234.25</ele><time>2026-04-10T14:58:13.286Z</time></trkpt><trkpt lat="43.9588534" lon="7.9982689"><ele>237.0</ele><time>2026-04-10T14:58:14.285Z</time></trkpt><trkpt lat="43.9589739" lon="7.9982256"><ele>237.0</ele><time>2026-04-10T14:58:15.285Z</time></trkpt><trkpt lat="43.9591017" lon="7.998207"><ele>237.0</ele><time>2026-04-10T14:58:16.287Z</time></trkpt><trkpt lat="43.9592216" lon="7.9981914"><ele>237.0</ele><time>2026-04-10T14:58:17.286Z</time></trkpt><trkpt lat="43.9593285" lon="7.998151"><ele>237.0</ele><time>2026-04-10T14:58:18.287Z</time></trkpt><trkpt lat="43.9594102" lon="7.9980755"><ele>240.6</ele><time>2026-04-10T14:58:19.286Z</time></trkpt><trkpt lat="43.9594697" lon="7.9979637"><ele>244.2</ele><time>2026-04-10T14:58:20.286Z</time></trkpt><trkpt lat="43.9594933" lon="7.9978219"><ele>247.8</ele><time>2026-04-10T14:58:21.286Z</time></trkpt><trkpt lat="43.9595141" lon="7.9976781"><ele>251.4</ele><time>2026-04-10T14:58:22.288Z</time></trkpt><trkpt lat="43.9595311" lon="7.9975159"><ele>255.0</ele><time>2026-04-10T14:58:23.286Z</time></trkpt><trkpt lat="43.9595519" lon="7.9973464"><ele>255.0</ele><time>2026-04-10T14:58:24.287Z</time></trkpt><trkpt lat="43.9596017" lon="7.9971914"><ele>255.0</ele><time>2026-04-10T14:58:25.288Z</time></trkpt><trkpt lat="43.9596515" lon="7.9970249"><ele>255.0</ele><time>2026-04-10T14:58:26.285Z</time></trkpt><trkpt lat="43.9597314" lon="7.9968676"><ele>255.0</ele><time>2026-04-10T14:58:27.285Z</time></trkpt><trkpt lat="43.9598174" lon="7.9967151"><ele>258.5</ele><time>2026-04-10T14:58:28.286Z</time></trkpt><trkpt lat="43.9599157" lon="7.996587"><ele>262.0</ele><time>2026-04-10T14:58:29.286Z</time></trkpt><trkpt lat="43.9600277" lon="7.9964866"><ele>265.5</ele><time>2026-04-10T14:58:30.285Z</time></trkpt><trkpt lat="43.9601444" lon="7.9963959"><ele>269.0</ele><time>2026-04-10T14:58:31.285Z</time></trkpt><trkpt lat="43.9602603" lon="7.9963057"><ele>269.0</ele><time>2026-04-10T14:58:32.286Z</time></trkpt><trkpt lat="43.9603792" lon="7.9962242"><ele>269.0</ele><time>2026-04-10T14:58:33.287Z</time></trkpt><trkpt lat="43.9605002" lon="7.9961418"><ele>269.0</ele><time>2026-04-10T14:58:34.286Z</time></trkpt><trkpt lat="43.960618" lon="7.9960677"><ele>269.0</ele><time>2026-04-10T14:58:35.286Z</time></trkpt><trkpt lat="43.960731" lon="7.9960117"><ele>269.0</ele><time>2026-04-10T14:58:36.286Z</time></trkpt><trkpt lat="43.9608443" lon="7.9959507"><ele>269.0</ele><time>2026-04-10T14:58:37.285Z</time></trkpt><trkpt lat="43.9609406" lon="7.9958751"><ele>269.0</ele><time>2026-04-10T14:58:38.286Z</time></trkpt><trkpt lat="43.9610176" lon="7.9957684"><ele>269.0</ele><time>2026-04-10T14:58:39.287Z</time></trkpt><trkpt lat="43.9610666" lon="7.9956506"><ele>269.0</ele><time>2026-04-10T14:58:40.285Z</time></trkpt><trkpt lat="43.9611136" lon="7.9955297"><ele>265.59999999999997</ele><time>2026-04-10T14:58:41.286Z</time></trkpt><trkpt lat="43.9611523" lon="7.9953983"><ele>262.2</ele><time>2026-04-10T14:58:42.286Z</time></trkpt><trkpt lat="43.9612049" lon="7.9952868"><ele>258.79999999999995</ele><time>2026-04-10T14:58:43.285Z</time></trkpt><trkpt lat="43.9612695" lon="7.9952055"><ele>255.39999999999998</ele><time>2026-04-10T14:58:44.287Z</time></trkpt><trkpt lat="43.9613695" lon="7.9951894"><ele>252.0</ele><time>2026-04-10T14:58:45.286Z</time></trkpt><trkpt lat="43.9614609" lon="7.9951733"><ele>252.0</ele><time>2026-04-10T14:58:46.285Z</time></trkpt><trkpt lat="43.9615546" lon="7.9951985"><ele>252.0</ele><time>2026-04-10T14:58:47.286Z</time></trkpt><trkpt lat="43.9616381" lon="7.9952193"><ele>252.0</ele><time>2026-04-10T14:58:48.285Z</time></trkpt><trkpt lat="43.9617064" lon="7.9952729"><ele>252.0</ele><time>2026-04-10T14:58:49.287Z</time></trkpt><trkpt lat="43.9617713" lon="7.9953446"><ele>252.0</ele><time>2026-04-10T14:58:50.286Z</time></trkpt><trkpt lat="43.9618102" lon="7.9954419"><ele>252.0</ele><time>2026-04-10T14:58:51.286Z</time></trkpt><trkpt lat="43.9618147" lon="7.9955875"><ele>251.25</ele><time>2026-04-10T14:58:52.286Z</time></trkpt><trkpt lat="43.9618087" lon="7.9957316"><ele>250.5</ele><time>2026-04-10T14:58:53.286Z</time></trkpt><trkpt lat="43.9617812" lon="7.9958859"><ele>249.75</ele><time>2026-04-10T14:58:54.286Z</time></trkpt><trkpt lat="43.9617488" lon="7.996046"><ele>249.0</ele><time>2026-04-10T14:58:55.286Z</time></trkpt><trkpt lat="43.9617048" lon="7.9962272"><ele>252.5</ele><time>2026-04-10T14:58:56.286Z</time></trkpt><trkpt lat="43.9616584" lon="7.9964171"><ele>256.0</ele><time>2026-04-10T14:58:57.286Z</time></trkpt><trkpt lat="43.9616171" lon="7.9966056"><ele>259.5</ele><time>2026-04-10T14:58:58.286Z</time></trkpt><trkpt lat="43.9615727" lon="7.9967891"><ele>263.0</ele><time>2026-04-10T14:58:59.285Z</time></trkpt><trkpt lat="43.961527" lon="7.996963"><ele>263.0</ele><time>2026-04-10T14:59:00.285Z</time></trkpt><trkpt lat="43.9614773" lon="7.9971432"><ele>263.0</ele><time>2026-04-10T14:59:01.285Z</time></trkpt><trkpt lat="43.9614314" lon="7.9973316"><ele>263.0</ele><time>2026-04-10T14:59:02.287Z</time></trkpt><trkpt lat="43.961393" lon="7.9975269"><ele>263.0</ele><time>2026-04-10T14:59:03.286Z</time></trkpt><trkpt lat="43.9613552" lon="7.9977218"><ele>263.25</ele><time>2026-04-10T14:59:04.285Z</time></trkpt><trkpt lat="43.9613339" lon="7.9979093"><ele>263.5</ele><time>2026-04-10T14:59:05.285Z</time></trkpt><trkpt lat="43.9613233" lon="7.9980831"><ele>263.75</ele><time>2026-04-10T14:59:06.286Z</time></trkpt><trkpt lat="43.9613317" lon="7.9982447"><ele>264.0</ele><time>2026-04-10T14:59:07.287Z</time></trkpt><trkpt lat="43.961355" lon="7.998392"><ele>265.0</ele><time>2026-04-10T14:59:08.286Z</time></trkpt><trkpt lat="43.9614222" lon="7.9985132"><ele>266.0</ele><time>2026-04-10T14:59:09.286Z</time></trkpt><trkpt lat="43.9615227" lon="7.9986317"><ele>267.0</ele><time>2026-04-10T14:59:10.286Z</time></trkpt><trkpt lat="43.9616258" lon="7.9987503"><ele>268.0</ele><time>2026-04-10T14:59:11.286Z</time></trkpt><trkpt lat="43.9617333" lon="7.9988753"><ele>268.0</ele><time>2026-04-10T14:59:12.285Z</time></trkpt><trkpt lat="43.9618544" lon="7.9990153"><ele>268.0</ele><time>2026-04-10T14:59:13.285Z</time></trkpt><trkpt lat="43.9619867" lon="7.9991613"><ele>268.0</ele><time>2026-04-10T14:59:14.287Z</time></trkpt><trkpt lat="43.9621167" lon="7.9993004"><ele>272.66666666666663</ele><time>2026-04-10T14:59:15.287Z</time></trkpt><trkpt lat="43.9622399" lon="7.9994332"><ele>277.3333333333333</ele><time>2026-04-10T14:59:16.286Z</time></trkpt><trkpt lat="43.962366" lon="7.9995738"><ele>282.0</ele><time>2026-04-10T14:59:17.286Z</time></trkpt><trkpt lat="43.962481" lon="7.9997185"><ele>280.5</ele><time>2026-04-10T14:59:18.285Z</time></trkpt><trkpt lat="43.9625957" lon="7.9998492"><ele>279.0</ele><time>2026-04-10T14:59:19.285Z</time></trkpt><trkpt lat="43.9627056" lon="7.9999653"><ele>277.5</ele><time>2026-04-10T14:59:20.286Z</time></trkpt><trkpt lat="43.9628114" lon="8.0000626"><ele>276.0</ele><time>2026-04-10T14:59:21.286Z</time></trkpt><trkpt lat="43.9629204" lon="8.0001378"><ele>276.0</ele><time>2026-04-10T14:59:22.286Z</time></trkpt><trkpt lat="43.9630278" lon="8.0001276"><ele>276.0</ele><time>2026-04-10T14:59:23.285Z</time></trkpt><trkpt lat="43.9631252" lon="8.0000564"><ele>276.0</ele><time>2026-04-10T14:59:24.286Z</time></trkpt><trkpt lat="43.963209" lon="7.9999683"><ele>276.0</ele><time>2026-04-10T14:59:25.286Z</time></trkpt><trkpt lat="43.9632724" lon="7.9998458"><ele>276.0</ele><time>2026-04-10T14:59:26.286Z</time></trkpt><trkpt lat="43.9633157" lon="7.9996948"><ele>276.0</ele><time>2026-04-10T14:59:27.286Z</time></trkpt><trkpt lat="43.9633458" lon="7.9995314"><ele>276.0</ele><time>2026-04-10T14:59:28.285Z</time></trkpt><trkpt lat="43.9633544" lon="7.9993452"><ele>276.0</ele><time>2026-04-10T14:59:29.286Z</time></trkpt><trkpt lat="43.9633511" lon="7.9991543"><ele>276.0</ele><time>2026-04-10T14:59:30.285Z</time></trkpt><trkpt lat="43.9633372" lon="7.9989679"><ele>275.25</ele><time>2026-04-10T14:59:31.287Z</time></trkpt><trkpt lat="43.963326" lon="7.9987803"><ele>274.5</ele><time>2026-04-10T14:59:32.287Z</time></trkpt><trkpt lat="43.9633193" lon="7.998603"><ele>273.75</ele><time>2026-04-10T14:59:33.285Z</time></trkpt><trkpt lat="43.9633326" lon="7.9984349"><ele>273.0</ele><time>2026-04-10T14:59:34.287Z</time></trkpt><trkpt lat="43.9633787" lon="7.9983008"><ele>274.0</ele><time>2026-04-10T14:59:35.286Z</time></trkpt><trkpt lat="43.9634418" lon="7.998206"><ele>275.0</ele><time>2026-04-10T14:59:36.286Z</time></trkpt><trkpt lat="43.9635052" lon="7.9981366"><ele>276.0</ele><time>2026-04-10T14:59:37.285Z</time></trkpt><trkpt lat="43.9635868" lon="7.998099"><ele>277.0</ele><time>2026-04-10T14:59:38.286Z</time></trkpt><trkpt lat="43.9636702" lon="7.9980655"><ele>278.0</ele><time>2026-04-10T14:59:39.286Z</time></trkpt><trkpt lat="43.9637562" lon="7.9980376"><ele>279.0</ele><time>2026-04-10T14:59:40.285Z</time></trkpt><trkpt lat="43.9638315" lon="7.998002"><ele>279.0</ele><time>2026-04-10T14:59:41.285Z</time></trkpt><trkpt lat="43.9639099" lon="7.9979695"><ele>279.0</ele><time>2026-04-10T14:59:42.287Z</time></trkpt><trkpt lat="43.9639912" lon="7.997922"><ele>279.0</ele><time>2026-04-10T14:59:43.287Z</time></trkpt><trkpt lat="43.9640628" lon="7.9978888"><ele>279.0</ele><time>2026-04-10T14:59:44.285Z</time></trkpt><trkpt lat="43.9641252" lon="7.9978634"><ele>279.0</ele><time>2026-04-10T14:59:45.287Z</time></trkpt><trkpt lat="43.9642153" lon="7.9979262"><ele>279.0</ele><time>2026-04-10T14:59:47.285Z</time></trkpt><trkpt lat="43.9642659" lon="7.9979841"><ele>279.4</ele><time>2026-04-10T14:59:48.285Z</time></trkpt><trkpt lat="43.964332" lon="7.9980661"><ele>279.79999999999995</ele><time>2026-04-10T14:59:49.286Z</time></trkpt><trkpt lat="43.964397" lon="7.9981585"><ele>280.20000000000005</ele><time>2026-04-10T14:59:50.285Z</time></trkpt><trkpt lat="43.9644771" lon="7.9982524"><ele>280.6</ele><time>2026-04-10T14:59:51.286Z</time></trkpt><trkpt lat="43.9645616" lon="7.9983305"><ele>281.0</ele><time>2026-04-10T14:59:52.285Z</time></trkpt><trkpt lat="43.9646629" lon="7.9983933"><ele>281.0</ele><time>2026-04-10T14:59:53.287Z</time></trkpt><trkpt lat="43.9647696" lon="7.9984436"><ele>281.0</ele><time>2026-04-10T14:59:54.286Z</time></trkpt><trkpt lat="43.9648745" lon="7.9984875"><ele>281.0</ele><time>2026-04-10T14:59:55.287Z</time></trkpt><trkpt lat="43.9649683" lon="7.9985359"><ele>281.0</ele><time>2026-04-10T14:59:56.285Z</time></trkpt><trkpt lat="43.9650647" lon="7.9985821"><ele>281.0</ele><time>2026-04-10T14:59:57.287Z</time></trkpt><trkpt lat="43.9651534" lon="7.9986447"><ele>276.40000000000003</ele><time>2026-04-10T14:59:58.286Z</time></trkpt><trkpt lat="43.9652451" lon="7.9987294"><ele>271.8</ele><time>2026-04-10T14:59:59.285Z</time></trkpt><trkpt lat="43.9653322" lon="7.9988122"><ele>267.20000000000005</ele><time>2026-04-10T15:00:00.286Z</time></trkpt><trkpt lat="43.9654247" lon="7.9988383"><ele>262.6</ele><time>2026-04-10T15:00:01.286Z</time></trkpt><trkpt lat="43.9655178" lon="7.9988544"><ele>258.0</ele><time>2026-04-10T15:00:02.286Z</time></trkpt><trkpt lat="43.9656198" lon="7.9988868"><ele>258.0</ele><time>2026-04-10T15:00:03.286Z</time></trkpt><trkpt lat="43.9656952" lon="7.9989296"><ele>258.0</ele><time>2026-04-10T15:00:04.288Z</time></trkpt><trkpt lat="43.9657566" lon="7.9989823"><ele>258.0</ele><time>2026-04-10T15:00:05.286Z</time></trkpt><trkpt lat="43.9657702" lon="7.9990699"><ele>258.0</ele><time>2026-04-10T15:00:06.286Z</time></trkpt><trkpt lat="43.965823" lon="7.9991426"><ele>258.0</ele><time>2026-04-10T15:00:07.285Z</time></trkpt><trkpt lat="43.9659042" lon="7.9992369"><ele>258.0</ele><time>2026-04-10T15:00:08.286Z</time></trkpt><trkpt lat="43.9659907" lon="7.9993231"><ele>258.6</ele><time>2026-04-10T15:00:09.287Z</time></trkpt><trkpt lat="43.9660716" lon="7.999413"><ele>259.20000000000005</ele><time>2026-04-10T15:00:10.286Z</time></trkpt><trkpt lat="43.9661531" lon="7.999505"><ele>259.8</ele><time>2026-04-10T15:00:11.287Z</time></trkpt><trkpt lat="43.9662346" lon="7.9995932"><ele>260.40000000000003</ele><time>2026-04-10T15:00:12.286Z</time></trkpt><trkpt lat="43.9663107" lon="7.9996536"><ele>261.0</ele><time>2026-04-10T15:00:13.287Z</time></trkpt><trkpt lat="43.9663866" lon="7.9996923"><ele>261.0</ele><time>2026-04-10T15:00:14.287Z</time></trkpt><trkpt lat="43.9664646" lon="7.9997306"><ele>261.0</ele><time>2026-04-10T15:00:15.285Z</time></trkpt><trkpt lat="43.9665433" lon="7.9997887"><ele>261.0</ele><time>2026-04-10T15:00:16.286Z</time></trkpt><trkpt lat="43.9666249" lon="7.9998704"><ele>261.0</ele><time>2026-04-10T15:00:17.286Z</time></trkpt><trkpt lat="43.9667082" lon="7.999947"><ele>261.0</ele><time>2026-04-10T15:00:18.285Z</time></trkpt><trkpt lat="43.9667842" lon="7.9999992"><ele>261.2</ele><time>2026-04-10T15:00:19.286Z</time></trkpt><trkpt lat="43.9668603" lon="8.0000222"><ele>261.40000000000003</ele><time>2026-04-10T15:00:20.285Z</time></trkpt><trkpt lat="43.9669337" lon="8.0000328"><ele>261.6</ele><time>2026-04-10T15:00:21.286Z</time></trkpt><trkpt lat="43.9670445" lon="8.0000159"><ele>261.8</ele><time>2026-04-10T15:00:23.286Z</time></trkpt><trkpt lat="43.9671293" lon="7.9998876"><ele>262.0</ele><time>2026-04-10T15:00:25.285Z</time></trkpt><trkpt lat="43.9671527" lon="7.999744"><ele>262.0</ele><time>2026-04-10T15:00:27.286Z</time></trkpt><trkpt lat="43.9671249" lon="7.9996533"><ele>262.0</ele><time>2026-04-10T15:00:28.285Z</time></trkpt><trkpt lat="43.9670923" lon="7.9995478"><ele>262.0</ele><time>2026-04-10T15:00:29.285Z</time></trkpt><trkpt lat="43.9670622" lon="7.9994334"><ele>262.0</ele><time>2026-04-10T15:00:30.287Z</time></trkpt><trkpt lat="43.9670247" lon="7.9993428"><ele>262.0</ele><time>2026-04-10T15:00:31.285Z</time></trkpt><trkpt lat="43.9669804" lon="7.9992673"><ele>262.0</ele><time>2026-04-10T15:00:32.287Z</time></trkpt><trkpt lat="43.9669795" lon="7.999164"><ele>262.0</ele><time>2026-04-10T15:00:34.286Z</time></trkpt><trkpt lat="43.9670566" lon="7.9990902"><ele>262.0</ele><time>2026-04-10T15:00:36.288Z</time></trkpt><trkpt lat="43.9671233" lon="7.9990778"><ele>262.0</ele><time>2026-04-10T15:00:37.286Z</time></trkpt><trkpt lat="43.9671902" lon="7.9990925"><ele>262.0</ele><time>2026-04-10T15:00:38.286Z</time></trkpt><trkpt lat="43.9672461" lon="7.9991582"><ele>262.0</ele><time>2026-04-10T15:00:39.285Z</time></trkpt><trkpt lat="43.9673116" lon="7.9992377"><ele>262.0</ele><time>2026-04-10T15:00:40.285Z</time></trkpt><trkpt lat="43.9673757" lon="7.9992948"><ele>262.0</ele><time>2026-04-10T15:00:41.286Z</time></trkpt><trkpt lat="43.9674894" lon="7.9992733"><ele>262.0</ele><time>2026-04-10T15:00:43.286Z</time></trkpt><trkpt lat="43.9675644" lon="7.99917"><ele>262.0</ele><time>2026-04-10T15:00:45.286Z</time></trkpt><trkpt lat="43.9675654" lon="7.9990345"><ele>262.0</ele><time>2026-04-10T15:00:46.286Z</time></trkpt><trkpt lat="43.9675824" lon="7.9989302"><ele>262.0</ele><time>2026-04-10T15:00:47.287Z</time></trkpt><trkpt lat="43.9676166" lon="7.9988267"><ele>264.3333333333333</ele><time>2026-04-10T15:00:48.285Z</time></trkpt><trkpt lat="43.9676744" lon="7.9987291"><ele>266.66666666666663</ele><time>2026-04-10T15:00:49.285Z</time></trkpt><trkpt lat="43.9677395" lon="7.9986282"><ele>269.0</ele><time>2026-04-10T15:00:50.287Z</time></trkpt><trkpt lat="43.9677874" lon="7.9985484"><ele>271.3333333333333</ele><time>2026-04-10T15:00:51.286Z</time></trkpt><trkpt lat="43.9678117" lon="7.998466"><ele>273.6666666666667</ele><time>2026-04-10T15:00:52.287Z</time></trkpt><trkpt lat="43.9678131" lon="7.9983096"><ele>276.0</ele><time>2026-04-10T15:00:54.287Z</time></trkpt><trkpt lat="43.9677618" lon="7.9981941"><ele>276.0</ele><time>2026-04-10T15:00:55.285Z</time></trkpt><trkpt lat="43.9677353" lon="7.9980829"><ele>276.0</ele><time>2026-04-10T15:00:56.286Z</time></trkpt><trkpt lat="43.9677283" lon="7.9979789"><ele>276.0</ele><time>2026-04-10T15:00:57.285Z</time></trkpt><trkpt lat="43.967737" lon="7.9978686"><ele>276.0</ele><time>2026-04-10T15:00:58.287Z</time></trkpt><trkpt lat="43.9677595" lon="7.9977625"><ele>276.0</ele><time>2026-04-10T15:00:59.286Z</time></trkpt><trkpt lat="43.967795" lon="7.9976406"><ele>276.0</ele><time>2026-04-10T15:01:00.286Z</time></trkpt><trkpt lat="43.9678409" lon="7.9975075"><ele>276.2</ele><time>2026-04-10T15:01:01.287Z</time></trkpt><trkpt lat="43.9678816" lon="7.997395"><ele>276.40000000000003</ele><time>2026-04-10T15:01:02.286Z</time></trkpt><trkpt lat="43.9679336" lon="7.9972684"><ele>276.6</ele><time>2026-04-10T15:01:03.287Z</time></trkpt><trkpt lat="43.9679842" lon="7.9971216"><ele>276.8</ele><time>2026-04-10T15:01:04.286Z</time></trkpt><trkpt lat="43.968031" lon="7.9969779"><ele>277.0</ele><time>2026-04-10T15:01:05.285Z</time></trkpt><trkpt lat="43.9680722" lon="7.996845"><ele>277.0</ele><time>2026-04-10T15:01:06.287Z</time></trkpt><trkpt lat="43.9680918" lon="7.996699"><ele>277.0</ele><time>2026-04-10T15:01:07.287Z</time></trkpt><trkpt lat="43.9681103" lon="7.9965441"><ele>277.0</ele><time>2026-04-10T15:01:08.287Z</time></trkpt><trkpt lat="43.9681388" lon="7.9964"><ele>277.0</ele><time>2026-04-10T15:01:09.287Z</time></trkpt><trkpt lat="43.9681484" lon="7.9962434"><ele>277.0</ele><time>2026-04-10T15:01:10.285Z</time></trkpt><trkpt lat="43.9681502" lon="7.9961202"><ele>276.6</ele><time>2026-04-10T15:01:11.286Z</time></trkpt><trkpt lat="43.9681337" lon="7.9959998"><ele>276.2</ele><time>2026-04-10T15:01:12.287Z</time></trkpt><trkpt lat="43.9681019" lon="7.9958689"><ele>275.8</ele><time>2026-04-10T15:01:13.286Z</time></trkpt><trkpt lat="43.9680582" lon="7.9957426"><ele>275.4</ele><time>2026-04-10T15:01:14.287Z</time></trkpt><trkpt lat="43.9680186" lon="7.9956177"><ele>275.0</ele><time>2026-04-10T15:01:15.288Z</time></trkpt><trkpt lat="43.967981" lon="7.9954774"><ele>275.0</ele><time>2026-04-10T15:01:16.287Z</time></trkpt><trkpt lat="43.9679443" lon="7.9953338"><ele>275.0</ele><time>2026-04-10T15:01:17.287Z</time></trkpt><trkpt lat="43.967897" lon="7.9952235"><ele>275.0</ele><time>2026-04-10T15:01:18.286Z</time></trkpt><trkpt lat="43.9678363" lon="7.9951265"><ele>275.0</ele><time>2026-04-10T15:01:19.287Z</time></trkpt><trkpt lat="43.9677986" lon="7.9950229"><ele>275.0</ele><time>2026-04-10T15:01:20.285Z</time></trkpt><trkpt lat="43.9677593" lon="7.9948823"><ele>278.25</ele><time>2026-04-10T15:01:21.285Z</time></trkpt><trkpt lat="43.9677332" lon="7.9947172"><ele>281.5</ele><time>2026-04-10T15:01:22.286Z</time></trkpt><trkpt lat="43.9677112" lon="7.9945377"><ele>284.75</ele><time>2026-04-10T15:01:23.286Z</time></trkpt><trkpt lat="43.9676824" lon="7.9943455"><ele>288.0</ele><time>2026-04-10T15:01:24.287Z</time></trkpt><trkpt lat="43.9676555" lon="7.994145"><ele>292.25</ele><time>2026-04-10T15:01:25.285Z</time></trkpt><trkpt lat="43.9676217" lon="7.9939948"><ele>296.5</ele><time>2026-04-10T15:01:26.286Z</time></trkpt><trkpt lat="43.9675792" lon="7.9938406"><ele>300.75</ele><time>2026-04-10T15:01:27.286Z</time></trkpt><trkpt lat="43.9675195" lon="7.9936948"><ele>305.0</ele><time>2026-04-10T15:01:28.286Z</time></trkpt><trkpt lat="43.9674564" lon="7.9935614"><ele>299.8</ele><time>2026-04-10T15:01:29.285Z</time></trkpt><trkpt lat="43.9674022" lon="7.9934189"><ele>294.6</ele><time>2026-04-10T15:01:30.288Z</time></trkpt><trkpt lat="43.967357" lon="7.9932786"><ele>289.4</ele><time>2026-04-10T15:01:31.285Z</time></trkpt><trkpt lat="43.9673447" lon="7.9931352"><ele>284.2</ele><time>2026-04-10T15:01:32.288Z</time></trkpt><trkpt lat="43.9673512" lon="7.9929901"><ele>279.0</ele><time>2026-04-10T15:01:33.285Z</time></trkpt><trkpt lat="43.9673608" lon="7.9928595"><ele>279.0</ele><time>2026-04-10T15:01:34.286Z</time></trkpt><trkpt lat="43.9673733" lon="7.992709"><ele>279.0</ele><time>2026-04-10T15:01:35.287Z</time></trkpt><trkpt lat="43.967386" lon="7.992529"><ele>279.0</ele><time>2026-04-10T15:01:36.286Z</time></trkpt><trkpt lat="43.9673908" lon="7.9923678"><ele>279.0</ele><time>2026-04-10T15:01:37.286Z</time></trkpt><trkpt lat="43.9673905" lon="7.9921962"><ele>280.0</ele><time>2026-04-10T15:01:38.286Z</time></trkpt><trkpt lat="43.9673851" lon="7.9920377"><ele>281.0</ele><time>2026-04-10T15:01:39.286Z</time></trkpt><trkpt lat="43.967366" lon="7.9918985"><ele>282.0</ele><time>2026-04-10T15:01:40.285Z</time></trkpt><trkpt lat="43.9673287" lon="7.9917883"><ele>283.0</ele><time>2026-04-10T15:01:41.287Z</time></trkpt><trkpt lat="43.9673022" lon="7.9916861"><ele>284.0</ele><time>2026-04-10T15:01:42.287Z</time></trkpt><trkpt lat="43.9672797" lon="7.9915848"><ele>285.0</ele><time>2026-04-10T15:01:43.286Z</time></trkpt><trkpt lat="43.9673032" lon="7.9914816"><ele>286.0</ele><time>2026-04-10T15:01:44.287Z</time></trkpt><trkpt lat="43.967322" lon="7.9913701"><ele>287.0</ele><time>2026-04-10T15:01:45.286Z</time></trkpt><trkpt lat="43.9673254" lon="7.9912693"><ele>288.0</ele><time>2026-04-10T15:01:46.285Z</time></trkpt><trkpt lat="43.9673322" lon="7.9911778"><ele>289.0</ele><time>2026-04-10T15:01:47.285Z</time></trkpt><trkpt lat="43.9673623" lon="7.9910876"><ele>290.0</ele><time>2026-04-10T15:01:48.287Z</time></trkpt><trkpt lat="43.9674132" lon="7.99099"><ele>290.0</ele><time>2026-04-10T15:01:49.286Z</time></trkpt><trkpt lat="43.9674879" lon="7.9908927"><ele>290.0</ele><time>2026-04-10T15:01:50.286Z</time></trkpt><trkpt lat="43.9675967" lon="7.9907963"><ele>290.0</ele><time>2026-04-10T15:01:51.288Z</time></trkpt><trkpt lat="43.9677089" lon="7.9906785"><ele>290.0</ele><time>2026-04-10T15:01:52.286Z</time></trkpt><trkpt lat="43.9678126" lon="7.9905747"><ele>293.75</ele><time>2026-04-10T15:01:53.286Z</time></trkpt><trkpt lat="43.9679248" lon="7.9904856"><ele>297.5</ele><time>2026-04-10T15:01:54.285Z</time></trkpt><trkpt lat="43.9680488" lon="7.9904132"><ele>301.25</ele><time>2026-04-10T15:01:55.285Z</time></trkpt><trkpt lat="43.9681884" lon="7.9903432"><ele>305.0</ele><time>2026-04-10T15:01:56.287Z</time></trkpt><trkpt lat="43.9683394" lon="7.9902627"><ele>305.0</ele><time>2026-04-10T15:01:57.285Z</time></trkpt><trkpt lat="43.9684727" lon="7.9901734"><ele>305.0</ele><time>2026-04-10T15:01:58.286Z</time></trkpt><trkpt lat="43.9685985" lon="7.9900876"><ele>305.0</ele><time>2026-04-10T15:01:59.287Z</time></trkpt><trkpt lat="43.9686848" lon="7.9899933"><ele>305.0</ele><time>2026-04-10T15:02:00.286Z</time></trkpt><trkpt lat="43.9687832" lon="7.9899264"><ele>305.0</ele><time>2026-04-10T15:02:01.286Z</time></trkpt><trkpt lat="43.9688794" lon="7.9898617"><ele>305.0</ele><time>2026-04-10T15:02:02.285Z</time></trkpt><trkpt lat="43.9689729" lon="7.9898181"><ele>305.0</ele><time>2026-04-10T15:02:03.287Z</time></trkpt><trkpt lat="43.9691012" lon="7.9898241"><ele>305.0</ele><time>2026-04-10T15:02:04.286Z</time></trkpt><trkpt lat="43.9692148" lon="7.9897898"><ele>306.8</ele><time>2026-04-10T15:02:05.287Z</time></trkpt><trkpt lat="43.9693271" lon="7.9897579"><ele>308.6</ele><time>2026-04-10T15:02:06.286Z</time></trkpt><trkpt lat="43.9694293" lon="7.9897488"><ele>310.4</ele><time>2026-04-10T15:02:07.285Z</time></trkpt><trkpt lat="43.9695284" lon="7.9897416"><ele>312.2</ele><time>2026-04-10T15:02:08.287Z</time></trkpt><trkpt lat="43.9696156" lon="7.9896951"><ele>314.0</ele><time>2026-04-10T15:02:09.286Z</time></trkpt><trkpt lat="43.9697071" lon="7.9896537"><ele>314.0</ele><time>2026-04-10T15:02:10.286Z</time></trkpt><trkpt lat="43.9698263" lon="7.989619"><ele>314.0</ele><time>2026-04-10T15:02:11.287Z</time></trkpt><trkpt lat="43.9699244" lon="7.989596"><ele>314.0</ele><time>2026-04-10T15:02:12.285Z</time></trkpt><trkpt lat="43.9700104" lon="7.9895757"><ele>314.0</ele><time>2026-04-10T15:02:13.286Z</time></trkpt><trkpt lat="43.9701079" lon="7.9895592"><ele>314.0</ele><time>2026-04-10T15:02:14.286Z</time></trkpt><trkpt lat="43.9702001" lon="7.9895496"><ele>315.6</ele><time>2026-04-10T15:02:15.287Z</time></trkpt><trkpt lat="43.9702862" lon="7.9895512"><ele>317.2</ele><time>2026-04-10T15:02:16.287Z</time></trkpt><trkpt lat="43.9703758" lon="7.9895684"><ele>318.8</ele><time>2026-04-10T15:02:17.287Z</time></trkpt><trkpt lat="43.9704809" lon="7.9895857"><ele>320.40000000000003</ele><time>2026-04-10T15:02:18.285Z</time></trkpt><trkpt lat="43.9705943" lon="7.9896025"><ele>322.0</ele><time>2026-04-10T15:02:19.286Z</time></trkpt><trkpt lat="43.9707102" lon="7.9895913"><ele>322.0</ele><time>2026-04-10T15:02:20.286Z</time></trkpt><trkpt lat="43.9708551" lon="7.9895949"><ele>322.0</ele><time>2026-04-10T15:02:21.287Z</time></trkpt><trkpt lat="43.9710085" lon="7.9896352"><ele>322.0</ele><time>2026-04-10T15:02:22.288Z</time></trkpt><trkpt lat="43.971141" lon="7.9896689"><ele>322.0</ele><time>2026-04-10T15:02:23.287Z</time></trkpt><trkpt lat="43.9712477" lon="7.9896694"><ele>323.16666666666663</ele><time>2026-04-10T15:02:24.286Z</time></trkpt><trkpt lat="43.9713474" lon="7.9896362"><ele>324.3333333333333</ele><time>2026-04-10T15:02:25.286Z</time></trkpt><trkpt lat="43.9714478" lon="7.989592"><ele>325.5</ele><time>2026-04-10T15:02:26.285Z</time></trkpt><trkpt lat="43.9715312" lon="7.9895708"><ele>326.6666666666667</ele><time>2026-04-10T15:02:27.286Z</time></trkpt><trkpt lat="43.9716023" lon="7.9895624"><ele>327.83333333333337</ele><time>2026-04-10T15:02:28.287Z</time></trkpt><trkpt lat="43.9716682" lon="7.989589"><ele>329.0</ele><time>2026-04-10T15:03:05.287Z</time></trkpt><trkpt lat="43.9715827" lon="7.9895372"><ele>329.0</ele><time>2026-04-10T15:03:11.285Z</time></trkpt><trkpt lat="43.9715089" lon="7.9895542"><ele>329.0</ele><time>2026-04-10T15:03:12.287Z</time></trkpt><trkpt lat="43.9714272" lon="7.9895816"><ele>329.0</ele><time>2026-04-10T15:03:13.287Z</time></trkpt><trkpt lat="43.9713396" lon="7.9896167"><ele>329.0</ele><time>2026-04-10T15:03:14.288Z</time></trkpt><trkpt lat="43.9712463" lon="7.9896516"><ele>329.0</ele><time>2026-04-10T15:03:15.287Z</time></trkpt><trkpt lat="43.971151" lon="7.9896613"><ele>329.0</ele><time>2026-04-10T15:03:16.287Z</time></trkpt><trkpt lat="43.971055" lon="7.9896514"><ele>329.0</ele><time>2026-04-10T15:03:17.286Z</time></trkpt><trkpt lat="43.9709564" lon="7.9896163"><ele>329.0</ele><time>2026-04-10T15:03:18.285Z</time></trkpt><trkpt lat="43.9708592" lon="7.9896077"><ele>329.0</ele><time>2026-04-10T15:03:19.286Z</time></trkpt><trkpt lat="43.9707583" lon="7.9896003"><ele>329.0</ele><time>2026-04-10T15:03:20.287Z</time></trkpt><trkpt lat="43.9706592" lon="7.9896095"><ele>329.0</ele><time>2026-04-10T15:03:21.287Z</time></trkpt><trkpt lat="43.9705651" lon="7.9896126"><ele>327.83333333333337</ele><time>2026-04-10T15:03:22.286Z</time></trkpt><trkpt lat="43.9704834" lon="7.9896059"><ele>326.6666666666667</ele><time>2026-04-10T15:03:23.286Z</time></trkpt><trkpt lat="43.9703982" lon="7.9895776"><ele>325.5</ele><time>2026-04-10T15:03:24.285Z</time></trkpt><trkpt lat="43.9703167" lon="7.989553"><ele>324.3333333333333</ele><time>2026-04-10T15:03:25.286Z</time></trkpt><trkpt lat="43.9702294" lon="7.9895465"><ele>323.16666666666663</ele><time>2026-04-10T15:03:26.286Z</time></trkpt><trkpt lat="43.9701366" lon="7.9895611"><ele>322.0</ele><time>2026-04-10T15:03:27.286Z</time></trkpt><trkpt lat="43.9700351" lon="7.989584"><ele>320.66666666666663</ele><time>2026-04-10T15:03:28.287Z</time></trkpt><trkpt lat="43.9699312" lon="7.9896059"><ele>319.3333333333333</ele><time>2026-04-10T15:03:29.286Z</time></trkpt><trkpt lat="43.9698364" lon="7.9896298"><ele>318.0</ele><time>2026-04-10T15:03:30.287Z</time></trkpt><trkpt lat="43.9697538" lon="7.9896218"><ele>316.6666666666667</ele><time>2026-04-10T15:03:31.285Z</time></trkpt><trkpt lat="43.9696676" lon="7.9896222"><ele>315.33333333333337</ele><time>2026-04-10T15:03:32.286Z</time></trkpt><trkpt lat="43.9695905" lon="7.9896431"><ele>314.0</ele><time>2026-04-10T15:03:33.287Z</time></trkpt><trkpt lat="43.9695204" lon="7.9896579"><ele>314.0</ele><time>2026-04-10T15:03:34.285Z</time></trkpt><trkpt lat="43.9694411" lon="7.9896434"><ele>314.0</ele><time>2026-04-10T15:03:35.287Z</time></trkpt><trkpt lat="43.9693589" lon="7.9896207"><ele>314.0</ele><time>2026-04-10T15:03:36.287Z</time></trkpt><trkpt lat="43.9692815" lon="7.9895798"><ele>314.0</ele><time>2026-04-10T15:03:37.287Z</time></trkpt><trkpt lat="43.9691953" lon="7.9894974"><ele>314.0</ele><time>2026-04-10T15:03:38.287Z</time></trkpt><trkpt lat="43.9691119" lon="7.9894318"><ele>314.0</ele><time>2026-04-10T15:03:39.286Z</time></trkpt><trkpt lat="43.969024" lon="7.9893576"><ele>312.5</ele><time>2026-04-10T15:03:40.287Z</time></trkpt><trkpt lat="43.9689494" lon="7.9892811"><ele>311.0</ele><time>2026-04-10T15:03:41.287Z</time></trkpt><trkpt lat="43.9688915" lon="7.9892106"><ele>309.5</ele><time>2026-04-10T15:03:42.286Z</time></trkpt><trkpt lat="43.9688408" lon="7.9890585"><ele>308.0</ele><time>2026-04-10T15:03:44.285Z</time></trkpt><trkpt lat="43.9687956" lon="7.9889906"><ele>306.5</ele><time>2026-04-10T15:03:45.288Z</time></trkpt><trkpt lat="43.9687378" lon="7.9889335"><ele>305.0</ele><time>2026-04-10T15:03:46.287Z</time></trkpt><trkpt lat="43.9686717" lon="7.9889049"><ele>300.6666666666667</ele><time>2026-04-10T15:03:47.287Z</time></trkpt><trkpt lat="43.9685644" lon="7.9889074"><ele>296.33333333333337</ele><time>2026-04-10T15:03:49.286Z</time></trkpt><trkpt lat="43.9684958" lon="7.988938"><ele>292.0</ele><time>2026-04-10T15:03:51.288Z</time></trkpt><trkpt lat="43.9684352" lon="7.9888901"><ele>287.6666666666667</ele><time>2026-04-10T15:03:54.286Z</time></trkpt><trkpt lat="43.9683643" lon="7.9888927"><ele>283.3333333333333</ele><time>2026-04-10T15:03:57.287Z</time></trkpt><trkpt lat="43.9682931" lon="7.9888807"><ele>279.0</ele><time>2026-04-10T15:04:00.286Z</time></trkpt><trkpt lat="43.9682297" lon="7.988804"><ele>277.4285714285714</ele><time>2026-04-10T15:04:03.287Z</time></trkpt><trkpt lat="43.968192" lon="7.9887326"><ele>275.85714285714283</ele><time>2026-04-10T15:04:05.288Z</time></trkpt><trkpt lat="43.9681473" lon="7.9886251"><ele>274.2857142857143</ele><time>2026-04-10T15:04:08.286Z</time></trkpt><trkpt lat="43.9680925" lon="7.9885678"><ele>272.71428571428567</ele><time>2026-04-10T15:04:15.286Z</time></trkpt><trkpt lat="43.9680227" lon="7.9885613"><ele>271.1428571428571</ele><time>2026-04-10T15:04:23.288Z</time></trkpt><trkpt lat="43.9679673" lon="7.9885188"><ele>269.57142857142856</ele><time>2026-04-10T15:04:39.286Z</time></trkpt><trkpt lat="43.9679084" lon="7.9885576"><ele>268.0</ele><time>2026-04-10T15:04:41.287Z</time></trkpt><trkpt lat="43.9678448" lon="7.9885204"><ele>268.0</ele><time>2026-04-10T15:04:43.286Z</time></trkpt><trkpt lat="43.9678" lon="7.9884586"><ele>268.0</ele><time>2026-04-10T15:04:45.286Z</time></trkpt><trkpt lat="43.9677601" lon="7.9883888"><ele>268.0</ele><time>2026-04-10T15:04:47.285Z</time></trkpt><trkpt lat="43.9677817" lon="7.9882874"><ele>268.0</ele><time>2026-04-10T15:04:49.287Z</time></trkpt><trkpt lat="43.967879" lon="7.9882148"><ele>268.0</ele><time>2026-04-10T15:04:51.287Z</time></trkpt><trkpt lat="43.9679488" lon="7.9881857"><ele>268.0</ele><time>2026-04-10T15:04:52.286Z</time></trkpt><trkpt lat="43.9680674" lon="7.9881502"><ele>264.2</ele><time>2026-04-10T15:04:54.286Z</time></trkpt><trkpt lat="43.9681356" lon="7.9880453"><ele>260.4</ele><time>2026-04-10T15:04:56.286Z</time></trkpt><trkpt lat="43.9681845" lon="7.9879153"><ele>256.59999999999997</ele><time>2026-04-10T15:04:58.286Z</time></trkpt><trkpt lat="43.9681707" lon="7.9877894"><ele>252.79999999999998</ele><time>2026-04-10T15:05:00.287Z</time></trkpt><trkpt lat="43.9682104" lon="7.9876641"><ele>249.0</ele><time>2026-04-10T15:05:02.286Z</time></trkpt><trkpt lat="43.968245" lon="7.9875548"><ele>245.83333333333334</ele><time>2026-04-10T15:05:05.287Z</time></trkpt><trkpt lat="43.9682452" lon="7.9874385"><ele>242.66666666666669</ele><time>2026-04-10T15:05:08.287Z</time></trkpt><trkpt lat="43.9682548" lon="7.9873428"><ele>239.5</ele><time>2026-04-10T15:05:10.287Z</time></trkpt><trkpt lat="43.9682448" lon="7.9872296"><ele>236.33333333333334</ele><time>2026-04-10T15:05:12.286Z</time></trkpt><trkpt lat="43.9682071" lon="7.9871205"><ele>233.16666666666669</ele><time>2026-04-10T15:05:14.288Z</time></trkpt><trkpt lat="43.9681414" lon="7.9869956"><ele>230.0</ele><time>2026-04-10T15:05:16.285Z</time></trkpt><trkpt lat="43.9680755" lon="7.9869003"><ele>230.00000000000003</ele><time>2026-04-10T15:05:18.288Z</time></trkpt><trkpt lat="43.9680207" lon="7.9868407"><ele>230.0</ele><time>2026-04-10T15:05:20.287Z</time></trkpt><trkpt lat="43.9679739" lon="7.9867622"><ele>230.0</ele><time>2026-04-10T15:06:21.287Z</time></trkpt><trkpt lat="43.9679472" lon="7.9866098"><ele>230.0</ele><time>2026-04-10T15:06:29.286Z</time></trkpt><trkpt lat="43.9679676" lon="7.9865139"><ele>230.00000000000003</ele><time>2026-04-10T15:06:31.288Z</time></trkpt><trkpt lat="43.9680595" lon="7.9865692"><ele>230.0</ele><time>2026-04-10T15:06:33.287Z</time></trkpt><trkpt lat="43.9681454" lon="7.9866309"><ele>230.0</ele><time>2026-04-10T15:06:34.287Z</time></trkpt><trkpt lat="43.968259" lon="7.9867059"><ele>230.0</ele><time>2026-04-10T15:06:35.285Z</time></trkpt><trkpt lat="43.9683866" lon="7.9867795"><ele>230.0</ele><time>2026-04-10T15:06:36.286Z</time></trkpt><trkpt lat="43.9685287" lon="7.98685"><ele>230.0</ele><time>2026-04-10T15:06:37.287Z</time></trkpt><trkpt lat="43.9686749" lon="7.9869177"><ele>229.5</ele><time>2026-04-10T15:06:38.287Z</time></trkpt><trkpt lat="43.9688111" lon="7.9869783"><ele>229.0</ele><time>2026-04-10T15:06:39.288Z</time></trkpt><trkpt lat="43.9689406" lon="7.9870352"><ele>228.5</ele><time>2026-04-10T15:06:40.286Z</time></trkpt><trkpt lat="43.9690401" lon="7.9870836"><ele>228.0</ele><time>2026-04-10T15:06:41.287Z</time></trkpt><trkpt lat="43.9691309" lon="7.9871049"><ele>229.4</ele><time>2026-04-10T15:06:42.286Z</time></trkpt><trkpt lat="43.9692042" lon="7.987095"><ele>230.8</ele><time>2026-04-10T15:06:43.287Z</time></trkpt><trkpt lat="43.9692696" lon="7.9869574"><ele>232.2</ele><time>2026-04-10T15:06:45.287Z</time></trkpt><trkpt lat="43.9692646" lon="7.9868254"><ele>233.6</ele><time>2026-04-10T15:06:46.287Z</time></trkpt><trkpt lat="43.9692562" lon="7.9866629"><ele>235.0</ele><time>2026-04-10T15:06:47.287Z</time></trkpt><trkpt lat="43.9692657" lon="7.98649"><ele>235.0</ele><time>2026-04-10T15:06:48.286Z</time></trkpt><trkpt lat="43.9692805" lon="7.9862664"><ele>235.0</ele><time>2026-04-10T15:06:49.288Z</time></trkpt><trkpt lat="43.9692944" lon="7.9860506"><ele>235.0</ele><time>2026-04-10T15:06:50.287Z</time></trkpt><trkpt lat="43.9693154" lon="7.9858425"><ele>231.5</ele><time>2026-04-10T15:06:51.287Z</time></trkpt><trkpt lat="43.9693367" lon="7.9856449"><ele>228.0</ele><time>2026-04-10T15:06:52.287Z</time></trkpt><trkpt lat="43.9693554" lon="7.9854643"><ele>224.5</ele><time>2026-04-10T15:06:53.285Z</time></trkpt><trkpt lat="43.969375" lon="7.985281"><ele>221.0</ele><time>2026-04-10T15:06:54.287Z</time></trkpt><trkpt lat="43.9693777" lon="7.9851078"><ele>217.8</ele><time>2026-04-10T15:06:55.288Z</time></trkpt><trkpt lat="43.9693782" lon="7.9849523"><ele>214.60000000000002</ele><time>2026-04-10T15:06:56.287Z</time></trkpt><trkpt lat="43.9693755" lon="7.9848244"><ele>211.4</ele><time>2026-04-10T15:06:57.286Z</time></trkpt><trkpt lat="43.9693574" lon="7.9847299"><ele>208.2</ele><time>2026-04-10T15:06:58.287Z</time></trkpt><trkpt lat="43.9692693" lon="7.9846377"><ele>205.0</ele><time>2026-04-10T15:07:00.286Z</time></trkpt><trkpt lat="43.9691541" lon="7.9847359"><ele>203.25</ele><time>2026-04-10T15:07:02.286Z</time></trkpt><trkpt lat="43.9690819" lon="7.9848779"><ele>201.5</ele><time>2026-04-10T15:07:03.286Z</time></trkpt><trkpt lat="43.9690023" lon="7.9850328"><ele>199.75</ele><time>2026-04-10T15:07:04.287Z</time></trkpt><trkpt lat="43.9689202" lon="7.9851678"><ele>198.0</ele><time>2026-04-10T15:07:05.287Z</time></trkpt><trkpt lat="43.9688457" lon="7.9852697"><ele>198.0</ele><time>2026-04-10T15:07:06.287Z</time></trkpt><trkpt lat="43.9687682" lon="7.9853281"><ele>198.0</ele><time>2026-04-10T15:07:07.287Z</time></trkpt><trkpt lat="43.9686913" lon="7.9853656"><ele>198.0</ele><time>2026-04-10T15:07:08.287Z</time></trkpt><trkpt lat="43.9686167" lon="7.9853605"><ele>198.0</ele><time>2026-04-10T15:07:09.286Z</time></trkpt><trkpt lat="43.9685508" lon="7.9853245"><ele>198.0</ele><time>2026-04-10T15:07:10.287Z</time></trkpt><trkpt lat="43.9684769" lon="7.9852537"><ele>198.0</ele><time>2026-04-10T15:07:11.287Z</time></trkpt><trkpt lat="43.9683952" lon="7.9851411"><ele>196.8</ele><time>2026-04-10T15:07:12.287Z</time></trkpt><trkpt lat="43.9683176" lon="7.9850166"><ele>195.60000000000002</ele><time>2026-04-10T15:07:13.286Z</time></trkpt><trkpt lat="43.9682432" lon="7.9848898"><ele>194.39999999999998</ele><time>2026-04-10T15:07:14.286Z</time></trkpt><trkpt lat="43.9681759" lon="7.9847682"><ele>193.2</ele><time>2026-04-10T15:07:15.287Z</time></trkpt><trkpt lat="43.9681108" lon="7.9846687"><ele>192.0</ele><time>2026-04-10T15:07:16.287Z</time></trkpt><trkpt lat="43.9680489" lon="7.9845689"><ele>188.33333333333334</ele><time>2026-04-10T15:07:17.287Z</time></trkpt><trkpt lat="43.9679924" lon="7.984475"><ele>184.66666666666666</ele><time>2026-04-10T15:07:18.285Z</time></trkpt><trkpt lat="43.967963" lon="7.9843878"><ele>181.0</ele><time>2026-04-10T15:07:19.287Z</time></trkpt><trkpt lat="43.9679425" lon="7.984292"><ele>177.33333333333331</ele><time>2026-04-10T15:07:20.287Z</time></trkpt><trkpt lat="43.9679394" lon="7.9841958"><ele>173.66666666666666</ele><time>2026-04-10T15:07:21.286Z</time></trkpt><trkpt lat="43.9679101" lon="7.9840373"><ele>170.0</ele><time>2026-04-10T15:07:23.287Z</time></trkpt><trkpt lat="43.9678348" lon="7.9839912"><ele>167.8</ele><time>2026-04-10T15:07:24.287Z</time></trkpt><trkpt lat="43.9677105" lon="7.9839297"><ele>165.6</ele><time>2026-04-10T15:07:26.287Z</time></trkpt><trkpt lat="43.9676633" lon="7.9838142"><ele>163.4</ele><time>2026-04-10T15:07:28.287Z</time></trkpt><trkpt lat="43.9677067" lon="7.9837054"><ele>161.2</ele><time>2026-04-10T15:07:30.286Z</time></trkpt><trkpt lat="43.9678113" lon="7.9836881"><ele>159.0</ele><time>2026-04-10T15:07:32.287Z</time></trkpt><trkpt lat="43.9679138" lon="7.9836896"><ele>159.0</ele><time>2026-04-10T15:07:34.287Z</time></trkpt><trkpt lat="43.9679721" lon="7.9836202"><ele>159.0</ele><time>2026-04-10T15:07:37.287Z</time></trkpt><trkpt lat="43.9679571" lon="7.983532"><ele>159.0</ele><time>2026-04-10T15:07:40.288Z</time></trkpt><trkpt lat="43.9680196" lon="7.9834457"><ele>159.0</ele><time>2026-04-10T15:07:42.288Z</time></trkpt><trkpt lat="43.9680932" lon="7.9833933"><ele>159.0</ele><time>2026-04-10T15:07:43.286Z</time></trkpt><trkpt lat="43.9681906" lon="7.983329"><ele>159.0</ele><time>2026-04-10T15:07:44.286Z</time></trkpt><trkpt lat="43.9683047" lon="7.983258"><ele>159.25</ele><time>2026-04-10T15:07:45.287Z</time></trkpt><trkpt lat="43.9684235" lon="7.9831746"><ele>159.5</ele><time>2026-04-10T15:07:46.287Z</time></trkpt><trkpt lat="43.968552" lon="7.9830823"><ele>159.75</ele><time>2026-04-10T15:07:47.288Z</time></trkpt><trkpt lat="43.968689" lon="7.982994"><ele>160.0</ele><time>2026-04-10T15:07:48.286Z</time></trkpt><trkpt lat="43.9688224" lon="7.9829165"><ele>160.0</ele><time>2026-04-10T15:07:49.288Z</time></trkpt><trkpt lat="43.96897" lon="7.9828612"><ele>160.0</ele><time>2026-04-10T15:07:50.286Z</time></trkpt><trkpt lat="43.9691171" lon="7.9828206"><ele>160.0</ele><time>2026-04-10T15:07:51.288Z</time></trkpt><trkpt lat="43.9692626" lon="7.982794"><ele>160.25</ele><time>2026-04-10T15:07:52.286Z</time></trkpt><trkpt lat="43.9693738" lon="7.9827274"><ele>160.5</ele><time>2026-04-10T15:07:53.286Z</time></trkpt><trkpt lat="43.9694518" lon="7.9826327"><ele>160.75</ele><time>2026-04-10T15:07:54.287Z</time></trkpt><trkpt lat="43.9695021" lon="7.9824992"><ele>161.0</ele><time>2026-04-10T15:07:55.287Z</time></trkpt><trkpt lat="43.9695509" lon="7.9823438"><ele>161.0</ele><time>2026-04-10T15:07:56.286Z</time></trkpt><trkpt lat="43.9696101" lon="7.9821866"><ele>161.0</ele><time>2026-04-10T15:07:57.287Z</time></trkpt><trkpt lat="43.9696807" lon="7.9820435"><ele>161.0</ele><time>2026-04-10T15:07:58.286Z</time></trkpt><trkpt lat="43.9697706" lon="7.9819214"><ele>161.0</ele><time>2026-04-10T15:07:59.287Z</time></trkpt><trkpt lat="43.9698624" lon="7.981806"><ele>161.0</ele><time>2026-04-10T15:08:00.286Z</time></trkpt><trkpt lat="43.9699665" lon="7.9817067"><ele>161.0</ele><time>2026-04-10T15:08:01.287Z</time></trkpt><trkpt lat="43.9700802" lon="7.9816244"><ele>161.0</ele><time>2026-04-10T15:08:02.287Z</time></trkpt><trkpt lat="43.9701955" lon="7.9815466"><ele>161.0</ele><time>2026-04-10T15:08:03.287Z</time></trkpt><trkpt lat="43.9703252" lon="7.9814622"><ele>162.66666666666666</ele><time>2026-04-10T15:08:04.286Z</time></trkpt><trkpt lat="43.9704483" lon="7.9813459"><ele>164.33333333333334</ele><time>2026-04-10T15:08:05.286Z</time></trkpt><trkpt lat="43.9705759" lon="7.981223"><ele>166.0</ele><time>2026-04-10T15:08:06.288Z</time></trkpt><trkpt lat="43.9707035" lon="7.9811092"><ele>166.0</ele><time>2026-04-10T15:08:07.287Z</time></trkpt><trkpt lat="43.9708233" lon="7.9809592"><ele>166.0</ele><time>2026-04-10T15:08:08.287Z</time></trkpt><trkpt lat="43.9709529" lon="7.9807756"><ele>166.0</ele><time>2026-04-10T15:08:09.286Z</time></trkpt><trkpt lat="43.971086" lon="7.9805668"><ele>165.66666666666669</ele><time>2026-04-10T15:08:10.288Z</time></trkpt><trkpt lat="43.9712092" lon="7.9803829"><ele>165.33333333333334</ele><time>2026-04-10T15:08:11.287Z</time></trkpt><trkpt lat="43.9713333" lon="7.9802231"><ele>165.0</ele><time>2026-04-10T15:08:12.288Z</time></trkpt><trkpt lat="43.971452" lon="7.9800806"><ele>165.0</ele><time>2026-04-10T15:08:13.286Z</time></trkpt><trkpt lat="43.9715817" lon="7.9800248"><ele>165.0</ele><time>2026-04-10T15:08:14.286Z</time></trkpt><trkpt lat="43.9717116" lon="7.9799834"><ele>165.0</ele><time>2026-04-10T15:08:15.286Z</time></trkpt><trkpt lat="43.9718707" lon="7.9800171"><ele>165.0</ele><time>2026-04-10T15:08:16.288Z</time></trkpt><trkpt lat="43.9720052" lon="7.9800732"><ele>165.5</ele><time>2026-04-10T15:08:17.287Z</time></trkpt><trkpt lat="43.9721287" lon="7.9801351"><ele>166.0</ele><time>2026-04-10T15:08:18.287Z</time></trkpt><trkpt lat="43.9722425" lon="7.9801932"><ele>166.5</ele><time>2026-04-10T15:08:19.287Z</time></trkpt><trkpt lat="43.9723491" lon="7.9802296"><ele>167.0</ele><time>2026-04-10T15:08:20.286Z</time></trkpt><trkpt lat="43.9724438" lon="7.9802069"><ele>167.0</ele><time>2026-04-10T15:08:21.288Z</time></trkpt><trkpt lat="43.9725224" lon="7.9801543"><ele>167.0</ele><time>2026-04-10T15:08:22.286Z</time></trkpt><trkpt lat="43.9725599" lon="7.9800618"><ele>167.0</ele><time>2026-04-10T15:08:23.287Z</time></trkpt><trkpt lat="43.9725745" lon="7.9799499"><ele>167.0</ele><time>2026-04-10T15:08:24.286Z</time></trkpt><trkpt lat="43.9725527" lon="7.9798218"><ele>167.0</ele><time>2026-04-10T15:08:25.288Z</time></trkpt><trkpt lat="43.9724965" lon="7.9796925"><ele>167.0</ele><time>2026-04-10T15:08:26.286Z</time></trkpt><trkpt lat="43.9724343" lon="7.9795656"><ele>169.8</ele><time>2026-04-10T15:08:27.287Z</time></trkpt><trkpt lat="43.972394" lon="7.9794337"><ele>172.6</ele><time>2026-04-10T15:08:28.286Z</time></trkpt><trkpt lat="43.9723879" lon="7.9793091"><ele>175.4</ele><time>2026-04-10T15:08:29.286Z</time></trkpt><trkpt lat="43.9724188" lon="7.9791818"><ele>178.20000000000002</ele><time>2026-04-10T15:08:30.288Z</time></trkpt><trkpt lat="43.9724692" lon="7.979066"><ele>181.0</ele><time>2026-04-10T15:08:31.287Z</time></trkpt><trkpt lat="43.9725487" lon="7.9789698"><ele>181.0</ele><time>2026-04-10T15:08:32.286Z</time></trkpt><trkpt lat="43.9726745" lon="7.9789328"><ele>181.0</ele><time>2026-04-10T15:08:33.287Z</time></trkpt><trkpt lat="43.9728149" lon="7.9788916"><ele>181.0</ele><time>2026-04-10T15:08:34.287Z</time></trkpt><trkpt lat="43.9729562" lon="7.9788299"><ele>181.0</ele><time>2026-04-10T15:08:35.287Z</time></trkpt><trkpt lat="43.9730827" lon="7.9786995"><ele>181.0</ele><time>2026-04-10T15:08:36.286Z</time></trkpt><trkpt lat="43.9732053" lon="7.9785581"><ele>181.0</ele><time>2026-04-10T15:08:37.287Z</time></trkpt><trkpt lat="43.9733126" lon="7.9783719"><ele>181.0</ele><time>2026-04-10T15:08:38.287Z</time></trkpt><trkpt lat="43.9734058" lon="7.9781668"><ele>191.0</ele><time>2026-04-10T15:08:39.287Z</time></trkpt><trkpt lat="43.9734856" lon="7.9779722"><ele>201.0</ele><time>2026-04-10T15:08:40.287Z</time></trkpt><trkpt lat="43.9735585" lon="7.9777653"><ele>211.0</ele><time>2026-04-10T15:08:41.287Z</time></trkpt><trkpt lat="43.9736023" lon="7.9775759"><ele>207.0</ele><time>2026-04-10T15:08:42.287Z</time></trkpt><trkpt lat="43.9736448" lon="7.9773931"><ele>203.0</ele><time>2026-04-10T15:08:43.287Z</time></trkpt><trkpt lat="43.9736778" lon="7.9772284"><ele>199.0</ele><time>2026-04-10T15:08:44.286Z</time></trkpt><trkpt lat="43.9737079" lon="7.9770987"><ele>195.0</ele><time>2026-04-10T15:08:45.287Z</time></trkpt><trkpt lat="43.9737298" lon="7.9770071"><ele>191.0</ele><time>2026-04-10T15:08:46.286Z</time></trkpt><trkpt lat="43.9737778" lon="7.9769428"><ele>191.0</ele><time>2026-04-10T15:08:48.287Z</time></trkpt><trkpt lat="43.973798" lon="7.9770404"><ele>191.0</ele><time>2026-04-10T15:08:51.286Z</time></trkpt><trkpt lat="43.9737853" lon="7.9772142"><ele>191.0</ele><time>2026-04-10T15:08:53.287Z</time></trkpt><trkpt lat="43.9737821" lon="7.9773233"><ele>191.0</ele><time>2026-04-10T15:08:54.287Z</time></trkpt><trkpt lat="43.9737797" lon="7.9774479"><ele>191.0</ele><time>2026-04-10T15:08:55.286Z</time></trkpt><trkpt lat="43.9737742" lon="7.977599"><ele>196.0</ele><time>2026-04-10T15:08:56.287Z</time></trkpt><trkpt lat="43.9737635" lon="7.9777432"><ele>201.0</ele><time>2026-04-10T15:08:57.287Z</time></trkpt><trkpt lat="43.9737352" lon="7.9779135"><ele>206.0</ele><time>2026-04-10T15:08:58.288Z</time></trkpt><trkpt lat="43.9737103" lon="7.9780876"><ele>211.0</ele><time>2026-04-10T15:08:59.288Z</time></trkpt><trkpt lat="43.9736828" lon="7.9782357"><ele>212.8</ele><time>2026-04-10T15:09:00.286Z</time></trkpt><trkpt lat="43.9736401" lon="7.9783554"><ele>214.60000000000002</ele><time>2026-04-10T15:09:01.287Z</time></trkpt><trkpt lat="43.9735854" lon="7.9784779"><ele>216.4</ele><time>2026-04-10T15:09:02.286Z</time></trkpt><trkpt lat="43.9734967" lon="7.9785982"><ele>218.2</ele><time>2026-04-10T15:09:03.287Z</time></trkpt><trkpt lat="43.973417" lon="7.978718"><ele>220.0</ele><time>2026-04-10T15:09:04.287Z</time></trkpt><trkpt lat="43.9733429" lon="7.9788086"><ele>213.49999999999997</ele><time>2026-04-10T15:09:05.286Z</time></trkpt><trkpt lat="43.9732562" lon="7.9789058"><ele>207.0</ele><time>2026-04-10T15:09:06.287Z</time></trkpt><trkpt lat="43.9731675" lon="7.9789999"><ele>200.5</ele><time>2026-04-10T15:09:07.287Z</time></trkpt><trkpt lat="43.9731019" lon="7.9790876"><ele>194.0</ele><time>2026-04-10T15:09:08.286Z</time></trkpt><trkpt lat="43.973079" lon="7.9791781"><ele>187.5</ele><time>2026-04-10T15:09:09.287Z</time></trkpt><trkpt lat="43.9730607" lon="7.9792658"><ele>181.0</ele><time>2026-04-10T15:09:10.287Z</time></trkpt><trkpt lat="43.9730932" lon="7.9793869"><ele>179.33333333333334</ele><time>2026-04-10T15:09:12.287Z</time></trkpt><trkpt lat="43.9731969" lon="7.979486"><ele>177.66666666666669</ele><time>2026-04-10T15:09:14.286Z</time></trkpt><trkpt lat="43.9732571" lon="7.9795172"><ele>176.0</ele><time>2026-04-10T15:09:15.286Z</time></trkpt><trkpt lat="43.9733187" lon="7.9795566"><ele>174.33333333333334</ele><time>2026-04-10T15:09:16.287Z</time></trkpt><trkpt lat="43.9733796" lon="7.9796239"><ele>172.66666666666666</ele><time>2026-04-10T15:09:17.287Z</time></trkpt><trkpt lat="43.9734664" lon="7.979714"><ele>171.0</ele><time>2026-04-10T15:09:18.287Z</time></trkpt><trkpt lat="43.9735524" lon="7.9797984"><ele>171.20000000000002</ele><time>2026-04-10T15:09:19.286Z</time></trkpt><trkpt lat="43.9736331" lon="7.9798979"><ele>171.4</ele><time>2026-04-10T15:09:20.287Z</time></trkpt><trkpt lat="43.9737093" lon="7.9799807"><ele>171.6</ele><time>2026-04-10T15:09:21.286Z</time></trkpt><trkpt lat="43.9737967" lon="7.9800487"><ele>171.8</ele><time>2026-04-10T15:09:22.287Z</time></trkpt><trkpt lat="43.9739017" lon="7.9801325"><ele>172.0</ele><time>2026-04-10T15:09:23.287Z</time></trkpt><trkpt lat="43.9740026" lon="7.9802217"><ele>172.0</ele><time>2026-04-10T15:09:24.287Z</time></trkpt><trkpt lat="43.9741017" lon="7.9803109"><ele>172.0</ele><time>2026-04-10T15:09:25.286Z</time></trkpt><trkpt lat="43.9741963" lon="7.9803966"><ele>172.0</ele><time>2026-04-10T15:09:26.286Z</time></trkpt><trkpt lat="43.9742854" lon="7.9804945"><ele>172.0</ele><time>2026-04-10T15:09:27.287Z</time></trkpt><trkpt lat="43.9743618" lon="7.9805941"><ele>172.0</ele><time>2026-04-10T15:09:28.287Z</time></trkpt><trkpt lat="43.9744179" lon="7.9806888"><ele>174.5</ele><time>2026-04-10T15:09:29.288Z</time></trkpt><trkpt lat="43.9744787" lon="7.9807636"><ele>177.0</ele><time>2026-04-10T15:09:30.287Z</time></trkpt><trkpt lat="43.9745496" lon="7.9808339"><ele>179.5</ele><time>2026-04-10T15:09:31.288Z</time></trkpt><trkpt lat="43.9746205" lon="7.9809012"><ele>182.0</ele><time>2026-04-10T15:09:32.287Z</time></trkpt><trkpt lat="43.9746979" lon="7.9809802"><ele>184.5</ele><time>2026-04-10T15:09:33.286Z</time></trkpt><trkpt lat="43.9747658" lon="7.9810495"><ele>187.0</ele><time>2026-04-10T15:09:34.287Z</time></trkpt><trkpt lat="43.9748338" lon="7.9811811"><ele>187.0</ele><time>2026-04-10T15:09:35.286Z</time></trkpt><trkpt lat="43.9749013" lon="7.9813077"><ele>187.0</ele><time>2026-04-10T15:09:36.288Z</time></trkpt><trkpt lat="43.9749533" lon="7.9814268"><ele>187.0</ele><time>2026-04-10T15:09:37.286Z</time></trkpt><trkpt lat="43.9749993" lon="7.9815584"><ele>187.0</ele><time>2026-04-10T15:09:38.286Z</time></trkpt><trkpt lat="43.9750378" lon="7.9816754"><ele>187.0</ele><time>2026-04-10T15:09:39.288Z</time></trkpt><trkpt lat="43.9750874" lon="7.9817754"><ele>188.8</ele><time>2026-04-10T15:09:40.287Z</time></trkpt><trkpt lat="43.9751674" lon="7.9818738"><ele>190.6</ele><time>2026-04-10T15:09:41.288Z</time></trkpt><trkpt lat="43.9752399" lon="7.9819725"><ele>192.4</ele><time>2026-04-10T15:09:42.286Z</time></trkpt><trkpt lat="43.9753119" lon="7.9820647"><ele>194.20000000000002</ele><time>2026-04-10T15:09:43.287Z</time></trkpt><trkpt lat="43.9753893" lon="7.9821532"><ele>196.0</ele><time>2026-04-10T15:09:44.286Z</time></trkpt><trkpt lat="43.9754781" lon="7.9822468"><ele>196.0</ele><time>2026-04-10T15:09:45.288Z</time></trkpt><trkpt lat="43.975572" lon="7.9823388"><ele>196.0</ele><time>2026-04-10T15:09:46.287Z</time></trkpt><trkpt lat="43.9756669" lon="7.9824313"><ele>196.0</ele><time>2026-04-10T15:09:47.286Z</time></trkpt><trkpt lat="43.9757486" lon="7.9825043"><ele>196.0</ele><time>2026-04-10T15:09:48.287Z</time></trkpt><trkpt lat="43.9758409" lon="7.9825759"><ele>196.0</ele><time>2026-04-10T15:09:49.287Z</time></trkpt><trkpt lat="43.9759591" lon="7.9826469"><ele>199.75</ele><time>2026-04-10T15:09:50.287Z</time></trkpt><trkpt lat="43.9760774" lon="7.9827282"><ele>203.5</ele><time>2026-04-10T15:09:51.287Z</time></trkpt><trkpt lat="43.9762054" lon="7.9828258"><ele>207.25</ele><time>2026-04-10T15:09:52.286Z</time></trkpt><trkpt lat="43.976317" lon="7.9829349"><ele>211.0</ele><time>2026-04-10T15:09:53.288Z</time></trkpt><trkpt lat="43.9764289" lon="7.9830445"><ele>210.99999999999997</ele><time>2026-04-10T15:09:54.287Z</time></trkpt><trkpt lat="43.9765084" lon="7.9831365"><ele>211.0</ele><time>2026-04-10T15:09:55.286Z</time></trkpt><trkpt lat="43.9765836" lon="7.9832279"><ele>211.0</ele><time>2026-04-10T15:09:56.286Z</time></trkpt><trkpt lat="43.9766257" lon="7.9833054"><ele>211.0</ele><time>2026-04-10T15:09:57.288Z</time></trkpt><trkpt lat="43.976691" lon="7.9833596"><ele>210.99999999999997</ele><time>2026-04-10T15:09:59.288Z</time></trkpt><trkpt lat="43.9766957" lon="7.9832497"><ele>211.0</ele><time>2026-04-10T15:10:02.288Z</time></trkpt><trkpt lat="43.9766582" lon="7.9831622"><ele>211.0</ele><time>2026-04-10T15:10:03.286Z</time></trkpt><trkpt lat="43.976621" lon="7.98306"><ele>211.0</ele><time>2026-04-10T15:10:04.288Z</time></trkpt><trkpt lat="43.9765821" lon="7.9829465"><ele>211.0</ele><time>2026-04-10T15:10:05.287Z</time></trkpt><trkpt lat="43.9765433" lon="7.9828214"><ele>211.0</ele><time>2026-04-10T15:10:06.286Z</time></trkpt><trkpt lat="43.976495" lon="7.9827042"><ele>211.0</ele><time>2026-04-10T15:10:07.286Z</time></trkpt><trkpt lat="43.9764416" lon="7.9826075"><ele>216.4</ele><time>2026-04-10T15:10:08.288Z</time></trkpt><trkpt lat="43.9763843" lon="7.9824963"><ele>221.8</ele><time>2026-04-10T15:10:09.286Z</time></trkpt><trkpt lat="43.9763246" lon="7.9824027"><ele>227.20000000000002</ele><time>2026-04-10T15:10:10.288Z</time></trkpt><trkpt lat="43.9762615" lon="7.9822794"><ele>232.60000000000002</ele><time>2026-04-10T15:10:11.288Z</time></trkpt><trkpt lat="43.976209" lon="7.9821588"><ele>238.0</ele><time>2026-04-10T15:10:12.288Z</time></trkpt><trkpt lat="43.9761526" lon="7.9820568"><ele>237.99999999999997</ele><time>2026-04-10T15:10:13.287Z</time></trkpt><trkpt lat="43.9760888" lon="7.9819471"><ele>238.0</ele><time>2026-04-10T15:10:14.287Z</time></trkpt><trkpt lat="43.9760362" lon="7.9818607"><ele>238.0</ele><time>2026-04-10T15:10:15.288Z</time></trkpt><trkpt lat="43.9759946" lon="7.9817737"><ele>238.0</ele><time>2026-04-10T15:10:16.289Z</time></trkpt><trkpt lat="43.9759418" lon="7.9816836"><ele>237.99999999999997</ele><time>2026-04-10T15:10:17.286Z</time></trkpt><trkpt lat="43.9758835" lon="7.9816139"><ele>238.0</ele><time>2026-04-10T15:10:18.286Z</time></trkpt><trkpt lat="43.9758069" lon="7.9815439"><ele>235.99999999999997</ele><time>2026-04-10T15:10:19.286Z</time></trkpt><trkpt lat="43.9757397" lon="7.9814648"><ele>234.0</ele><time>2026-04-10T15:10:20.287Z</time></trkpt><trkpt lat="43.9756872" lon="7.9813725"><ele>232.0</ele><time>2026-04-10T15:10:21.287Z</time></trkpt><trkpt lat="43.9756413" lon="7.9812756"><ele>230.0</ele><time>2026-04-10T15:10:22.286Z</time></trkpt><trkpt lat="43.9756029" lon="7.9811659"><ele>227.99999999999997</ele><time>2026-04-10T15:10:23.286Z</time></trkpt><trkpt lat="43.9755646" lon="7.9810438"><ele>226.0</ele><time>2026-04-10T15:10:24.287Z</time></trkpt><trkpt lat="43.9755315" lon="7.980928"><ele>230.20000000000002</ele><time>2026-04-10T15:10:25.288Z</time></trkpt><trkpt lat="43.9755012" lon="7.9807975"><ele>234.40000000000003</ele><time>2026-04-10T15:10:26.287Z</time></trkpt><trkpt lat="43.9754695" lon="7.9806677"><ele>238.6</ele><time>2026-04-10T15:10:27.288Z</time></trkpt><trkpt lat="43.9754239" lon="7.9805579"><ele>242.8</ele><time>2026-04-10T15:10:28.286Z</time></trkpt><trkpt lat="43.9753693" lon="7.9804448"><ele>247.0</ele><time>2026-04-10T15:10:29.286Z</time></trkpt><trkpt lat="43.9753027" lon="7.9803226"><ele>247.0</ele><time>2026-04-10T15:10:30.287Z</time></trkpt><trkpt lat="43.9752445" lon="7.980206"><ele>247.0</ele><time>2026-04-10T15:10:31.286Z</time></trkpt><trkpt lat="43.9751923" lon="7.9801033"><ele>247.0</ele><time>2026-04-10T15:10:32.287Z</time></trkpt><trkpt lat="43.9751398" lon="7.9799973"><ele>247.0</ele><time>2026-04-10T15:10:33.287Z</time></trkpt><trkpt lat="43.9750874" lon="7.9799036"><ele>247.0</ele><time>2026-04-10T15:10:34.287Z</time></trkpt><trkpt lat="43.9750272" lon="7.979815"><ele>244.8</ele><time>2026-04-10T15:10:35.286Z</time></trkpt><trkpt lat="43.9749642" lon="7.9797212"><ele>242.6</ele><time>2026-04-10T15:10:36.287Z</time></trkpt><trkpt lat="43.9748984" lon="7.9796217"><ele>240.40000000000003</ele><time>2026-04-10T15:10:37.288Z</time></trkpt><trkpt lat="43.9748297" lon="7.979526"><ele>238.20000000000002</ele><time>2026-04-10T15:10:38.286Z</time></trkpt><trkpt lat="43.9747586" lon="7.9794393"><ele>236.0</ele><time>2026-04-10T15:10:39.286Z</time></trkpt><trkpt lat="43.9746966" lon="7.9793598"><ele>236.00000000000003</ele><time>2026-04-10T15:10:40.288Z</time></trkpt><trkpt lat="43.9746318" lon="7.9792974"><ele>236.0</ele><time>2026-04-10T15:10:41.286Z</time></trkpt><trkpt lat="43.9745684" lon="7.9792415"><ele>236.0</ele><time>2026-04-10T15:10:42.288Z</time></trkpt><trkpt lat="43.9745091" lon="7.9791801"><ele>236.0</ele><time>2026-04-10T15:10:43.286Z</time></trkpt><trkpt lat="43.9744688" lon="7.9791055"><ele>236.00000000000003</ele><time>2026-04-10T15:10:44.287Z</time></trkpt><trkpt lat="43.9744447" lon="7.9790165"><ele>236.0</ele><time>2026-04-10T15:10:45.286Z</time></trkpt><trkpt lat="43.9744351" lon="7.9788764"><ele>240.00000000000003</ele><time>2026-04-10T15:10:47.288Z</time></trkpt><trkpt lat="43.9744593" lon="7.9787926"><ele>244.0</ele><time>2026-04-10T15:10:48.287Z</time></trkpt><trkpt lat="43.9744897" lon="7.9786866"><ele>248.0</ele><time>2026-04-10T15:10:49.286Z</time></trkpt><trkpt lat="43.9745296" lon="7.978555"><ele>252.0</ele><time>2026-04-10T15:10:50.287Z</time></trkpt><trkpt lat="43.9745842" lon="7.9784351"><ele>256.0</ele><time>2026-04-10T15:10:51.287Z</time></trkpt><trkpt lat="43.9746123" lon="7.9783428"><ele>260.0</ele><time>2026-04-10T15:10:52.288Z</time></trkpt><trkpt lat="43.9746373" lon="7.978235"><ele>260.2</ele><time>2026-04-10T15:10:53.286Z</time></trkpt><trkpt lat="43.9746653" lon="7.9781493"><ele>260.4</ele><time>2026-04-10T15:10:54.288Z</time></trkpt><trkpt lat="43.9747499" lon="7.9780653"><ele>260.6</ele><time>2026-04-10T15:10:56.286Z</time></trkpt><trkpt lat="43.9748587" lon="7.9779709"><ele>260.8</ele><time>2026-04-10T15:10:58.286Z</time></trkpt><trkpt lat="43.9749253" lon="7.9779119"><ele>261.0</ele><time>2026-04-10T15:10:59.286Z</time></trkpt><trkpt lat="43.9749923" lon="7.9778325"><ele>264.1666666666667</ele><time>2026-04-10T15:11:00.287Z</time></trkpt><trkpt lat="43.9750592" lon="7.9777523"><ele>267.3333333333333</ele><time>2026-04-10T15:11:01.287Z</time></trkpt><trkpt lat="43.9751054" lon="7.9776599"><ele>270.5</ele><time>2026-04-10T15:11:02.288Z</time></trkpt><trkpt lat="43.9751559" lon="7.9775717"><ele>273.66666666666663</ele><time>2026-04-10T15:11:03.289Z</time></trkpt><trkpt lat="43.9751917" lon="7.9774798"><ele>276.8333333333333</ele><time>2026-04-10T15:11:04.287Z</time></trkpt><trkpt lat="43.9752313" lon="7.9773811"><ele>280.0</ele><time>2026-04-10T15:11:05.287Z</time></trkpt><trkpt lat="43.9752588" lon="7.9772916"><ele>280.0</ele><time>2026-04-10T15:11:06.287Z</time></trkpt><trkpt lat="43.9752891" lon="7.9772118"><ele>280.0</ele><time>2026-04-10T15:11:07.287Z</time></trkpt><trkpt lat="43.9753252" lon="7.9771335"><ele>280.0</ele><time>2026-04-10T15:11:08.287Z</time></trkpt><trkpt lat="43.9753695" lon="7.9770353"><ele>280.0</ele><time>2026-04-10T15:11:09.287Z</time></trkpt><trkpt lat="43.9754365" lon="7.9769566"><ele>280.0</ele><time>2026-04-10T15:11:10.287Z</time></trkpt><trkpt lat="43.9754908" lon="7.9768849"><ele>280.0</ele><time>2026-04-10T15:11:11.287Z</time></trkpt><trkpt lat="43.9755519" lon="7.976813"><ele>280.0</ele><time>2026-04-10T15:11:12.287Z</time></trkpt><trkpt lat="43.9756032" lon="7.9767608"><ele>280.0</ele><time>2026-04-10T15:11:13.286Z</time></trkpt><trkpt lat="43.9757112" lon="7.9766721"><ele>280.0</ele><time>2026-04-10T15:11:15.288Z</time></trkpt><trkpt lat="43.9758057" lon="7.9765901"><ele>280.0</ele><time>2026-04-10T15:11:17.286Z</time></trkpt><trkpt lat="43.9758806" lon="7.9765106"><ele>280.0</ele><time>2026-04-10T15:11:19.288Z</time></trkpt><trkpt lat="43.9759376" lon="7.976405"><ele>281.0</ele><time>2026-04-10T15:11:21.287Z</time></trkpt><trkpt lat="43.9759635" lon="7.9763235"><ele>282.0</ele><time>2026-04-10T15:11:22.287Z</time></trkpt><trkpt lat="43.9760224" lon="7.9761809"><ele>283.0</ele><time>2026-04-10T15:11:24.286Z</time></trkpt><trkpt lat="43.976084" lon="7.9760343"><ele>284.0</ele><time>2026-04-10T15:11:26.288Z</time></trkpt><trkpt lat="43.976126" lon="7.9759651"><ele>285.0</ele><time>2026-04-10T15:11:27.286Z</time></trkpt><trkpt lat="43.9761621" lon="7.9758811"><ele>286.0</ele><time>2026-04-10T15:11:28.287Z</time></trkpt><trkpt lat="43.9762011" lon="7.9757935"><ele>286.0</ele><time>2026-04-10T15:11:29.287Z</time></trkpt><trkpt lat="43.9762309" lon="7.9757081"><ele>286.0</ele><time>2026-04-10T15:11:30.287Z</time></trkpt><trkpt lat="43.9763056" lon="7.9755931"><ele>286.0</ele><time>2026-04-10T15:11:32.288Z</time></trkpt><trkpt lat="43.9763635" lon="7.9755473"><ele>286.0</ele><time>2026-04-10T15:11:47.287Z</time></trkpt><trkpt lat="43.9764229" lon="7.9754863"><ele>286.0</ele><time>2026-04-10T15:12:01.287Z</time></trkpt><trkpt lat="43.9764744" lon="7.9754146"><ele>286.0</ele><time>2026-04-10T15:12:03.286Z</time></trkpt><trkpt lat="43.9765489" lon="7.9753319"><ele>286.0</ele><time>2026-04-10T15:12:05.287Z</time></trkpt><trkpt lat="43.9765888" lon="7.9754237"><ele>286.0</ele><time>2026-04-10T15:12:09.286Z</time></trkpt><trkpt lat="43.9765535" lon="7.9755629"><ele>286.0</ele><time>2026-04-10T15:12:11.286Z</time></trkpt><trkpt lat="43.9765343" lon="7.9757177"><ele>286.0</ele><time>2026-04-10T15:12:13.286Z</time></trkpt><trkpt lat="43.9765162" lon="7.9758131"><ele>286.0</ele><time>2026-04-10T15:12:14.289Z</time></trkpt><trkpt lat="43.9765094" lon="7.9759076"><ele>286.0</ele><time>2026-04-10T15:12:15.287Z</time></trkpt><trkpt lat="43.9764996" lon="7.9759991"><ele>290.40000000000003</ele><time>2026-04-10T15:12:16.288Z</time></trkpt><trkpt lat="43.9765038" lon="7.9760997"><ele>294.8</ele><time>2026-04-10T15:12:17.288Z</time></trkpt><trkpt lat="43.97649" lon="7.976191"><ele>299.20000000000005</ele><time>2026-04-10T15:12:18.287Z</time></trkpt><trkpt lat="43.9764556" lon="7.9763425"><ele>303.6</ele><time>2026-04-10T15:12:20.288Z</time></trkpt><trkpt lat="43.9764287" lon="7.9764999"><ele>308.0</ele><time>2026-04-10T15:12:22.287Z</time></trkpt><trkpt lat="43.9763967" lon="7.9766606"><ele>308.0</ele><time>2026-04-10T15:12:24.288Z</time></trkpt><trkpt lat="43.976343" lon="7.9768092"><ele>308.0</ele><time>2026-04-10T15:12:26.287Z</time></trkpt><trkpt lat="43.976317" lon="7.9769243"><ele>308.0</ele><time>2026-04-10T15:12:28.286Z</time></trkpt><trkpt lat="43.976391" lon="7.9769019"><ele>308.0</ele><time>2026-04-10T15:12:31.286Z</time></trkpt><trkpt lat="43.9764554" lon="7.9767874"><ele>308.0</ele><time>2026-04-10T15:12:33.288Z</time></trkpt><trkpt lat="43.9765189" lon="7.9766829"><ele>308.0</ele><time>2026-04-10T15:12:35.286Z</time></trkpt><trkpt lat="43.9766111" lon="7.9765553"><ele>308.0</ele><time>2026-04-10T15:12:37.287Z</time></trkpt><trkpt lat="43.9766622" lon="7.9764836"><ele>308.0</ele><time>2026-04-10T15:12:38.286Z</time></trkpt><trkpt lat="43.9767098" lon="7.9764095"><ele>308.0</ele><time>2026-04-10T15:12:39.288Z</time></trkpt><trkpt lat="43.9767834" lon="7.9763113"><ele>308.0</ele><time>2026-04-10T15:12:41.287Z</time></trkpt><trkpt lat="43.9768526" lon="7.9763158"><ele>308.0</ele><time>2026-04-10T15:13:28.286Z</time></trkpt><trkpt lat="43.9768367" lon="7.9764534"><ele>315.0</ele><time>2026-04-10T15:13:31.288Z</time></trkpt><trkpt lat="43.9767985" lon="7.9765945"><ele>322.0</ele><time>2026-04-10T15:13:33.287Z</time></trkpt><trkpt lat="43.976805" lon="7.9766864"><ele>329.0</ele><time>2026-04-10T15:13:34.286Z</time></trkpt><trkpt lat="43.976804" lon="7.9767743"><ele>336.0</ele><time>2026-04-10T15:13:35.288Z</time></trkpt><trkpt lat="43.9767839" lon="7.9769286"><ele>343.0</ele><time>2026-04-10T15:13:37.289Z</time></trkpt><trkpt lat="43.9767543" lon="7.9770449"><ele>350.0</ele><time>2026-04-10T15:13:38.288Z</time></trkpt><trkpt lat="43.9767228" lon="7.9771531"><ele>348.33333333333337</ele><time>2026-04-10T15:13:39.287Z</time></trkpt><trkpt lat="43.9766869" lon="7.9772644"><ele>346.6666666666667</ele><time>2026-04-10T15:13:40.288Z</time></trkpt><trkpt lat="43.9766419" lon="7.9773783"><ele>345.0</ele><time>2026-04-10T15:13:41.287Z</time></trkpt><trkpt lat="43.976602" lon="7.9774643"><ele>343.3333333333333</ele><time>2026-04-10T15:13:42.287Z</time></trkpt><trkpt lat="43.9765561" lon="7.9775478"><ele>341.66666666666663</ele><time>2026-04-10T15:13:43.288Z</time></trkpt><trkpt lat="43.9765632" lon="7.9776398"><ele>340.0</ele><time>2026-04-10T15:13:45.287Z</time></trkpt><trkpt lat="43.9766522" lon="7.977578"><ele>343.14285714285717</ele><time>2026-04-10T15:13:48.287Z</time></trkpt><trkpt lat="43.976703" lon="7.9775225"><ele>346.2857142857143</ele><time>2026-04-10T15:13:49.286Z</time></trkpt><trkpt lat="43.9767576" lon="7.9774571"><ele>349.42857142857144</ele><time>2026-04-10T15:13:50.287Z</time></trkpt><trkpt lat="43.9768223" lon="7.9773898"><ele>352.57142857142856</ele><time>2026-04-10T15:13:52.287Z</time></trkpt><trkpt lat="43.9768291" lon="7.9774809"><ele>355.71428571428567</ele><time>2026-04-10T15:13:58.287Z</time></trkpt><trkpt lat="43.9767756" lon="7.9775666"><ele>358.85714285714283</ele><time>2026-04-10T15:14:00.287Z</time></trkpt><trkpt lat="43.9767379" lon="7.9776394"><ele>362.0</ele><time>2026-04-10T15:14:01.287Z</time></trkpt><trkpt lat="43.9766917" lon="7.9777343"><ele>357.6</ele><time>2026-04-10T15:14:02.286Z</time></trkpt><trkpt lat="43.9766218" lon="7.9778467"><ele>353.20000000000005</ele><time>2026-04-10T15:14:03.288Z</time></trkpt><trkpt lat="43.9765469" lon="7.9779466"><ele>348.8</ele><time>2026-04-10T15:14:04.289Z</time></trkpt><trkpt lat="43.9764798" lon="7.9780538"><ele>344.4</ele><time>2026-04-10T15:14:05.288Z</time></trkpt><trkpt lat="43.9764404" lon="7.9781466"><ele>340.0</ele><time>2026-04-10T15:14:06.287Z</time></trkpt><trkpt lat="43.9764076" lon="7.9782505"><ele>340.0</ele><time>2026-04-10T15:14:07.289Z</time></trkpt><trkpt lat="43.9763879" lon="7.9783397"><ele>340.0</ele><time>2026-04-10T15:14:08.287Z</time></trkpt><trkpt lat="43.9763581" lon="7.9784246"><ele>340.0</ele><time>2026-04-10T15:14:09.287Z</time></trkpt><trkpt lat="43.9763323" lon="7.9785045"><ele>340.0</ele><time>2026-04-10T15:14:10.288Z</time></trkpt><trkpt lat="43.9762997" lon="7.9785888"><ele>340.0</ele><time>2026-04-10T15:14:11.286Z</time></trkpt><trkpt lat="43.9762749" lon="7.9786789"><ele>340.0</ele><time>2026-04-10T15:14:12.289Z</time></trkpt><trkpt lat="43.9762644" lon="7.9787871"><ele>340.0</ele><time>2026-04-10T15:14:13.288Z</time></trkpt><trkpt lat="43.9762624" lon="7.9789061"><ele>339.8</ele><time>2026-04-10T15:14:14.288Z</time></trkpt><trkpt lat="43.9762685" lon="7.9790174"><ele>339.6</ele><time>2026-04-10T15:14:15.288Z</time></trkpt><trkpt lat="43.9763248" lon="7.9791462"><ele>339.4</ele><time>2026-04-10T15:14:16.288Z</time></trkpt><trkpt lat="43.9763838" lon="7.9792779"><ele>339.2</ele><time>2026-04-10T15:14:17.288Z</time></trkpt><trkpt lat="43.9764424" lon="7.9793983"><ele>339.0</ele><time>2026-04-10T15:14:18.287Z</time></trkpt><trkpt lat="43.9765053" lon="7.9794897"><ele>342.0</ele><time>2026-04-10T15:14:19.287Z</time></trkpt><trkpt lat="43.9765956" lon="7.9795798"><ele>345.0</ele><time>2026-04-10T15:14:20.287Z</time></trkpt><trkpt lat="43.976692" lon="7.9796874"><ele>348.0</ele><time>2026-04-10T15:14:21.289Z</time></trkpt><trkpt lat="43.976804" lon="7.979822"><ele>351.0</ele><time>2026-04-10T15:14:22.288Z</time></trkpt><trkpt lat="43.9769073" lon="7.9799373"><ele>343.75</ele><time>2026-04-10T15:14:23.289Z</time></trkpt><trkpt lat="43.9770076" lon="7.9800471"><ele>336.5</ele><time>2026-04-10T15:14:24.287Z</time></trkpt><trkpt lat="43.9770962" lon="7.9801492"><ele>329.25</ele><time>2026-04-10T15:14:25.287Z</time></trkpt><trkpt lat="43.977187" lon="7.9802554"><ele>322.0</ele><time>2026-04-10T15:14:26.287Z</time></trkpt><trkpt lat="43.9772736" lon="7.9803917"><ele>322.0</ele><time>2026-04-10T15:14:27.289Z</time></trkpt><trkpt lat="43.9773582" lon="7.9805377"><ele>322.0</ele><time>2026-04-10T15:14:28.289Z</time></trkpt><trkpt lat="43.9774451" lon="7.9807013"><ele>322.0</ele><time>2026-04-10T15:14:29.288Z</time></trkpt><trkpt lat="43.9775218" lon="7.9808569"><ele>322.0</ele><time>2026-04-10T15:14:30.288Z</time></trkpt><trkpt lat="43.9776015" lon="7.9810019"><ele>327.0</ele><time>2026-04-10T15:14:31.288Z</time></trkpt><trkpt lat="43.9776795" lon="7.9811462"><ele>332.0</ele><time>2026-04-10T15:14:32.286Z</time></trkpt><trkpt lat="43.9777541" lon="7.9812897"><ele>337.0</ele><time>2026-04-10T15:14:33.288Z</time></trkpt><trkpt lat="43.9778239" lon="7.9814436"><ele>342.0</ele><time>2026-04-10T15:14:34.286Z</time></trkpt><trkpt lat="43.9779044" lon="7.9815724"><ele>338.20000000000005</ele><time>2026-04-10T15:14:35.287Z</time></trkpt><trkpt lat="43.9779754" lon="7.9816942"><ele>334.4</ele><time>2026-04-10T15:14:36.287Z</time></trkpt><trkpt lat="43.9780247" lon="7.9818101"><ele>330.6</ele><time>2026-04-10T15:14:37.288Z</time></trkpt><trkpt lat="43.9780666" lon="7.9819453"><ele>326.79999999999995</ele><time>2026-04-10T15:14:38.287Z</time></trkpt><trkpt lat="43.9781051" lon="7.9820717"><ele>323.0</ele><time>2026-04-10T15:14:39.287Z</time></trkpt><trkpt lat="43.978142" lon="7.9821578"><ele>323.0</ele><time>2026-04-10T15:14:40.289Z</time></trkpt><trkpt lat="43.978191" lon="7.9822398"><ele>323.0</ele><time>2026-04-10T15:14:41.287Z</time></trkpt><trkpt lat="43.9782744" lon="7.9823074"><ele>323.0</ele><time>2026-04-10T15:14:42.286Z</time></trkpt><trkpt lat="43.9783666" lon="7.9823972"><ele>323.0</ele><time>2026-04-10T15:14:43.287Z</time></trkpt><trkpt lat="43.9784429" lon="7.9824881"><ele>323.0</ele><time>2026-04-10T15:14:44.287Z</time></trkpt><trkpt lat="43.9785119" lon="7.9825851"><ele>323.0</ele><time>2026-04-10T15:14:45.287Z</time></trkpt><trkpt lat="43.9785668" lon="7.9826814"><ele>323.0</ele><time>2026-04-10T15:14:46.286Z</time></trkpt><trkpt lat="43.9786338" lon="7.9827654"><ele>323.0</ele><time>2026-04-10T15:14:47.286Z</time></trkpt><trkpt lat="43.9787032" lon="7.982834"><ele>323.0</ele><time>2026-04-10T15:14:48.286Z</time></trkpt><trkpt lat="43.9787917" lon="7.9828885"><ele>323.0</ele><time>2026-04-10T15:14:50.287Z</time></trkpt><trkpt lat="43.9787682" lon="7.9827857"><ele>323.0</ele><time>2026-04-10T15:14:54.287Z</time></trkpt><trkpt lat="43.9787128" lon="7.9827297"><ele>323.0</ele><time>2026-04-10T15:14:55.288Z</time></trkpt><trkpt lat="43.9786706" lon="7.9825903"><ele>323.0</ele><time>2026-04-10T15:14:57.287Z</time></trkpt><trkpt lat="43.9786737" lon="7.9824866"><ele>323.0</ele><time>2026-04-10T15:14:58.287Z</time></trkpt><trkpt lat="43.9786674" lon="7.9823794"><ele>323.0</ele><time>2026-04-10T15:14:59.288Z</time></trkpt><trkpt lat="43.9786413" lon="7.9822832"><ele>323.0</ele><time>2026-04-10T15:15:00.287Z</time></trkpt><trkpt lat="43.9786009" lon="7.9821649"><ele>323.0</ele><time>2026-04-10T15:15:01.288Z</time></trkpt><trkpt lat="43.9785456" lon="7.9820391"><ele>327.1666666666667</ele><time>2026-04-10T15:15:02.288Z</time></trkpt><trkpt lat="43.97849" lon="7.9819279"><ele>331.33333333333337</ele><time>2026-04-10T15:15:03.287Z</time></trkpt><trkpt lat="43.978443" lon="7.9818298"><ele>335.5</ele><time>2026-04-10T15:15:04.288Z</time></trkpt><trkpt lat="43.9784279" lon="7.9817368"><ele>339.6666666666667</ele><time>2026-04-10T15:15:06.288Z</time></trkpt><trkpt lat="43.9785081" lon="7.9817252"><ele>343.8333333333333</ele><time>2026-04-10T15:15:09.288Z</time></trkpt><trkpt lat="43.9785817" lon="7.9817777"><ele>348.0</ele><time>2026-04-10T15:15:10.287Z</time></trkpt><trkpt lat="43.9786679" lon="7.9818204"><ele>348.0</ele><time>2026-04-10T15:15:11.288Z</time></trkpt><trkpt lat="43.9787677" lon="7.9818586"><ele>348.0</ele><time>2026-04-10T15:15:12.289Z</time></trkpt><trkpt lat="43.9788577" lon="7.9819143"><ele>348.0</ele><time>2026-04-10T15:15:13.287Z</time></trkpt><trkpt lat="43.9789466" lon="7.9819717"><ele>348.0</ele><time>2026-04-10T15:15:14.289Z</time></trkpt><trkpt lat="43.9790182" lon="7.9820216"><ele>348.0</ele><time>2026-04-10T15:15:15.286Z</time></trkpt><trkpt lat="43.9791078" lon="7.9820645"><ele>350.0</ele><time>2026-04-10T15:15:16.288Z</time></trkpt><trkpt lat="43.9791963" lon="7.9821144"><ele>352.0</ele><time>2026-04-10T15:15:17.288Z</time></trkpt><trkpt lat="43.9792725" lon="7.9821472"><ele>354.0</ele><time>2026-04-10T15:15:18.287Z</time></trkpt><trkpt lat="43.9793584" lon="7.9821588"><ele>356.0</ele><time>2026-04-10T15:15:19.287Z</time></trkpt><trkpt lat="43.9794399" lon="7.982152"><ele>358.0</ele><time>2026-04-10T15:15:20.287Z</time></trkpt><trkpt lat="43.9795323" lon="7.9821402"><ele>360.0</ele><time>2026-04-10T15:15:21.289Z</time></trkpt><trkpt lat="43.9796341" lon="7.9821328"><ele>360.0</ele><time>2026-04-10T15:15:22.288Z</time></trkpt><trkpt lat="43.979736" lon="7.98211"><ele>360.0</ele><time>2026-04-10T15:15:23.287Z</time></trkpt><trkpt lat="43.9798159" lon="7.9820955"><ele>360.0</ele><time>2026-04-10T15:15:24.288Z</time></trkpt><trkpt lat="43.979894" lon="7.9820819"><ele>360.0</ele><time>2026-04-10T15:15:25.288Z</time></trkpt><trkpt lat="43.9799652" lon="7.9820788"><ele>360.0</ele><time>2026-04-10T15:15:26.287Z</time></trkpt><trkpt lat="43.9800627" lon="7.9821134"><ele>360.0</ele><time>2026-04-10T15:15:28.287Z</time></trkpt><trkpt lat="43.9801125" lon="7.9821945"><ele>364.1666666666667</ele><time>2026-04-10T15:15:29.288Z</time></trkpt><trkpt lat="43.9801633" lon="7.9822808"><ele>368.33333333333337</ele><time>2026-04-10T15:15:30.287Z</time></trkpt><trkpt lat="43.9802149" lon="7.9823762"><ele>372.5</ele><time>2026-04-10T15:15:31.287Z</time></trkpt><trkpt lat="43.9802659" lon="7.9824512"><ele>376.6666666666667</ele><time>2026-04-10T15:15:32.287Z</time></trkpt><trkpt lat="43.9803203" lon="7.9825263"><ele>380.83333333333337</ele><time>2026-04-10T15:15:33.287Z</time></trkpt><trkpt lat="43.9803642" lon="7.9826127"><ele>385.0</ele><time>2026-04-10T15:15:34.288Z</time></trkpt><trkpt lat="43.9804041" lon="7.9827094"><ele>385.00000000000006</ele><time>2026-04-10T15:15:35.288Z</time></trkpt><trkpt lat="43.9804404" lon="7.9828078"><ele>385.0</ele><time>2026-04-10T15:15:36.288Z</time></trkpt><trkpt lat="43.9804499" lon="7.9829017"><ele>385.0</ele><time>2026-04-10T15:15:37.286Z</time></trkpt><trkpt lat="43.9804294" lon="7.9830521"><ele>385.0</ele><time>2026-04-10T15:15:39.288Z</time></trkpt><trkpt lat="43.9803999" lon="7.9831832"><ele>385.00000000000006</ele><time>2026-04-10T15:15:41.288Z</time></trkpt><trkpt lat="43.9804216" lon="7.9832752"><ele>385.0</ele><time>2026-04-10T15:15:43.288Z</time></trkpt><trkpt lat="43.9804712" lon="7.9834403"><ele>384.33333333333337</ele><time>2026-04-10T15:15:45.288Z</time></trkpt><trkpt lat="43.9804816" lon="7.9835451"><ele>383.6666666666667</ele><time>2026-04-10T15:15:46.288Z</time></trkpt><trkpt lat="43.9804953" lon="7.9836457"><ele>383.0</ele><time>2026-04-10T15:15:47.288Z</time></trkpt><trkpt lat="43.9805507" lon="7.983756"><ele>382.33333333333337</ele><time>2026-04-10T15:15:49.287Z</time></trkpt><trkpt lat="43.9806122" lon="7.9837252"><ele>381.6666666666667</ele><time>2026-04-10T15:15:51.287Z</time></trkpt><trkpt lat="43.9806879" lon="7.9837719"><ele>381.0</ele><time>2026-04-10T15:15:54.287Z</time></trkpt><trkpt lat="43.9807411" lon="7.9838191"><ele>381.0</ele><time>2026-04-10T15:15:58.287Z</time></trkpt><trkpt lat="43.9807693" lon="7.98374"><ele>381.0</ele><time>2026-04-10T15:16:00.288Z</time></trkpt><trkpt lat="43.9808257" lon="7.9838158"><ele>381.0</ele><time>2026-04-10T15:16:03.288Z</time></trkpt><trkpt lat="43.9808631" lon="7.9839854"><ele>381.0</ele><time>2026-04-10T15:16:05.287Z</time></trkpt><trkpt lat="43.9808986" lon="7.9841161"><ele>381.0</ele><time>2026-04-10T15:16:06.288Z</time></trkpt><trkpt lat="43.9809492" lon="7.9842649"><ele>388.0</ele><time>2026-04-10T15:16:07.287Z</time></trkpt><trkpt lat="43.980995" lon="7.984408"><ele>395.0</ele><time>2026-04-10T15:16:08.288Z</time></trkpt><trkpt lat="43.9810383" lon="7.984539"><ele>402.0</ele><time>2026-04-10T15:16:09.288Z</time></trkpt><trkpt lat="43.9810872" lon="7.984672"><ele>409.0</ele><time>2026-04-10T15:16:10.287Z</time></trkpt><trkpt lat="43.9811237" lon="7.9847887"><ele>416.0</ele><time>2026-04-10T15:16:11.287Z</time></trkpt><trkpt lat="43.9811449" lon="7.9849045"><ele>415.99999999999994</ele><time>2026-04-10T15:16:12.288Z</time></trkpt><trkpt lat="43.9811416" lon="7.9850059"><ele>416.0</ele><time>2026-04-10T15:16:13.287Z</time></trkpt><trkpt lat="43.9811396" lon="7.9851288"><ele>416.0</ele><time>2026-04-10T15:16:14.289Z</time></trkpt><trkpt lat="43.9811308" lon="7.9852473"><ele>416.0</ele><time>2026-04-10T15:16:15.287Z</time></trkpt><trkpt lat="43.9811242" lon="7.9853628"><ele>415.99999999999994</ele><time>2026-04-10T15:16:16.288Z</time></trkpt><trkpt lat="43.9811164" lon="7.9854789"><ele>416.0</ele><time>2026-04-10T15:16:17.288Z</time></trkpt><trkpt lat="43.9811095" lon="7.9856187"><ele>417.4</ele><time>2026-04-10T15:16:18.288Z</time></trkpt><trkpt lat="43.9811032" lon="7.9857731"><ele>418.8</ele><time>2026-04-10T15:16:19.286Z</time></trkpt><trkpt lat="43.9810962" lon="7.9859285"><ele>420.2</ele><time>2026-04-10T15:16:20.288Z</time></trkpt><trkpt lat="43.9810777" lon="7.9860618"><ele>421.59999999999997</ele><time>2026-04-10T15:16:21.288Z</time></trkpt><trkpt lat="43.9810477" lon="7.9861762"><ele>423.0</ele><time>2026-04-10T15:16:22.288Z</time></trkpt><trkpt lat="43.9810043" lon="7.9862923"><ele>423.3333333333333</ele><time>2026-04-10T15:16:23.287Z</time></trkpt><trkpt lat="43.9809662" lon="7.9864036"><ele>423.66666666666663</ele><time>2026-04-10T15:16:24.288Z</time></trkpt><trkpt lat="43.9809314" lon="7.9865162"><ele>424.0</ele><time>2026-04-10T15:16:25.288Z</time></trkpt><trkpt lat="43.9808988" lon="7.9866216"><ele>424.3333333333333</ele><time>2026-04-10T15:16:26.289Z</time></trkpt><trkpt lat="43.9808768" lon="7.9867084"><ele>424.66666666666663</ele><time>2026-04-10T15:16:27.287Z</time></trkpt><trkpt lat="43.9808784" lon="7.9868298"><ele>425.0</ele><time>2026-04-10T15:16:29.288Z</time></trkpt><trkpt lat="43.9809598" lon="7.9867243"><ele>425.8333333333333</ele><time>2026-04-10T15:16:32.287Z</time></trkpt><trkpt lat="43.9809871" lon="7.9866272"><ele>426.66666666666663</ele><time>2026-04-10T15:16:33.287Z</time></trkpt><trkpt lat="43.9810234" lon="7.9865237"><ele>427.5</ele><time>2026-04-10T15:16:34.287Z</time></trkpt><trkpt lat="43.9810763" lon="7.9864034"><ele>428.33333333333337</ele><time>2026-04-10T15:16:35.287Z</time></trkpt><trkpt lat="43.9811371" lon="7.9863013"><ele>429.1666666666667</ele><time>2026-04-10T15:16:36.287Z</time></trkpt><trkpt lat="43.9811939" lon="7.9862058"><ele>430.0</ele><time>2026-04-10T15:16:37.288Z</time></trkpt><trkpt lat="43.9812515" lon="7.9861188"><ele>430.0</ele><time>2026-04-10T15:16:38.288Z</time></trkpt><trkpt lat="43.9813159" lon="7.9860236"><ele>430.0</ele><time>2026-04-10T15:16:39.287Z</time></trkpt><trkpt lat="43.9813768" lon="7.9859176"><ele>430.0</ele><time>2026-04-10T15:16:40.287Z</time></trkpt><trkpt lat="43.981423" lon="7.9857911"><ele>430.0</ele><time>2026-04-10T15:16:41.286Z</time></trkpt><trkpt lat="43.9814588" lon="7.9856588"><ele>430.0</ele><time>2026-04-10T15:16:42.288Z</time></trkpt><trkpt lat="43.981493" lon="7.9855285"><ele>428.25</ele><time>2026-04-10T15:16:43.286Z</time></trkpt><trkpt lat="43.9815214" lon="7.9853905"><ele>426.5</ele><time>2026-04-10T15:16:44.287Z</time></trkpt><trkpt lat="43.9815525" lon="7.9852064"><ele>424.75</ele><time>2026-04-10T15:16:45.289Z</time></trkpt><trkpt lat="43.9815857" lon="7.9849993"><ele>423.0</ele><time>2026-04-10T15:16:46.288Z</time></trkpt><trkpt lat="43.9816095" lon="7.9847826"><ele>421.25</ele><time>2026-04-10T15:16:47.288Z</time></trkpt><trkpt lat="43.9816289" lon="7.984596"><ele>419.5</ele><time>2026-04-10T15:16:48.288Z</time></trkpt><trkpt lat="43.9816638" lon="7.9844377"><ele>417.75</ele><time>2026-04-10T15:16:49.287Z</time></trkpt><trkpt lat="43.9817232" lon="7.9842938"><ele>416.0</ele><time>2026-04-10T15:16:50.287Z</time></trkpt><trkpt lat="43.9818127" lon="7.9841349"><ele>425.75</ele><time>2026-04-10T15:16:51.288Z</time></trkpt><trkpt lat="43.9818864" lon="7.9839618"><ele>435.5</ele><time>2026-04-10T15:16:52.289Z</time></trkpt><trkpt lat="43.9819274" lon="7.9837675"><ele>445.25</ele><time>2026-04-10T15:16:53.287Z</time></trkpt><trkpt lat="43.9819442" lon="7.9835594"><ele>455.0</ele><time>2026-04-10T15:16:54.288Z</time></trkpt><trkpt lat="43.9819536" lon="7.9833557"><ele>454.75</ele><time>2026-04-10T15:16:55.287Z</time></trkpt><trkpt lat="43.9819421" lon="7.9831769"><ele>454.5</ele><time>2026-04-10T15:16:56.288Z</time></trkpt><trkpt lat="43.9819288" lon="7.9830107"><ele>454.25</ele><time>2026-04-10T15:16:57.288Z</time></trkpt><trkpt lat="43.9819085" lon="7.9828612"><ele>454.0</ele><time>2026-04-10T15:16:58.288Z</time></trkpt><trkpt lat="43.9818598" lon="7.9827181"><ele>454.0</ele><time>2026-04-10T15:16:59.287Z</time></trkpt><trkpt lat="43.9818103" lon="7.9825804"><ele>454.0</ele><time>2026-04-10T15:17:00.287Z</time></trkpt><trkpt lat="43.9817522" lon="7.9824421"><ele>454.0</ele><time>2026-04-10T15:17:01.287Z</time></trkpt><trkpt lat="43.981682" lon="7.9823053"><ele>454.0</ele><time>2026-04-10T15:17:02.287Z</time></trkpt><trkpt lat="43.9816173" lon="7.9821524"><ele>448.75</ele><time>2026-04-10T15:17:03.288Z</time></trkpt><trkpt lat="43.9815621" lon="7.9820014"><ele>443.5</ele><time>2026-04-10T15:17:04.287Z</time></trkpt><trkpt lat="43.9815122" lon="7.9818403"><ele>438.25</ele><time>2026-04-10T15:17:05.287Z</time></trkpt><trkpt lat="43.9814635" lon="7.9816827"><ele>433.0</ele><time>2026-04-10T15:17:06.287Z</time></trkpt><trkpt lat="43.9814205" lon="7.9815119"><ele>433.0</ele><time>2026-04-10T15:17:07.289Z</time></trkpt><trkpt lat="43.9813793" lon="7.9813271"><ele>433.0</ele><time>2026-04-10T15:17:08.288Z</time></trkpt><trkpt lat="43.9813404" lon="7.9811218"><ele>433.0</ele><time>2026-04-10T15:17:09.288Z</time></trkpt><trkpt lat="43.9812914" lon="7.9809408"><ele>433.0</ele><time>2026-04-10T15:17:10.287Z</time></trkpt><trkpt lat="43.9812296" lon="7.9807835"><ele>436.0</ele><time>2026-04-10T15:17:11.288Z</time></trkpt><trkpt lat="43.9811693" lon="7.9806363"><ele>439.0</ele><time>2026-04-10T15:17:12.287Z</time></trkpt><trkpt lat="43.9811079" lon="7.980496"><ele>442.0</ele><time>2026-04-10T15:17:13.288Z</time></trkpt><trkpt lat="43.9810503" lon="7.9803652"><ele>445.0</ele><time>2026-04-10T15:17:14.287Z</time></trkpt><trkpt lat="43.9809741" lon="7.9802678"><ele>445.0</ele><time>2026-04-10T15:17:15.288Z</time></trkpt><trkpt lat="43.980867" lon="7.9801907"><ele>445.0</ele><time>2026-04-10T15:17:16.287Z</time></trkpt><trkpt lat="43.9807321" lon="7.9801339"><ele>445.0</ele><time>2026-04-10T15:17:17.287Z</time></trkpt><trkpt lat="43.9805901" lon="7.9800682"><ele>445.0</ele><time>2026-04-10T15:17:18.286Z</time></trkpt><trkpt lat="43.9804718" lon="7.9800131"><ele>443.50000000000006</ele><time>2026-04-10T15:17:19.288Z</time></trkpt><trkpt lat="43.9803729" lon="7.9799628"><ele>442.0</ele><time>2026-04-10T15:17:20.287Z</time></trkpt><trkpt lat="43.9802999" lon="7.9799065"><ele>440.5</ele><time>2026-04-10T15:17:21.287Z</time></trkpt><trkpt lat="43.9802469" lon="7.9798463"><ele>439.0</ele><time>2026-04-10T15:17:22.288Z</time></trkpt><trkpt lat="43.9803208" lon="7.9797751"><ele>437.50000000000006</ele><time>2026-04-10T15:17:25.287Z</time></trkpt><trkpt lat="43.9803897" lon="7.9797754"><ele>436.0</ele><time>2026-04-10T15:17:26.287Z</time></trkpt><trkpt lat="43.9804641" lon="7.9798004"><ele>436.0</ele><time>2026-04-10T15:17:27.287Z</time></trkpt><trkpt lat="43.980532" lon="7.9798236"><ele>436.0</ele><time>2026-04-10T15:17:28.287Z</time></trkpt><trkpt lat="43.9806013" lon="7.9798273"><ele>436.0</ele><time>2026-04-10T15:17:29.287Z</time></trkpt><trkpt lat="43.9807537" lon="7.9798034"><ele>436.0</ele><time>2026-04-10T15:17:31.288Z</time></trkpt><trkpt lat="43.98084" lon="7.9797771"><ele>436.0</ele><time>2026-04-10T15:17:32.286Z</time></trkpt><trkpt lat="43.9809236" lon="7.9797695"><ele>436.6</ele><time>2026-04-10T15:17:33.287Z</time></trkpt><trkpt lat="43.9809953" lon="7.9797665"><ele>437.20000000000005</ele><time>2026-04-10T15:17:34.288Z</time></trkpt><trkpt lat="43.9810843" lon="7.9798197"><ele>437.79999999999995</ele><time>2026-04-10T15:17:36.287Z</time></trkpt><trkpt lat="43.981092" lon="7.9799768"><ele>438.4</ele><time>2026-04-10T15:17:38.288Z</time></trkpt><trkpt lat="43.9810878" lon="7.9800695"><ele>439.0</ele><time>2026-04-10T15:17:39.287Z</time></trkpt><trkpt lat="43.9811424" lon="7.9802098"><ele>440.00000000000006</ele><time>2026-04-10T15:17:41.288Z</time></trkpt><trkpt lat="43.9812041" lon="7.9802732"><ele>441.0</ele><time>2026-04-10T15:17:42.287Z</time></trkpt><trkpt lat="43.9812826" lon="7.9803039"><ele>442.0</ele><time>2026-04-10T15:17:43.288Z</time></trkpt><trkpt lat="43.9813702" lon="7.9803446"><ele>443.0</ele><time>2026-04-10T15:17:44.286Z</time></trkpt><trkpt lat="43.9814503" lon="7.9803889"><ele>444.00000000000006</ele><time>2026-04-10T15:17:45.287Z</time></trkpt><trkpt lat="43.9815341" lon="7.9804034"><ele>445.0</ele><time>2026-04-10T15:17:46.288Z</time></trkpt><trkpt lat="43.9816131" lon="7.9803952"><ele>450.6</ele><time>2026-04-10T15:17:47.287Z</time></trkpt><trkpt lat="43.9816928" lon="7.9803951"><ele>456.2</ele><time>2026-04-10T15:17:48.288Z</time></trkpt><trkpt lat="43.9817761" lon="7.9803903"><ele>461.79999999999995</ele><time>2026-04-10T15:17:49.289Z</time></trkpt><trkpt lat="43.9818719" lon="7.9803577"><ele>467.4</ele><time>2026-04-10T15:17:50.287Z</time></trkpt><trkpt lat="43.981969" lon="7.9803241"><ele>473.0</ele><time>2026-04-10T15:17:51.288Z</time></trkpt><trkpt lat="43.9820596" lon="7.9802986"><ele>473.0</ele><time>2026-04-10T15:17:52.287Z</time></trkpt><trkpt lat="43.9821415" lon="7.9802818"><ele>472.99999999999994</ele><time>2026-04-10T15:17:53.287Z</time></trkpt><trkpt lat="43.9822412" lon="7.9803006"><ele>472.99999999999994</ele><time>2026-04-10T15:17:54.288Z</time></trkpt><trkpt lat="43.9823427" lon="7.9802987"><ele>473.0</ele><time>2026-04-10T15:17:55.287Z</time></trkpt><trkpt lat="43.9824419" lon="7.9802997"><ele>473.0</ele><time>2026-04-10T15:17:56.286Z</time></trkpt><trkpt lat="43.9825441" lon="7.9802908"><ele>477.49999999999994</ele><time>2026-04-10T15:17:57.287Z</time></trkpt><trkpt lat="43.9826399" lon="7.9802801"><ele>482.0</ele><time>2026-04-10T15:17:58.287Z</time></trkpt><trkpt lat="43.9827285" lon="7.9802654"><ele>486.5</ele><time>2026-04-10T15:17:59.288Z</time></trkpt><trkpt lat="43.9827923" lon="7.9802109"><ele>491.0</ele><time>2026-04-10T15:18:00.287Z</time></trkpt><trkpt lat="43.9828657" lon="7.9801509"><ele>495.49999999999994</ele><time>2026-04-10T15:18:01.288Z</time></trkpt><trkpt lat="43.9829428" lon="7.9800858"><ele>500.0</ele><time>2026-04-10T15:18:02.288Z</time></trkpt><trkpt lat="43.9830134" lon="7.9800265"><ele>497.0</ele><time>2026-04-10T15:18:03.288Z</time></trkpt><trkpt lat="43.9830816" lon="7.9799439"><ele>494.0</ele><time>2026-04-10T15:18:04.286Z</time></trkpt><trkpt lat="43.9831556" lon="7.9798446"><ele>491.0</ele><time>2026-04-10T15:18:05.288Z</time></trkpt><trkpt lat="43.9832388" lon="7.9797496"><ele>488.0</ele><time>2026-04-10T15:18:06.289Z</time></trkpt><trkpt lat="43.9833306" lon="7.9796614"><ele>485.0</ele><time>2026-04-10T15:18:07.287Z</time></trkpt><trkpt lat="43.983421" lon="7.9795676"><ele>485.0</ele><time>2026-04-10T15:18:08.287Z</time></trkpt><trkpt lat="43.9835042" lon="7.9794737"><ele>485.0</ele><time>2026-04-10T15:18:09.287Z</time></trkpt><trkpt lat="43.9835782" lon="7.9793834"><ele>485.0</ele><time>2026-04-10T15:18:10.288Z</time></trkpt><trkpt lat="43.983658" lon="7.9792931"><ele>485.0</ele><time>2026-04-10T15:18:11.288Z</time></trkpt><trkpt lat="43.9837381" lon="7.9792182"><ele>485.0</ele><time>2026-04-10T15:18:12.287Z</time></trkpt><trkpt lat="43.9838167" lon="7.9791473"><ele>478.8</ele><time>2026-04-10T15:18:13.288Z</time></trkpt><trkpt lat="43.9839097" lon="7.9790888"><ele>472.6</ele><time>2026-04-10T15:18:14.289Z</time></trkpt><trkpt lat="43.9839999" lon="7.9790342"><ele>466.4</ele><time>2026-04-10T15:18:15.288Z</time></trkpt><trkpt lat="43.984092" lon="7.9790089"><ele>460.2</ele><time>2026-04-10T15:18:16.288Z</time></trkpt><trkpt lat="43.984198" lon="7.9790199"><ele>454.0</ele><time>2026-04-10T15:18:17.287Z</time></trkpt><trkpt lat="43.9843104" lon="7.9790271"><ele>454.0</ele><time>2026-04-10T15:18:18.288Z</time></trkpt><trkpt lat="43.9844259" lon="7.9790328"><ele>454.0</ele><time>2026-04-10T15:18:19.287Z</time></trkpt><trkpt lat="43.9845379" lon="7.9790244"><ele>454.0</ele><time>2026-04-10T15:18:20.288Z</time></trkpt><trkpt lat="43.9846512" lon="7.9790094"><ele>454.0</ele><time>2026-04-10T15:18:21.287Z</time></trkpt><trkpt lat="43.9847601" lon="7.9790031"><ele>454.0</ele><time>2026-04-10T15:18:22.287Z</time></trkpt><trkpt lat="43.9848701" lon="7.9790243"><ele>454.0</ele><time>2026-04-10T15:18:23.287Z</time></trkpt><trkpt lat="43.9849853" lon="7.9790621"><ele>454.0</ele><time>2026-04-10T15:18:24.289Z</time></trkpt><trkpt lat="43.9850962" lon="7.9790901"><ele>454.0</ele><time>2026-04-10T15:18:25.288Z</time></trkpt><trkpt lat="43.9851934" lon="7.9791218"><ele>454.0</ele><time>2026-04-10T15:18:26.287Z</time></trkpt><trkpt lat="43.9852826" lon="7.9791573"><ele>460.75</ele><time>2026-04-10T15:18:27.287Z</time></trkpt><trkpt lat="43.9853763" lon="7.9792108"><ele>467.5</ele><time>2026-04-10T15:18:28.287Z</time></trkpt><trkpt lat="43.9854874" lon="7.9792864"><ele>474.25</ele><time>2026-04-10T15:18:29.288Z</time></trkpt><trkpt lat="43.9855909" lon="7.9793546"><ele>481.0</ele><time>2026-04-10T15:18:30.288Z</time></trkpt><trkpt lat="43.9856965" lon="7.9794284"><ele>481.0</ele><time>2026-04-10T15:18:31.287Z</time></trkpt><trkpt lat="43.9857893" lon="7.9794631"><ele>481.0</ele><time>2026-04-10T15:18:32.287Z</time></trkpt><trkpt lat="43.9858883" lon="7.9795058"><ele>481.0</ele><time>2026-04-10T15:18:33.287Z</time></trkpt><trkpt lat="43.985979" lon="7.9795184"><ele>481.0</ele><time>2026-04-10T15:18:34.289Z</time></trkpt><trkpt lat="43.986094" lon="7.9794936"><ele>481.0</ele><time>2026-04-10T15:18:35.288Z</time></trkpt><trkpt lat="43.9862074" lon="7.9794542"><ele>480.5</ele><time>2026-04-10T15:18:36.287Z</time></trkpt><trkpt lat="43.9863178" lon="7.9793974"><ele>480.0</ele><time>2026-04-10T15:18:37.288Z</time></trkpt><trkpt lat="43.9864304" lon="7.9793393"><ele>479.5</ele><time>2026-04-10T15:18:38.287Z</time></trkpt><trkpt lat="43.9865498" lon="7.9792872"><ele>479.0</ele><time>2026-04-10T15:18:39.288Z</time></trkpt><trkpt lat="43.9866694" lon="7.9792436"><ele>481.0</ele><time>2026-04-10T15:18:40.287Z</time></trkpt><trkpt lat="43.9867838" lon="7.9791855"><ele>483.0</ele><time>2026-04-10T15:18:41.288Z</time></trkpt><trkpt lat="43.9868913" lon="7.9791262"><ele>485.0</ele><time>2026-04-10T15:18:42.288Z</time></trkpt><trkpt lat="43.9869881" lon="7.9790746"><ele>487.0</ele><time>2026-04-10T15:18:43.287Z</time></trkpt><trkpt lat="43.98708" lon="7.9790202"><ele>489.0</ele><time>2026-04-10T15:18:44.287Z</time></trkpt><trkpt lat="43.9871896" lon="7.9789819"><ele>487.5</ele><time>2026-04-10T15:18:45.289Z</time></trkpt><trkpt lat="43.9872989" lon="7.978944"><ele>486.0</ele><time>2026-04-10T15:18:46.287Z</time></trkpt><trkpt lat="43.9874081" lon="7.9789068"><ele>484.5</ele><time>2026-04-10T15:18:47.287Z</time></trkpt><trkpt lat="43.9875309" lon="7.9788739"><ele>483.0</ele><time>2026-04-10T15:18:48.289Z</time></trkpt><trkpt lat="43.9876446" lon="7.9788306"><ele>483.0</ele><time>2026-04-10T15:18:49.287Z</time></trkpt><trkpt lat="43.9877666" lon="7.9787707"><ele>483.0</ele><time>2026-04-10T15:18:50.288Z</time></trkpt><trkpt lat="43.9878859" lon="7.9787017"><ele>483.0</ele><time>2026-04-10T15:18:51.287Z</time></trkpt><trkpt lat="43.9880127" lon="7.9786516"><ele>483.0</ele><time>2026-04-10T15:18:52.287Z</time></trkpt><trkpt lat="43.9881344" lon="7.9786109"><ele>483.0</ele><time>2026-04-10T15:18:53.287Z</time></trkpt><trkpt lat="43.9882392" lon="7.9785795"><ele>482.99999999999994</ele><time>2026-04-10T15:18:54.288Z</time></trkpt><trkpt lat="43.9883346" lon="7.9785609"><ele>482.99999999999994</ele><time>2026-04-10T15:18:55.288Z</time></trkpt><trkpt lat="43.9884187" lon="7.9785387"><ele>483.0</ele><time>2026-04-10T15:18:56.287Z</time></trkpt><trkpt lat="43.9885163" lon="7.9785087"><ele>483.0</ele><time>2026-04-10T15:18:57.289Z</time></trkpt><trkpt lat="43.9886242" lon="7.9784788"><ele>485.75</ele><time>2026-04-10T15:18:58.288Z</time></trkpt><trkpt lat="43.9887487" lon="7.9784698"><ele>488.5</ele><time>2026-04-10T15:18:59.287Z</time></trkpt><trkpt lat="43.9888766" lon="7.9784786"><ele>491.25</ele><time>2026-04-10T15:19:00.287Z</time></trkpt><trkpt lat="43.9889989" lon="7.9785027"><ele>494.0</ele><time>2026-04-10T15:19:01.288Z</time></trkpt><trkpt lat="43.9891046" lon="7.978542"><ele>494.0</ele><time>2026-04-10T15:19:02.287Z</time></trkpt><trkpt lat="43.989193" lon="7.9786066"><ele>494.0</ele><time>2026-04-10T15:19:03.288Z</time></trkpt><trkpt lat="43.9892774" lon="7.9787001"><ele>494.0</ele><time>2026-04-10T15:19:04.288Z</time></trkpt><trkpt lat="43.9893628" lon="7.9787819"><ele>494.0</ele><time>2026-04-10T15:19:05.289Z</time></trkpt><trkpt lat="43.9894649" lon="7.9788406"><ele>494.0</ele><time>2026-04-10T15:19:06.287Z</time></trkpt><trkpt lat="43.9895918" lon="7.9789144"><ele>494.0</ele><time>2026-04-10T15:19:07.288Z</time></trkpt><trkpt lat="43.9897138" lon="7.9789981"><ele>494.0</ele><time>2026-04-10T15:19:08.289Z</time></trkpt><trkpt lat="43.9898416" lon="7.9790466"><ele>494.0</ele><time>2026-04-10T15:19:09.287Z</time></trkpt><trkpt lat="43.9899701" lon="7.9790557"><ele>494.0</ele><time>2026-04-10T15:19:10.287Z</time></trkpt><trkpt lat="43.9901033" lon="7.9791003"><ele>490.75</ele><time>2026-04-10T15:19:11.288Z</time></trkpt><trkpt lat="43.9902422" lon="7.9791763"><ele>487.5</ele><time>2026-04-10T15:19:12.289Z</time></trkpt><trkpt lat="43.990372" lon="7.979234"><ele>484.25</ele><time>2026-04-10T15:19:13.288Z</time></trkpt><trkpt lat="43.9904848" lon="7.9792419"><ele>481.0</ele><time>2026-04-10T15:19:14.288Z</time></trkpt><trkpt lat="43.9906064" lon="7.9792744"><ele>487.25</ele><time>2026-04-10T15:19:15.288Z</time></trkpt><trkpt lat="43.9907228" lon="7.9793518"><ele>493.5</ele><time>2026-04-10T15:19:16.287Z</time></trkpt><trkpt lat="43.990836" lon="7.9794224"><ele>499.75</ele><time>2026-04-10T15:19:17.29Z</time></trkpt><trkpt lat="43.9909525" lon="7.9795026"><ele>506.0</ele><time>2026-04-10T15:19:18.288Z</time></trkpt><trkpt lat="43.991079" lon="7.9795761"><ele>506.0</ele><time>2026-04-10T15:19:19.288Z</time></trkpt><trkpt lat="43.9912104" lon="7.9796323"><ele>506.0</ele><time>2026-04-10T15:19:20.289Z</time></trkpt><trkpt lat="43.9913511" lon="7.9796411"><ele>506.0</ele><time>2026-04-10T15:19:21.288Z</time></trkpt><trkpt lat="43.9914748" lon="7.9796625"><ele>506.0</ele><time>2026-04-10T15:19:22.288Z</time></trkpt><trkpt lat="43.991594" lon="7.9796986"><ele>505.25</ele><time>2026-04-10T15:19:23.288Z</time></trkpt><trkpt lat="43.9917036" lon="7.9797571"><ele>504.5</ele><time>2026-04-10T15:19:24.287Z</time></trkpt><trkpt lat="43.9918068" lon="7.9798348"><ele>503.75</ele><time>2026-04-10T15:19:25.288Z</time></trkpt><trkpt lat="43.9919072" lon="7.979928"><ele>503.0</ele><time>2026-04-10T15:19:26.288Z</time></trkpt><trkpt lat="43.9919866" lon="7.980028"><ele>503.0</ele><time>2026-04-10T15:19:27.287Z</time></trkpt><trkpt lat="43.9920572" lon="7.9801535"><ele>503.0</ele><time>2026-04-10T15:19:28.29Z</time></trkpt><trkpt lat="43.9921147" lon="7.9802935"><ele>503.0</ele><time>2026-04-10T15:19:29.287Z</time></trkpt><trkpt lat="43.9921603" lon="7.9804394"><ele>503.0</ele><time>2026-04-10T15:19:30.288Z</time></trkpt><trkpt lat="43.9921969" lon="7.9805858"><ele>503.0</ele><time>2026-04-10T15:19:31.288Z</time></trkpt><trkpt lat="43.9922294" lon="7.9807317"><ele>502.99999999999994</ele><time>2026-04-10T15:19:32.288Z</time></trkpt><trkpt lat="43.9922618" lon="7.9808657"><ele>502.99999999999994</ele><time>2026-04-10T15:19:33.288Z</time></trkpt><trkpt lat="43.9922924" lon="7.9809993"><ele>503.0</ele><time>2026-04-10T15:19:34.287Z</time></trkpt><trkpt lat="43.9923123" lon="7.9811407"><ele>503.0</ele><time>2026-04-10T15:19:35.288Z</time></trkpt><trkpt lat="43.9923148" lon="7.9812959"><ele>508.0</ele><time>2026-04-10T15:19:36.288Z</time></trkpt><trkpt lat="43.9923236" lon="7.9814713"><ele>513.0</ele><time>2026-04-10T15:19:37.288Z</time></trkpt><trkpt lat="43.9923457" lon="7.9816287"><ele>518.0</ele><time>2026-04-10T15:19:38.289Z</time></trkpt><trkpt lat="43.9923813" lon="7.9817791"><ele>523.0</ele><time>2026-04-10T15:19:39.287Z</time></trkpt><trkpt lat="43.9924278" lon="7.9819182"><ele>525.4</ele><time>2026-04-10T15:19:40.287Z</time></trkpt><trkpt lat="43.9925027" lon="7.9820469"><ele>527.8</ele><time>2026-04-10T15:19:41.288Z</time></trkpt><trkpt lat="43.9925844" lon="7.9821793"><ele>530.2</ele><time>2026-04-10T15:19:42.289Z</time></trkpt><trkpt lat="43.9926648" lon="7.9822722"><ele>532.6</ele><time>2026-04-10T15:19:43.289Z</time></trkpt><trkpt lat="43.9927355" lon="7.9823264"><ele>535.0</ele><time>2026-04-10T15:19:44.289Z</time></trkpt><trkpt lat="43.992816" lon="7.9823352"><ele>535.0</ele><time>2026-04-10T15:19:45.287Z</time></trkpt><trkpt lat="43.9929375" lon="7.9823238"><ele>535.0</ele><time>2026-04-10T15:19:47.288Z</time></trkpt><trkpt lat="43.9930098" lon="7.9823917"><ele>535.0</ele><time>2026-04-10T15:19:49.289Z</time></trkpt><trkpt lat="43.9930192" lon="7.9824806"><ele>535.0</ele><time>2026-04-10T15:19:50.288Z</time></trkpt><trkpt lat="43.9929777" lon="7.982618"><ele>535.0</ele><time>2026-04-10T15:19:52.287Z</time></trkpt><trkpt lat="43.9928888" lon="7.9826657"><ele>536.8</ele><time>2026-04-10T15:19:53.288Z</time></trkpt><trkpt lat="43.9927378" lon="7.9826708"><ele>538.6</ele><time>2026-04-10T15:19:55.287Z</time></trkpt><trkpt lat="43.9926656" lon="7.9826411"><ele>540.4</ele><time>2026-04-10T15:19:56.287Z</time></trkpt><trkpt lat="43.992563" lon="7.9826623"><ele>542.2</ele><time>2026-04-10T15:19:58.288Z</time></trkpt><trkpt lat="43.9925654" lon="7.9827834"><ele>544.0</ele><time>2026-04-10T15:20:00.288Z</time></trkpt><trkpt lat="43.9926886" lon="7.982955"><ele>544.0</ele><time>2026-04-10T15:20:02.289Z</time></trkpt><trkpt lat="43.9927715" lon="7.9830549"><ele>544.0</ele><time>2026-04-10T15:20:03.288Z</time></trkpt><trkpt lat="43.9928641" lon="7.9831542"><ele>544.0</ele><time>2026-04-10T15:20:04.288Z</time></trkpt><trkpt lat="43.9929541" lon="7.9832185"><ele>544.0</ele><time>2026-04-10T15:20:05.287Z</time></trkpt><trkpt lat="43.9930405" lon="7.9832738"><ele>544.0</ele><time>2026-04-10T15:20:06.287Z</time></trkpt><trkpt lat="43.9930947" lon="7.9833354"><ele>547.0</ele><time>2026-04-10T15:20:07.288Z</time></trkpt><trkpt lat="43.9931335" lon="7.9834207"><ele>550.0</ele><time>2026-04-10T15:20:08.289Z</time></trkpt><trkpt lat="43.9931002" lon="7.9835883"><ele>553.0</ele><time>2026-04-10T15:20:10.287Z</time></trkpt><trkpt lat="43.9930426" lon="7.9836732"><ele>556.0</ele><time>2026-04-10T15:20:11.288Z</time></trkpt><trkpt lat="43.9929818" lon="7.9837607"><ele>559.0</ele><time>2026-04-10T15:20:12.287Z</time></trkpt><trkpt lat="43.9929334" lon="7.9838535"><ele>559.0</ele><time>2026-04-10T15:20:13.288Z</time></trkpt><trkpt lat="43.9929242" lon="7.9839707"><ele>559.0</ele><time>2026-04-10T15:20:14.289Z</time></trkpt><trkpt lat="43.9929414" lon="7.9840823"><ele>559.0</ele><time>2026-04-10T15:20:15.287Z</time></trkpt><trkpt lat="43.9929915" lon="7.9841864"><ele>559.0</ele><time>2026-04-10T15:20:16.288Z</time></trkpt><trkpt lat="43.9930407" lon="7.9843041"><ele>559.0</ele><time>2026-04-10T15:20:17.288Z</time></trkpt><trkpt lat="43.9930853" lon="7.9844082"><ele>559.0</ele><time>2026-04-10T15:20:18.288Z</time></trkpt><trkpt lat="43.9931041" lon="7.9845105"><ele>562.0</ele><time>2026-04-10T15:20:19.288Z</time></trkpt><trkpt lat="43.9931278" lon="7.9846145"><ele>565.0</ele><time>2026-04-10T15:20:20.288Z</time></trkpt><trkpt lat="43.9931498" lon="7.9847128"><ele>568.0</ele><time>2026-04-10T15:20:21.288Z</time></trkpt><trkpt lat="43.9932121" lon="7.9848232"><ele>571.0</ele><time>2026-04-10T15:20:22.287Z</time></trkpt><trkpt lat="43.9932588" lon="7.9849229"><ele>574.0</ele><time>2026-04-10T15:20:23.288Z</time></trkpt><trkpt lat="43.9933038" lon="7.9850565"><ele>577.0</ele><time>2026-04-10T15:20:24.288Z</time></trkpt><trkpt lat="43.993357" lon="7.9851874"><ele>577.2</ele><time>2026-04-10T15:20:25.289Z</time></trkpt><trkpt lat="43.9934036" lon="7.9852947"><ele>577.4000000000001</ele><time>2026-04-10T15:20:26.289Z</time></trkpt><trkpt lat="43.9934528" lon="7.9853999"><ele>577.5999999999999</ele><time>2026-04-10T15:20:27.288Z</time></trkpt><trkpt lat="43.9935108" lon="7.9854797"><ele>577.8</ele><time>2026-04-10T15:20:28.288Z</time></trkpt><trkpt lat="43.9935844" lon="7.9855449"><ele>578.0</ele><time>2026-04-10T15:20:29.287Z</time></trkpt><trkpt lat="43.9936709" lon="7.9856189"><ele>578.0</ele><time>2026-04-10T15:20:30.287Z</time></trkpt><trkpt lat="43.9937463" lon="7.9856867"><ele>578.0</ele><time>2026-04-10T15:20:31.288Z</time></trkpt><trkpt lat="43.993802" lon="7.985797"><ele>578.0</ele><time>2026-04-10T15:20:32.288Z</time></trkpt><trkpt lat="43.9938571" lon="7.9859056"><ele>578.0</ele><time>2026-04-10T15:20:33.288Z</time></trkpt><trkpt lat="43.9939025" lon="7.9860114"><ele>578.0</ele><time>2026-04-10T15:20:34.287Z</time></trkpt><trkpt lat="43.9939639" lon="7.9861363"><ele>579.1999999999999</ele><time>2026-04-10T15:20:35.288Z</time></trkpt><trkpt lat="43.9940259" lon="7.9862824"><ele>580.4</ele><time>2026-04-10T15:20:36.288Z</time></trkpt><trkpt lat="43.994079" lon="7.9863873"><ele>581.5999999999999</ele><time>2026-04-10T15:20:37.288Z</time></trkpt><trkpt lat="43.9941461" lon="7.9864892"><ele>582.8</ele><time>2026-04-10T15:20:38.288Z</time></trkpt><trkpt lat="43.9942386" lon="7.986584"><ele>584.0</ele><time>2026-04-10T15:20:39.287Z</time></trkpt><trkpt lat="43.9943382" lon="7.9866839"><ele>587.4</ele><time>2026-04-10T15:20:40.287Z</time></trkpt><trkpt lat="43.994425" lon="7.9867854"><ele>590.8</ele><time>2026-04-10T15:20:41.288Z</time></trkpt><trkpt lat="43.9944755" lon="7.9868896"><ele>594.2</ele><time>2026-04-10T15:20:42.287Z</time></trkpt><trkpt lat="43.9945232" lon="7.9870125"><ele>597.6</ele><time>2026-04-10T15:20:43.287Z</time></trkpt><trkpt lat="43.9945646" lon="7.9871496"><ele>601.0</ele><time>2026-04-10T15:20:44.287Z</time></trkpt><trkpt lat="43.9946136" lon="7.9872783"><ele>601.0</ele><time>2026-04-10T15:20:45.288Z</time></trkpt><trkpt lat="43.9946774" lon="7.987426"><ele>601.0</ele><time>2026-04-10T15:20:46.288Z</time></trkpt><trkpt lat="43.994719" lon="7.9875651"><ele>601.0</ele><time>2026-04-10T15:20:47.289Z</time></trkpt><trkpt lat="43.9947673" lon="7.9877026"><ele>601.0</ele><time>2026-04-10T15:20:48.289Z</time></trkpt><trkpt lat="43.9948317" lon="7.9878396"><ele>603.2</ele><time>2026-04-10T15:20:49.289Z</time></trkpt><trkpt lat="43.994902" lon="7.9879596"><ele>605.4000000000001</ele><time>2026-04-10T15:20:50.288Z</time></trkpt><trkpt lat="43.9949592" lon="7.9880724"><ele>607.6</ele><time>2026-04-10T15:20:51.289Z</time></trkpt><trkpt lat="43.9950186" lon="7.9881257"><ele>609.8000000000001</ele><time>2026-04-10T15:20:52.288Z</time></trkpt><trkpt lat="43.9951192" lon="7.9882166"><ele>612.0</ele><time>2026-04-10T15:20:54.289Z</time></trkpt><trkpt lat="43.9952103" lon="7.9882468"><ele>612.0</ele><time>2026-04-10T15:20:55.288Z</time></trkpt><trkpt lat="43.9953125" lon="7.9882651"><ele>612.0</ele><time>2026-04-10T15:20:56.287Z</time></trkpt><trkpt lat="43.9954108" lon="7.9882656"><ele>612.0</ele><time>2026-04-10T15:20:57.289Z</time></trkpt><trkpt lat="43.9955125" lon="7.9882712"><ele>612.0</ele><time>2026-04-10T15:20:58.288Z</time></trkpt><trkpt lat="43.9956158" lon="7.9883026"><ele>612.0</ele><time>2026-04-10T15:21:00.288Z</time></trkpt><trkpt lat="43.9956772" lon="7.9884387"><ele>612.1666666666666</ele><time>2026-04-10T15:21:02.29Z</time></trkpt><trkpt lat="43.9956872" lon="7.9885689"><ele>612.3333333333334</ele><time>2026-04-10T15:21:03.287Z</time></trkpt><trkpt lat="43.9956892" lon="7.9886831"><ele>612.5</ele><time>2026-04-10T15:21:04.288Z</time></trkpt><trkpt lat="43.9957059" lon="7.9887731"><ele>612.6666666666667</ele><time>2026-04-10T15:21:05.288Z</time></trkpt><trkpt lat="43.9957335" lon="7.9888523"><ele>612.8333333333334</ele><time>2026-04-10T15:21:06.288Z</time></trkpt><trkpt lat="43.9958103" lon="7.9889329"><ele>613.0</ele><time>2026-04-10T15:21:07.287Z</time></trkpt><trkpt lat="43.9958866" lon="7.9890232"><ele>613.0</ele><time>2026-04-10T15:21:08.288Z</time></trkpt><trkpt lat="43.9959482" lon="7.989109"><ele>613.0</ele><time>2026-04-10T15:21:09.287Z</time></trkpt><trkpt lat="43.9959895" lon="7.9892131"><ele>613.0</ele><time>2026-04-10T15:21:10.287Z</time></trkpt><trkpt lat="43.9960252" lon="7.9893144"><ele>613.0</ele><time>2026-04-10T15:21:11.289Z</time></trkpt><trkpt lat="43.9960549" lon="7.9894377"><ele>613.0</ele><time>2026-04-10T15:21:12.288Z</time></trkpt><trkpt lat="43.9960588" lon="7.9895465"><ele>613.0</ele><time>2026-04-10T15:21:13.287Z</time></trkpt><trkpt lat="43.9960104" lon="7.9896579"><ele>614.0</ele><time>2026-04-10T15:21:14.288Z</time></trkpt><trkpt lat="43.9959696" lon="7.9897864"><ele>615.0</ele><time>2026-04-10T15:21:15.287Z</time></trkpt><trkpt lat="43.9959296" lon="7.9899033"><ele>616.0</ele><time>2026-04-10T15:21:16.288Z</time></trkpt><trkpt lat="43.9959227" lon="7.990028"><ele>617.0</ele><time>2026-04-10T15:21:17.288Z</time></trkpt><trkpt lat="43.9958826" lon="7.9902043"><ele>618.0</ele><time>2026-04-10T15:21:18.288Z</time></trkpt><trkpt lat="43.9958474" lon="7.9903705"><ele>620.25</ele><time>2026-04-10T15:21:19.288Z</time></trkpt><trkpt lat="43.9958116" lon="7.9905457"><ele>622.5</ele><time>2026-04-10T15:21:20.288Z</time></trkpt><trkpt lat="43.9957799" lon="7.9907212"><ele>624.75</ele><time>2026-04-10T15:21:21.288Z</time></trkpt><trkpt lat="43.9957337" lon="7.9908894"><ele>627.0</ele><time>2026-04-10T15:21:22.288Z</time></trkpt><trkpt lat="43.9956872" lon="7.9910683"><ele>627.0</ele><time>2026-04-10T15:21:23.287Z</time></trkpt><trkpt lat="43.9956554" lon="7.9912189"><ele>627.0</ele><time>2026-04-10T15:21:24.29Z</time></trkpt><trkpt lat="43.9956388" lon="7.9913431"><ele>627.0</ele><time>2026-04-10T15:21:25.287Z</time></trkpt><trkpt lat="43.995629" lon="7.99149"><ele>627.0</ele><time>2026-04-10T15:21:26.289Z</time></trkpt><trkpt lat="43.9956329" lon="7.9916445"><ele>627.0</ele><time>2026-04-10T15:21:27.287Z</time></trkpt><trkpt lat="43.9956338" lon="7.9917938"><ele>627.1666666666666</ele><time>2026-04-10T15:21:28.289Z</time></trkpt><trkpt lat="43.9956301" lon="7.9919496"><ele>627.3333333333334</ele><time>2026-04-10T15:21:29.287Z</time></trkpt><trkpt lat="43.9956264" lon="7.9920897"><ele>627.5</ele><time>2026-04-10T15:21:30.287Z</time></trkpt><trkpt lat="43.9956401" lon="7.9921882"><ele>627.6666666666667</ele><time>2026-04-10T15:21:32.288Z</time></trkpt><trkpt lat="43.9955935" lon="7.9921186"><ele>627.8333333333334</ele><time>2026-04-10T15:31:41.289Z</time></trkpt><trkpt lat="43.9955269" lon="7.9921056"><ele>628.0</ele><time>2026-04-10T15:31:46.288Z</time></trkpt><trkpt lat="43.9955708" lon="7.9921742"><ele>628.0</ele><time>2026-04-10T15:35:11.289Z</time></trkpt><trkpt lat="43.995636" lon="7.9921924"><ele>628.0</ele><time>2026-04-10T15:35:21.288Z</time></trkpt><trkpt lat="43.9956812" lon="7.9923054"><ele>628.0</ele><time>2026-04-10T15:37:07.288Z</time></trkpt><trkpt lat="43.9957324" lon="7.9924659"><ele>628.0</ele><time>2026-04-10T15:37:09.288Z</time></trkpt><trkpt lat="43.9957398" lon="7.9925691"><ele>628.0</ele><time>2026-04-10T15:37:10.288Z</time></trkpt><trkpt lat="43.9957379" lon="7.9926801"><ele>628.0</ele><time>2026-04-10T15:37:11.288Z</time></trkpt><trkpt lat="43.9957393" lon="7.9927892"><ele>628.8</ele><time>2026-04-10T15:37:12.289Z</time></trkpt><trkpt lat="43.9957481" lon="7.9929055"><ele>629.5999999999999</ele><time>2026-04-10T15:37:13.288Z</time></trkpt><trkpt lat="43.9957458" lon="7.9930465"><ele>630.4000000000001</ele><time>2026-04-10T15:37:14.288Z</time></trkpt><trkpt lat="43.9957465" lon="7.9931769"><ele>631.2</ele><time>2026-04-10T15:37:15.288Z</time></trkpt><trkpt lat="43.995767" lon="7.9932903"><ele>632.0</ele><time>2026-04-10T15:37:16.288Z</time></trkpt><trkpt lat="43.9957988" lon="7.9934088"><ele>632.8333333333333</ele><time>2026-04-10T15:37:17.288Z</time></trkpt><trkpt lat="43.9958293" lon="7.9935091"><ele>633.6666666666666</ele><time>2026-04-10T15:37:18.289Z</time></trkpt><trkpt lat="43.9958574" lon="7.9936188"><ele>634.5</ele><time>2026-04-10T15:37:19.289Z</time></trkpt><trkpt lat="43.9958835" lon="7.9937821"><ele>635.3333333333334</ele><time>2026-04-10T15:37:21.289Z</time></trkpt><trkpt lat="43.995875" lon="7.9938879"><ele>636.1666666666667</ele><time>2026-04-10T15:37:22.289Z</time></trkpt><trkpt lat="43.9958598" lon="7.9939938"><ele>637.0</ele><time>2026-04-10T15:37:23.288Z</time></trkpt><trkpt lat="43.9958347" lon="7.9940797"><ele>637.25</ele><time>2026-04-10T15:37:24.289Z</time></trkpt><trkpt lat="43.9958025" lon="7.9942429"><ele>637.5</ele><time>2026-04-10T15:37:26.289Z</time></trkpt><trkpt lat="43.9958039" lon="7.9943909"><ele>637.75</ele><time>2026-04-10T15:37:28.288Z</time></trkpt><trkpt lat="43.9958701" lon="7.994533"><ele>638.0</ele><time>2026-04-10T15:37:30.289Z</time></trkpt><trkpt lat="43.9959994" lon="7.9946298"><ele>638.0</ele><time>2026-04-10T15:37:32.288Z</time></trkpt><trkpt lat="43.9960442" lon="7.9946945"><ele>638.0</ele><time>2026-04-10T15:37:33.288Z</time></trkpt><trkpt lat="43.9961179" lon="7.994822"><ele>638.0</ele><time>2026-04-10T15:37:35.288Z</time></trkpt><trkpt lat="43.996086" lon="7.9949479"><ele>638.0</ele><time>2026-04-10T15:37:37.29Z</time></trkpt><trkpt lat="43.9959946" lon="7.9950078"><ele>638.0</ele><time>2026-04-10T15:37:39.289Z</time></trkpt><trkpt lat="43.9959262" lon="7.9950222"><ele>638.0</ele><time>2026-04-10T15:37:40.289Z</time></trkpt><trkpt lat="43.9958506" lon="7.9950102"><ele>639.5</ele><time>2026-04-10T15:37:41.288Z</time></trkpt><trkpt lat="43.9957655" lon="7.9949748"><ele>641.0</ele><time>2026-04-10T15:37:42.289Z</time></trkpt><trkpt lat="43.9956891" lon="7.9949152"><ele>642.5</ele><time>2026-04-10T15:37:43.289Z</time></trkpt><trkpt lat="43.9955894" lon="7.9949087"><ele>644.0</ele><time>2026-04-10T15:37:45.289Z</time></trkpt><trkpt lat="43.9955819" lon="7.9950077"><ele>645.5</ele><time>2026-04-10T15:37:47.289Z</time></trkpt><trkpt lat="43.9956257" lon="7.9951098"><ele>647.0</ele><time>2026-04-10T15:37:49.29Z</time></trkpt><trkpt lat="43.9956776" lon="7.9951794"><ele>646.6666666666666</ele><time>2026-04-10T15:37:50.288Z</time></trkpt><trkpt lat="43.9957383" lon="7.9952461"><ele>646.3333333333333</ele><time>2026-04-10T15:37:51.288Z</time></trkpt><trkpt lat="43.9958025" lon="7.9952883"><ele>646.0</ele><time>2026-04-10T15:37:52.289Z</time></trkpt><trkpt lat="43.9958881" lon="7.9953466"><ele>645.6666666666666</ele><time>2026-04-10T15:37:53.289Z</time></trkpt><trkpt lat="43.9959532" lon="7.9954086"><ele>645.3333333333334</ele><time>2026-04-10T15:37:54.288Z</time></trkpt><trkpt lat="43.9960082" lon="7.9954934"><ele>645.0</ele><time>2026-04-10T15:37:55.289Z</time></trkpt><trkpt lat="43.9960878" lon="7.9956095"><ele>645.0</ele><time>2026-04-10T15:37:57.288Z</time></trkpt><trkpt lat="43.9961594" lon="7.9956489"><ele>645.0</ele><time>2026-04-10T15:37:58.288Z</time></trkpt><trkpt lat="43.9962353" lon="7.9956841"><ele>645.0</ele><time>2026-04-10T15:37:59.289Z</time></trkpt><trkpt lat="43.996287" lon="7.9957476"><ele>645.0</ele><time>2026-04-10T15:38:00.288Z</time></trkpt><trkpt lat="43.9963172" lon="7.9958276"><ele>645.0</ele><time>2026-04-10T15:38:01.288Z</time></trkpt><trkpt lat="43.9963196" lon="7.9959286"><ele>645.0</ele><time>2026-04-10T15:38:02.289Z</time></trkpt><trkpt lat="43.9963138" lon="7.9960491"><ele>646.8</ele><time>2026-04-10T15:38:03.288Z</time></trkpt><trkpt lat="43.9963038" lon="7.9961872"><ele>648.6</ele><time>2026-04-10T15:38:04.289Z</time></trkpt><trkpt lat="43.996281" lon="7.9963317"><ele>650.4000000000001</ele><time>2026-04-10T15:38:05.289Z</time></trkpt><trkpt lat="43.9962618" lon="7.9964809"><ele>652.2</ele><time>2026-04-10T15:38:06.289Z</time></trkpt><trkpt lat="43.9962296" lon="7.9966153"><ele>654.0</ele><time>2026-04-10T15:38:07.289Z</time></trkpt><trkpt lat="43.9961861" lon="7.9967271"><ele>655.8000000000001</ele><time>2026-04-10T15:38:08.288Z</time></trkpt><trkpt lat="43.9961307" lon="7.9968351"><ele>657.6</ele><time>2026-04-10T15:38:09.289Z</time></trkpt><trkpt lat="43.9960807" lon="7.9969276"><ele>659.4</ele><time>2026-04-10T15:38:10.29Z</time></trkpt><trkpt lat="43.9960303" lon="7.9970106"><ele>661.2</ele><time>2026-04-10T15:38:11.29Z</time></trkpt><trkpt lat="43.9960364" lon="7.9971479"><ele>663.0</ele><time>2026-04-10T15:38:13.288Z</time></trkpt><trkpt lat="43.9960983" lon="7.9972733"><ele>663.0</ele><time>2026-04-10T15:38:15.288Z</time></trkpt><trkpt lat="43.9962327" lon="7.9973263"><ele>663.0</ele><time>2026-04-10T15:38:17.291Z</time></trkpt><trkpt lat="43.9963143" lon="7.9973235"><ele>663.0</ele><time>2026-04-10T15:38:18.289Z</time></trkpt><trkpt lat="43.9964175" lon="7.9973419"><ele>663.0</ele><time>2026-04-10T15:38:19.288Z</time></trkpt><trkpt lat="43.9964944" lon="7.9973619"><ele>663.0</ele><time>2026-04-10T15:38:20.288Z</time></trkpt><trkpt lat="43.9965649" lon="7.9973959"><ele>666.5999999999999</ele><time>2026-04-10T15:38:21.289Z</time></trkpt><trkpt lat="43.9965983" lon="7.9975609"><ele>670.1999999999999</ele><time>2026-04-10T15:38:23.289Z</time></trkpt><trkpt lat="43.9965943" lon="7.997681"><ele>673.8</ele><time>2026-04-10T15:38:24.288Z</time></trkpt><trkpt lat="43.9966022" lon="7.9978591"><ele>677.4</ele><time>2026-04-10T15:38:26.29Z</time></trkpt><trkpt lat="43.9966287" lon="7.9979814"><ele>681.0</ele><time>2026-04-10T15:38:27.289Z</time></trkpt><trkpt lat="43.9966458" lon="7.998091"><ele>681.0</ele><time>2026-04-10T15:38:28.289Z</time></trkpt><trkpt lat="43.9966622" lon="7.9982151"><ele>681.0</ele><time>2026-04-10T15:38:30.289Z</time></trkpt><trkpt lat="43.9967375" lon="7.9982467"><ele>681.0</ele><time>2026-04-10T15:38:33.29Z</time></trkpt><trkpt lat="43.9968474" lon="7.9982793"><ele>681.0</ele><time>2026-04-10T15:38:35.289Z</time></trkpt><trkpt lat="43.9968963" lon="7.9983371"><ele>681.0</ele><time>2026-04-10T15:38:36.289Z</time></trkpt><trkpt lat="43.9969567" lon="7.9984301"><ele>681.0</ele><time>2026-04-10T15:38:38.289Z</time></trkpt><trkpt lat="43.9970439" lon="7.9985284"><ele>682.6666666666666</ele><time>2026-04-10T15:38:43.289Z</time></trkpt><trkpt lat="43.9971213" lon="7.9986414"><ele>684.3333333333334</ele><time>2026-04-10T15:38:45.289Z</time></trkpt><trkpt lat="43.9971397" lon="7.9987347"><ele>686.0</ele><time>2026-04-10T15:38:46.289Z</time></trkpt><trkpt lat="43.9971264" lon="7.9988537"><ele>687.6666666666667</ele><time>2026-04-10T15:38:48.289Z</time></trkpt><trkpt lat="43.9971321" lon="7.9989448"><ele>689.3333333333334</ele><time>2026-04-10T15:38:51.288Z</time></trkpt><trkpt lat="43.9972415" lon="7.9989592"><ele>691.0</ele><time>2026-04-10T15:38:53.289Z</time></trkpt><trkpt lat="43.9973596" lon="7.9989751"><ele>691.0</ele><time>2026-04-10T15:38:55.29Z</time></trkpt><trkpt lat="43.9974473" lon="7.9990532"><ele>691.0</ele><time>2026-04-10T15:38:57.289Z</time></trkpt><trkpt lat="43.9974964" lon="7.9991421"><ele>691.0</ele><time>2026-04-10T15:38:59.288Z</time></trkpt><trkpt lat="43.9975577" lon="7.9992411"><ele>691.0</ele><time>2026-04-10T15:39:01.288Z</time></trkpt><trkpt lat="43.9976055" lon="7.9993167"><ele>691.0</ele><time>2026-04-10T15:39:04.29Z</time></trkpt><trkpt lat="43.9976129" lon="7.9994306"><ele>691.0</ele><time>2026-04-10T15:39:08.289Z</time></trkpt><trkpt lat="43.9976398" lon="7.9995403"><ele>695.5999999999999</ele><time>2026-04-10T15:39:10.288Z</time></trkpt><trkpt lat="43.9976862" lon="7.9996789"><ele>700.2</ele><time>2026-04-10T15:39:12.29Z</time></trkpt><trkpt lat="43.9977249" lon="7.9998466"><ele>704.8</ele><time>2026-04-10T15:39:14.289Z</time></trkpt><trkpt lat="43.9977717" lon="7.9999864"><ele>709.4000000000001</ele><time>2026-04-10T15:39:16.289Z</time></trkpt><trkpt lat="43.9977832" lon="8.0000838"><ele>714.0</ele><time>2026-04-10T15:39:17.289Z</time></trkpt><trkpt lat="43.9977578" lon="8.0002694"><ele>714.0</ele><time>2026-04-10T15:39:19.29Z</time></trkpt><trkpt lat="43.9977841" lon="8.0003718"><ele>714.0</ele><time>2026-04-10T15:39:20.289Z</time></trkpt><trkpt lat="43.9977746" lon="8.0004755"><ele>714.0</ele><time>2026-04-10T15:39:21.291Z</time></trkpt><trkpt lat="43.9978075" lon="8.0006392"><ele>714.0</ele><time>2026-04-10T15:39:23.289Z</time></trkpt><trkpt lat="43.9978167" lon="8.0007281"><ele>714.0</ele><time>2026-04-10T15:39:24.288Z</time></trkpt><trkpt lat="43.9978871" lon="8.0008319"><ele>714.0</ele><time>2026-04-10T15:39:26.289Z</time></trkpt><trkpt lat="43.9979687" lon="8.0008719"><ele>714.0</ele><time>2026-04-10T15:39:28.289Z</time></trkpt><trkpt lat="43.9980843" lon="8.0009117"><ele>714.0</ele><time>2026-04-10T15:39:31.29Z</time></trkpt><trkpt lat="43.9981909" lon="8.0008758"><ele>714.0</ele><time>2026-04-10T15:39:33.29Z</time></trkpt><trkpt lat="43.9982685" lon="8.0007587"><ele>714.0</ele><time>2026-04-10T15:39:35.288Z</time></trkpt><trkpt lat="43.9983671" lon="8.0007144"><ele>714.0</ele><time>2026-04-10T15:39:37.289Z</time></trkpt><trkpt lat="43.9984766" lon="8.0007552"><ele>720.8000000000001</ele><time>2026-04-10T15:39:39.29Z</time></trkpt><trkpt lat="43.9985433" lon="8.0008536"><ele>727.6</ele><time>2026-04-10T15:39:41.289Z</time></trkpt><trkpt lat="43.9986071" lon="8.0009688"><ele>734.4</ele><time>2026-04-10T15:39:43.29Z</time></trkpt><trkpt lat="43.9986519" lon="8.0011278"><ele>741.2</ele><time>2026-04-10T15:39:45.289Z</time></trkpt><trkpt lat="43.9986725" lon="8.0012421"><ele>748.0</ele><time>2026-04-10T15:39:46.29Z</time></trkpt><trkpt lat="43.9987076" lon="8.0013211"><ele>748.0</ele><time>2026-04-10T15:39:47.289Z</time></trkpt><trkpt lat="43.998702" lon="8.0014272"><ele>748.0</ele><time>2026-04-10T15:39:50.289Z</time></trkpt><trkpt lat="43.9986154" lon="8.0014812"><ele>748.0</ele><time>2026-04-10T15:39:52.289Z</time></trkpt><trkpt lat="43.998541" lon="8.0015223"><ele>748.0</ele><time>2026-04-10T15:39:54.29Z</time></trkpt><trkpt lat="43.9984694" lon="8.0015199"><ele>748.0</ele><time>2026-04-10T15:39:55.289Z</time></trkpt><trkpt lat="43.998405" lon="8.00152"><ele>748.0</ele><time>2026-04-10T15:39:56.288Z</time></trkpt><trkpt lat="43.9983269" lon="8.0015337"><ele>749.6666666666667</ele><time>2026-04-10T15:39:57.289Z</time></trkpt><trkpt lat="43.9982671" lon="8.0015885"><ele>751.3333333333334</ele><time>2026-04-10T15:39:58.289Z</time></trkpt><trkpt lat="43.9981989" lon="8.0016399"><ele>753.0</ele><time>2026-04-10T15:39:59.289Z</time></trkpt><trkpt lat="43.9981233" lon="8.001682"><ele>754.6666666666666</ele><time>2026-04-10T15:40:00.29Z</time></trkpt><trkpt lat="43.9980258" lon="8.0017288"><ele>756.3333333333333</ele><time>2026-04-10T15:40:01.291Z</time></trkpt><trkpt lat="43.9979303" lon="8.0017418"><ele>758.0</ele><time>2026-04-10T15:40:02.289Z</time></trkpt><trkpt lat="43.9978474" lon="8.0017501"><ele>758.0</ele><time>2026-04-10T15:40:03.29Z</time></trkpt><trkpt lat="43.9977727" lon="8.0017752"><ele>758.0</ele><time>2026-04-10T15:40:04.289Z</time></trkpt><trkpt lat="43.9977149" lon="8.0018305"><ele>758.0</ele><time>2026-04-10T15:40:05.29Z</time></trkpt><trkpt lat="43.997659" lon="8.0019208"><ele>758.0</ele><time>2026-04-10T15:40:06.29Z</time></trkpt><trkpt lat="43.997629" lon="8.0020008"><ele>758.0</ele><time>2026-04-10T15:40:07.289Z</time></trkpt><trkpt lat="43.997611" lon="8.0021167"><ele>758.0</ele><time>2026-04-10T15:40:08.289Z</time></trkpt><trkpt lat="43.9975836" lon="8.0022228"><ele>758.0</ele><time>2026-04-10T15:40:09.289Z</time></trkpt><trkpt lat="43.99754" lon="8.0023166"><ele>758.0</ele><time>2026-04-10T15:40:10.289Z</time></trkpt><trkpt lat="43.997497" lon="8.0023974"><ele>758.0</ele><time>2026-04-10T15:40:11.289Z</time></trkpt><trkpt lat="43.9974346" lon="8.0024727"><ele>758.0</ele><time>2026-04-10T15:40:19.29Z</time></trkpt><trkpt lat="43.9974225" lon="8.0025797"><ele>758.0</ele><time>2026-04-10T15:40:21.289Z</time></trkpt><trkpt lat="43.9974029" lon="8.0026792"><ele>758.0</ele><time>2026-04-10T15:40:22.289Z</time></trkpt><trkpt lat="43.9973935" lon="8.0027755"><ele>757.4285714285714</ele><time>2026-04-10T15:40:23.289Z</time></trkpt><trkpt lat="43.9973954" lon="8.0028681"><ele>756.8571428571429</ele><time>2026-04-10T15:40:24.29Z</time></trkpt><trkpt lat="43.9974025" lon="8.0029606"><ele>756.2857142857142</ele><time>2026-04-10T15:40:25.29Z</time></trkpt><trkpt lat="43.9974059" lon="8.0030544"><ele>755.7142857142858</ele><time>2026-04-10T15:40:26.29Z</time></trkpt><trkpt lat="43.9973922" lon="8.0031479"><ele>755.1428571428571</ele><time>2026-04-10T15:40:27.289Z</time></trkpt><trkpt lat="43.997361" lon="8.0032547"><ele>754.5714285714286</ele><time>2026-04-10T15:40:28.288Z</time></trkpt><trkpt lat="43.9973412" lon="8.0033615"><ele>754.0</ele><time>2026-04-10T15:40:29.288Z</time></trkpt><trkpt lat="43.997323" lon="8.0034641"><ele>753.4285714285713</ele><time>2026-04-10T15:40:30.29Z</time></trkpt><trkpt lat="43.9973263" lon="8.0035644"><ele>752.8571428571429</ele><time>2026-04-10T15:40:31.288Z</time></trkpt><trkpt lat="43.9973258" lon="8.0036727"><ele>752.2857142857142</ele><time>2026-04-10T15:40:32.288Z</time></trkpt><trkpt lat="43.9973197" lon="8.0037719"><ele>751.7142857142857</ele><time>2026-04-10T15:40:33.29Z</time></trkpt><trkpt lat="43.9973019" lon="8.003871"><ele>751.1428571428571</ele><time>2026-04-10T15:40:34.29Z</time></trkpt><trkpt lat="43.9972959" lon="8.0039617"><ele>750.5714285714286</ele><time>2026-04-10T15:40:35.289Z</time></trkpt><trkpt lat="43.9972926" lon="8.0040572"><ele>750.0</ele><time>2026-04-10T15:40:36.288Z</time></trkpt><trkpt lat="43.9973014" lon="8.0042123"><ele>747.4</ele><time>2026-04-10T15:40:38.288Z</time></trkpt><trkpt lat="43.9972901" lon="8.0043535"><ele>744.8</ele><time>2026-04-10T15:40:40.29Z</time></trkpt><trkpt lat="43.9972865" lon="8.0044436"><ele>742.2</ele><time>2026-04-10T15:40:41.29Z</time></trkpt><trkpt lat="43.9973122" lon="8.004602"><ele>739.6</ele><time>2026-04-10T15:40:43.289Z</time></trkpt><trkpt lat="43.9972706" lon="8.0046875"><ele>737.0</ele><time>2026-04-10T15:40:45.289Z</time></trkpt><trkpt lat="43.9971596" lon="8.0047294"><ele>737.0</ele><time>2026-04-10T15:40:47.288Z</time></trkpt><trkpt lat="43.9970863" lon="8.0047705"><ele>737.0</ele><time>2026-04-10T15:40:48.289Z</time></trkpt><trkpt lat="43.997017" lon="8.0048172"><ele>737.0</ele><time>2026-04-10T15:40:49.29Z</time></trkpt><trkpt lat="43.9969561" lon="8.0049449"><ele>737.0</ele><time>2026-04-10T15:40:51.291Z</time></trkpt><trkpt lat="43.9969719" lon="8.0050654"><ele>737.0</ele><time>2026-04-10T15:40:53.288Z</time></trkpt><trkpt lat="43.9970459" lon="8.0052207"><ele>735.0</ele><time>2026-04-10T15:40:55.289Z</time></trkpt><trkpt lat="43.9970935" lon="8.0052876"><ele>733.0</ele><time>2026-04-10T15:40:56.288Z</time></trkpt><trkpt lat="43.9971591" lon="8.0053761"><ele>731.0</ele><time>2026-04-10T15:40:58.289Z</time></trkpt><trkpt lat="43.997228" lon="8.0054532"><ele>729.0</ele><time>2026-04-10T15:41:00.288Z</time></trkpt><trkpt lat="43.9972663" lon="8.0055339"><ele>727.0</ele><time>2026-04-10T15:41:35.29Z</time></trkpt><trkpt lat="43.997251" lon="8.0056197"><ele>725.0</ele><time>2026-04-10T15:41:37.29Z</time></trkpt><trkpt lat="43.9972014" lon="8.0057351"><ele>723.4</ele><time>2026-04-10T15:41:39.29Z</time></trkpt><trkpt lat="43.9971957" lon="8.0058808"><ele>721.8</ele><time>2026-04-10T15:41:41.288Z</time></trkpt><trkpt lat="43.9972313" lon="8.0060163"><ele>720.2</ele><time>2026-04-10T15:41:43.289Z</time></trkpt><trkpt lat="43.9972721" lon="8.006158"><ele>718.6</ele><time>2026-04-10T15:41:45.289Z</time></trkpt><trkpt lat="43.9972984" lon="8.0063213"><ele>717.0</ele><time>2026-04-10T15:41:47.289Z</time></trkpt><trkpt lat="43.9972751" lon="8.0064547"><ele>717.0</ele><time>2026-04-10T15:41:49.289Z</time></trkpt><trkpt lat="43.9972295" lon="8.0065217"><ele>717.0</ele><time>2026-04-10T15:41:50.288Z</time></trkpt><trkpt lat="43.997146" lon="8.0066588"><ele>717.0</ele><time>2026-04-10T15:41:52.291Z</time></trkpt><trkpt lat="43.9970754" lon="8.0067699"><ele>717.0</ele><time>2026-04-10T15:41:54.289Z</time></trkpt><trkpt lat="43.9969634" lon="8.0067786"><ele>717.0</ele><time>2026-04-10T15:41:56.288Z</time></trkpt><trkpt lat="43.9968978" lon="8.0067724"><ele>715.6</ele><time>2026-04-10T15:41:57.29Z</time></trkpt><trkpt lat="43.9968317" lon="8.0067336"><ele>714.2</ele><time>2026-04-10T15:41:58.289Z</time></trkpt><trkpt lat="43.9967293" lon="8.0066945"><ele>712.8</ele><time>2026-04-10T15:42:00.289Z</time></trkpt><trkpt lat="43.9966419" lon="8.0066706"><ele>711.4</ele><time>2026-04-10T15:42:02.288Z</time></trkpt><trkpt lat="43.996547" lon="8.0066566"><ele>710.0</ele><time>2026-04-10T15:42:04.289Z</time></trkpt><trkpt lat="43.9964424" lon="8.0066045"><ele>709.3333333333333</ele><time>2026-04-10T15:42:06.289Z</time></trkpt><trkpt lat="43.9963353" lon="8.0065711"><ele>708.6666666666666</ele><time>2026-04-10T15:42:08.289Z</time></trkpt><trkpt lat="43.9962852" lon="8.006514"><ele>708.0</ele><time>2026-04-10T15:42:09.29Z</time></trkpt><trkpt lat="43.9962438" lon="8.0064353"><ele>707.3333333333334</ele><time>2026-04-10T15:42:10.291Z</time></trkpt><trkpt lat="43.9961995" lon="8.0063267"><ele>706.6666666666667</ele><time>2026-04-10T15:42:11.289Z</time></trkpt><trkpt lat="43.9961491" lon="8.0062375"><ele>706.0</ele><time>2026-04-10T15:42:12.29Z</time></trkpt><trkpt lat="43.9960778" lon="8.0061674"><ele>706.0</ele><time>2026-04-10T15:42:13.289Z</time></trkpt><trkpt lat="43.9959955" lon="8.006124"><ele>706.0</ele><time>2026-04-10T15:42:14.288Z</time></trkpt><trkpt lat="43.9959187" lon="8.0061172"><ele>706.0</ele><time>2026-04-10T15:42:15.289Z</time></trkpt><trkpt lat="43.9958427" lon="8.0061269"><ele>706.0</ele><time>2026-04-10T15:42:16.29Z</time></trkpt><trkpt lat="43.99577" lon="8.0061342"><ele>706.0</ele><time>2026-04-10T15:42:17.29Z</time></trkpt><trkpt lat="43.995693" lon="8.0061374"><ele>706.0</ele><time>2026-04-10T15:42:18.289Z</time></trkpt><trkpt lat="43.9956002" lon="8.0061265"><ele>703.7142857142857</ele><time>2026-04-10T15:42:19.289Z</time></trkpt><trkpt lat="43.9955254" lon="8.0061232"><ele>701.4285714285714</ele><time>2026-04-10T15:42:20.29Z</time></trkpt><trkpt lat="43.9954582" lon="8.0061363"><ele>699.1428571428571</ele><time>2026-04-10T15:42:21.291Z</time></trkpt><trkpt lat="43.9953969" lon="8.0061802"><ele>696.8571428571429</ele><time>2026-04-10T15:42:22.289Z</time></trkpt><trkpt lat="43.9953309" lon="8.0062145"><ele>694.5714285714286</ele><time>2026-04-10T15:42:23.288Z</time></trkpt><trkpt lat="43.9952638" lon="8.0062491"><ele>692.2857142857143</ele><time>2026-04-10T15:42:24.288Z</time></trkpt><trkpt lat="43.9952042" lon="8.0062916"><ele>690.0</ele><time>2026-04-10T15:42:25.288Z</time></trkpt><trkpt lat="43.9951401" lon="8.0063414"><ele>690.0</ele><time>2026-04-10T15:42:27.289Z</time></trkpt><trkpt lat="43.9950582" lon="8.0063693"><ele>690.0</ele><time>2026-04-10T15:42:29.289Z</time></trkpt><trkpt lat="43.9949903" lon="8.0064105"><ele>690.0</ele><time>2026-04-10T15:42:30.29Z</time></trkpt><trkpt lat="43.9948938" lon="8.0064335"><ele>690.0</ele><time>2026-04-10T15:42:31.291Z</time></trkpt><trkpt lat="43.9948092" lon="8.0064307"><ele>690.0</ele><time>2026-04-10T15:42:32.289Z</time></trkpt><trkpt lat="43.994725" lon="8.0064596"><ele>690.0</ele><time>2026-04-10T15:42:33.288Z</time></trkpt><trkpt lat="43.9946409" lon="8.0064954"><ele>689.5</ele><time>2026-04-10T15:42:34.289Z</time></trkpt><trkpt lat="43.9945605" lon="8.0065347"><ele>689.0</ele><time>2026-04-10T15:42:35.289Z</time></trkpt><trkpt lat="43.9944939" lon="8.0065983"><ele>688.5</ele><time>2026-04-10T15:42:36.291Z</time></trkpt><trkpt lat="43.9944232" lon="8.0066437"><ele>688.0</ele><time>2026-04-10T15:42:37.29Z</time></trkpt><trkpt lat="43.9943545" lon="8.0066646"><ele>687.5</ele><time>2026-04-10T15:42:38.29Z</time></trkpt><trkpt lat="43.9942823" lon="8.006664"><ele>687.0</ele><time>2026-04-10T15:42:39.289Z</time></trkpt><trkpt lat="43.9942074" lon="8.0066355"><ele>688.5714285714286</ele><time>2026-04-10T15:42:40.29Z</time></trkpt><trkpt lat="43.9941354" lon="8.0066243"><ele>690.1428571428571</ele><time>2026-04-10T15:42:41.29Z</time></trkpt><trkpt lat="43.9940703" lon="8.0065896"><ele>691.7142857142857</ele><time>2026-04-10T15:42:42.288Z</time></trkpt><trkpt lat="43.9939985" lon="8.0065425"><ele>693.2857142857142</ele><time>2026-04-10T15:42:43.289Z</time></trkpt><trkpt lat="43.9939353" lon="8.0064935"><ele>694.8571428571429</ele><time>2026-04-10T15:42:44.289Z</time></trkpt><trkpt lat="43.9938665" lon="8.0064494"><ele>696.4285714285713</ele><time>2026-04-10T15:42:45.29Z</time></trkpt><trkpt lat="43.9937953" lon="8.0064322"><ele>698.0</ele><time>2026-04-10T15:42:46.289Z</time></trkpt><trkpt lat="43.9937278" lon="8.006445"><ele>698.0</ele><time>2026-04-10T15:42:47.29Z</time></trkpt><trkpt lat="43.9936484" lon="8.0065711"><ele>698.0</ele><time>2026-04-10T15:42:49.289Z</time></trkpt><trkpt lat="43.9936005" lon="8.0067065"><ele>698.0</ele><time>2026-04-10T15:42:51.288Z</time></trkpt><trkpt lat="43.9935051" lon="8.0067795"><ele>698.0</ele><time>2026-04-10T15:42:53.289Z</time></trkpt><trkpt lat="43.9934399" lon="8.0067885"><ele>698.0</ele><time>2026-04-10T15:42:54.289Z</time></trkpt><trkpt lat="43.993363" lon="8.00678"><ele>695.3333333333333</ele><time>2026-04-10T15:42:55.289Z</time></trkpt><trkpt lat="43.9932952" lon="8.0067728"><ele>692.6666666666666</ele><time>2026-04-10T15:42:56.289Z</time></trkpt><trkpt lat="43.9931845" lon="8.0068212"><ele>690.0</ele><time>2026-04-10T15:42:58.289Z</time></trkpt><trkpt lat="43.9931201" lon="8.0069269"><ele>687.3333333333334</ele><time>2026-04-10T15:43:00.29Z</time></trkpt><trkpt lat="43.9931217" lon="8.0070368"><ele>684.6666666666667</ele><time>2026-04-10T15:43:01.288Z</time></trkpt><trkpt lat="43.9931236" lon="8.0071464"><ele>682.0</ele><time>2026-04-10T15:43:02.29Z</time></trkpt><trkpt lat="43.9931217" lon="8.0072992"><ele>682.0</ele><time>2026-04-10T15:43:03.289Z</time></trkpt><trkpt lat="43.9931125" lon="8.0074451"><ele>682.0</ele><time>2026-04-10T15:43:04.291Z</time></trkpt><trkpt lat="43.9931083" lon="8.0076078"><ele>682.0</ele><time>2026-04-10T15:43:05.289Z</time></trkpt><trkpt lat="43.9931069" lon="8.0077821"><ele>682.0</ele><time>2026-04-10T15:43:06.29Z</time></trkpt><trkpt lat="43.993115" lon="8.0079521"><ele>680.2</ele><time>2026-04-10T15:43:07.288Z</time></trkpt><trkpt lat="43.9931272" lon="8.0080902"><ele>678.4000000000001</ele><time>2026-04-10T15:43:08.289Z</time></trkpt><trkpt lat="43.9931441" lon="8.0082088"><ele>676.5999999999999</ele><time>2026-04-10T15:43:09.29Z</time></trkpt><trkpt lat="43.9931666" lon="8.0083242"><ele>674.8</ele><time>2026-04-10T15:43:10.29Z</time></trkpt><trkpt lat="43.9932123" lon="8.0084533"><ele>673.0</ele><time>2026-04-10T15:43:11.289Z</time></trkpt><trkpt lat="43.9932556" lon="8.0085726"><ele>672.8</ele><time>2026-04-10T15:43:12.289Z</time></trkpt><trkpt lat="43.9932946" lon="8.0086825"><ele>672.5999999999999</ele><time>2026-04-10T15:43:13.29Z</time></trkpt><trkpt lat="43.9932968" lon="8.0088588"><ele>672.4000000000001</ele><time>2026-04-10T15:43:15.29Z</time></trkpt><trkpt lat="43.9932654" lon="8.0089822"><ele>672.2</ele><time>2026-04-10T15:43:16.289Z</time></trkpt><trkpt lat="43.9932301" lon="8.0091279"><ele>672.0</ele><time>2026-04-10T15:43:17.289Z</time></trkpt><trkpt lat="43.9932104" lon="8.0092798"><ele>671.8</ele><time>2026-04-10T15:43:18.289Z</time></trkpt><trkpt lat="43.993192" lon="8.0094258"><ele>671.6</ele><time>2026-04-10T15:43:19.29Z</time></trkpt><trkpt lat="43.9931744" lon="8.0095647"><ele>671.4</ele><time>2026-04-10T15:43:20.289Z</time></trkpt><trkpt lat="43.9931569" lon="8.0097001"><ele>671.1999999999999</ele><time>2026-04-10T15:43:21.288Z</time></trkpt><trkpt lat="43.9931419" lon="8.0098271"><ele>671.0</ele><time>2026-04-10T15:43:22.289Z</time></trkpt><trkpt lat="43.993123" lon="8.0099502"><ele>670.0</ele><time>2026-04-10T15:43:23.289Z</time></trkpt><trkpt lat="43.9930843" lon="8.01006"><ele>669.0</ele><time>2026-04-10T15:43:24.289Z</time></trkpt><trkpt lat="43.9930415" lon="8.0101702"><ele>668.0</ele><time>2026-04-10T15:43:25.289Z</time></trkpt><trkpt lat="43.9929807" lon="8.0102748"><ele>667.0</ele><time>2026-04-10T15:43:26.288Z</time></trkpt><trkpt lat="43.9929265" lon="8.0103726"><ele>666.0</ele><time>2026-04-10T15:43:27.289Z</time></trkpt><trkpt lat="43.9928466" lon="8.0104663"><ele>666.0</ele><time>2026-04-10T15:43:29.29Z</time></trkpt><trkpt lat="43.9928217" lon="8.0105487"><ele>666.0</ele><time>2026-04-10T15:43:30.288Z</time></trkpt><trkpt lat="43.9927877" lon="8.0106355"><ele>666.0</ele><time>2026-04-10T15:43:31.288Z</time></trkpt><trkpt lat="43.9927463" lon="8.0107284"><ele>666.0</ele><time>2026-04-10T15:43:32.288Z</time></trkpt><trkpt lat="43.9927129" lon="8.0108083"><ele>666.0</ele><time>2026-04-10T15:43:33.289Z</time></trkpt><trkpt lat="43.9926959" lon="8.0109017"><ele>666.0</ele><time>2026-04-10T15:43:34.291Z</time></trkpt><trkpt lat="43.9926981" lon="8.0110053"><ele>666.0</ele><time>2026-04-10T15:43:35.289Z</time></trkpt><trkpt lat="43.9927573" lon="8.0111495"><ele>665.5999999999999</ele><time>2026-04-10T15:43:36.288Z</time></trkpt><trkpt lat="43.9928114" lon="8.0112754"><ele>665.2</ele><time>2026-04-10T15:43:37.289Z</time></trkpt><trkpt lat="43.992853" lon="8.0113641"><ele>664.8</ele><time>2026-04-10T15:43:38.29Z</time></trkpt><trkpt lat="43.9929458" lon="8.011431"><ele>664.4000000000001</ele><time>2026-04-10T15:43:40.289Z</time></trkpt><trkpt lat="43.9930437" lon="8.0114281"><ele>664.0</ele><time>2026-04-10T15:43:42.289Z</time></trkpt><trkpt lat="43.9931284" lon="8.0114552"><ele>664.0</ele><time>2026-04-10T15:43:44.289Z</time></trkpt><trkpt lat="43.9932488" lon="8.0113604"><ele>664.0</ele><time>2026-04-10T15:43:46.288Z</time></trkpt><trkpt lat="43.993325" lon="8.0112777"><ele>664.0</ele><time>2026-04-10T15:43:47.29Z</time></trkpt><trkpt lat="43.9934019" lon="8.011203"><ele>664.0</ele><time>2026-04-10T15:43:48.289Z</time></trkpt><trkpt lat="43.9934634" lon="8.011145"><ele>664.0</ele><time>2026-04-10T15:43:49.29Z</time></trkpt><trkpt lat="43.9935298" lon="8.0110942"><ele>661.8000000000001</ele><time>2026-04-10T15:43:50.289Z</time></trkpt><trkpt lat="43.9936156" lon="8.011046"><ele>659.6</ele><time>2026-04-10T15:43:51.289Z</time></trkpt><trkpt lat="43.9937331" lon="8.0110607"><ele>657.4</ele><time>2026-04-10T15:43:52.291Z</time></trkpt><trkpt lat="43.9938352" lon="8.0110699"><ele>655.2</ele><time>2026-04-10T15:43:53.29Z</time></trkpt><trkpt lat="43.9939522" lon="8.0111064"><ele>653.0</ele><time>2026-04-10T15:43:54.289Z</time></trkpt><trkpt lat="43.9940534" lon="8.0111465"><ele>653.0</ele><time>2026-04-10T15:43:55.288Z</time></trkpt><trkpt lat="43.9941368" lon="8.0111836"><ele>653.0</ele><time>2026-04-10T15:43:56.288Z</time></trkpt><trkpt lat="43.9942041" lon="8.0111846"><ele>653.0</ele><time>2026-04-10T15:43:57.29Z</time></trkpt><trkpt lat="43.9943162" lon="8.0111072"><ele>653.0</ele><time>2026-04-10T15:43:59.289Z</time></trkpt><trkpt lat="43.9943827" lon="8.0110188"><ele>653.0</ele><time>2026-04-10T15:44:00.289Z</time></trkpt><trkpt lat="43.9944511" lon="8.0109307"><ele>651.3333333333333</ele><time>2026-04-10T15:44:01.289Z</time></trkpt><trkpt lat="43.9945324" lon="8.010878"><ele>649.6666666666666</ele><time>2026-04-10T15:44:02.289Z</time></trkpt><trkpt lat="43.9945793" lon="8.010816"><ele>648.0</ele><time>2026-04-10T15:44:03.291Z</time></trkpt><trkpt lat="43.9946205" lon="8.0107444"><ele>646.3333333333334</ele><time>2026-04-10T15:44:04.289Z</time></trkpt><trkpt lat="43.994629" lon="8.0106408"><ele>644.6666666666667</ele><time>2026-04-10T15:44:05.29Z</time></trkpt><trkpt lat="43.9946345" lon="8.0105176"><ele>643.0</ele><time>2026-04-10T15:44:06.289Z</time></trkpt><trkpt lat="43.9946311" lon="8.010384"><ele>643.0</ele><time>2026-04-10T15:44:07.289Z</time></trkpt><trkpt lat="43.994616" lon="8.0102556"><ele>643.0</ele><time>2026-04-10T15:44:08.29Z</time></trkpt><trkpt lat="43.9946044" lon="8.0101345"><ele>643.0</ele><time>2026-04-10T15:44:09.289Z</time></trkpt><trkpt lat="43.9946104" lon="8.0100333"><ele>643.0</ele><time>2026-04-10T15:44:10.29Z</time></trkpt><trkpt lat="43.9946194" lon="8.0099146"><ele>643.0</ele><time>2026-04-10T15:44:11.289Z</time></trkpt><trkpt lat="43.9946391" lon="8.0097949"><ele>643.0</ele><time>2026-04-10T15:44:12.288Z</time></trkpt><trkpt lat="43.9946599" lon="8.009671"><ele>644.5999999999999</ele><time>2026-04-10T15:44:13.288Z</time></trkpt><trkpt lat="43.9946948" lon="8.0095617"><ele>646.1999999999999</ele><time>2026-04-10T15:44:14.289Z</time></trkpt><trkpt lat="43.9947348" lon="8.0094871"><ele>647.8</ele><time>2026-04-10T15:44:15.289Z</time></trkpt><trkpt lat="43.9948158" lon="8.0095024"><ele>649.4</ele><time>2026-04-10T15:44:17.289Z</time></trkpt><trkpt lat="43.9948715" lon="8.0096522"><ele>651.0</ele><time>2026-04-10T15:44:19.288Z</time></trkpt><trkpt lat="43.9949015" lon="8.0097841"><ele>651.0</ele><time>2026-04-10T15:44:20.29Z</time></trkpt><trkpt lat="43.9949393" lon="8.0099007"><ele>651.0</ele><time>2026-04-10T15:44:21.289Z</time></trkpt><trkpt lat="43.9949856" lon="8.0100121"><ele>651.0</ele><time>2026-04-10T15:44:22.289Z</time></trkpt><trkpt lat="43.9950467" lon="8.0101013"><ele>651.0</ele><time>2026-04-10T15:44:23.289Z</time></trkpt><trkpt lat="43.9951127" lon="8.0101177"><ele>651.0</ele><time>2026-04-10T15:44:24.288Z</time></trkpt><trkpt lat="43.99525" lon="8.0100828"><ele>649.8</ele><time>2026-04-10T15:44:26.288Z</time></trkpt><trkpt lat="43.9953336" lon="8.010025"><ele>648.5999999999999</ele><time>2026-04-10T15:44:27.289Z</time></trkpt><trkpt lat="43.9954179" lon="8.0099477"><ele>647.4</ele><time>2026-04-10T15:44:28.289Z</time></trkpt><trkpt lat="43.9955086" lon="8.009842"><ele>646.2</ele><time>2026-04-10T15:44:29.289Z</time></trkpt><trkpt lat="43.995593" lon="8.0097357"><ele>645.0</ele><time>2026-04-10T15:44:30.289Z</time></trkpt><trkpt lat="43.9956748" lon="8.0096284"><ele>645.0</ele><time>2026-04-10T15:44:31.29Z</time></trkpt><trkpt lat="43.9957606" lon="8.0095025"><ele>645.0</ele><time>2026-04-10T15:44:32.289Z</time></trkpt><trkpt lat="43.9958485" lon="8.0093792"><ele>645.0</ele><time>2026-04-10T15:44:33.288Z</time></trkpt><trkpt lat="43.995919" lon="8.0093084"><ele>645.0</ele><time>2026-04-10T15:44:34.29Z</time></trkpt><trkpt lat="43.9959893" lon="8.0092649"><ele>645.0</ele><time>2026-04-10T15:44:35.289Z</time></trkpt><trkpt lat="43.9960946" lon="8.0093061"><ele>648.75</ele><time>2026-04-10T15:44:37.289Z</time></trkpt><trkpt lat="43.9961619" lon="8.0094423"><ele>652.5</ele><time>2026-04-10T15:44:38.29Z</time></trkpt><trkpt lat="43.9962385" lon="8.0095904"><ele>656.25</ele><time>2026-04-10T15:44:39.289Z</time></trkpt><trkpt lat="43.9963407" lon="8.0097284"><ele>660.0</ele><time>2026-04-10T15:44:40.289Z</time></trkpt><trkpt lat="43.9964467" lon="8.0098594"><ele>660.0</ele><time>2026-04-10T15:44:41.289Z</time></trkpt><trkpt lat="43.9965194" lon="8.0099631"><ele>660.0</ele><time>2026-04-10T15:44:42.289Z</time></trkpt><trkpt lat="43.9965789" lon="8.0100957"><ele>660.0</ele><time>2026-04-10T15:44:43.289Z</time></trkpt><trkpt lat="43.9966259" lon="8.0102053"><ele>660.0</ele><time>2026-04-10T15:44:44.29Z</time></trkpt><trkpt lat="43.9966816" lon="8.01029"><ele>660.0</ele><time>2026-04-10T15:44:45.289Z</time></trkpt><trkpt lat="43.9967354" lon="8.0103641"><ele>659.8333333333334</ele><time>2026-04-10T15:44:46.288Z</time></trkpt><trkpt lat="43.9968387" lon="8.0103534"><ele>659.6666666666666</ele><time>2026-04-10T15:44:47.29Z</time></trkpt><trkpt lat="43.9969388" lon="8.0103608"><ele>659.5</ele><time>2026-04-10T15:44:48.289Z</time></trkpt><trkpt lat="43.9970434" lon="8.0103605"><ele>659.3333333333333</ele><time>2026-04-10T15:44:49.288Z</time></trkpt><trkpt lat="43.9970971" lon="8.0104104"><ele>659.1666666666666</ele><time>2026-04-10T15:44:50.29Z</time></trkpt><trkpt lat="43.9971452" lon="8.0104822"><ele>659.0</ele><time>2026-04-10T15:44:51.29Z</time></trkpt><trkpt lat="43.9971807" lon="8.0105998"><ele>659.0</ele><time>2026-04-10T15:44:52.29Z</time></trkpt><trkpt lat="43.9972244" lon="8.0107377"><ele>659.0</ele><time>2026-04-10T15:44:53.29Z</time></trkpt><trkpt lat="43.9972697" lon="8.0108702"><ele>659.0</ele><time>2026-04-10T15:44:54.288Z</time></trkpt><trkpt lat="43.9973136" lon="8.0109784"><ele>659.0</ele><time>2026-04-10T15:44:55.29Z</time></trkpt><trkpt lat="43.9973719" lon="8.0110586"><ele>659.0</ele><time>2026-04-10T15:44:56.29Z</time></trkpt><trkpt lat="43.9974554" lon="8.0111441"><ele>652.0</ele><time>2026-04-10T15:44:57.29Z</time></trkpt><trkpt lat="43.99753" lon="8.0112075"><ele>645.0</ele><time>2026-04-10T15:44:58.289Z</time></trkpt><trkpt lat="43.9975956" lon="8.0112568"><ele>638.0</ele><time>2026-04-10T15:44:59.29Z</time></trkpt><trkpt lat="43.997688" lon="8.0112477"><ele>631.0</ele><time>2026-04-10T15:45:01.291Z</time></trkpt><trkpt lat="43.9977702" lon="8.0110875"><ele>624.0</ele><time>2026-04-10T15:45:03.289Z</time></trkpt><trkpt lat="43.997842" lon="8.0109468"><ele>632.25</ele><time>2026-04-10T15:45:04.291Z</time></trkpt><trkpt lat="43.9979266" lon="8.0108103"><ele>640.5</ele><time>2026-04-10T15:45:05.29Z</time></trkpt><trkpt lat="43.998034" lon="8.0106627"><ele>648.75</ele><time>2026-04-10T15:45:06.288Z</time></trkpt><trkpt lat="43.9981328" lon="8.0105331"><ele>657.0</ele><time>2026-04-10T15:45:07.288Z</time></trkpt><trkpt lat="43.998224" lon="8.0104052"><ele>657.0</ele><time>2026-04-10T15:45:08.289Z</time></trkpt><trkpt lat="43.9982904" lon="8.0103394"><ele>657.0</ele><time>2026-04-10T15:45:09.289Z</time></trkpt><trkpt lat="43.9983828" lon="8.0103014"><ele>657.0</ele><time>2026-04-10T15:45:11.289Z</time></trkpt><trkpt lat="43.9984866" lon="8.0104149"><ele>657.0</ele><time>2026-04-10T15:45:13.288Z</time></trkpt><trkpt lat="43.9985475" lon="8.0105256"><ele>657.0</ele><time>2026-04-10T15:45:14.289Z</time></trkpt><trkpt lat="43.9986186" lon="8.0106689"><ele>659.5</ele><time>2026-04-10T15:45:15.289Z</time></trkpt><trkpt lat="43.9986878" lon="8.010792"><ele>662.0</ele><time>2026-04-10T15:45:16.289Z</time></trkpt><trkpt lat="43.9987422" lon="8.0109068"><ele>664.5</ele><time>2026-04-10T15:45:17.289Z</time></trkpt><trkpt lat="43.9987925" lon="8.0110205"><ele>667.0</ele><time>2026-04-10T15:45:18.289Z</time></trkpt><trkpt lat="43.998833" lon="8.0110897"><ele>669.5</ele><time>2026-04-10T15:45:19.29Z</time></trkpt><trkpt lat="43.9988911" lon="8.0111572"><ele>672.0</ele><time>2026-04-10T15:45:20.291Z</time></trkpt><trkpt lat="43.9989527" lon="8.0111904"><ele>668.5</ele><time>2026-04-10T15:45:21.289Z</time></trkpt><trkpt lat="43.9990374" lon="8.0111968"><ele>665.0</ele><time>2026-04-10T15:45:22.289Z</time></trkpt><trkpt lat="43.9991436" lon="8.0111917"><ele>661.5</ele><time>2026-04-10T15:45:23.289Z</time></trkpt><trkpt lat="43.9993007" lon="8.0112147"><ele>658.0</ele><time>2026-04-10T15:45:24.29Z</time></trkpt><trkpt lat="43.9994119" lon="8.0112495"><ele>658.0</ele><time>2026-04-10T15:45:25.289Z</time></trkpt><trkpt lat="43.9994992" lon="8.0112799"><ele>658.0</ele><time>2026-04-10T15:45:26.288Z</time></trkpt><trkpt lat="43.9995617" lon="8.0113206"><ele>658.0</ele><time>2026-04-10T15:45:27.288Z</time></trkpt><trkpt lat="43.9996355" lon="8.0114746"><ele>658.0</ele><time>2026-04-10T15:45:29.29Z</time></trkpt><trkpt lat="43.9996602" lon="8.0115757"><ele>658.0</ele><time>2026-04-10T15:45:30.289Z</time></trkpt><trkpt lat="43.9996709" lon="8.0116914"><ele>655.3333333333334</ele><time>2026-04-10T15:45:31.29Z</time></trkpt><trkpt lat="43.9996523" lon="8.0118147"><ele>652.6666666666667</ele><time>2026-04-10T15:45:32.289Z</time></trkpt><trkpt lat="43.9996594" lon="8.0119119"><ele>650.0</ele><time>2026-04-10T15:45:33.289Z</time></trkpt><trkpt lat="43.9996921" lon="8.0120424"><ele>647.3333333333334</ele><time>2026-04-10T15:45:34.29Z</time></trkpt><trkpt lat="43.9997164" lon="8.0121646"><ele>644.6666666666666</ele><time>2026-04-10T15:45:35.29Z</time></trkpt><trkpt lat="43.9997243" lon="8.0122951"><ele>642.0</ele><time>2026-04-10T15:45:36.289Z</time></trkpt><trkpt lat="43.9997104" lon="8.0124143"><ele>639.6</ele><time>2026-04-10T15:45:37.289Z</time></trkpt><trkpt lat="43.9996689" lon="8.0125581"><ele>637.2</ele><time>2026-04-10T15:45:38.29Z</time></trkpt><trkpt lat="43.9996333" lon="8.0126838"><ele>634.8</ele><time>2026-04-10T15:45:39.29Z</time></trkpt><trkpt lat="43.999623" lon="8.0127955"><ele>632.4</ele><time>2026-04-10T15:45:40.289Z</time></trkpt><trkpt lat="43.9996417" lon="8.0129116"><ele>630.0</ele><time>2026-04-10T15:45:41.289Z</time></trkpt><trkpt lat="43.9996766" lon="8.0130508"><ele>630.0</ele><time>2026-04-10T15:45:42.289Z</time></trkpt><trkpt lat="43.9997124" lon="8.0131778"><ele>630.0</ele><time>2026-04-10T15:45:43.29Z</time></trkpt><trkpt lat="43.9997293" lon="8.0132872"><ele>630.0</ele><time>2026-04-10T15:45:44.289Z</time></trkpt><trkpt lat="43.9997054" lon="8.0134213"><ele>630.0</ele><time>2026-04-10T15:45:45.29Z</time></trkpt><trkpt lat="43.9997047" lon="8.0135313"><ele>630.0</ele><time>2026-04-10T15:45:46.289Z</time></trkpt><trkpt lat="43.9997218" lon="8.0136167"><ele>630.0</ele><time>2026-04-10T15:45:47.29Z</time></trkpt><trkpt lat="43.9997593" lon="8.0136872"><ele>627.4</ele><time>2026-04-10T15:45:48.289Z</time></trkpt><trkpt lat="43.9998378" lon="8.0137441"><ele>624.8</ele><time>2026-04-10T15:45:49.29Z</time></trkpt><trkpt lat="43.9999313" lon="8.0138195"><ele>622.2</ele><time>2026-04-10T15:45:50.29Z</time></trkpt><trkpt lat="43.9999934" lon="8.0139022"><ele>619.6</ele><time>2026-04-10T15:45:51.29Z</time></trkpt><trkpt lat="44.0000473" lon="8.0140112"><ele>617.0</ele><time>2026-04-10T15:45:52.29Z</time></trkpt><trkpt lat="44.0000903" lon="8.0141095"><ele>612.8000000000001</ele><time>2026-04-10T15:45:53.288Z</time></trkpt><trkpt lat="44.0001505" lon="8.0141941"><ele>608.6</ele><time>2026-04-10T15:45:54.29Z</time></trkpt><trkpt lat="44.0002269" lon="8.0142787"><ele>604.4000000000001</ele><time>2026-04-10T15:45:55.289Z</time></trkpt><trkpt lat="44.0003208" lon="8.0143507"><ele>600.2</ele><time>2026-04-10T15:45:56.29Z</time></trkpt><trkpt lat="44.0004521" lon="8.014424"><ele>596.0</ele><time>2026-04-10T15:45:57.291Z</time></trkpt><trkpt lat="44.0005777" lon="8.0144917"><ele>596.0</ele><time>2026-04-10T15:45:58.29Z</time></trkpt><trkpt lat="44.0006909" lon="8.014555"><ele>596.0</ele><time>2026-04-10T15:45:59.29Z</time></trkpt><trkpt lat="44.0007908" lon="8.0146061"><ele>596.0</ele><time>2026-04-10T15:46:00.29Z</time></trkpt><trkpt lat="44.0008971" lon="8.0146633"><ele>596.0</ele><time>2026-04-10T15:46:01.288Z</time></trkpt><trkpt lat="44.0010053" lon="8.0146844"><ele>594.0</ele><time>2026-04-10T15:46:02.29Z</time></trkpt><trkpt lat="44.0010777" lon="8.0147441"><ele>592.0</ele><time>2026-04-10T15:46:03.289Z</time></trkpt><trkpt lat="44.0011493" lon="8.0148225"><ele>590.0</ele><time>2026-04-10T15:46:04.289Z</time></trkpt><trkpt lat="44.0012291" lon="8.0149404"><ele>588.0</ele><time>2026-04-10T15:46:05.29Z</time></trkpt><trkpt lat="44.0013187" lon="8.0150574"><ele>586.0</ele><time>2026-04-10T15:46:06.29Z</time></trkpt><trkpt lat="44.0014037" lon="8.015188"><ele>586.0</ele><time>2026-04-10T15:46:07.29Z</time></trkpt><trkpt lat="44.0014728" lon="8.0153056"><ele>586.0</ele><time>2026-04-10T15:46:08.291Z</time></trkpt><trkpt lat="44.0015347" lon="8.0153969"><ele>586.0</ele><time>2026-04-10T15:46:09.29Z</time></trkpt><trkpt lat="44.001603" lon="8.0154399"><ele>586.0</ele><time>2026-04-10T15:46:10.288Z</time></trkpt><trkpt lat="44.0017498" lon="8.0154553"><ele>586.0</ele><time>2026-04-10T15:46:12.29Z</time></trkpt><trkpt lat="44.0018356" lon="8.0154558"><ele>589.4</ele><time>2026-04-10T15:46:13.289Z</time></trkpt><trkpt lat="44.0019251" lon="8.0154915"><ele>592.8</ele><time>2026-04-10T15:46:14.29Z</time></trkpt><trkpt lat="44.0020069" lon="8.0155508"><ele>596.1999999999999</ele><time>2026-04-10T15:46:15.29Z</time></trkpt><trkpt lat="44.0020932" lon="8.0156127"><ele>599.6</ele><time>2026-04-10T15:46:16.289Z</time></trkpt><trkpt lat="44.0021672" lon="8.0157081"><ele>603.0</ele><time>2026-04-10T15:46:17.289Z</time></trkpt><trkpt lat="44.0022385" lon="8.0158066"><ele>601.6666666666666</ele><time>2026-04-10T15:46:18.291Z</time></trkpt><trkpt lat="44.0023065" lon="8.0159339"><ele>600.3333333333334</ele><time>2026-04-10T15:46:19.29Z</time></trkpt><trkpt lat="44.0023613" lon="8.0160392"><ele>599.0</ele><time>2026-04-10T15:46:20.289Z</time></trkpt><trkpt lat="44.0023981" lon="8.0161176"><ele>597.6666666666667</ele><time>2026-04-10T15:46:21.29Z</time></trkpt><trkpt lat="44.0024422" lon="8.0162042"><ele>596.3333333333334</ele><time>2026-04-10T15:46:23.289Z</time></trkpt><trkpt lat="44.0024848" lon="8.0162797"><ele>595.0</ele><time>2026-04-10T15:47:56.29Z</time></trkpt><trkpt lat="44.0025148" lon="8.0164118"><ele>595.0</ele><time>2026-04-10T15:47:58.289Z</time></trkpt><trkpt lat="44.0025493" lon="8.0166022"><ele>595.0</ele><time>2026-04-10T15:48:00.291Z</time></trkpt><trkpt lat="44.0025822" lon="8.0166955"><ele>595.0</ele><time>2026-04-10T15:48:01.291Z</time></trkpt><trkpt lat="44.002623" lon="8.0167988"><ele>595.0</ele><time>2026-04-10T15:48:02.289Z</time></trkpt><trkpt lat="44.0026777" lon="8.0168998"><ele>595.0</ele><time>2026-04-10T15:48:03.289Z</time></trkpt><trkpt lat="44.0027519" lon="8.0169966"><ele>592.0</ele><time>2026-04-10T15:48:04.289Z</time></trkpt><trkpt lat="44.0028167" lon="8.0170753"><ele>589.0</ele><time>2026-04-10T15:48:05.29Z</time></trkpt><trkpt lat="44.0028972" lon="8.0171368"><ele>586.0</ele><time>2026-04-10T15:48:06.29Z</time></trkpt><trkpt lat="44.0029936" lon="8.0172156"><ele>583.0</ele><time>2026-04-10T15:48:07.289Z</time></trkpt><trkpt lat="44.0030855" lon="8.0172892"><ele>580.0</ele><time>2026-04-10T15:48:08.29Z</time></trkpt><trkpt lat="44.0031648" lon="8.0173536"><ele>580.0</ele><time>2026-04-10T15:48:09.289Z</time></trkpt><trkpt lat="44.0032238" lon="8.0174127"><ele>580.0</ele><time>2026-04-10T15:48:10.289Z</time></trkpt><trkpt lat="44.0032848" lon="8.0175706"><ele>580.0</ele><time>2026-04-10T15:48:12.291Z</time></trkpt><trkpt lat="44.0033049" lon="8.0176854"><ele>580.0</ele><time>2026-04-10T15:48:13.29Z</time></trkpt><trkpt lat="44.0033239" lon="8.0177874"><ele>580.0</ele><time>2026-04-10T15:48:14.289Z</time></trkpt><trkpt lat="44.0033631" lon="8.0178575"><ele>580.0</ele><time>2026-04-10T15:48:15.289Z</time></trkpt><trkpt lat="44.0034104" lon="8.0179271"><ele>578.6666666666667</ele><time>2026-04-10T15:48:16.29Z</time></trkpt><trkpt lat="44.0034815" lon="8.0179512"><ele>577.3333333333334</ele><time>2026-04-10T15:48:17.291Z</time></trkpt><trkpt lat="44.0035431" lon="8.0179797"><ele>576.0</ele><time>2026-04-10T15:48:18.289Z</time></trkpt><trkpt lat="44.0036145" lon="8.018032"><ele>574.6666666666666</ele><time>2026-04-10T15:48:19.29Z</time></trkpt><trkpt lat="44.0036848" lon="8.0180868"><ele>573.3333333333333</ele><time>2026-04-10T15:48:20.289Z</time></trkpt><trkpt lat="44.0037585" lon="8.0181459"><ele>572.0</ele><time>2026-04-10T15:48:21.29Z</time></trkpt><trkpt lat="44.0038228" lon="8.0182041"><ele>572.0</ele><time>2026-04-10T15:48:22.29Z</time></trkpt><trkpt lat="44.0038838" lon="8.0182588"><ele>572.0</ele><time>2026-04-10T15:48:23.29Z</time></trkpt><trkpt lat="44.0039172" lon="8.0183463"><ele>572.0</ele><time>2026-04-10T15:48:24.29Z</time></trkpt><trkpt lat="44.0039644" lon="8.0184367"><ele>572.0</ele><time>2026-04-10T15:48:25.291Z</time></trkpt><trkpt lat="44.0040124" lon="8.0185372"><ele>572.0</ele><time>2026-04-10T15:48:26.289Z</time></trkpt><trkpt lat="44.004075" lon="8.0186314"><ele>572.0</ele><time>2026-04-10T15:48:27.289Z</time></trkpt><trkpt lat="44.0041454" lon="8.0187081"><ele>570.6</ele><time>2026-04-10T15:48:28.289Z</time></trkpt><trkpt lat="44.0042107" lon="8.0187597"><ele>569.2</ele><time>2026-04-10T15:48:29.29Z</time></trkpt><trkpt lat="44.0042767" lon="8.0188082"><ele>567.8</ele><time>2026-04-10T15:48:30.29Z</time></trkpt><trkpt lat="44.0043581" lon="8.0188551"><ele>566.4</ele><time>2026-04-10T15:48:31.289Z</time></trkpt><trkpt lat="44.0044566" lon="8.0188973"><ele>565.0</ele><time>2026-04-10T15:48:32.29Z</time></trkpt><trkpt lat="44.0045843" lon="8.0189595"><ele>565.0</ele><time>2026-04-10T15:48:33.29Z</time></trkpt><trkpt lat="44.0046902" lon="8.0190294"><ele>565.0</ele><time>2026-04-10T15:48:34.29Z</time></trkpt><trkpt lat="44.0047858" lon="8.0191169"><ele>565.0</ele><time>2026-04-10T15:48:35.291Z</time></trkpt><trkpt lat="44.0048717" lon="8.0192326"><ele>565.0</ele><time>2026-04-10T15:48:36.289Z</time></trkpt><trkpt lat="44.0049529" lon="8.0193602"><ele>565.25</ele><time>2026-04-10T15:48:37.29Z</time></trkpt><trkpt lat="44.0050315" lon="8.0194842"><ele>565.5</ele><time>2026-04-10T15:48:38.29Z</time></trkpt><trkpt lat="44.00511" lon="8.019618"><ele>565.75</ele><time>2026-04-10T15:48:39.291Z</time></trkpt><trkpt lat="44.0051844" lon="8.0197469"><ele>566.0</ele><time>2026-04-10T15:48:40.29Z</time></trkpt><trkpt lat="44.0052462" lon="8.0198671"><ele>566.0</ele><time>2026-04-10T15:48:41.291Z</time></trkpt><trkpt lat="44.0052924" lon="8.0199751"><ele>566.0</ele><time>2026-04-10T15:48:42.289Z</time></trkpt><trkpt lat="44.0053282" lon="8.0200513"><ele>566.0</ele><time>2026-04-10T15:48:43.29Z</time></trkpt><trkpt lat="44.0053958" lon="8.0200748"><ele>566.0</ele><time>2026-04-10T15:48:45.289Z</time></trkpt><trkpt lat="44.0053943" lon="8.0199861"><ele>566.0</ele><time>2026-04-10T15:48:47.289Z</time></trkpt><trkpt lat="44.0053552" lon="8.0199062"><ele>566.0</ele><time>2026-04-10T15:48:48.291Z</time></trkpt><trkpt lat="44.0053115" lon="8.0198046"><ele>566.0</ele><time>2026-04-10T15:48:49.289Z</time></trkpt><trkpt lat="44.005269" lon="8.0196931"><ele>566.0</ele><time>2026-04-10T15:48:50.29Z</time></trkpt><trkpt lat="44.0052305" lon="8.0195646"><ele>566.0</ele><time>2026-04-10T15:48:51.29Z</time></trkpt><trkpt lat="44.0051904" lon="8.0194198"><ele>566.0</ele><time>2026-04-10T15:48:52.29Z</time></trkpt><trkpt lat="44.0051442" lon="8.019264"><ele>566.0</ele><time>2026-04-10T15:48:53.29Z</time></trkpt><trkpt lat="44.0051063" lon="8.0191263"><ele>566.0</ele><time>2026-04-10T15:48:54.289Z</time></trkpt><trkpt lat="44.0050799" lon="8.0189855"><ele>565.75</ele><time>2026-04-10T15:48:55.289Z</time></trkpt><trkpt lat="44.0050535" lon="8.0188358"><ele>565.5</ele><time>2026-04-10T15:48:56.289Z</time></trkpt><trkpt lat="44.0050195" lon="8.0186882"><ele>565.25</ele><time>2026-04-10T15:48:57.29Z</time></trkpt><trkpt lat="44.004964" lon="8.0185269"><ele>565.0</ele><time>2026-04-10T15:48:58.289Z</time></trkpt><trkpt lat="44.00491" lon="8.0183809"><ele>567.6</ele><time>2026-04-10T15:48:59.29Z</time></trkpt><trkpt lat="44.0048481" lon="8.0182558"><ele>570.2</ele><time>2026-04-10T15:49:00.289Z</time></trkpt><trkpt lat="44.0047909" lon="8.0181466"><ele>572.8</ele><time>2026-04-10T15:49:01.29Z</time></trkpt><trkpt lat="44.0047438" lon="8.0180437"><ele>575.4</ele><time>2026-04-10T15:49:02.289Z</time></trkpt><trkpt lat="44.0047123" lon="8.0179678"><ele>578.0</ele><time>2026-04-10T15:49:03.289Z</time></trkpt><trkpt lat="44.0046605" lon="8.017819"><ele>578.0</ele><time>2026-04-10T15:49:05.29Z</time></trkpt><trkpt lat="44.0046202" lon="8.0177376"><ele>578.0</ele><time>2026-04-10T15:49:06.29Z</time></trkpt><trkpt lat="44.0045689" lon="8.0176494"><ele>578.0</ele><time>2026-04-10T15:49:07.291Z</time></trkpt><trkpt lat="44.0045148" lon="8.0175525"><ele>578.0</ele><time>2026-04-10T15:49:08.289Z</time></trkpt><trkpt lat="44.0044592" lon="8.0174526"><ele>578.0</ele><time>2026-04-10T15:49:09.289Z</time></trkpt><trkpt lat="44.0044021" lon="8.017349"><ele>578.0</ele><time>2026-04-10T15:49:10.289Z</time></trkpt><trkpt lat="44.0043371" lon="8.017246"><ele>576.25</ele><time>2026-04-10T15:49:11.291Z</time></trkpt><trkpt lat="44.0042641" lon="8.0171407"><ele>574.5</ele><time>2026-04-10T15:49:12.289Z</time></trkpt><trkpt lat="44.0041849" lon="8.0170376"><ele>572.75</ele><time>2026-04-10T15:49:13.29Z</time></trkpt><trkpt lat="44.0040894" lon="8.0169219"><ele>571.0</ele><time>2026-04-10T15:49:14.289Z</time></trkpt><trkpt lat="44.0039905" lon="8.0168166"><ele>574.75</ele><time>2026-04-10T15:49:15.29Z</time></trkpt><trkpt lat="44.0038886" lon="8.0167131"><ele>578.5</ele><time>2026-04-10T15:49:16.29Z</time></trkpt><trkpt lat="44.0037892" lon="8.0166043"><ele>582.25</ele><time>2026-04-10T15:49:17.289Z</time></trkpt><trkpt lat="44.0036861" lon="8.0164875"><ele>586.0</ele><time>2026-04-10T15:49:18.29Z</time></trkpt><trkpt lat="44.0035876" lon="8.016365"><ele>586.0</ele><time>2026-04-10T15:49:19.29Z</time></trkpt><trkpt lat="44.0034918" lon="8.0162387"><ele>586.0</ele><time>2026-04-10T15:49:20.289Z</time></trkpt><trkpt lat="44.0033979" lon="8.0161132"><ele>586.0</ele><time>2026-04-10T15:49:21.29Z</time></trkpt><trkpt lat="44.0033132" lon="8.0159853"><ele>586.0</ele><time>2026-04-10T15:49:22.289Z</time></trkpt><trkpt lat="44.0032439" lon="8.0158557"><ele>590.4</ele><time>2026-04-10T15:49:23.29Z</time></trkpt><trkpt lat="44.0031941" lon="8.0157294"><ele>594.8</ele><time>2026-04-10T15:49:24.291Z</time></trkpt><trkpt lat="44.0031639" lon="8.0156024"><ele>599.1999999999999</ele><time>2026-04-10T15:49:25.289Z</time></trkpt><trkpt lat="44.0031422" lon="8.0154781"><ele>603.6</ele><time>2026-04-10T15:49:26.29Z</time></trkpt><trkpt lat="44.0031341" lon="8.0153413"><ele>608.0</ele><time>2026-04-10T15:49:27.29Z</time></trkpt><trkpt lat="44.0031394" lon="8.015197"><ele>608.0</ele><time>2026-04-10T15:49:28.289Z</time></trkpt><trkpt lat="44.0031502" lon="8.0150437"><ele>608.0</ele><time>2026-04-10T15:49:29.29Z</time></trkpt><trkpt lat="44.0031729" lon="8.0148939"><ele>608.0</ele><time>2026-04-10T15:49:30.289Z</time></trkpt><trkpt lat="44.0031987" lon="8.0147492"><ele>608.0</ele><time>2026-04-10T15:49:31.29Z</time></trkpt><trkpt lat="44.0032249" lon="8.0145942"><ele>608.0</ele><time>2026-04-10T15:49:32.29Z</time></trkpt><trkpt lat="44.0032593" lon="8.0144318"><ele>609.5</ele><time>2026-04-10T15:49:33.29Z</time></trkpt><trkpt lat="44.0032875" lon="8.0142663"><ele>611.0</ele><time>2026-04-10T15:49:34.29Z</time></trkpt><trkpt lat="44.0032903" lon="8.0141014"><ele>612.5</ele><time>2026-04-10T15:49:35.29Z</time></trkpt><trkpt lat="44.0032623" lon="8.0139392"><ele>614.0</ele><time>2026-04-10T15:49:36.292Z</time></trkpt><trkpt lat="44.0032097" lon="8.0137895"><ele>614.0</ele><time>2026-04-10T15:49:37.29Z</time></trkpt><trkpt lat="44.0031246" lon="8.0136506"><ele>614.0</ele><time>2026-04-10T15:49:38.29Z</time></trkpt><trkpt lat="44.0030257" lon="8.0135178"><ele>614.0</ele><time>2026-04-10T15:49:39.289Z</time></trkpt><trkpt lat="44.0029339" lon="8.0133693"><ele>614.0</ele><time>2026-04-10T15:49:40.289Z</time></trkpt><trkpt lat="44.0028599" lon="8.01321"><ele>612.0</ele><time>2026-04-10T15:49:41.29Z</time></trkpt><trkpt lat="44.0028063" lon="8.0130454"><ele>610.0</ele><time>2026-04-10T15:49:42.293Z</time></trkpt><trkpt lat="44.0027743" lon="8.0128799"><ele>608.0</ele><time>2026-04-10T15:49:43.289Z</time></trkpt><trkpt lat="44.002742" lon="8.0127091"><ele>606.0</ele><time>2026-04-10T15:49:44.291Z</time></trkpt><trkpt lat="44.0026923" lon="8.0125336"><ele>605.0</ele><time>2026-04-10T15:49:45.291Z</time></trkpt><trkpt lat="44.0026389" lon="8.012368"><ele>604.0</ele><time>2026-04-10T15:49:46.291Z</time></trkpt><trkpt lat="44.002572" lon="8.0122258"><ele>603.0</ele><time>2026-04-10T15:49:47.289Z</time></trkpt><trkpt lat="44.0025103" lon="8.012093"><ele>602.0</ele><time>2026-04-10T15:49:48.289Z</time></trkpt><trkpt lat="44.0024654" lon="8.0119688"><ele>602.1666666666666</ele><time>2026-04-10T15:49:49.29Z</time></trkpt><trkpt lat="44.0024367" lon="8.0118647"><ele>602.3333333333333</ele><time>2026-04-10T15:49:50.29Z</time></trkpt><trkpt lat="44.0024115" lon="8.011772"><ele>602.5</ele><time>2026-04-10T15:49:51.289Z</time></trkpt><trkpt lat="44.002459" lon="8.0116244"><ele>602.6666666666666</ele><time>2026-04-10T15:49:53.289Z</time></trkpt><trkpt lat="44.0024938" lon="8.0115443"><ele>602.8333333333334</ele><time>2026-04-10T15:49:54.291Z</time></trkpt><trkpt lat="44.0025288" lon="8.0114654"><ele>603.0</ele><time>2026-04-10T15:49:55.291Z</time></trkpt><trkpt lat="44.0025687" lon="8.0113785"><ele>603.0</ele><time>2026-04-10T15:49:56.292Z</time></trkpt><trkpt lat="44.0026011" lon="8.0112896"><ele>603.0</ele><time>2026-04-10T15:49:57.29Z</time></trkpt><trkpt lat="44.0026314" lon="8.0111225"><ele>603.0</ele><time>2026-04-10T15:49:59.289Z</time></trkpt><trkpt lat="44.0026386" lon="8.0110096"><ele>603.0</ele><time>2026-04-10T15:50:00.29Z</time></trkpt><trkpt lat="44.0026488" lon="8.0108999"><ele>603.0</ele><time>2026-04-10T15:50:01.289Z</time></trkpt><trkpt lat="44.0026636" lon="8.0107978"><ele>603.0</ele><time>2026-04-10T15:50:02.289Z</time></trkpt><trkpt lat="44.0026862" lon="8.0106975"><ele>602.6666666666666</ele><time>2026-04-10T15:50:03.289Z</time></trkpt><trkpt lat="44.0027226" lon="8.010611"><ele>602.3333333333334</ele><time>2026-04-10T15:50:04.289Z</time></trkpt><trkpt lat="44.0027557" lon="8.0105332"><ele>602.0</ele><time>2026-04-10T15:50:05.29Z</time></trkpt><trkpt lat="44.0028083" lon="8.0104308"><ele>601.6666666666667</ele><time>2026-04-10T15:50:07.289Z</time></trkpt><trkpt lat="44.0028604" lon="8.0102998"><ele>601.3333333333334</ele><time>2026-04-10T15:50:09.289Z</time></trkpt><trkpt lat="44.0028778" lon="8.0101805"><ele>601.0</ele><time>2026-04-10T15:50:11.29Z</time></trkpt><trkpt lat="44.0028759" lon="8.0100627"><ele>601.0</ele><time>2026-04-10T15:50:13.289Z</time></trkpt><trkpt lat="44.0028737" lon="8.009908"><ele>601.0</ele><time>2026-04-10T15:50:15.291Z</time></trkpt><trkpt lat="44.0028825" lon="8.0097715"><ele>601.0</ele><time>2026-04-10T15:50:17.291Z</time></trkpt><trkpt lat="44.0029031" lon="8.0096467"><ele>601.0</ele><time>2026-04-10T15:50:19.29Z</time></trkpt><trkpt lat="44.0029236" lon="8.0095265"><ele>601.0</ele><time>2026-04-10T15:50:21.289Z</time></trkpt><trkpt lat="44.0029312" lon="8.0094337"><ele>601.0</ele><time>2026-04-10T15:50:22.29Z</time></trkpt><trkpt lat="44.0029416" lon="8.0093408"><ele>601.0</ele><time>2026-04-10T15:50:23.289Z</time></trkpt><trkpt lat="44.0029362" lon="8.0092315"><ele>601.0</ele><time>2026-04-10T15:50:24.29Z</time></trkpt><trkpt lat="44.0029776" lon="8.0091096"><ele>601.0</ele><time>2026-04-10T15:50:26.291Z</time></trkpt><trkpt lat="44.0030124" lon="8.0090292"><ele>601.0</ele><time>2026-04-10T15:50:27.29Z</time></trkpt><trkpt lat="44.0030356" lon="8.0088491"><ele>601.0</ele><time>2026-04-10T15:50:29.29Z</time></trkpt><trkpt lat="44.0030481" lon="8.0087453"><ele>601.8571428571428</ele><time>2026-04-10T15:50:30.289Z</time></trkpt><trkpt lat="44.0030644" lon="8.0086393"><ele>602.7142857142858</ele><time>2026-04-10T15:50:31.291Z</time></trkpt><trkpt lat="44.0030663" lon="8.0085431"><ele>603.5714285714286</ele><time>2026-04-10T15:50:32.29Z</time></trkpt><trkpt lat="44.003067" lon="8.0084439"><ele>604.4285714285713</ele><time>2026-04-10T15:50:33.29Z</time></trkpt><trkpt lat="44.0030772" lon="8.0083419"><ele>605.2857142857142</ele><time>2026-04-10T15:50:34.291Z</time></trkpt><trkpt lat="44.0030783" lon="8.0082408"><ele>606.1428571428571</ele><time>2026-04-10T15:50:35.29Z</time></trkpt><trkpt lat="44.0030862" lon="8.0081303"><ele>607.0</ele><time>2026-04-10T15:50:36.289Z</time></trkpt><trkpt lat="44.003113" lon="8.0080334"><ele>608.8333333333334</ele><time>2026-04-10T15:50:37.291Z</time></trkpt><trkpt lat="44.0031394" lon="8.0079248"><ele>610.6666666666667</ele><time>2026-04-10T15:50:38.29Z</time></trkpt><trkpt lat="44.0031572" lon="8.0078153"><ele>612.5</ele><time>2026-04-10T15:50:39.291Z</time></trkpt><trkpt lat="44.003164" lon="8.0076933"><ele>614.3333333333334</ele><time>2026-04-10T15:50:40.291Z</time></trkpt><trkpt lat="44.0031786" lon="8.0075914"><ele>616.1666666666666</ele><time>2026-04-10T15:50:41.29Z</time></trkpt><trkpt lat="44.003223" lon="8.0075211"><ele>618.0</ele><time>2026-04-10T15:50:42.29Z</time></trkpt><trkpt lat="44.0033371" lon="8.007403"><ele>612.5</ele><time>2026-04-10T15:50:44.289Z</time></trkpt><trkpt lat="44.0033994" lon="8.0073528"><ele>607.0</ele><time>2026-04-10T15:50:45.291Z</time></trkpt><trkpt lat="44.0034611" lon="8.0073022"><ele>601.5</ele><time>2026-04-10T15:50:46.289Z</time></trkpt><trkpt lat="44.0035344" lon="8.0072302"><ele>596.0</ele><time>2026-04-10T15:50:47.291Z</time></trkpt><trkpt lat="44.0035941" lon="8.0071623"><ele>590.5</ele><time>2026-04-10T15:50:48.291Z</time></trkpt><trkpt lat="44.0036425" lon="8.0070388"><ele>585.0</ele><time>2026-04-10T15:50:50.29Z</time></trkpt><trkpt lat="44.0036186" lon="8.0069534"><ele>585.0</ele><time>2026-04-10T15:50:51.289Z</time></trkpt><trkpt lat="44.0035825" lon="8.006861"><ele>585.0</ele><time>2026-04-10T15:50:52.29Z</time></trkpt><trkpt lat="44.0035494" lon="8.0067711"><ele>585.0</ele><time>2026-04-10T15:50:53.291Z</time></trkpt><trkpt lat="44.0035301" lon="8.0066744"><ele>585.0</ele><time>2026-04-10T15:50:54.29Z</time></trkpt><trkpt lat="44.0035095" lon="8.0065884"><ele>585.0</ele><time>2026-04-10T15:50:55.291Z</time></trkpt><trkpt lat="44.003469" lon="8.0064963"><ele>585.0</ele><time>2026-04-10T15:50:56.29Z</time></trkpt><trkpt lat="44.0034222" lon="8.0064046"><ele>585.0</ele><time>2026-04-10T15:50:57.289Z</time></trkpt><trkpt lat="44.0033678" lon="8.0063076"><ele>585.8</ele><time>2026-04-10T15:50:58.289Z</time></trkpt><trkpt lat="44.0033272" lon="8.0062115"><ele>586.6</ele><time>2026-04-10T15:50:59.289Z</time></trkpt><trkpt lat="44.0032977" lon="8.006115"><ele>587.4</ele><time>2026-04-10T15:51:00.291Z</time></trkpt><trkpt lat="44.0032638" lon="8.0059936"><ele>588.2</ele><time>2026-04-10T15:51:02.291Z</time></trkpt><trkpt lat="44.0033386" lon="8.0059069"><ele>589.0</ele><time>2026-04-10T15:51:05.29Z</time></trkpt><trkpt lat="44.0034669" lon="8.0058485"><ele>592.8333333333334</ele><time>2026-04-10T15:51:07.291Z</time></trkpt><trkpt lat="44.0035534" lon="8.0058179"><ele>596.6666666666667</ele><time>2026-04-10T15:51:08.29Z</time></trkpt><trkpt lat="44.0036436" lon="8.0057839"><ele>600.5</ele><time>2026-04-10T15:51:09.289Z</time></trkpt><trkpt lat="44.0037113" lon="8.0057433"><ele>604.3333333333334</ele><time>2026-04-10T15:51:10.291Z</time></trkpt><trkpt lat="44.0037994" lon="8.0056974"><ele>608.1666666666666</ele><time>2026-04-10T15:51:12.289Z</time></trkpt><trkpt lat="44.0038139" lon="8.005572"><ele>612.0</ele><time>2026-04-10T15:51:13.29Z</time></trkpt><trkpt lat="44.0038424" lon="8.0054407"><ele>612.0</ele><time>2026-04-10T15:51:15.29Z</time></trkpt><trkpt lat="44.0039554" lon="8.0054281"><ele>612.0</ele><time>2026-04-10T15:51:17.29Z</time></trkpt><trkpt lat="44.0040324" lon="8.0054399"><ele>612.0</ele><time>2026-04-10T15:51:18.292Z</time></trkpt><trkpt lat="44.0041315" lon="8.0054929"><ele>612.0</ele><time>2026-04-10T15:51:20.291Z</time></trkpt><trkpt lat="44.0041873" lon="8.0055722"><ele>612.0</ele><time>2026-04-10T15:51:22.29Z</time></trkpt><trkpt lat="44.004249" lon="8.0056226"><ele>612.0</ele><time>2026-04-10T15:51:24.29Z</time></trkpt><trkpt lat="44.0043318" lon="8.0055311"><ele>607.8333333333334</ele><time>2026-04-10T15:51:26.289Z</time></trkpt><trkpt lat="44.0044037" lon="8.0054353"><ele>603.6666666666666</ele><time>2026-04-10T15:51:28.29Z</time></trkpt><trkpt lat="44.0044694" lon="8.0054079"><ele>599.5</ele><time>2026-04-10T15:51:30.291Z</time></trkpt><trkpt lat="44.0045424" lon="8.0053751"><ele>595.3333333333333</ele><time>2026-04-10T15:51:31.29Z</time></trkpt><trkpt lat="44.0046153" lon="8.0053569"><ele>591.1666666666666</ele><time>2026-04-10T15:51:32.29Z</time></trkpt><trkpt lat="44.0046975" lon="8.0053399"><ele>587.0</ele><time>2026-04-10T15:51:33.289Z</time></trkpt><trkpt lat="44.0047967" lon="8.0053241"><ele>587.0</ele><time>2026-04-10T15:51:34.29Z</time></trkpt><trkpt lat="44.0048788" lon="8.0053142"><ele>587.0</ele><time>2026-04-10T15:51:35.289Z</time></trkpt><trkpt lat="44.0049512" lon="8.0052948"><ele>587.0</ele><time>2026-04-10T15:51:36.289Z</time></trkpt><trkpt lat="44.0050062" lon="8.0052409"><ele>587.0</ele><time>2026-04-10T15:51:37.29Z</time></trkpt><trkpt lat="44.0050685" lon="8.0051341"><ele>587.0</ele><time>2026-04-10T15:51:39.289Z</time></trkpt><trkpt lat="44.0050874" lon="8.005049"><ele>587.0</ele><time>2026-04-10T15:51:40.291Z</time></trkpt><trkpt lat="44.0051328" lon="8.00492"><ele>585.5</ele><time>2026-04-10T15:51:42.29Z</time></trkpt><trkpt lat="44.0051906" lon="8.0048354"><ele>584.0</ele><time>2026-04-10T15:51:43.29Z</time></trkpt><trkpt lat="44.0052425" lon="8.0047605"><ele>582.5</ele><time>2026-04-10T15:51:44.289Z</time></trkpt><trkpt lat="44.0052939" lon="8.0046827"><ele>581.0</ele><time>2026-04-10T15:51:45.291Z</time></trkpt><trkpt lat="44.005388" lon="8.0045905"><ele>579.5</ele><time>2026-04-10T15:51:47.29Z</time></trkpt><trkpt lat="44.005469" lon="8.0045411"><ele>578.0</ele><time>2026-04-10T15:51:49.29Z</time></trkpt><trkpt lat="44.0055592" lon="8.0045561"><ele>578.0</ele><time>2026-04-10T15:51:51.291Z</time></trkpt><trkpt lat="44.0056507" lon="8.0046435"><ele>578.0</ele><time>2026-04-10T15:51:53.289Z</time></trkpt><trkpt lat="44.0057119" lon="8.0046891"><ele>578.0</ele><time>2026-04-10T15:51:55.29Z</time></trkpt><trkpt lat="44.0057779" lon="8.0047326"><ele>578.0</ele><time>2026-04-10T15:51:58.291Z</time></trkpt><trkpt lat="44.0058453" lon="8.0047597"><ele>578.0</ele><time>2026-04-10T15:52:00.289Z</time></trkpt><trkpt lat="44.0059151" lon="8.0048043"><ele>578.0</ele><time>2026-04-10T15:52:02.29Z</time></trkpt><trkpt lat="44.0060039" lon="8.0048824"><ele>574.0</ele><time>2026-04-10T15:52:04.29Z</time></trkpt><trkpt lat="44.0060832" lon="8.0049737"><ele>570.0</ele><time>2026-04-10T15:52:06.29Z</time></trkpt><trkpt lat="44.0061544" lon="8.0050254"><ele>566.0</ele><time>2026-04-10T15:52:10.291Z</time></trkpt><trkpt lat="44.0062241" lon="8.0050691"><ele>562.0</ele><time>2026-04-10T15:52:13.289Z</time></trkpt><trkpt lat="44.0062964" lon="8.0051476"><ele>558.0</ele><time>2026-04-10T15:52:15.291Z</time></trkpt><trkpt lat="44.0063927" lon="8.0052505"><ele>555.1666666666666</ele><time>2026-04-10T15:52:17.29Z</time></trkpt><trkpt lat="44.0064555" lon="8.0052966"><ele>552.3333333333334</ele><time>2026-04-10T15:52:18.29Z</time></trkpt><trkpt lat="44.0065125" lon="8.0053616"><ele>549.5</ele><time>2026-04-10T15:52:19.291Z</time></trkpt><trkpt lat="44.0065661" lon="8.0054153"><ele>546.6666666666667</ele><time>2026-04-10T15:52:20.292Z</time></trkpt><trkpt lat="44.0066505" lon="8.0054145"><ele>543.8333333333334</ele><time>2026-04-10T15:52:22.29Z</time></trkpt><trkpt lat="44.0067077" lon="8.0053282"><ele>541.0</ele><time>2026-04-10T15:52:24.29Z</time></trkpt><trkpt lat="44.0067534" lon="8.0052451"><ele>541.0</ele><time>2026-04-10T15:52:26.291Z</time></trkpt><trkpt lat="44.0067914" lon="8.0051417"><ele>541.0</ele><time>2026-04-10T15:52:29.291Z</time></trkpt><trkpt lat="44.0068583" lon="8.0050904"><ele>541.0</ele><time>2026-04-10T15:53:28.29Z</time></trkpt><trkpt lat="44.0069301" lon="8.0050048"><ele>541.0</ele><time>2026-04-10T15:53:30.29Z</time></trkpt><trkpt lat="44.0070153" lon="8.0049249"><ele>541.0</ele><time>2026-04-10T15:53:32.289Z</time></trkpt><trkpt lat="44.0070605" lon="8.004818"><ele>541.0</ele><time>2026-04-10T15:53:33.29Z</time></trkpt><trkpt lat="44.007112" lon="8.0047056"><ele>542.0</ele><time>2026-04-10T15:53:34.29Z</time></trkpt><trkpt lat="44.0071551" lon="8.0046238"><ele>543.0</ele><time>2026-04-10T15:53:35.291Z</time></trkpt><trkpt lat="44.0072285" lon="8.0045459"><ele>544.0</ele><time>2026-04-10T15:53:37.291Z</time></trkpt><trkpt lat="44.0073523" lon="8.0045631"><ele>545.0</ele><time>2026-04-10T15:53:39.291Z</time></trkpt><trkpt lat="44.0074166" lon="8.004593"><ele>546.0</ele><time>2026-04-10T15:53:40.291Z</time></trkpt><trkpt lat="44.0075323" lon="8.0045903"><ele>546.0</ele><time>2026-04-10T15:53:42.291Z</time></trkpt><trkpt lat="44.0075951" lon="8.0045647"><ele>546.0</ele><time>2026-04-10T15:53:43.29Z</time></trkpt><trkpt lat="44.0076556" lon="8.0045141"><ele>546.0</ele><time>2026-04-10T15:53:44.291Z</time></trkpt><trkpt lat="44.0077287" lon="8.0043916"><ele>546.0</ele><time>2026-04-10T15:53:46.291Z</time></trkpt><trkpt lat="44.0077694" lon="8.0042224"><ele>546.0</ele><time>2026-04-10T15:53:48.289Z</time></trkpt><trkpt lat="44.0078318" lon="8.0041614"><ele>548.0</ele><time>2026-04-10T15:53:50.29Z</time></trkpt><trkpt lat="44.0079026" lon="8.0041554"><ele>550.0</ele><time>2026-04-10T15:53:51.291Z</time></trkpt><trkpt lat="44.0080106" lon="8.0041488"><ele>552.0</ele><time>2026-04-10T15:53:53.29Z</time></trkpt><trkpt lat="44.0081366" lon="8.0040927"><ele>554.0</ele><time>2026-04-10T15:53:55.291Z</time></trkpt><trkpt lat="44.0081998" lon="8.0040949"><ele>556.0</ele><time>2026-04-10T15:53:56.29Z</time></trkpt><trkpt lat="44.0082686" lon="8.0041203"><ele>558.0</ele><time>2026-04-10T15:53:57.291Z</time></trkpt><trkpt lat="44.0083291" lon="8.0041565"><ele>558.0</ele><time>2026-04-10T15:53:58.292Z</time></trkpt><trkpt lat="44.0084153" lon="8.0041003"><ele>558.0</ele><time>2026-04-10T15:54:00.289Z</time></trkpt><trkpt lat="44.0084946" lon="8.0039989"><ele>558.0</ele><time>2026-04-10T15:54:02.29Z</time></trkpt><trkpt lat="44.0085398" lon="8.003932"><ele>558.0</ele><time>2026-04-10T15:54:03.29Z</time></trkpt><trkpt lat="44.0085959" lon="8.0038879"><ele>558.0</ele><time>2026-04-10T15:54:04.29Z</time></trkpt><trkpt lat="44.0086788" lon="8.0038503"><ele>558.0</ele><time>2026-04-10T15:54:05.291Z</time></trkpt><trkpt lat="44.0087568" lon="8.0038496"><ele>558.0</ele><time>2026-04-10T15:54:06.289Z</time></trkpt><trkpt lat="44.0088457" lon="8.0038531"><ele>558.0</ele><time>2026-04-10T15:54:07.29Z</time></trkpt><trkpt lat="44.0089372" lon="8.0038561"><ele>558.0</ele><time>2026-04-10T15:54:08.292Z</time></trkpt><trkpt lat="44.0090202" lon="8.0038607"><ele>558.0</ele><time>2026-04-10T15:54:09.29Z</time></trkpt><trkpt lat="44.0090956" lon="8.0039003"><ele>558.0</ele><time>2026-04-10T15:54:10.29Z</time></trkpt><trkpt lat="44.0091985" lon="8.0039427"><ele>556.6666666666666</ele><time>2026-04-10T15:54:12.291Z</time></trkpt><trkpt lat="44.0092851" lon="8.0039753"><ele>555.3333333333334</ele><time>2026-04-10T15:54:14.29Z</time></trkpt><trkpt lat="44.0093532" lon="8.0040041"><ele>554.0</ele><time>2026-04-10T15:54:16.291Z</time></trkpt><trkpt lat="44.0094423" lon="8.0040394"><ele>552.6666666666667</ele><time>2026-04-10T15:54:18.291Z</time></trkpt><trkpt lat="44.0095449" lon="8.0041505"><ele>551.3333333333334</ele><time>2026-04-10T15:54:20.29Z</time></trkpt><trkpt lat="44.009588" lon="8.0042187"><ele>550.0</ele><time>2026-04-10T15:54:21.291Z</time></trkpt><trkpt lat="44.0096785" lon="8.0043087"><ele>547.8333333333334</ele><time>2026-04-10T15:54:23.291Z</time></trkpt><trkpt lat="44.0097346" lon="8.004352"><ele>545.6666666666667</ele><time>2026-04-10T15:54:24.291Z</time></trkpt><trkpt lat="44.0098116" lon="8.004407"><ele>543.5</ele><time>2026-04-10T15:54:25.291Z</time></trkpt><trkpt lat="44.0098977" lon="8.0044691"><ele>541.3333333333334</ele><time>2026-04-10T15:54:26.29Z</time></trkpt><trkpt lat="44.0099752" lon="8.004528"><ele>539.1666666666666</ele><time>2026-04-10T15:54:27.291Z</time></trkpt><trkpt lat="44.0100323" lon="8.0046615"><ele>537.0</ele><time>2026-04-10T15:54:29.292Z</time></trkpt><trkpt lat="44.0100374" lon="8.0047565"><ele>537.0</ele><time>2026-04-10T15:54:30.29Z</time></trkpt><trkpt lat="44.0100242" lon="8.0048933"><ele>537.0</ele><time>2026-04-10T15:54:31.291Z</time></trkpt><trkpt lat="44.0100081" lon="8.005025"><ele>537.0</ele><time>2026-04-10T15:54:32.29Z</time></trkpt><trkpt lat="44.0099969" lon="8.0051541"><ele>537.0</ele><time>2026-04-10T15:54:33.29Z</time></trkpt><trkpt lat="44.0099963" lon="8.0052627"><ele>537.0</ele><time>2026-04-10T15:54:34.29Z</time></trkpt><trkpt lat="44.0100129" lon="8.0053966"><ele>534.3333333333334</ele><time>2026-04-10T15:54:35.29Z</time></trkpt><trkpt lat="44.0100257" lon="8.0055069"><ele>531.6666666666666</ele><time>2026-04-10T15:54:36.291Z</time></trkpt><trkpt lat="44.0100552" lon="8.0055878"><ele>529.0</ele><time>2026-04-10T15:54:37.29Z</time></trkpt><trkpt lat="44.0100993" lon="8.0056586"><ele>526.3333333333333</ele><time>2026-04-10T15:54:38.29Z</time></trkpt><trkpt lat="44.0102158" lon="8.0057353"><ele>523.6666666666666</ele><time>2026-04-10T15:54:40.292Z</time></trkpt><trkpt lat="44.0103113" lon="8.0057788"><ele>521.0</ele><time>2026-04-10T15:54:41.291Z</time></trkpt><trkpt lat="44.0103715" lon="8.0058354"><ele>518.5</ele><time>2026-04-10T15:54:42.291Z</time></trkpt><trkpt lat="44.0104354" lon="8.0059189"><ele>516.0</ele><time>2026-04-10T15:54:43.29Z</time></trkpt><trkpt lat="44.0104896" lon="8.0060061"><ele>513.5</ele><time>2026-04-10T15:54:44.291Z</time></trkpt><trkpt lat="44.0105165" lon="8.0060991"><ele>511.0</ele><time>2026-04-10T15:54:45.29Z</time></trkpt><trkpt lat="44.010524" lon="8.0062077"><ele>508.49999999999994</ele><time>2026-04-10T15:54:46.292Z</time></trkpt><trkpt lat="44.0105337" lon="8.0063171"><ele>506.0</ele><time>2026-04-10T15:54:47.291Z</time></trkpt><trkpt lat="44.0105431" lon="8.0064184"><ele>505.99999999999994</ele><time>2026-04-10T15:54:48.291Z</time></trkpt><trkpt lat="44.0105723" lon="8.0065116"><ele>506.0</ele><time>2026-04-10T15:54:49.289Z</time></trkpt><trkpt lat="44.0106192" lon="8.0066129"><ele>506.0</ele><time>2026-04-10T15:54:50.291Z</time></trkpt><trkpt lat="44.0106779" lon="8.0066941"><ele>506.0</ele><time>2026-04-10T15:54:51.29Z</time></trkpt><trkpt lat="44.0107527" lon="8.0067655"><ele>505.99999999999994</ele><time>2026-04-10T15:54:52.29Z</time></trkpt><trkpt lat="44.0108273" lon="8.006836"><ele>506.0</ele><time>2026-04-10T15:54:53.291Z</time></trkpt><trkpt lat="44.0109024" lon="8.0069025"><ele>507.4</ele><time>2026-04-10T15:54:54.29Z</time></trkpt><trkpt lat="44.010977" lon="8.0069977"><ele>508.8</ele><time>2026-04-10T15:54:55.291Z</time></trkpt><trkpt lat="44.0110547" lon="8.0070912"><ele>510.19999999999993</ele><time>2026-04-10T15:54:56.29Z</time></trkpt><trkpt lat="44.0111344" lon="8.0072166"><ele>511.59999999999997</ele><time>2026-04-10T15:54:57.291Z</time></trkpt><trkpt lat="44.011206" lon="8.0073452"><ele>513.0</ele><time>2026-04-10T15:54:58.291Z</time></trkpt><trkpt lat="44.011266" lon="8.0074769"><ele>513.0</ele><time>2026-04-10T15:54:59.291Z</time></trkpt><trkpt lat="44.0113011" lon="8.0075704"><ele>513.0</ele><time>2026-04-10T15:55:00.29Z</time></trkpt><trkpt lat="44.0113402" lon="8.0076564"><ele>513.0</ele><time>2026-04-10T15:55:01.29Z</time></trkpt><trkpt lat="44.0114083" lon="8.0076444"><ele>513.0</ele><time>2026-04-10T15:55:03.29Z</time></trkpt><trkpt lat="44.0115008" lon="8.0075259"><ele>513.0</ele><time>2026-04-10T15:55:05.29Z</time></trkpt><trkpt lat="44.0115563" lon="8.0074498"><ele>513.0</ele><time>2026-04-10T15:55:06.29Z</time></trkpt><trkpt lat="44.0116415" lon="8.0073848"><ele>515.25</ele><time>2026-04-10T15:55:08.29Z</time></trkpt><trkpt lat="44.0117263" lon="8.0073214"><ele>517.5</ele><time>2026-04-10T15:55:40.291Z</time></trkpt><trkpt lat="44.0118323" lon="8.0071574"><ele>519.75</ele><time>2026-04-10T15:55:42.29Z</time></trkpt><trkpt lat="44.0119067" lon="8.0070547"><ele>522.0</ele><time>2026-04-10T15:55:43.291Z</time></trkpt><trkpt lat="44.0119735" lon="8.0069577"><ele>522.0</ele><time>2026-04-10T15:55:44.292Z</time></trkpt><trkpt lat="44.0120371" lon="8.0068669"><ele>522.0</ele><time>2026-04-10T15:55:45.29Z</time></trkpt><trkpt lat="44.0121316" lon="8.0067677"><ele>522.0</ele><time>2026-04-10T15:55:46.292Z</time></trkpt><trkpt lat="44.0122202" lon="8.0067105"><ele>522.0</ele><time>2026-04-10T15:55:47.291Z</time></trkpt><trkpt lat="44.0123296" lon="8.006641"><ele>522.0</ele><time>2026-04-10T15:55:48.291Z</time></trkpt><trkpt lat="44.0124292" lon="8.0065793"><ele>524.0</ele><time>2026-04-10T15:55:49.291Z</time></trkpt><trkpt lat="44.0125133" lon="8.0065141"><ele>526.0</ele><time>2026-04-10T15:55:50.29Z</time></trkpt><trkpt lat="44.0125723" lon="8.0063784"><ele>528.0</ele><time>2026-04-10T15:55:51.29Z</time></trkpt><trkpt lat="44.0126389" lon="8.006286"><ele>530.0</ele><time>2026-04-10T15:55:52.29Z</time></trkpt><trkpt lat="44.012713" lon="8.0062324"><ele>532.0</ele><time>2026-04-10T15:55:53.291Z</time></trkpt><trkpt lat="44.0127956" lon="8.0061878"><ele>532.0</ele><time>2026-04-10T15:55:54.291Z</time></trkpt><trkpt lat="44.0129248" lon="8.0061669"><ele>532.0</ele><time>2026-04-10T15:55:55.291Z</time></trkpt><trkpt lat="44.0130461" lon="8.0061238"><ele>532.0</ele><time>2026-04-10T15:55:56.29Z</time></trkpt><trkpt lat="44.0131682" lon="8.0060983"><ele>532.0</ele><time>2026-04-10T15:55:57.29Z</time></trkpt><trkpt lat="44.0132522" lon="8.006088"><ele>530.1666666666667</ele><time>2026-04-10T15:55:58.29Z</time></trkpt><trkpt lat="44.0133389" lon="8.0060726"><ele>528.3333333333334</ele><time>2026-04-10T15:55:59.291Z</time></trkpt><trkpt lat="44.0134157" lon="8.0060101"><ele>526.5</ele><time>2026-04-10T15:56:00.29Z</time></trkpt><trkpt lat="44.0134834" lon="8.0059349"><ele>524.6666666666666</ele><time>2026-04-10T15:56:01.29Z</time></trkpt><trkpt lat="44.0135344" lon="8.0058612"><ele>522.8333333333333</ele><time>2026-04-10T15:56:02.29Z</time></trkpt><trkpt lat="44.0135886" lon="8.0057917"><ele>521.0</ele><time>2026-04-10T15:56:03.291Z</time></trkpt><trkpt lat="44.0136736" lon="8.0057217"><ele>524.0</ele><time>2026-04-10T15:56:04.291Z</time></trkpt><trkpt lat="44.0137775" lon="8.0056421"><ele>527.0</ele><time>2026-04-10T15:56:05.291Z</time></trkpt><trkpt lat="44.0138748" lon="8.0055659"><ele>530.0</ele><time>2026-04-10T15:56:06.291Z</time></trkpt><trkpt lat="44.0139692" lon="8.0055119"><ele>533.0</ele><time>2026-04-10T15:56:07.291Z</time></trkpt><trkpt lat="44.0140574" lon="8.0055077"><ele>536.0</ele><time>2026-04-10T15:56:08.291Z</time></trkpt><trkpt lat="44.014163" lon="8.0055364"><ele>536.0</ele><time>2026-04-10T15:56:09.29Z</time></trkpt><trkpt lat="44.01426" lon="8.0055663"><ele>536.0</ele><time>2026-04-10T15:56:10.29Z</time></trkpt><trkpt lat="44.0143839" lon="8.0056354"><ele>536.0</ele><time>2026-04-10T15:56:11.291Z</time></trkpt><trkpt lat="44.0145086" lon="8.005705"><ele>536.0</ele><time>2026-04-10T15:56:12.291Z</time></trkpt><trkpt lat="44.0146226" lon="8.0057804"><ele>535.75</ele><time>2026-04-10T15:56:13.29Z</time></trkpt><trkpt lat="44.0147232" lon="8.0058892"><ele>535.5</ele><time>2026-04-10T15:56:14.291Z</time></trkpt><trkpt lat="44.0148328" lon="8.0059945"><ele>535.25</ele><time>2026-04-10T15:56:15.29Z</time></trkpt><trkpt lat="44.01493" lon="8.0061195"><ele>535.0</ele><time>2026-04-10T15:56:16.29Z</time></trkpt><trkpt lat="44.0150146" lon="8.0062532"><ele>535.0</ele><time>2026-04-10T15:56:17.29Z</time></trkpt><trkpt lat="44.0150872" lon="8.0063928"><ele>535.0</ele><time>2026-04-10T15:56:18.291Z</time></trkpt><trkpt lat="44.0151548" lon="8.006511"><ele>535.0</ele><time>2026-04-10T15:56:19.29Z</time></trkpt><trkpt lat="44.0152273" lon="8.0066114"><ele>535.0</ele><time>2026-04-10T15:56:20.291Z</time></trkpt><trkpt lat="44.0152919" lon="8.0066694"><ele>535.0</ele><time>2026-04-10T15:56:21.29Z</time></trkpt><trkpt lat="44.0153787" lon="8.0066537"><ele>535.0</ele><time>2026-04-10T15:56:23.29Z</time></trkpt><trkpt lat="44.015366" lon="8.0065516"><ele>535.0</ele><time>2026-04-10T15:56:25.291Z</time></trkpt><trkpt lat="44.0153162" lon="8.0064928"><ele>535.0</ele><time>2026-04-10T15:56:26.292Z</time></trkpt><trkpt lat="44.015258" lon="8.0064321"><ele>535.0</ele><time>2026-04-10T15:56:27.291Z</time></trkpt><trkpt lat="44.0152117" lon="8.0063483"><ele>535.0</ele><time>2026-04-10T15:56:28.292Z</time></trkpt><trkpt lat="44.0151513" lon="8.0062427"><ele>535.0</ele><time>2026-04-10T15:56:29.291Z</time></trkpt><trkpt lat="44.0150928" lon="8.0061211"><ele>535.0</ele><time>2026-04-10T15:56:30.291Z</time></trkpt><trkpt lat="44.0150385" lon="8.0060236"><ele>535.0</ele><time>2026-04-10T15:56:31.29Z</time></trkpt><trkpt lat="44.0149823" lon="8.0059211"><ele>535.0</ele><time>2026-04-10T15:56:32.29Z</time></trkpt><trkpt lat="44.0149183" lon="8.0058019"><ele>535.0</ele><time>2026-04-10T15:56:33.29Z</time></trkpt><trkpt lat="44.0148363" lon="8.0056716"><ele>535.0</ele><time>2026-04-10T15:56:34.29Z</time></trkpt><trkpt lat="44.0147567" lon="8.0055442"><ele>535.2</ele><time>2026-04-10T15:56:35.29Z</time></trkpt><trkpt lat="44.0146901" lon="8.005445"><ele>535.4</ele><time>2026-04-10T15:56:36.29Z</time></trkpt><trkpt lat="44.0146159" lon="8.0053646"><ele>535.6</ele><time>2026-04-10T15:56:37.292Z</time></trkpt><trkpt lat="44.014495" lon="8.0053174"><ele>535.8</ele><time>2026-04-10T15:56:38.29Z</time></trkpt><trkpt lat="44.0144149" lon="8.0052591"><ele>536.0</ele><time>2026-04-10T15:56:39.29Z</time></trkpt><trkpt lat="44.0143314" lon="8.0051789"><ele>536.0</ele><time>2026-04-10T15:56:40.291Z</time></trkpt><trkpt lat="44.0142401" lon="8.0050879"><ele>536.0</ele><time>2026-04-10T15:56:41.291Z</time></trkpt><trkpt lat="44.0141437" lon="8.0050372"><ele>536.0</ele><time>2026-04-10T15:56:42.292Z</time></trkpt><trkpt lat="44.0140421" lon="8.0050158"><ele>536.0</ele><time>2026-04-10T15:56:43.29Z</time></trkpt><trkpt lat="44.0139179" lon="8.0049909"><ele>536.0</ele><time>2026-04-10T15:56:44.291Z</time></trkpt><trkpt lat="44.0138024" lon="8.0049869"><ele>537.6</ele><time>2026-04-10T15:56:45.29Z</time></trkpt><trkpt lat="44.0136984" lon="8.005014"><ele>539.2</ele><time>2026-04-10T15:56:46.291Z</time></trkpt><trkpt lat="44.0135991" lon="8.0050585"><ele>540.8</ele><time>2026-04-10T15:56:47.29Z</time></trkpt><trkpt lat="44.0135139" lon="8.0051226"><ele>542.4</ele><time>2026-04-10T15:56:48.29Z</time></trkpt><trkpt lat="44.0134548" lon="8.0051856"><ele>544.0</ele><time>2026-04-10T15:56:49.29Z</time></trkpt><trkpt lat="44.0133896" lon="8.0052233"><ele>546.4</ele><time>2026-04-10T15:56:50.29Z</time></trkpt><trkpt lat="44.0132637" lon="8.0051565"><ele>548.8</ele><time>2026-04-10T15:56:52.29Z</time></trkpt><trkpt lat="44.0131748" lon="8.0050956"><ele>551.2</ele><time>2026-04-10T15:56:53.291Z</time></trkpt><trkpt lat="44.0130785" lon="8.0050643"><ele>553.6</ele><time>2026-04-10T15:56:54.29Z</time></trkpt><trkpt lat="44.0129624" lon="8.0050574"><ele>556.0</ele><time>2026-04-10T15:56:55.29Z</time></trkpt><trkpt lat="44.0128446" lon="8.0050839"><ele>556.0</ele><time>2026-04-10T15:56:56.291Z</time></trkpt><trkpt lat="44.0127302" lon="8.0051081"><ele>556.0</ele><time>2026-04-10T15:56:57.29Z</time></trkpt><trkpt lat="44.0126244" lon="8.005165"><ele>556.0</ele><time>2026-04-10T15:56:58.29Z</time></trkpt><trkpt lat="44.0125096" lon="8.0052178"><ele>556.0</ele><time>2026-04-10T15:56:59.29Z</time></trkpt><trkpt lat="44.0123865" lon="8.0052883"><ele>559.75</ele><time>2026-04-10T15:57:00.29Z</time></trkpt><trkpt lat="44.012297" lon="8.0053317"><ele>563.5</ele><time>2026-04-10T15:57:01.292Z</time></trkpt><trkpt lat="44.0121959" lon="8.0053677"><ele>567.25</ele><time>2026-04-10T15:57:02.29Z</time></trkpt><trkpt lat="44.0120827" lon="8.0053923"><ele>571.0</ele><time>2026-04-10T15:57:03.29Z</time></trkpt><trkpt lat="44.0119263" lon="8.0054218"><ele>571.0</ele><time>2026-04-10T15:57:04.292Z</time></trkpt><trkpt lat="44.011807" lon="8.0054514"><ele>571.0</ele><time>2026-04-10T15:57:05.29Z</time></trkpt><trkpt lat="44.0117147" lon="8.0054992"><ele>571.0</ele><time>2026-04-10T15:57:06.29Z</time></trkpt><trkpt lat="44.0116336" lon="8.0055777"><ele>571.0</ele><time>2026-04-10T15:57:07.29Z</time></trkpt><trkpt lat="44.0115611" lon="8.0056719"><ele>571.0</ele><time>2026-04-10T15:57:08.29Z</time></trkpt><trkpt lat="44.0114863" lon="8.005742"><ele>566.2</ele><time>2026-04-10T15:57:09.291Z</time></trkpt><trkpt lat="44.0114046" lon="8.0057925"><ele>561.4000000000001</ele><time>2026-04-10T15:57:10.29Z</time></trkpt><trkpt lat="44.0113405" lon="8.0058036"><ele>556.6</ele><time>2026-04-10T15:57:11.291Z</time></trkpt><trkpt lat="44.0112258" lon="8.0056909"><ele>551.8000000000001</ele><time>2026-04-10T15:57:13.291Z</time></trkpt><trkpt lat="44.0111726" lon="8.0056172"><ele>547.0</ele><time>2026-04-10T15:57:14.291Z</time></trkpt><trkpt lat="44.0111449" lon="8.00551"><ele>547.0</ele><time>2026-04-10T15:57:15.292Z</time></trkpt><trkpt lat="44.0111047" lon="8.0053807"><ele>547.0</ele><time>2026-04-10T15:57:16.29Z</time></trkpt><trkpt lat="44.0110684" lon="8.0052568"><ele>547.0</ele><time>2026-04-10T15:57:17.291Z</time></trkpt><trkpt lat="44.0110539" lon="8.0051663"><ele>547.0</ele><time>2026-04-10T15:57:18.291Z</time></trkpt><trkpt lat="44.0110454" lon="8.0050608"><ele>547.0</ele><time>2026-04-10T15:57:19.29Z</time></trkpt><trkpt lat="44.0110687" lon="8.0049105"><ele>549.2</ele><time>2026-04-10T15:57:20.291Z</time></trkpt><trkpt lat="44.0110806" lon="8.0047745"><ele>551.4000000000001</ele><time>2026-04-10T15:57:21.291Z</time></trkpt><trkpt lat="44.0110791" lon="8.0046468"><ele>553.5999999999999</ele><time>2026-04-10T15:57:22.292Z</time></trkpt><trkpt lat="44.0110645" lon="8.0045109"><ele>555.8</ele><time>2026-04-10T15:57:23.292Z</time></trkpt><trkpt lat="44.0110481" lon="8.004372"><ele>558.0</ele><time>2026-04-10T15:57:24.29Z</time></trkpt><trkpt lat="44.0110315" lon="8.0042456"><ele>560.4</ele><time>2026-04-10T15:57:25.29Z</time></trkpt><trkpt lat="44.0110059" lon="8.004111"><ele>562.8</ele><time>2026-04-10T15:57:26.29Z</time></trkpt><trkpt lat="44.0109827" lon="8.0039854"><ele>565.2</ele><time>2026-04-10T15:57:27.29Z</time></trkpt><trkpt lat="44.0109605" lon="8.0038585"><ele>567.6</ele><time>2026-04-10T15:57:28.291Z</time></trkpt><trkpt lat="44.0109357" lon="8.0037279"><ele>570.0</ele><time>2026-04-10T15:57:29.291Z</time></trkpt><trkpt lat="44.0108964" lon="8.0035889"><ele>570.0</ele><time>2026-04-10T15:57:30.292Z</time></trkpt><trkpt lat="44.0108456" lon="8.0034572"><ele>570.0</ele><time>2026-04-10T15:57:31.292Z</time></trkpt><trkpt lat="44.0107761" lon="8.0033322"><ele>570.0</ele><time>2026-04-10T15:57:32.291Z</time></trkpt><trkpt lat="44.0107559" lon="8.0032464"><ele>570.0</ele><time>2026-04-10T15:57:33.291Z</time></trkpt><trkpt lat="44.0107427" lon="8.0031185"><ele>570.0</ele><time>2026-04-10T15:57:34.29Z</time></trkpt><trkpt lat="44.0107328" lon="8.0029831"><ele>569.4</ele><time>2026-04-10T15:57:35.291Z</time></trkpt><trkpt lat="44.0106903" lon="8.0028379"><ele>568.8</ele><time>2026-04-10T15:57:36.29Z</time></trkpt><trkpt lat="44.0106502" lon="8.0027295"><ele>568.2</ele><time>2026-04-10T15:57:37.29Z</time></trkpt><trkpt lat="44.0105799" lon="8.0026263"><ele>567.6</ele><time>2026-04-10T15:57:38.292Z</time></trkpt><trkpt lat="44.0104926" lon="8.0025264"><ele>567.0</ele><time>2026-04-10T15:57:39.29Z</time></trkpt><trkpt lat="44.0104153" lon="8.0024321"><ele>567.0</ele><time>2026-04-10T15:57:40.29Z</time></trkpt><trkpt lat="44.0103423" lon="8.0023592"><ele>567.0</ele><time>2026-04-10T15:57:41.291Z</time></trkpt><trkpt lat="44.0102631" lon="8.0023239"><ele>567.0</ele><time>2026-04-10T15:57:42.291Z</time></trkpt><trkpt lat="44.0101805" lon="8.0023019"><ele>567.0</ele><time>2026-04-10T15:57:43.291Z</time></trkpt><trkpt lat="44.010095" lon="8.0022996"><ele>567.0</ele><time>2026-04-10T15:57:44.291Z</time></trkpt><trkpt lat="44.0100051" lon="8.0022876"><ele>567.0</ele><time>2026-04-10T15:57:45.291Z</time></trkpt><trkpt lat="44.0099225" lon="8.0022703"><ele>571.4</ele><time>2026-04-10T15:57:46.291Z</time></trkpt><trkpt lat="44.0098566" lon="8.0022092"><ele>575.8000000000001</ele><time>2026-04-10T15:57:47.29Z</time></trkpt><trkpt lat="44.0097926" lon="8.0021176"><ele>580.2</ele><time>2026-04-10T15:57:48.291Z</time></trkpt><trkpt lat="44.009715" lon="8.0020097"><ele>584.6</ele><time>2026-04-10T15:57:49.292Z</time></trkpt><trkpt lat="44.0096398" lon="8.0019114"><ele>589.0</ele><time>2026-04-10T15:57:50.291Z</time></trkpt><trkpt lat="44.0095739" lon="8.0018543"><ele>589.0</ele><time>2026-04-10T15:57:51.29Z</time></trkpt><trkpt lat="44.0094852" lon="8.0018113"><ele>589.0</ele><time>2026-04-10T15:57:52.29Z</time></trkpt><trkpt lat="44.0093914" lon="8.001768"><ele>589.0</ele><time>2026-04-10T15:57:53.29Z</time></trkpt><trkpt lat="44.0093094" lon="8.0017388"><ele>589.0</ele><time>2026-04-10T15:57:54.292Z</time></trkpt><trkpt lat="44.0092212" lon="8.0017325"><ele>589.0</ele><time>2026-04-10T15:57:55.291Z</time></trkpt><trkpt lat="44.0091292" lon="8.0017246"><ele>587.8333333333334</ele><time>2026-04-10T15:57:56.291Z</time></trkpt><trkpt lat="44.0090473" lon="8.0017248"><ele>586.6666666666667</ele><time>2026-04-10T15:57:57.292Z</time></trkpt><trkpt lat="44.0089673" lon="8.0017079"><ele>585.5</ele><time>2026-04-10T15:57:58.29Z</time></trkpt><trkpt lat="44.0088846" lon="8.0016851"><ele>584.3333333333334</ele><time>2026-04-10T15:57:59.291Z</time></trkpt><trkpt lat="44.0088021" lon="8.0016567"><ele>583.1666666666666</ele><time>2026-04-10T15:58:00.291Z</time></trkpt><trkpt lat="44.0087267" lon="8.0016362"><ele>582.0</ele><time>2026-04-10T15:58:01.291Z</time></trkpt><trkpt lat="44.0086605" lon="8.0016258"><ele>582.0</ele><time>2026-04-10T15:58:02.29Z</time></trkpt><trkpt lat="44.0085893" lon="8.0016595"><ele>582.0</ele><time>2026-04-10T15:58:03.291Z</time></trkpt><trkpt lat="44.0085161" lon="8.001689"><ele>582.0</ele><time>2026-04-10T15:58:04.291Z</time></trkpt><trkpt lat="44.0084612" lon="8.0017395"><ele>582.0</ele><time>2026-04-10T15:58:05.292Z</time></trkpt><trkpt lat="44.0083989" lon="8.0017838"><ele>582.0</ele><time>2026-04-10T15:58:06.29Z</time></trkpt><trkpt lat="44.008318" lon="8.0018219"><ele>582.0</ele><time>2026-04-10T15:58:07.291Z</time></trkpt><trkpt lat="44.0082349" lon="8.0018399"><ele>587.6</ele><time>2026-04-10T15:58:08.292Z</time></trkpt><trkpt lat="44.0081471" lon="8.0018608"><ele>593.2</ele><time>2026-04-10T15:58:09.29Z</time></trkpt><trkpt lat="44.0080387" lon="8.0019154"><ele>598.8</ele><time>2026-04-10T15:58:10.29Z</time></trkpt><trkpt lat="44.0079424" lon="8.0019461"><ele>604.4</ele><time>2026-04-10T15:58:11.29Z</time></trkpt><trkpt lat="44.0078589" lon="8.0019679"><ele>610.0</ele><time>2026-04-10T15:58:12.292Z</time></trkpt><trkpt lat="44.0077836" lon="8.0019668"><ele>610.0</ele><time>2026-04-10T15:58:13.292Z</time></trkpt><trkpt lat="44.0077028" lon="8.0019454"><ele>610.0</ele><time>2026-04-10T15:58:14.291Z</time></trkpt><trkpt lat="44.0076184" lon="8.0018902"><ele>610.0</ele><time>2026-04-10T15:58:15.29Z</time></trkpt><trkpt lat="44.0075443" lon="8.0018359"><ele>610.0</ele><time>2026-04-10T15:58:16.291Z</time></trkpt><trkpt lat="44.0074827" lon="8.0017632"><ele>610.0</ele><time>2026-04-10T15:58:17.291Z</time></trkpt><trkpt lat="44.0074037" lon="8.00167"><ele>610.0</ele><time>2026-04-10T15:58:18.29Z</time></trkpt><trkpt lat="44.0073245" lon="8.0015886"><ele>613.6666666666667</ele><time>2026-04-10T15:58:19.29Z</time></trkpt><trkpt lat="44.0072425" lon="8.0015483"><ele>617.3333333333334</ele><time>2026-04-10T15:58:20.29Z</time></trkpt><trkpt lat="44.0071529" lon="8.0015228"><ele>621.0</ele><time>2026-04-10T15:58:21.29Z</time></trkpt><trkpt lat="44.0070496" lon="8.0015079"><ele>624.6666666666666</ele><time>2026-04-10T15:58:22.29Z</time></trkpt><trkpt lat="44.0069514" lon="8.001506"><ele>628.3333333333333</ele><time>2026-04-10T15:58:23.291Z</time></trkpt><trkpt lat="44.0068866" lon="8.0015327"><ele>632.0</ele><time>2026-04-10T15:58:24.291Z</time></trkpt><trkpt lat="44.0068129" lon="8.0015857"><ele>632.0</ele><time>2026-04-10T15:58:25.29Z</time></trkpt><trkpt lat="44.0067575" lon="8.001648"><ele>632.0</ele><time>2026-04-10T15:58:26.29Z</time></trkpt><trkpt lat="44.0066973" lon="8.0017676"><ele>632.0</ele><time>2026-04-10T15:58:27.29Z</time></trkpt><trkpt lat="44.0066436" lon="8.001883"><ele>632.0</ele><time>2026-04-10T15:58:28.29Z</time></trkpt><trkpt lat="44.0065851" lon="8.0019777"><ele>632.0</ele><time>2026-04-10T15:58:29.292Z</time></trkpt><trkpt lat="44.0065117" lon="8.0020527"><ele>632.6</ele><time>2026-04-10T15:58:30.29Z</time></trkpt><trkpt lat="44.0064123" lon="8.0021016"><ele>633.2</ele><time>2026-04-10T15:58:31.293Z</time></trkpt><trkpt lat="44.0063279" lon="8.0021426"><ele>633.8</ele><time>2026-04-10T15:58:32.291Z</time></trkpt><trkpt lat="44.0062472" lon="8.0021555"><ele>634.4</ele><time>2026-04-10T15:58:33.293Z</time></trkpt><trkpt lat="44.0061833" lon="8.002136"><ele>635.0</ele><time>2026-04-10T15:58:34.291Z</time></trkpt><trkpt lat="44.0060936" lon="8.0020279"><ele>635.0</ele><time>2026-04-10T15:58:36.292Z</time></trkpt><trkpt lat="44.0061079" lon="8.0019391"><ele>635.0</ele><time>2026-04-10T15:58:39.292Z</time></trkpt><trkpt lat="44.0062127" lon="8.0019946"><ele>635.0</ele><time>2026-04-10T15:58:41.292Z</time></trkpt><trkpt lat="44.0063018" lon="8.002009"><ele>635.0</ele><time>2026-04-10T15:58:42.29Z</time></trkpt><trkpt lat="44.0063828" lon="8.0019683"><ele>635.0</ele><time>2026-04-10T15:58:43.292Z</time></trkpt><trkpt lat="44.0064651" lon="8.0018746"><ele>635.0</ele><time>2026-04-10T15:58:44.29Z</time></trkpt><trkpt lat="44.0065434" lon="8.0017253"><ele>635.0</ele><time>2026-04-10T15:58:45.291Z</time></trkpt><trkpt lat="44.0066217" lon="8.0015468"><ele>635.0</ele><time>2026-04-10T15:58:46.291Z</time></trkpt><trkpt lat="44.0067048" lon="8.0013588"><ele>635.0</ele><time>2026-04-10T15:58:47.291Z</time></trkpt><trkpt lat="44.006779" lon="8.001206"><ele>634.4</ele><time>2026-04-10T15:58:48.291Z</time></trkpt><trkpt lat="44.0068209" lon="8.0010896"><ele>633.8</ele><time>2026-04-10T15:58:49.291Z</time></trkpt><trkpt lat="44.0068107" lon="8.0009918"><ele>633.2</ele><time>2026-04-10T15:58:50.291Z</time></trkpt><trkpt lat="44.006763" lon="8.0009114"><ele>632.6</ele><time>2026-04-10T15:58:51.291Z</time></trkpt><trkpt lat="44.0066792" lon="8.0008424"><ele>632.0</ele><time>2026-04-10T15:58:52.292Z</time></trkpt><trkpt lat="44.006568" lon="8.0007653"><ele>637.25</ele><time>2026-04-10T15:58:53.29Z</time></trkpt><trkpt lat="44.0064717" lon="8.0006817"><ele>642.5</ele><time>2026-04-10T15:58:54.29Z</time></trkpt><trkpt lat="44.0063798" lon="8.0005892"><ele>647.75</ele><time>2026-04-10T15:58:55.29Z</time></trkpt><trkpt lat="44.0063254" lon="8.0004718"><ele>653.0</ele><time>2026-04-10T15:58:56.291Z</time></trkpt><trkpt lat="44.0062926" lon="8.0003055"><ele>653.0</ele><time>2026-04-10T15:58:57.291Z</time></trkpt><trkpt lat="44.0062524" lon="8.0001696"><ele>653.0</ele><time>2026-04-10T15:58:58.291Z</time></trkpt><trkpt lat="44.006194" lon="8.0000453"><ele>653.0</ele><time>2026-04-10T15:58:59.291Z</time></trkpt><trkpt lat="44.0061234" lon="7.9999265"><ele>653.0</ele><time>2026-04-10T15:59:00.291Z</time></trkpt><trkpt lat="44.0059863" lon="7.9998102"><ele>653.0</ele><time>2026-04-10T15:59:01.291Z</time></trkpt><trkpt lat="44.0058797" lon="7.9996745"><ele>653.0</ele><time>2026-04-10T15:59:02.291Z</time></trkpt><trkpt lat="44.0057975" lon="7.9995274"><ele>653.0</ele><time>2026-04-10T15:59:03.291Z</time></trkpt><trkpt lat="44.0057232" lon="7.9993785"><ele>653.0</ele><time>2026-04-10T15:59:04.291Z</time></trkpt><trkpt lat="44.0056663" lon="7.9992357"><ele>665.0</ele><time>2026-04-10T15:59:05.291Z</time></trkpt><trkpt lat="44.0055763" lon="7.9990867"><ele>677.0</ele><time>2026-04-10T15:59:06.293Z</time></trkpt><trkpt lat="44.0054743" lon="7.9989265"><ele>689.0</ele><time>2026-04-10T15:59:07.29Z</time></trkpt><trkpt lat="44.0053707" lon="7.9987459"><ele>689.0</ele><time>2026-04-10T15:59:08.29Z</time></trkpt><trkpt lat="44.0052736" lon="7.9985551"><ele>689.0</ele><time>2026-04-10T15:59:09.292Z</time></trkpt><trkpt lat="44.0051884" lon="7.9983797"><ele>689.0</ele><time>2026-04-10T15:59:10.292Z</time></trkpt><trkpt lat="44.0051338" lon="7.9982376"><ele>689.0</ele><time>2026-04-10T15:59:11.291Z</time></trkpt><trkpt lat="44.0050928" lon="7.9981118"><ele>686.6</ele><time>2026-04-10T15:59:12.29Z</time></trkpt><trkpt lat="44.0050813" lon="7.9979996"><ele>684.2</ele><time>2026-04-10T15:59:13.292Z</time></trkpt><trkpt lat="44.0051022" lon="7.9978716"><ele>681.8000000000001</ele><time>2026-04-10T15:59:14.291Z</time></trkpt><trkpt lat="44.0051373" lon="7.9977296"><ele>679.4000000000001</ele><time>2026-04-10T15:59:15.292Z</time></trkpt><trkpt lat="44.0052326" lon="7.9975564"><ele>677.0</ele><time>2026-04-10T15:59:16.291Z</time></trkpt><trkpt lat="44.0053212" lon="7.9973568"><ele>677.0</ele><time>2026-04-10T15:59:17.29Z</time></trkpt><trkpt lat="44.0054155" lon="7.9971359"><ele>677.0</ele><time>2026-04-10T15:59:18.292Z</time></trkpt><trkpt lat="44.0055029" lon="7.9969304"><ele>677.0</ele><time>2026-04-10T15:59:19.291Z</time></trkpt><trkpt lat="44.005598" lon="7.9967431"><ele>684.6666666666666</ele><time>2026-04-10T15:59:20.291Z</time></trkpt><trkpt lat="44.0056951" lon="7.9965616"><ele>692.3333333333334</ele><time>2026-04-10T15:59:21.292Z</time></trkpt><trkpt lat="44.0058121" lon="7.9964239"><ele>700.0</ele><time>2026-04-10T15:59:22.292Z</time></trkpt><trkpt lat="44.0059346" lon="7.9962839"><ele>688.25</ele><time>2026-04-10T15:59:23.291Z</time></trkpt><trkpt lat="44.006052" lon="7.9961679"><ele>676.5</ele><time>2026-04-10T15:59:24.291Z</time></trkpt><trkpt lat="44.0061607" lon="7.9960591"><ele>664.75</ele><time>2026-04-10T15:59:25.291Z</time></trkpt><trkpt lat="44.0062427" lon="7.9959531"><ele>653.0</ele><time>2026-04-10T15:59:26.292Z</time></trkpt><trkpt lat="44.0062888" lon="7.9958396"><ele>660.5</ele><time>2026-04-10T15:59:27.292Z</time></trkpt><trkpt lat="44.0063043" lon="7.9957175"><ele>668.0</ele><time>2026-04-10T15:59:28.292Z</time></trkpt><trkpt lat="44.0062953" lon="7.9955727"><ele>675.5</ele><time>2026-04-10T15:59:29.29Z</time></trkpt><trkpt lat="44.0062782" lon="7.995399"><ele>683.0</ele><time>2026-04-10T15:59:30.292Z</time></trkpt><trkpt lat="44.0062644" lon="7.995207"><ele>688.0</ele><time>2026-04-10T15:59:31.291Z</time></trkpt><trkpt lat="44.0062555" lon="7.9949929"><ele>693.0</ele><time>2026-04-10T15:59:32.291Z</time></trkpt><trkpt lat="44.0062585" lon="7.9947923"><ele>698.0</ele><time>2026-04-10T15:59:33.293Z</time></trkpt><trkpt lat="44.0062774" lon="7.9946069"><ele>703.0</ele><time>2026-04-10T15:59:34.291Z</time></trkpt><trkpt lat="44.0063248" lon="7.9944259"><ele>703.0</ele><time>2026-04-10T15:59:35.291Z</time></trkpt><trkpt lat="44.0063939" lon="7.9942296"><ele>703.0</ele><time>2026-04-10T15:59:36.29Z</time></trkpt><trkpt lat="44.0064693" lon="7.9940281"><ele>703.0</ele><time>2026-04-10T15:59:37.29Z</time></trkpt><trkpt lat="44.006541" lon="7.9938222"><ele>706.3333333333334</ele><time>2026-04-10T15:59:38.291Z</time></trkpt><trkpt lat="44.0066035" lon="7.9936107"><ele>709.6666666666666</ele><time>2026-04-10T15:59:39.291Z</time></trkpt><trkpt lat="44.0066538" lon="7.993397"><ele>713.0</ele><time>2026-04-10T15:59:40.293Z</time></trkpt><trkpt lat="44.006702" lon="7.9931797"><ele>704.3333333333333</ele><time>2026-04-10T15:59:41.29Z</time></trkpt><trkpt lat="44.0067211" lon="7.9929517"><ele>695.6666666666666</ele><time>2026-04-10T15:59:42.291Z</time></trkpt><trkpt lat="44.006714" lon="7.9927028"><ele>687.0</ele><time>2026-04-10T15:59:43.291Z</time></trkpt><trkpt lat="44.0067081" lon="7.9924701"><ele>687.0</ele><time>2026-04-10T15:59:44.29Z</time></trkpt><trkpt lat="44.0067023" lon="7.9922465"><ele>687.0</ele><time>2026-04-10T15:59:45.29Z</time></trkpt><trkpt lat="44.0067113" lon="7.9920661"><ele>687.0</ele><time>2026-04-10T15:59:46.292Z</time></trkpt><trkpt lat="44.0067181" lon="7.991877"><ele>687.0</ele><time>2026-04-10T15:59:47.291Z</time></trkpt><trkpt lat="44.006751" lon="7.9917051"><ele>685.8</ele><time>2026-04-10T15:59:48.29Z</time></trkpt><trkpt lat="44.0067942" lon="7.9915517"><ele>684.6</ele><time>2026-04-10T15:59:49.29Z</time></trkpt><trkpt lat="44.006837" lon="7.9914034"><ele>683.4</ele><time>2026-04-10T15:59:50.292Z</time></trkpt><trkpt lat="44.0069074" lon="7.9912778"><ele>682.1999999999999</ele><time>2026-04-10T15:59:51.291Z</time></trkpt><trkpt lat="44.006986" lon="7.9912082"><ele>681.0</ele><time>2026-04-10T15:59:52.292Z</time></trkpt><trkpt lat="44.0070562" lon="7.991143"><ele>681.0</ele><time>2026-04-10T15:59:53.29Z</time></trkpt><trkpt lat="44.0071427" lon="7.9910594"><ele>681.0</ele><time>2026-04-10T15:59:55.291Z</time></trkpt><trkpt lat="44.0072006" lon="7.9909089"><ele>681.0</ele><time>2026-04-10T16:02:49.292Z</time></trkpt><trkpt lat="44.0072174" lon="7.9908128"><ele>681.0</ele><time>2026-04-10T16:02:50.291Z</time></trkpt><trkpt lat="44.0072471" lon="7.9907137"><ele>681.0</ele><time>2026-04-10T16:02:51.292Z</time></trkpt><trkpt lat="44.0072873" lon="7.9906066"><ele>680.5</ele><time>2026-04-10T16:02:52.292Z</time></trkpt><trkpt lat="44.0073493" lon="7.9904876"><ele>680.0</ele><time>2026-04-10T16:02:53.291Z</time></trkpt><trkpt lat="44.0074146" lon="7.9903641"><ele>679.5</ele><time>2026-04-10T16:02:54.291Z</time></trkpt><trkpt lat="44.0074885" lon="7.9902308"><ele>679.0</ele><time>2026-04-10T16:02:55.293Z</time></trkpt><trkpt lat="44.007566" lon="7.9900896"><ele>676.75</ele><time>2026-04-10T16:02:56.293Z</time></trkpt><trkpt lat="44.0076466" lon="7.9899504"><ele>674.5</ele><time>2026-04-10T16:02:57.291Z</time></trkpt><trkpt lat="44.0077283" lon="7.9898084"><ele>672.25</ele><time>2026-04-10T16:02:58.292Z</time></trkpt><trkpt lat="44.0078079" lon="7.9896731"><ele>670.0</ele><time>2026-04-10T16:02:59.292Z</time></trkpt><trkpt lat="44.007875" lon="7.9895293"><ele>670.0</ele><time>2026-04-10T16:03:00.292Z</time></trkpt><trkpt lat="44.0079198" lon="7.9893839"><ele>670.0</ele><time>2026-04-10T16:03:01.291Z</time></trkpt><trkpt lat="44.0079409" lon="7.9892315"><ele>670.0</ele><time>2026-04-10T16:03:02.291Z</time></trkpt><trkpt lat="44.0079482" lon="7.9890774"><ele>670.0</ele><time>2026-04-10T16:03:03.292Z</time></trkpt><trkpt lat="44.0079506" lon="7.9889321"><ele>670.0</ele><time>2026-04-10T16:03:04.292Z</time></trkpt><trkpt lat="44.0079593" lon="7.9888371"><ele>673.2</ele><time>2026-04-10T16:03:05.292Z</time></trkpt><trkpt lat="44.007997" lon="7.9887521"><ele>676.4</ele><time>2026-04-10T16:03:06.29Z</time></trkpt><trkpt lat="44.0080704" lon="7.9886767"><ele>679.5999999999999</ele><time>2026-04-10T16:03:07.292Z</time></trkpt><trkpt lat="44.0081575" lon="7.988583"><ele>682.8</ele><time>2026-04-10T16:03:08.291Z</time></trkpt><trkpt lat="44.0082563" lon="7.9884833"><ele>686.0</ele><time>2026-04-10T16:03:09.291Z</time></trkpt><trkpt lat="44.0083586" lon="7.9883854"><ele>679.0</ele><time>2026-04-10T16:03:10.291Z</time></trkpt><trkpt lat="44.0084672" lon="7.988332"><ele>672.0</ele><time>2026-04-10T16:03:11.291Z</time></trkpt><trkpt lat="44.0085714" lon="7.9882675"><ele>665.0</ele><time>2026-04-10T16:03:12.291Z</time></trkpt><trkpt lat="44.008667" lon="7.9881713"><ele>658.0</ele><time>2026-04-10T16:03:13.291Z</time></trkpt><trkpt lat="44.008753" lon="7.9880445"><ele>658.0</ele><time>2026-04-10T16:03:14.292Z</time></trkpt><trkpt lat="44.0088303" lon="7.9878845"><ele>658.0</ele><time>2026-04-10T16:03:15.29Z</time></trkpt><trkpt lat="44.0088881" lon="7.9877011"><ele>658.0</ele><time>2026-04-10T16:03:16.29Z</time></trkpt><trkpt lat="44.0089355" lon="7.9875353"><ele>658.0</ele><time>2026-04-10T16:03:17.292Z</time></trkpt><trkpt lat="44.0089758" lon="7.9873931"><ele>658.8</ele><time>2026-04-10T16:03:18.291Z</time></trkpt><trkpt lat="44.009031" lon="7.987314"><ele>659.5999999999999</ele><time>2026-04-10T16:03:19.292Z</time></trkpt><trkpt lat="44.0091079" lon="7.9872573"><ele>660.4000000000001</ele><time>2026-04-10T16:03:20.29Z</time></trkpt><trkpt lat="44.0092075" lon="7.9872019"><ele>661.2</ele><time>2026-04-10T16:03:21.292Z</time></trkpt><trkpt lat="44.0093043" lon="7.98712"><ele>662.0</ele><time>2026-04-10T16:03:22.293Z</time></trkpt><trkpt lat="44.0093838" lon="7.9870047"><ele>662.0</ele><time>2026-04-10T16:03:23.292Z</time></trkpt><trkpt lat="44.0094542" lon="7.9868675"><ele>662.0</ele><time>2026-04-10T16:03:24.291Z</time></trkpt><trkpt lat="44.0094774" lon="7.9866723"><ele>662.0</ele><time>2026-04-10T16:03:25.293Z</time></trkpt><trkpt lat="44.0094831" lon="7.9864795"><ele>662.0</ele><time>2026-04-10T16:03:26.292Z</time></trkpt><trkpt lat="44.0094681" lon="7.9862977"><ele>657.0</ele><time>2026-04-10T16:03:27.291Z</time></trkpt><trkpt lat="44.0094544" lon="7.9861367"><ele>652.0</ele><time>2026-04-10T16:03:28.291Z</time></trkpt><trkpt lat="44.0094611" lon="7.9859713"><ele>647.0</ele><time>2026-04-10T16:03:29.293Z</time></trkpt><trkpt lat="44.009472" lon="7.985814"><ele>642.0</ele><time>2026-04-10T16:03:30.291Z</time></trkpt><trkpt lat="44.009461" lon="7.9856574"><ele>639.0</ele><time>2026-04-10T16:03:31.292Z</time></trkpt><trkpt lat="44.0094205" lon="7.9855127"><ele>636.0</ele><time>2026-04-10T16:03:32.292Z</time></trkpt><trkpt lat="44.0093866" lon="7.9853793"><ele>633.0</ele><time>2026-04-10T16:03:33.291Z</time></trkpt><trkpt lat="44.0093718" lon="7.9852507"><ele>630.0</ele><time>2026-04-10T16:03:34.291Z</time></trkpt><trkpt lat="44.0093869" lon="7.9851153"><ele>627.0</ele><time>2026-04-10T16:03:35.292Z</time></trkpt><trkpt lat="44.0094336" lon="7.9849635"><ele>624.5</ele><time>2026-04-10T16:03:36.291Z</time></trkpt><trkpt lat="44.0094999" lon="7.984802"><ele>622.0</ele><time>2026-04-10T16:03:37.291Z</time></trkpt><trkpt lat="44.0095718" lon="7.9846467"><ele>619.5</ele><time>2026-04-10T16:03:38.292Z</time></trkpt><trkpt lat="44.0096539" lon="7.9844992"><ele>617.0</ele><time>2026-04-10T16:03:39.291Z</time></trkpt><trkpt lat="44.0097305" lon="7.9843732"><ele>617.0</ele><time>2026-04-10T16:03:40.291Z</time></trkpt><trkpt lat="44.0097909" lon="7.9842308"><ele>617.0</ele><time>2026-04-10T16:03:41.292Z</time></trkpt><trkpt lat="44.0098272" lon="7.9840644"><ele>617.0</ele><time>2026-04-10T16:03:42.293Z</time></trkpt><trkpt lat="44.0098463" lon="7.9838805"><ele>617.0</ele><time>2026-04-10T16:03:43.293Z</time></trkpt><trkpt lat="44.009867" lon="7.9836895"><ele>620.0</ele><time>2026-04-10T16:03:44.292Z</time></trkpt><trkpt lat="44.0099075" lon="7.9835123"><ele>623.0</ele><time>2026-04-10T16:03:45.291Z</time></trkpt><trkpt lat="44.0099625" lon="7.9833456"><ele>626.0</ele><time>2026-04-10T16:03:46.291Z</time></trkpt><trkpt lat="44.0100091" lon="7.983175"><ele>629.0</ele><time>2026-04-10T16:03:47.291Z</time></trkpt><trkpt lat="44.0100291" lon="7.9829837"><ele>629.0</ele><time>2026-04-10T16:03:48.291Z</time></trkpt><trkpt lat="44.0100382" lon="7.9827845"><ele>629.0</ele><time>2026-04-10T16:03:49.291Z</time></trkpt><trkpt lat="44.0100381" lon="7.9826165"><ele>629.0</ele><time>2026-04-10T16:03:50.291Z</time></trkpt><trkpt lat="44.0100351" lon="7.982481"><ele>629.0</ele><time>2026-04-10T16:03:51.292Z</time></trkpt><trkpt lat="44.0100315" lon="7.9823806"><ele>629.0</ele><time>2026-04-10T16:03:52.292Z</time></trkpt><trkpt lat="44.0100068" lon="7.9822538"><ele>620.2</ele><time>2026-04-10T16:03:54.292Z</time></trkpt><trkpt lat="44.0099362" lon="7.9822341"><ele>611.4</ele><time>2026-04-10T16:04:16.291Z</time></trkpt><trkpt lat="44.0099221" lon="7.9823785"><ele>602.6</ele><time>2026-04-10T16:04:19.292Z</time></trkpt><trkpt lat="44.0099014" lon="7.9825079"><ele>593.8</ele><time>2026-04-10T16:04:20.292Z</time></trkpt><trkpt lat="44.0098774" lon="7.9826304"><ele>585.0</ele><time>2026-04-10T16:04:21.291Z</time></trkpt><trkpt lat="44.0098513" lon="7.9827638"><ele>585.0</ele><time>2026-04-10T16:04:22.291Z</time></trkpt><trkpt lat="44.0098186" lon="7.9828914"><ele>585.0</ele><time>2026-04-10T16:04:23.291Z</time></trkpt><trkpt lat="44.0097824" lon="7.983005"><ele>585.0</ele><time>2026-04-10T16:04:24.292Z</time></trkpt><trkpt lat="44.0097305" lon="7.9831065"><ele>585.0</ele><time>2026-04-10T16:04:25.291Z</time></trkpt><trkpt lat="44.0096587" lon="7.9832102"><ele>585.0</ele><time>2026-04-10T16:04:26.291Z</time></trkpt><trkpt lat="44.0095944" lon="7.9833167"><ele>588.25</ele><time>2026-04-10T16:04:27.292Z</time></trkpt><trkpt lat="44.0095248" lon="7.983446"><ele>591.5</ele><time>2026-04-10T16:04:28.291Z</time></trkpt><trkpt lat="44.0094698" lon="7.9835861"><ele>594.75</ele><time>2026-04-10T16:04:29.291Z</time></trkpt><trkpt lat="44.0094154" lon="7.9837272"><ele>598.0</ele><time>2026-04-10T16:04:30.292Z</time></trkpt><trkpt lat="44.0093515" lon="7.9838556"><ele>598.0</ele><time>2026-04-10T16:04:31.291Z</time></trkpt><trkpt lat="44.0092892" lon="7.9839711"><ele>598.0</ele><time>2026-04-10T16:04:32.291Z</time></trkpt><trkpt lat="44.0092255" lon="7.984081"><ele>598.0</ele><time>2026-04-10T16:04:33.293Z</time></trkpt><trkpt lat="44.0091682" lon="7.9841884"><ele>598.0</ele><time>2026-04-10T16:04:34.291Z</time></trkpt><trkpt lat="44.0091106" lon="7.9843111"><ele>598.0</ele><time>2026-04-10T16:04:35.291Z</time></trkpt><trkpt lat="44.0090605" lon="7.9844445"><ele>591.8</ele><time>2026-04-10T16:04:36.291Z</time></trkpt><trkpt lat="44.0090106" lon="7.9845598"><ele>585.5999999999999</ele><time>2026-04-10T16:04:37.291Z</time></trkpt><trkpt lat="44.0089495" lon="7.9846903"><ele>579.4000000000001</ele><time>2026-04-10T16:04:38.292Z</time></trkpt><trkpt lat="44.0088783" lon="7.9847996"><ele>573.2</ele><time>2026-04-10T16:04:39.291Z</time></trkpt><trkpt lat="44.0088054" lon="7.984896"><ele>567.0</ele><time>2026-04-10T16:04:40.293Z</time></trkpt><trkpt lat="44.0087443" lon="7.9849862"><ele>569.8333333333334</ele><time>2026-04-10T16:04:41.293Z</time></trkpt><trkpt lat="44.0087037" lon="7.985071"><ele>572.6666666666666</ele><time>2026-04-10T16:04:42.291Z</time></trkpt><trkpt lat="44.0086871" lon="7.9852522"><ele>575.5</ele><time>2026-04-10T16:04:44.291Z</time></trkpt><trkpt lat="44.0087088" lon="7.9853508"><ele>578.3333333333333</ele><time>2026-04-10T16:04:45.292Z</time></trkpt><trkpt lat="44.008736" lon="7.9854588"><ele>581.1666666666666</ele><time>2026-04-10T16:04:46.292Z</time></trkpt><trkpt lat="44.0087642" lon="7.985565"><ele>584.0</ele><time>2026-04-10T16:04:47.292Z</time></trkpt><trkpt lat="44.0087735" lon="7.9856557"><ele>584.0</ele><time>2026-04-10T16:04:48.293Z</time></trkpt><trkpt lat="44.0087304" lon="7.9858221"><ele>584.0</ele><time>2026-04-10T16:04:50.292Z</time></trkpt><trkpt lat="44.0087121" lon="7.9859382"><ele>584.0</ele><time>2026-04-10T16:04:51.292Z</time></trkpt><trkpt lat="44.0086971" lon="7.9860592"><ele>584.0</ele><time>2026-04-10T16:04:52.291Z</time></trkpt><trkpt lat="44.0086757" lon="7.9861762"><ele>584.0</ele><time>2026-04-10T16:04:53.292Z</time></trkpt><trkpt lat="44.0086416" lon="7.9862541"><ele>580.6666666666666</ele><time>2026-04-10T16:04:54.291Z</time></trkpt><trkpt lat="44.0085619" lon="7.9862851"><ele>577.3333333333333</ele><time>2026-04-10T16:04:55.291Z</time></trkpt><trkpt lat="44.0084734" lon="7.9863264"><ele>574.0</ele><time>2026-04-10T16:04:56.292Z</time></trkpt><trkpt lat="44.008385" lon="7.9863776"><ele>570.6666666666666</ele><time>2026-04-10T16:04:57.291Z</time></trkpt><trkpt lat="44.0083047" lon="7.9864251"><ele>567.3333333333334</ele><time>2026-04-10T16:04:58.291Z</time></trkpt><trkpt lat="44.0082429" lon="7.986474"><ele>564.0</ele><time>2026-04-10T16:04:59.292Z</time></trkpt><trkpt lat="44.0081796" lon="7.9865881"><ele>564.0</ele><time>2026-04-10T16:05:01.292Z</time></trkpt><trkpt lat="44.0081668" lon="7.9866768"><ele>564.0</ele><time>2026-04-10T16:05:02.291Z</time></trkpt><trkpt lat="44.0081635" lon="7.9867943"><ele>564.0</ele><time>2026-04-10T16:05:03.293Z</time></trkpt><trkpt lat="44.008153" lon="7.9869045"><ele>564.0</ele><time>2026-04-10T16:05:04.291Z</time></trkpt><trkpt lat="44.0081065" lon="7.9870395"><ele>564.0</ele><time>2026-04-10T16:05:06.291Z</time></trkpt><trkpt lat="44.0080489" lon="7.9870883"><ele>564.0</ele><time>2026-04-10T16:05:07.292Z</time></trkpt><trkpt lat="44.007992" lon="7.9871323"><ele>569.1666666666666</ele><time>2026-04-10T16:05:08.291Z</time></trkpt><trkpt lat="44.0079357" lon="7.9871845"><ele>574.3333333333334</ele><time>2026-04-10T16:05:09.291Z</time></trkpt><trkpt lat="44.0078864" lon="7.9872597"><ele>579.5</ele><time>2026-04-10T16:05:10.291Z</time></trkpt><trkpt lat="44.0078462" lon="7.9873745"><ele>584.6666666666667</ele><time>2026-04-10T16:05:11.292Z</time></trkpt><trkpt lat="44.0077992" lon="7.9874875"><ele>589.8333333333334</ele><time>2026-04-10T16:05:12.291Z</time></trkpt><trkpt lat="44.0077456" lon="7.9875895"><ele>595.0</ele><time>2026-04-10T16:05:13.292Z</time></trkpt><trkpt lat="44.0076771" lon="7.9876599"><ele>596.8</ele><time>2026-04-10T16:05:14.291Z</time></trkpt><trkpt lat="44.0075996" lon="7.9876913"><ele>598.6</ele><time>2026-04-10T16:05:15.292Z</time></trkpt><trkpt lat="44.0075171" lon="7.9877286"><ele>600.4</ele><time>2026-04-10T16:05:16.292Z</time></trkpt><trkpt lat="44.0074234" lon="7.987756"><ele>602.2</ele><time>2026-04-10T16:05:17.292Z</time></trkpt><trkpt lat="44.0073188" lon="7.9877914"><ele>604.0</ele><time>2026-04-10T16:05:18.291Z</time></trkpt><trkpt lat="44.0072186" lon="7.9878327"><ele>604.0</ele><time>2026-04-10T16:05:19.293Z</time></trkpt><trkpt lat="44.0071259" lon="7.9878767"><ele>604.0</ele><time>2026-04-10T16:05:20.292Z</time></trkpt><trkpt lat="44.0070444" lon="7.9879424"><ele>604.0</ele><time>2026-04-10T16:05:21.292Z</time></trkpt><trkpt lat="44.0069714" lon="7.9880202"><ele>604.0</ele><time>2026-04-10T16:05:22.292Z</time></trkpt><trkpt lat="44.0069184" lon="7.9880981"><ele>604.0</ele><time>2026-04-10T16:05:23.292Z</time></trkpt><trkpt lat="44.0068826" lon="7.9882727"><ele>606.6666666666667</ele><time>2026-04-10T16:05:25.292Z</time></trkpt><trkpt lat="44.0068625" lon="7.9883789"><ele>609.3333333333334</ele><time>2026-04-10T16:05:26.292Z</time></trkpt><trkpt lat="44.0068274" lon="7.9885075"><ele>612.0</ele><time>2026-04-10T16:05:28.292Z</time></trkpt><trkpt lat="44.0067404" lon="7.9885469"><ele>614.6666666666666</ele><time>2026-04-10T16:05:30.292Z</time></trkpt><trkpt lat="44.0066746" lon="7.9885594"><ele>617.3333333333333</ele><time>2026-04-10T16:05:31.291Z</time></trkpt><trkpt lat="44.0065917" lon="7.9886018"><ele>620.0</ele><time>2026-04-10T16:05:32.292Z</time></trkpt><trkpt lat="44.0065223" lon="7.988626"><ele>620.0</ele><time>2026-04-10T16:05:33.291Z</time></trkpt><trkpt lat="44.0064028" lon="7.9885612"><ele>620.0</ele><time>2026-04-10T16:05:35.291Z</time></trkpt><trkpt lat="44.0063211" lon="7.988484"><ele>620.0</ele><time>2026-04-10T16:05:36.292Z</time></trkpt><trkpt lat="44.0062455" lon="7.9884281"><ele>620.0</ele><time>2026-04-10T16:05:37.291Z</time></trkpt><trkpt lat="44.0061808" lon="7.9884043"><ele>620.0</ele><time>2026-04-10T16:05:38.291Z</time></trkpt><trkpt lat="44.0060613" lon="7.9884677"><ele>620.0</ele><time>2026-04-10T16:05:40.292Z</time></trkpt><trkpt lat="44.0060121" lon="7.9885609"><ele>620.0</ele><time>2026-04-10T16:05:41.291Z</time></trkpt><trkpt lat="44.005966" lon="7.9886669"><ele>620.0</ele><time>2026-04-10T16:05:42.291Z</time></trkpt><trkpt lat="44.0059336" lon="7.9887742"><ele>620.0</ele><time>2026-04-10T16:05:43.291Z</time></trkpt><trkpt lat="44.0058919" lon="7.9888541"><ele>620.0</ele><time>2026-04-10T16:05:44.293Z</time></trkpt><trkpt lat="44.0058222" lon="7.9888993"><ele>620.0</ele><time>2026-04-10T16:05:45.292Z</time></trkpt><trkpt lat="44.0057496" lon="7.988942"><ele>619.3333333333333</ele><time>2026-04-10T16:05:46.292Z</time></trkpt><trkpt lat="44.005684" lon="7.9890114"><ele>618.6666666666666</ele><time>2026-04-10T16:05:47.291Z</time></trkpt><trkpt lat="44.0056313" lon="7.9890681"><ele>618.0</ele><time>2026-04-10T16:05:48.293Z</time></trkpt><trkpt lat="44.0055174" lon="7.9890766"><ele>617.3333333333334</ele><time>2026-04-10T16:05:50.292Z</time></trkpt><trkpt lat="44.005453" lon="7.9890491"><ele>616.6666666666667</ele><time>2026-04-10T16:05:51.292Z</time></trkpt><trkpt lat="44.0053828" lon="7.9889655"><ele>616.0</ele><time>2026-04-10T16:05:52.292Z</time></trkpt><trkpt lat="44.0053121" lon="7.9889297"><ele>616.0</ele><time>2026-04-10T16:05:53.291Z</time></trkpt><trkpt lat="44.005245" lon="7.9889421"><ele>616.0</ele><time>2026-04-10T16:05:54.291Z</time></trkpt><trkpt lat="44.005173" lon="7.9890526"><ele>616.0</ele><time>2026-04-10T16:05:56.291Z</time></trkpt><trkpt lat="44.0051717" lon="7.9891574"><ele>616.0</ele><time>2026-04-10T16:05:57.291Z</time></trkpt><trkpt lat="44.005173" lon="7.9892473"><ele>616.0</ele><time>2026-04-10T16:05:58.293Z</time></trkpt><trkpt lat="44.0051417" lon="7.9893643"><ele>616.0</ele><time>2026-04-10T16:06:00.291Z</time></trkpt><trkpt lat="44.0050213" lon="7.9893435"><ele>621.8</ele><time>2026-04-10T16:06:02.292Z</time></trkpt><trkpt lat="44.0049257" lon="7.989311"><ele>627.6</ele><time>2026-04-10T16:06:03.291Z</time></trkpt><trkpt lat="44.0048374" lon="7.9892991"><ele>633.4</ele><time>2026-04-10T16:06:04.291Z</time></trkpt><trkpt lat="44.0047158" lon="7.9893629"><ele>639.2</ele><time>2026-04-10T16:06:06.291Z</time></trkpt><trkpt lat="44.004661" lon="7.9894135"><ele>645.0</ele><time>2026-04-10T16:06:07.291Z</time></trkpt><trkpt lat="44.0045736" lon="7.9894447"><ele>645.0</ele><time>2026-04-10T16:06:08.292Z</time></trkpt><trkpt lat="44.0044731" lon="7.9894499"><ele>645.0</ele><time>2026-04-10T16:06:09.294Z</time></trkpt><trkpt lat="44.0043801" lon="7.9894562"><ele>645.0</ele><time>2026-04-10T16:06:10.291Z</time></trkpt><trkpt lat="44.0042861" lon="7.9894553"><ele>645.0</ele><time>2026-04-10T16:06:11.293Z</time></trkpt><trkpt lat="44.0042023" lon="7.9894638"><ele>645.0</ele><time>2026-04-10T16:06:12.291Z</time></trkpt><trkpt lat="44.004106" lon="7.9894596"><ele>642.0</ele><time>2026-04-10T16:06:13.294Z</time></trkpt><trkpt lat="44.0039919" lon="7.9894587"><ele>639.0</ele><time>2026-04-10T16:06:14.291Z</time></trkpt><trkpt lat="44.0038839" lon="7.9894479"><ele>636.0</ele><time>2026-04-10T16:06:15.291Z</time></trkpt><trkpt lat="44.0038016" lon="7.9894139"><ele>633.0</ele><time>2026-04-10T16:06:16.291Z</time></trkpt><trkpt lat="44.003721" lon="7.98936"><ele>630.0</ele><time>2026-04-10T16:06:17.291Z</time></trkpt><trkpt lat="44.003632" lon="7.9892906"><ele>630.0</ele><time>2026-04-10T16:06:18.291Z</time></trkpt><trkpt lat="44.0035618" lon="7.9892387"><ele>630.0</ele><time>2026-04-10T16:06:19.291Z</time></trkpt><trkpt lat="44.0034814" lon="7.9892029"><ele>630.0</ele><time>2026-04-10T16:06:20.292Z</time></trkpt><trkpt lat="44.0033883" lon="7.989192"><ele>630.0</ele><time>2026-04-10T16:06:21.291Z</time></trkpt><trkpt lat="44.00329" lon="7.9891887"><ele>630.0</ele><time>2026-04-10T16:06:22.292Z</time></trkpt><trkpt lat="44.0031957" lon="7.9892007"><ele>624.5</ele><time>2026-04-10T16:06:23.292Z</time></trkpt><trkpt lat="44.0031031" lon="7.9892137"><ele>619.0</ele><time>2026-04-10T16:06:24.291Z</time></trkpt><trkpt lat="44.0030342" lon="7.9892301"><ele>613.5</ele><time>2026-04-10T16:06:25.291Z</time></trkpt><trkpt lat="44.0029696" lon="7.9892506"><ele>608.0</ele><time>2026-04-10T16:06:26.291Z</time></trkpt><trkpt lat="44.002901" lon="7.9893508"><ele>602.5</ele><time>2026-04-10T16:06:28.292Z</time></trkpt><trkpt lat="44.0028564" lon="7.9894432"><ele>597.0</ele><time>2026-04-10T16:06:29.291Z</time></trkpt><trkpt lat="44.002827" lon="7.9895722"><ele>597.0</ele><time>2026-04-10T16:06:30.293Z</time></trkpt><trkpt lat="44.0027894" lon="7.9896975"><ele>597.0</ele><time>2026-04-10T16:06:31.293Z</time></trkpt><trkpt lat="44.0027627" lon="7.9898377"><ele>597.0</ele><time>2026-04-10T16:06:32.293Z</time></trkpt><trkpt lat="44.002761" lon="7.9899857"><ele>597.0</ele><time>2026-04-10T16:06:33.292Z</time></trkpt><trkpt lat="44.0027444" lon="7.9901227"><ele>597.0</ele><time>2026-04-10T16:06:34.291Z</time></trkpt><trkpt lat="44.0027164" lon="7.990246"><ele>597.7142857142858</ele><time>2026-04-10T16:06:35.292Z</time></trkpt><trkpt lat="44.0026909" lon="7.9903583"><ele>598.4285714285714</ele><time>2026-04-10T16:06:36.292Z</time></trkpt><trkpt lat="44.0026777" lon="7.9904576"><ele>599.1428571428571</ele><time>2026-04-10T16:06:37.293Z</time></trkpt><trkpt lat="44.0026826" lon="7.9905476"><ele>599.8571428571429</ele><time>2026-04-10T16:06:38.293Z</time></trkpt><trkpt lat="44.0026916" lon="7.9906407"><ele>600.5714285714286</ele><time>2026-04-10T16:06:39.291Z</time></trkpt><trkpt lat="44.0026989" lon="7.9907313"><ele>601.2857142857143</ele><time>2026-04-10T16:06:40.292Z</time></trkpt><trkpt lat="44.0026874" lon="7.9908246"><ele>602.0</ele><time>2026-04-10T16:06:41.294Z</time></trkpt><trkpt lat="44.0026523" lon="7.9909006"><ele>604.3333333333333</ele><time>2026-04-10T16:06:42.293Z</time></trkpt><trkpt lat="44.0026036" lon="7.9909846"><ele>606.6666666666666</ele><time>2026-04-10T16:06:43.292Z</time></trkpt><trkpt lat="44.0025483" lon="7.991058"><ele>609.0</ele><time>2026-04-10T16:06:44.292Z</time></trkpt><trkpt lat="44.0024952" lon="7.9911297"><ele>611.3333333333334</ele><time>2026-04-10T16:06:45.292Z</time></trkpt><trkpt lat="44.0023723" lon="7.9911806"><ele>613.6666666666667</ele><time>2026-04-10T16:06:47.291Z</time></trkpt><trkpt lat="44.0022908" lon="7.9911691"><ele>616.0</ele><time>2026-04-10T16:06:48.292Z</time></trkpt><trkpt lat="44.0021608" lon="7.9911829"><ele>614.6</ele><time>2026-04-10T16:06:50.291Z</time></trkpt><trkpt lat="44.0020679" lon="7.9912887"><ele>613.2</ele><time>2026-04-10T16:06:52.292Z</time></trkpt><trkpt lat="44.0020158" lon="7.9913785"><ele>611.8</ele><time>2026-04-10T16:06:53.292Z</time></trkpt><trkpt lat="44.0019669" lon="7.9914721"><ele>610.4</ele><time>2026-04-10T16:06:54.292Z</time></trkpt><trkpt lat="44.0019156" lon="7.99158"><ele>609.0</ele><time>2026-04-10T16:06:55.291Z</time></trkpt><trkpt lat="44.0018555" lon="7.9916897"><ele>609.0</ele><time>2026-04-10T16:06:56.291Z</time></trkpt><trkpt lat="44.0017931" lon="7.9918116"><ele>609.0</ele><time>2026-04-10T16:06:57.291Z</time></trkpt><trkpt lat="44.0017205" lon="7.9919432"><ele>609.0</ele><time>2026-04-10T16:06:58.292Z</time></trkpt><trkpt lat="44.0016399" lon="7.9920809"><ele>609.0</ele><time>2026-04-10T16:06:59.291Z</time></trkpt><trkpt lat="44.0015711" lon="7.9921897"><ele>607.5</ele><time>2026-04-10T16:07:00.291Z</time></trkpt><trkpt lat="44.0015057" lon="7.9922748"><ele>606.0</ele><time>2026-04-10T16:07:01.291Z</time></trkpt><trkpt lat="44.0014173" lon="7.9922967"><ele>604.5</ele><time>2026-04-10T16:07:02.292Z</time></trkpt><trkpt lat="44.0013662" lon="7.9923554"><ele>603.0</ele><time>2026-04-10T16:07:03.294Z</time></trkpt><trkpt lat="44.0013151" lon="7.9924301"><ele>601.5</ele><time>2026-04-10T16:07:04.293Z</time></trkpt><trkpt lat="44.0012679" lon="7.9925307"><ele>600.0</ele><time>2026-04-10T16:07:05.292Z</time></trkpt><trkpt lat="44.0012208" lon="7.9926672"><ele>600.0</ele><time>2026-04-10T16:07:06.292Z</time></trkpt><trkpt lat="44.0011784" lon="7.9928019"><ele>600.0</ele><time>2026-04-10T16:07:07.291Z</time></trkpt><trkpt lat="44.001118" lon="7.9929294"><ele>600.0</ele><time>2026-04-10T16:07:08.292Z</time></trkpt><trkpt lat="44.0010373" lon="7.9930598"><ele>600.0</ele><time>2026-04-10T16:07:09.291Z</time></trkpt><trkpt lat="44.0009578" lon="7.9931708"><ele>600.0</ele><time>2026-04-10T16:07:10.291Z</time></trkpt><trkpt lat="44.0008931" lon="7.9932586"><ele>600.0</ele><time>2026-04-10T16:07:11.292Z</time></trkpt><trkpt lat="44.0008264" lon="7.9933448"><ele>600.0</ele><time>2026-04-10T16:07:13.292Z</time></trkpt><trkpt lat="44.0008017" lon="7.9932503"><ele>600.0</ele><time>2026-04-10T16:07:16.292Z</time></trkpt><trkpt lat="44.0008516" lon="7.9931239"><ele>600.0</ele><time>2026-04-10T16:07:18.293Z</time></trkpt><trkpt lat="44.0008836" lon="7.9930408"><ele>600.0</ele><time>2026-04-10T16:07:19.293Z</time></trkpt><trkpt lat="44.0009259" lon="7.9929511"><ele>600.0</ele><time>2026-04-10T16:07:20.292Z</time></trkpt><trkpt lat="44.0009911" lon="7.9928688"><ele>600.0</ele><time>2026-04-10T16:07:21.292Z</time></trkpt><trkpt lat="44.0010448" lon="7.9927755"><ele>600.0</ele><time>2026-04-10T16:07:22.292Z</time></trkpt><trkpt lat="44.0010924" lon="7.9926934"><ele>600.0</ele><time>2026-04-10T16:07:23.291Z</time></trkpt><trkpt lat="44.0011269" lon="7.9926159"><ele>600.0</ele><time>2026-04-10T16:07:24.292Z</time></trkpt><trkpt lat="44.0011401" lon="7.9925271"><ele>600.0</ele><time>2026-04-10T16:07:25.291Z</time></trkpt><trkpt lat="44.0011633" lon="7.9923947"><ele>600.0</ele><time>2026-04-10T16:07:27.292Z</time></trkpt><trkpt lat="44.0010868" lon="7.992445"><ele>600.0</ele><time>2026-04-10T16:07:31.292Z</time></trkpt><trkpt lat="44.0010385" lon="7.9925084"><ele>600.0</ele><time>2026-04-10T16:07:32.293Z</time></trkpt><trkpt lat="44.0009718" lon="7.9925679"><ele>600.0</ele><time>2026-04-10T16:07:33.292Z</time></trkpt><trkpt lat="44.0009104" lon="7.9926047"><ele>600.0</ele><time>2026-04-10T16:07:34.293Z</time></trkpt><trkpt lat="44.000805" lon="7.9926615"><ele>600.0</ele><time>2026-04-10T16:07:36.291Z</time></trkpt><trkpt lat="44.0007176" lon="7.992733"><ele>597.5</ele><time>2026-04-10T16:07:38.293Z</time></trkpt><trkpt lat="44.0006603" lon="7.9927866"><ele>595.0</ele><time>2026-04-10T16:07:40.292Z</time></trkpt><trkpt lat="44.00061" lon="7.9927331"><ele>592.5</ele><time>2026-04-10T16:07:42.291Z</time></trkpt><trkpt lat="44.0006453" lon="7.9925845"><ele>590.0</ele><time>2026-04-10T16:07:44.291Z</time></trkpt><trkpt lat="44.0006671" lon="7.9925013"><ele>587.5</ele><time>2026-04-10T16:07:45.292Z</time></trkpt><trkpt lat="44.0006818" lon="7.9923333"><ele>585.0</ele><time>2026-04-10T16:07:47.292Z</time></trkpt><trkpt lat="44.000734" lon="7.9922245"><ele>584.1666666666666</ele><time>2026-04-10T16:07:49.293Z</time></trkpt><trkpt lat="44.0007886" lon="7.9921749"><ele>583.3333333333334</ele><time>2026-04-10T16:07:50.292Z</time></trkpt><trkpt lat="44.0008606" lon="7.9921202"><ele>582.5</ele><time>2026-04-10T16:07:52.291Z</time></trkpt><trkpt lat="44.000807" lon="7.9920367"><ele>581.6666666666667</ele><time>2026-04-10T16:07:56.293Z</time></trkpt><trkpt lat="44.000687" lon="7.9920586"><ele>580.8333333333334</ele><time>2026-04-10T16:07:58.292Z</time></trkpt><trkpt lat="44.0006171" lon="7.9920883"><ele>580.0</ele><time>2026-04-10T16:07:59.293Z</time></trkpt><trkpt lat="44.0005573" lon="7.9921197"><ele>575.75</ele><time>2026-04-10T16:08:00.291Z</time></trkpt><trkpt lat="44.0004497" lon="7.9922353"><ele>571.5</ele><time>2026-04-10T16:08:02.293Z</time></trkpt><trkpt lat="44.000367" lon="7.9923221"><ele>567.25</ele><time>2026-04-10T16:08:04.291Z</time></trkpt><trkpt lat="44.0002456" lon="7.9923022"><ele>563.0</ele><time>2026-04-10T16:08:06.292Z</time></trkpt><trkpt lat="44.0001597" lon="7.9922719"><ele>563.0</ele><time>2026-04-10T16:08:09.292Z</time></trkpt><trkpt lat="44.0001711" lon="7.9921658"><ele>563.0</ele><time>2026-04-10T16:08:11.294Z</time></trkpt><trkpt lat="44.0001999" lon="7.9920878"><ele>563.0</ele><time>2026-04-10T16:08:12.292Z</time></trkpt><trkpt lat="44.0003013" lon="7.9919657"><ele>563.0</ele><time>2026-04-10T16:08:14.292Z</time></trkpt><trkpt lat="44.0003635" lon="7.9919164"><ele>563.0</ele><time>2026-04-10T16:08:15.293Z</time></trkpt><trkpt lat="44.0004621" lon="7.9918745"><ele>563.0</ele><time>2026-04-10T16:08:16.291Z</time></trkpt><trkpt lat="44.0005429" lon="7.9918155"><ele>563.0</ele><time>2026-04-10T16:08:17.292Z</time></trkpt><trkpt lat="44.0006271" lon="7.991744"><ele>563.0</ele><time>2026-04-10T16:08:18.293Z</time></trkpt><trkpt lat="44.0007149" lon="7.9916798"><ele>563.0</ele><time>2026-04-10T16:08:19.291Z</time></trkpt><trkpt lat="44.0007904" lon="7.991611"><ele>563.0</ele><time>2026-04-10T16:08:20.292Z</time></trkpt><trkpt lat="44.000846" lon="7.9915132"><ele>563.0</ele><time>2026-04-10T16:08:21.293Z</time></trkpt><trkpt lat="44.0008813" lon="7.9913959"><ele>562.8</ele><time>2026-04-10T16:08:22.292Z</time></trkpt><trkpt lat="44.0009055" lon="7.9912624"><ele>562.5999999999999</ele><time>2026-04-10T16:08:23.293Z</time></trkpt><trkpt lat="44.000927" lon="7.9911356"><ele>562.4000000000001</ele><time>2026-04-10T16:08:24.293Z</time></trkpt><trkpt lat="44.000972" lon="7.9910411"><ele>562.2</ele><time>2026-04-10T16:08:25.291Z</time></trkpt><trkpt lat="44.0010214" lon="7.9909616"><ele>562.0</ele><time>2026-04-10T16:08:26.292Z</time></trkpt><trkpt lat="44.0011256" lon="7.9908929"><ele>558.8000000000001</ele><time>2026-04-10T16:08:28.292Z</time></trkpt><trkpt lat="44.0012087" lon="7.9908024"><ele>555.6</ele><time>2026-04-10T16:08:30.292Z</time></trkpt><trkpt lat="44.00125" lon="7.990703"><ele>552.4000000000001</ele><time>2026-04-10T16:08:31.292Z</time></trkpt><trkpt lat="44.0012983" lon="7.9905524"><ele>549.2</ele><time>2026-04-10T16:08:32.292Z</time></trkpt><trkpt lat="44.0013402" lon="7.9904393"><ele>546.0</ele><time>2026-04-10T16:08:33.293Z</time></trkpt><trkpt lat="44.0013808" lon="7.9903455"><ele>546.0</ele><time>2026-04-10T16:08:34.292Z</time></trkpt><trkpt lat="44.0014264" lon="7.9902627"><ele>546.0</ele><time>2026-04-10T16:08:35.293Z</time></trkpt><trkpt lat="44.0015318" lon="7.9902359"><ele>546.0</ele><time>2026-04-10T16:08:37.291Z</time></trkpt><trkpt lat="44.0016662" lon="7.990291"><ele>546.0</ele><time>2026-04-10T16:08:39.292Z</time></trkpt><trkpt lat="44.0017296" lon="7.9903337"><ele>546.0</ele><time>2026-04-10T16:08:40.293Z</time></trkpt><trkpt lat="44.0017901" lon="7.9902911"><ele>548.6666666666666</ele><time>2026-04-10T16:08:42.292Z</time></trkpt><trkpt lat="44.0017602" lon="7.9901264"><ele>551.3333333333334</ele><time>2026-04-10T16:08:44.292Z</time></trkpt><trkpt lat="44.0017294" lon="7.9900341"><ele>554.0</ele><time>2026-04-10T16:08:45.292Z</time></trkpt><trkpt lat="44.0017251" lon="7.9899381"><ele>556.6666666666667</ele><time>2026-04-10T16:08:46.292Z</time></trkpt><trkpt lat="44.0017233" lon="7.98982"><ele>559.3333333333334</ele><time>2026-04-10T16:08:47.292Z</time></trkpt><trkpt lat="44.0017032" lon="7.9897175"><ele>562.0</ele><time>2026-04-10T16:08:48.293Z</time></trkpt><trkpt lat="44.0016785" lon="7.9896152"><ele>562.0</ele><time>2026-04-10T16:08:49.293Z</time></trkpt><trkpt lat="44.0016563" lon="7.989514"><ele>562.0</ele><time>2026-04-10T16:08:50.293Z</time></trkpt><trkpt lat="44.0016578" lon="7.9894113"><ele>562.0</ele><time>2026-04-10T16:08:51.291Z</time></trkpt><trkpt lat="44.0016703" lon="7.9892975"><ele>562.0</ele><time>2026-04-10T16:08:52.292Z</time></trkpt><trkpt lat="44.0017002" lon="7.9892031"><ele>562.0</ele><time>2026-04-10T16:08:53.291Z</time></trkpt><trkpt lat="44.0016736" lon="7.9890305"><ele>562.0</ele><time>2026-04-10T16:08:55.292Z</time></trkpt><trkpt lat="44.0016664" lon="7.9889362"><ele>559.6666666666667</ele><time>2026-04-10T16:08:56.293Z</time></trkpt><trkpt lat="44.0017049" lon="7.9888475"><ele>557.3333333333334</ele><time>2026-04-10T16:08:57.292Z</time></trkpt><trkpt lat="44.0017442" lon="7.9887526"><ele>555.0</ele><time>2026-04-10T16:08:58.292Z</time></trkpt><trkpt lat="44.0017693" lon="7.9886517"><ele>552.6666666666666</ele><time>2026-04-10T16:08:59.292Z</time></trkpt><trkpt lat="44.001797" lon="7.9885674"><ele>550.3333333333333</ele><time>2026-04-10T16:09:00.293Z</time></trkpt><trkpt lat="44.0018487" lon="7.9884621"><ele>548.0</ele><time>2026-04-10T16:09:01.291Z</time></trkpt><trkpt lat="44.0018958" lon="7.9883609"><ele>544.0</ele><time>2026-04-10T16:09:02.291Z</time></trkpt><trkpt lat="44.0019412" lon="7.9882674"><ele>540.0</ele><time>2026-04-10T16:09:03.294Z</time></trkpt><trkpt lat="44.0019835" lon="7.9881913"><ele>536.0</ele><time>2026-04-10T16:09:04.292Z</time></trkpt><trkpt lat="44.0020398" lon="7.9881191"><ele>532.0</ele><time>2026-04-10T16:09:05.293Z</time></trkpt><trkpt lat="44.0020923" lon="7.9880594"><ele>528.0</ele><time>2026-04-10T16:09:06.291Z</time></trkpt><trkpt lat="44.0021433" lon="7.9880067"><ele>524.0</ele><time>2026-04-10T16:09:07.293Z</time></trkpt><trkpt lat="44.002276" lon="7.9879518"><ele>524.0</ele><time>2026-04-10T16:09:09.292Z</time></trkpt><trkpt lat="44.0023686" lon="7.9879298"><ele>524.0</ele><time>2026-04-10T16:09:10.293Z</time></trkpt><trkpt lat="44.0024612" lon="7.9878824"><ele>524.0</ele><time>2026-04-10T16:09:11.291Z</time></trkpt><trkpt lat="44.0025625" lon="7.987838"><ele>524.0</ele><time>2026-04-10T16:09:12.292Z</time></trkpt><trkpt lat="44.0026643" lon="7.9877891"><ele>524.0</ele><time>2026-04-10T16:09:13.292Z</time></trkpt><trkpt lat="44.0027574" lon="7.9877314"><ele>522.8333333333333</ele><time>2026-04-10T16:09:14.293Z</time></trkpt><trkpt lat="44.0028351" lon="7.9876845"><ele>521.6666666666666</ele><time>2026-04-10T16:09:15.293Z</time></trkpt><trkpt lat="44.0028927" lon="7.9876274"><ele>520.5</ele><time>2026-04-10T16:09:16.292Z</time></trkpt><trkpt lat="44.0029536" lon="7.9875702"><ele>519.3333333333334</ele><time>2026-04-10T16:09:17.292Z</time></trkpt><trkpt lat="44.0030127" lon="7.9875185"><ele>518.1666666666667</ele><time>2026-04-10T16:09:18.293Z</time></trkpt><trkpt lat="44.0030734" lon="7.9874729"><ele>517.0</ele><time>2026-04-10T16:09:19.291Z</time></trkpt><trkpt lat="44.0031759" lon="7.9874771"><ele>517.0</ele><time>2026-04-10T16:09:20.292Z</time></trkpt><trkpt lat="44.0032721" lon="7.9874714"><ele>517.0</ele><time>2026-04-10T16:09:21.291Z</time></trkpt><trkpt lat="44.0033587" lon="7.9874658"><ele>517.0</ele><time>2026-04-10T16:09:22.294Z</time></trkpt><trkpt lat="44.0034365" lon="7.9874774"><ele>517.0</ele><time>2026-04-10T16:09:23.292Z</time></trkpt><trkpt lat="44.0035447" lon="7.9874869"><ele>517.0</ele><time>2026-04-10T16:09:25.292Z</time></trkpt><trkpt lat="44.0036551" lon="7.9874202"><ele>518.7142857142858</ele><time>2026-04-10T16:09:27.293Z</time></trkpt><trkpt lat="44.0036953" lon="7.9873522"><ele>520.4285714285714</ele><time>2026-04-10T16:09:28.292Z</time></trkpt><trkpt lat="44.0037385" lon="7.9872605"><ele>522.1428571428571</ele><time>2026-04-10T16:09:29.291Z</time></trkpt><trkpt lat="44.0037952" lon="7.9872037"><ele>523.8571428571429</ele><time>2026-04-10T16:09:30.294Z</time></trkpt><trkpt lat="44.0038815" lon="7.9871566"><ele>525.5714285714286</ele><time>2026-04-10T16:09:31.292Z</time></trkpt><trkpt lat="44.0039575" lon="7.9871389"><ele>527.2857142857143</ele><time>2026-04-10T16:09:32.293Z</time></trkpt><trkpt lat="44.0040208" lon="7.9871417"><ele>529.0</ele><time>2026-04-10T16:09:33.292Z</time></trkpt><trkpt lat="44.0041018" lon="7.9871207"><ele>529.0</ele><time>2026-04-10T16:09:35.291Z</time></trkpt><trkpt lat="44.0040979" lon="7.9870052"><ele>529.0</ele><time>2026-04-10T16:09:37.293Z</time></trkpt><trkpt lat="44.0040768" lon="7.9868631"><ele>529.0</ele><time>2026-04-10T16:09:38.293Z</time></trkpt><trkpt lat="44.004064" lon="7.9867537"><ele>529.0</ele><time>2026-04-10T16:09:39.292Z</time></trkpt><trkpt lat="44.0040473" lon="7.9866683"><ele>529.0</ele><time>2026-04-10T16:09:40.293Z</time></trkpt><trkpt lat="44.0040641" lon="7.986582"><ele>529.0</ele><time>2026-04-10T16:09:41.292Z</time></trkpt><trkpt lat="44.0040936" lon="7.9864715"><ele>527.6666666666667</ele><time>2026-04-10T16:09:42.293Z</time></trkpt><trkpt lat="44.0041376" lon="7.9863864"><ele>526.3333333333334</ele><time>2026-04-10T16:09:43.293Z</time></trkpt><trkpt lat="44.0041866" lon="7.9863017"><ele>525.0</ele><time>2026-04-10T16:09:44.293Z</time></trkpt><trkpt lat="44.0042418" lon="7.9862121"><ele>523.6666666666666</ele><time>2026-04-10T16:09:45.293Z</time></trkpt><trkpt lat="44.0042963" lon="7.986116"><ele>522.3333333333333</ele><time>2026-04-10T16:09:46.293Z</time></trkpt><trkpt lat="44.0043579" lon="7.9860372"><ele>521.0</ele><time>2026-04-10T16:09:47.292Z</time></trkpt><trkpt lat="44.0044185" lon="7.9859671"><ele>521.0</ele><time>2026-04-10T16:09:48.293Z</time></trkpt><trkpt lat="44.0044787" lon="7.9859153"><ele>521.0</ele><time>2026-04-10T16:09:49.293Z</time></trkpt><trkpt lat="44.0045853" lon="7.9858663"><ele>521.0</ele><time>2026-04-10T16:09:51.293Z</time></trkpt><trkpt lat="44.004691" lon="7.9859296"><ele>521.0</ele><time>2026-04-10T16:09:53.293Z</time></trkpt><trkpt lat="44.0047568" lon="7.9859836"><ele>521.0</ele><time>2026-04-10T16:09:54.292Z</time></trkpt><trkpt lat="44.0048347" lon="7.985998"><ele>521.0</ele><time>2026-04-10T16:09:55.292Z</time></trkpt><trkpt lat="44.0049101" lon="7.9859954"><ele>521.0</ele><time>2026-04-10T16:09:56.292Z</time></trkpt><trkpt lat="44.004979" lon="7.9860026"><ele>521.0</ele><time>2026-04-10T16:09:57.292Z</time></trkpt><trkpt lat="44.0050429" lon="7.9860248"><ele>521.0</ele><time>2026-04-10T16:09:58.292Z</time></trkpt><trkpt lat="44.0051233" lon="7.9860649"><ele>521.0</ele><time>2026-04-10T16:09:59.292Z</time></trkpt><trkpt lat="44.0051968" lon="7.986091"><ele>521.0</ele><time>2026-04-10T16:10:00.292Z</time></trkpt><trkpt lat="44.0052823" lon="7.9860755"><ele>523.8333333333333</ele><time>2026-04-10T16:10:01.294Z</time></trkpt><trkpt lat="44.0053475" lon="7.9860789"><ele>526.6666666666666</ele><time>2026-04-10T16:10:02.293Z</time></trkpt><trkpt lat="44.0054194" lon="7.9861907"><ele>529.5</ele><time>2026-04-10T16:10:04.292Z</time></trkpt><trkpt lat="44.0054514" lon="7.9862826"><ele>532.3333333333334</ele><time>2026-04-10T16:10:05.291Z</time></trkpt><trkpt lat="44.0054953" lon="7.9863963"><ele>535.1666666666667</ele><time>2026-04-10T16:10:07.292Z</time></trkpt><trkpt lat="44.0055615" lon="7.9863572"><ele>538.0</ele><time>2026-04-10T16:10:09.292Z</time></trkpt><trkpt lat="44.0056045" lon="7.9862737"><ele>538.0</ele><time>2026-04-10T16:10:10.292Z</time></trkpt><trkpt lat="44.0056517" lon="7.9862109"><ele>538.0</ele><time>2026-04-10T16:10:11.292Z</time></trkpt><trkpt lat="44.0057583" lon="7.9862067"><ele>538.0</ele><time>2026-04-10T16:10:13.292Z</time></trkpt><trkpt lat="44.0058473" lon="7.9862365"><ele>538.0</ele><time>2026-04-10T16:10:14.291Z</time></trkpt><trkpt lat="44.0059255" lon="7.9862553"><ele>538.0</ele><time>2026-04-10T16:10:15.293Z</time></trkpt><trkpt lat="44.0059977" lon="7.9862561"><ele>538.0</ele><time>2026-04-10T16:10:16.292Z</time></trkpt><trkpt lat="44.0061095" lon="7.9862078"><ele>534.6</ele><time>2026-04-10T16:10:18.291Z</time></trkpt><trkpt lat="44.0061818" lon="7.9861245"><ele>531.1999999999999</ele><time>2026-04-10T16:10:19.293Z</time></trkpt><trkpt lat="44.0062664" lon="7.986067"><ele>527.8</ele><time>2026-04-10T16:10:20.293Z</time></trkpt><trkpt lat="44.0063228" lon="7.985995"><ele>524.4</ele><time>2026-04-10T16:10:21.291Z</time></trkpt><trkpt lat="44.006385" lon="7.985921"><ele>521.0</ele><time>2026-04-10T16:10:22.292Z</time></trkpt><trkpt lat="44.0064371" lon="7.9857945"><ele>518.2</ele><time>2026-04-10T16:10:23.293Z</time></trkpt><trkpt lat="44.00651" lon="7.9856689"><ele>515.4000000000001</ele><time>2026-04-10T16:10:24.293Z</time></trkpt><trkpt lat="44.0065876" lon="7.9855402"><ele>512.6</ele><time>2026-04-10T16:10:25.291Z</time></trkpt><trkpt lat="44.0066518" lon="7.985413"><ele>509.8</ele><time>2026-04-10T16:10:26.292Z</time></trkpt><trkpt lat="44.0067007" lon="7.9853168"><ele>507.0</ele><time>2026-04-10T16:10:27.292Z</time></trkpt><trkpt lat="44.0067463" lon="7.9852501"><ele>507.0</ele><time>2026-04-10T16:10:28.291Z</time></trkpt><trkpt lat="44.006812" lon="7.9852129"><ele>507.00000000000006</ele><time>2026-04-10T16:10:29.292Z</time></trkpt><trkpt lat="44.0068708" lon="7.9851619"><ele>507.00000000000006</ele><time>2026-04-10T16:10:30.293Z</time></trkpt><trkpt lat="44.0069404" lon="7.9850441"><ele>507.0</ele><time>2026-04-10T16:10:32.291Z</time></trkpt><trkpt lat="44.0069197" lon="7.9848868"><ele>507.0</ele><time>2026-04-10T16:10:34.294Z</time></trkpt><trkpt lat="44.0069157" lon="7.9847691"><ele>503.20000000000005</ele><time>2026-04-10T16:10:35.293Z</time></trkpt><trkpt lat="44.0069181" lon="7.9846132"><ele>499.40000000000003</ele><time>2026-04-10T16:10:36.291Z</time></trkpt><trkpt lat="44.0069134" lon="7.9844625"><ele>495.59999999999997</ele><time>2026-04-10T16:10:37.294Z</time></trkpt><trkpt lat="44.0069166" lon="7.9843434"><ele>491.79999999999995</ele><time>2026-04-10T16:10:38.291Z</time></trkpt><trkpt lat="44.0069261" lon="7.9842416"><ele>488.0</ele><time>2026-04-10T16:10:39.291Z</time></trkpt><trkpt lat="44.0069718" lon="7.9841192"><ele>486.2</ele><time>2026-04-10T16:10:40.292Z</time></trkpt><trkpt lat="44.0070006" lon="7.9839572"><ele>484.4</ele><time>2026-04-10T16:10:41.292Z</time></trkpt><trkpt lat="44.0070381" lon="7.9838496"><ele>482.59999999999997</ele><time>2026-04-10T16:10:42.291Z</time></trkpt><trkpt lat="44.007078" lon="7.9837546"><ele>480.79999999999995</ele><time>2026-04-10T16:10:43.293Z</time></trkpt><trkpt lat="44.0071317" lon="7.9836551"><ele>479.0</ele><time>2026-04-10T16:10:44.292Z</time></trkpt><trkpt lat="44.0071947" lon="7.9835263"><ele>479.0</ele><time>2026-04-10T16:10:45.292Z</time></trkpt><trkpt lat="44.0072507" lon="7.9833746"><ele>479.0</ele><time>2026-04-10T16:10:46.293Z</time></trkpt><trkpt lat="44.0073026" lon="7.9832198"><ele>479.0</ele><time>2026-04-10T16:10:47.292Z</time></trkpt><trkpt lat="44.0073423" lon="7.9831009"><ele>479.0</ele><time>2026-04-10T16:10:48.293Z</time></trkpt><trkpt lat="44.0073709" lon="7.9830124"><ele>479.0</ele><time>2026-04-10T16:10:49.294Z</time></trkpt><trkpt lat="44.0073573" lon="7.9828894"><ele>478.0</ele><time>2026-04-10T16:10:51.292Z</time></trkpt><trkpt lat="44.0072864" lon="7.9827074"><ele>477.0</ele><time>2026-04-10T16:10:53.291Z</time></trkpt><trkpt lat="44.0072763" lon="7.9826099"><ele>476.0</ele><time>2026-04-10T16:10:54.292Z</time></trkpt><trkpt lat="44.0072754" lon="7.9824741"><ele>475.0</ele><time>2026-04-10T16:10:55.293Z</time></trkpt><trkpt lat="44.0072655" lon="7.9823093"><ele>474.0</ele><time>2026-04-10T16:10:56.293Z</time></trkpt><trkpt lat="44.0072613" lon="7.9821395"><ele>474.0</ele><time>2026-04-10T16:10:57.291Z</time></trkpt><trkpt lat="44.0072503" lon="7.9819644"><ele>474.0</ele><time>2026-04-10T16:10:58.292Z</time></trkpt><trkpt lat="44.0072389" lon="7.9818275"><ele>474.0</ele><time>2026-04-10T16:10:59.293Z</time></trkpt><trkpt lat="44.0072245" lon="7.9817163"><ele>474.0</ele><time>2026-04-10T16:11:00.292Z</time></trkpt><trkpt lat="44.0071838" lon="7.981618"><ele>474.0</ele><time>2026-04-10T16:11:02.293Z</time></trkpt><trkpt lat="44.0071494" lon="7.9815262"><ele>475.6666666666667</ele><time>2026-04-10T16:11:32.293Z</time></trkpt><trkpt lat="44.0071091" lon="7.9813673"><ele>477.33333333333337</ele><time>2026-04-10T16:11:34.292Z</time></trkpt><trkpt lat="44.00705" lon="7.9813021"><ele>479.0</ele><time>2026-04-10T16:11:35.292Z</time></trkpt><trkpt lat="44.0069964" lon="7.9812339"><ele>480.6666666666667</ele><time>2026-04-10T16:11:36.294Z</time></trkpt><trkpt lat="44.0069395" lon="7.9811785"><ele>482.33333333333337</ele><time>2026-04-10T16:11:37.293Z</time></trkpt><trkpt lat="44.006881" lon="7.9811331"><ele>484.0</ele><time>2026-04-10T16:11:38.293Z</time></trkpt><trkpt lat="44.006822" lon="7.9810986"><ele>484.00000000000006</ele><time>2026-04-10T16:11:39.293Z</time></trkpt><trkpt lat="44.0067612" lon="7.9810613"><ele>484.0</ele><time>2026-04-10T16:11:40.292Z</time></trkpt><trkpt lat="44.0067001" lon="7.9810206"><ele>484.0</ele><time>2026-04-10T16:11:41.292Z</time></trkpt><trkpt lat="44.0066402" lon="7.9809806"><ele>484.0</ele><time>2026-04-10T16:11:42.294Z</time></trkpt><trkpt lat="44.0065593" lon="7.9808815"><ele>484.00000000000006</ele><time>2026-04-10T16:11:44.293Z</time></trkpt><trkpt lat="44.0065337" lon="7.9807377"><ele>484.0</ele><time>2026-04-10T16:11:46.292Z</time></trkpt><trkpt lat="44.0065366" lon="7.980639"><ele>485.33333333333337</ele><time>2026-04-10T16:11:47.292Z</time></trkpt><trkpt lat="44.0065483" lon="7.9805422"><ele>486.6666666666667</ele><time>2026-04-10T16:11:48.293Z</time></trkpt><trkpt lat="44.0065723" lon="7.9804537"><ele>488.0</ele><time>2026-04-10T16:11:49.292Z</time></trkpt><trkpt lat="44.0066133" lon="7.9803739"><ele>489.33333333333337</ele><time>2026-04-10T16:11:50.293Z</time></trkpt><trkpt lat="44.0066758" lon="7.9803"><ele>490.6666666666667</ele><time>2026-04-10T16:11:51.294Z</time></trkpt><trkpt lat="44.0067486" lon="7.9802288"><ele>492.0</ele><time>2026-04-10T16:11:52.291Z</time></trkpt><trkpt lat="44.0068165" lon="7.9801623"><ele>492.0</ele><time>2026-04-10T16:11:53.293Z</time></trkpt><trkpt lat="44.0068728" lon="7.980083"><ele>492.0</ele><time>2026-04-10T16:11:54.293Z</time></trkpt><trkpt lat="44.0069179" lon="7.9799974"><ele>492.0</ele><time>2026-04-10T16:11:55.292Z</time></trkpt><trkpt lat="44.0069542" lon="7.9798946"><ele>492.0</ele><time>2026-04-10T16:11:56.292Z</time></trkpt><trkpt lat="44.0069883" lon="7.9797844"><ele>492.0</ele><time>2026-04-10T16:11:57.293Z</time></trkpt><trkpt lat="44.0070271" lon="7.9796808"><ele>492.0</ele><time>2026-04-10T16:11:58.292Z</time></trkpt><trkpt lat="44.0070954" lon="7.9795695"><ele>490.0</ele><time>2026-04-10T16:11:59.293Z</time></trkpt><trkpt lat="44.0071487" lon="7.9794457"><ele>488.00000000000006</ele><time>2026-04-10T16:12:00.293Z</time></trkpt><trkpt lat="44.0071946" lon="7.9793179"><ele>486.00000000000006</ele><time>2026-04-10T16:12:01.294Z</time></trkpt><trkpt lat="44.0072102" lon="7.9791917"><ele>484.0</ele><time>2026-04-10T16:12:02.294Z</time></trkpt><trkpt lat="44.0072185" lon="7.9790689"><ele>482.0</ele><time>2026-04-10T16:12:03.293Z</time></trkpt><trkpt lat="44.0072306" lon="7.9789521"><ele>479.28571428571433</ele><time>2026-04-10T16:12:04.293Z</time></trkpt><trkpt lat="44.0072456" lon="7.9788517"><ele>476.5714285714286</ele><time>2026-04-10T16:12:05.292Z</time></trkpt><trkpt lat="44.0072555" lon="7.9787513"><ele>473.8571428571429</ele><time>2026-04-10T16:12:06.292Z</time></trkpt><trkpt lat="44.0072656" lon="7.978641"><ele>471.1428571428571</ele><time>2026-04-10T16:12:07.293Z</time></trkpt><trkpt lat="44.0072686" lon="7.9785365"><ele>468.4285714285714</ele><time>2026-04-10T16:12:08.293Z</time></trkpt><trkpt lat="44.007277" lon="7.9784311"><ele>465.71428571428567</ele><time>2026-04-10T16:12:10.292Z</time></trkpt><trkpt lat="44.0072133" lon="7.9784037"><ele>463.0</ele><time>2026-04-10T16:14:47.294Z</time></trkpt><trkpt lat="44.0071955" lon="7.9784965"><ele>463.0</ele><time>2026-04-10T16:14:48.292Z</time></trkpt><trkpt lat="44.007171" lon="7.9786039"><ele>462.99999999999994</ele><time>2026-04-10T16:14:49.293Z</time></trkpt><trkpt lat="44.007135" lon="7.9787223"><ele>462.99999999999994</ele><time>2026-04-10T16:14:50.293Z</time></trkpt><trkpt lat="44.0071041" lon="7.9788517"><ele>463.0</ele><time>2026-04-10T16:14:51.292Z</time></trkpt><trkpt lat="44.0070761" lon="7.9789962"><ele>463.0</ele><time>2026-04-10T16:14:52.294Z</time></trkpt><trkpt lat="44.0070437" lon="7.9791491"><ele>467.75</ele><time>2026-04-10T16:14:53.293Z</time></trkpt><trkpt lat="44.0070016" lon="7.9793072"><ele>472.5</ele><time>2026-04-10T16:14:54.294Z</time></trkpt><trkpt lat="44.0069434" lon="7.979455"><ele>477.25</ele><time>2026-04-10T16:14:55.294Z</time></trkpt><trkpt lat="44.0068821" lon="7.9795931"><ele>482.0</ele><time>2026-04-10T16:14:56.293Z</time></trkpt><trkpt lat="44.0068139" lon="7.9797235"><ele>482.0</ele><time>2026-04-10T16:14:57.292Z</time></trkpt><trkpt lat="44.0067379" lon="7.9798522"><ele>482.0</ele><time>2026-04-10T16:14:58.294Z</time></trkpt><trkpt lat="44.0066518" lon="7.9799792"><ele>482.0</ele><time>2026-04-10T16:14:59.293Z</time></trkpt><trkpt lat="44.0065502" lon="7.9800894"><ele>482.0</ele><time>2026-04-10T16:15:00.293Z</time></trkpt><trkpt lat="44.0064443" lon="7.9801949"><ele>476.0</ele><time>2026-04-10T16:15:01.292Z</time></trkpt><trkpt lat="44.0063357" lon="7.9802989"><ele>470.0</ele><time>2026-04-10T16:15:02.292Z</time></trkpt><trkpt lat="44.0062295" lon="7.9803958"><ele>464.0</ele><time>2026-04-10T16:15:03.294Z</time></trkpt><trkpt lat="44.0061351" lon="7.9804927"><ele>458.0</ele><time>2026-04-10T16:15:04.292Z</time></trkpt><trkpt lat="44.0060484" lon="7.9805845"><ele>458.0</ele><time>2026-04-10T16:15:05.293Z</time></trkpt><trkpt lat="44.0060028" lon="7.9807114"><ele>457.99999999999994</ele><time>2026-04-10T16:15:06.292Z</time></trkpt><trkpt lat="44.0059791" lon="7.980847"><ele>457.99999999999994</ele><time>2026-04-10T16:15:07.292Z</time></trkpt><trkpt lat="44.0059772" lon="7.9809773"><ele>458.0</ele><time>2026-04-10T16:15:08.292Z</time></trkpt><trkpt lat="44.0060346" lon="7.9811099"><ele>458.0</ele><time>2026-04-10T16:15:09.292Z</time></trkpt><trkpt lat="44.0060841" lon="7.9812423"><ele>456.0</ele><time>2026-04-10T16:15:10.292Z</time></trkpt><trkpt lat="44.0061616" lon="7.9813674"><ele>454.0</ele><time>2026-04-10T16:15:11.292Z</time></trkpt><trkpt lat="44.0062196" lon="7.9815089"><ele>452.0</ele><time>2026-04-10T16:15:12.294Z</time></trkpt><trkpt lat="44.0062605" lon="7.9816683"><ele>450.0</ele><time>2026-04-10T16:15:13.292Z</time></trkpt><trkpt lat="44.0062795" lon="7.9818408"><ele>447.75</ele><time>2026-04-10T16:15:14.292Z</time></trkpt><trkpt lat="44.0062853" lon="7.9820334"><ele>445.5</ele><time>2026-04-10T16:15:15.293Z</time></trkpt><trkpt lat="44.0062843" lon="7.982238"><ele>443.25</ele><time>2026-04-10T16:15:16.293Z</time></trkpt><trkpt lat="44.0062814" lon="7.9824583"><ele>441.0</ele><time>2026-04-10T16:15:17.293Z</time></trkpt><trkpt lat="44.0062773" lon="7.9826737"><ele>440.5</ele><time>2026-04-10T16:15:18.293Z</time></trkpt><trkpt lat="44.0062723" lon="7.9828853"><ele>440.0</ele><time>2026-04-10T16:15:19.293Z</time></trkpt><trkpt lat="44.0062666" lon="7.9830874"><ele>439.5</ele><time>2026-04-10T16:15:20.292Z</time></trkpt><trkpt lat="44.0062586" lon="7.9832844"><ele>439.0</ele><time>2026-04-10T16:15:21.293Z</time></trkpt><trkpt lat="44.0062528" lon="7.9834779"><ele>442.25</ele><time>2026-04-10T16:15:22.292Z</time></trkpt><trkpt lat="44.0062414" lon="7.9836602"><ele>445.5</ele><time>2026-04-10T16:15:23.292Z</time></trkpt><trkpt lat="44.0062174" lon="7.983827"><ele>448.75</ele><time>2026-04-10T16:15:24.292Z</time></trkpt><trkpt lat="44.0061617" lon="7.9839834"><ele>452.0</ele><time>2026-04-10T16:15:25.292Z</time></trkpt><trkpt lat="44.0060777" lon="7.9841128"><ele>458.0</ele><time>2026-04-10T16:15:26.293Z</time></trkpt><trkpt lat="44.0059605" lon="7.9842344"><ele>464.0</ele><time>2026-04-10T16:15:27.293Z</time></trkpt><trkpt lat="44.0058442" lon="7.9843415"><ele>470.0</ele><time>2026-04-10T16:15:28.292Z</time></trkpt><trkpt lat="44.005731" lon="7.9844382"><ele>476.0</ele><time>2026-04-10T16:15:29.293Z</time></trkpt><trkpt lat="44.0056262" lon="7.984522"><ele>476.4</ele><time>2026-04-10T16:15:30.294Z</time></trkpt><trkpt lat="44.0055256" lon="7.984584"><ele>476.8</ele><time>2026-04-10T16:15:31.293Z</time></trkpt><trkpt lat="44.0054322" lon="7.9846083"><ele>477.19999999999993</ele><time>2026-04-10T16:15:32.292Z</time></trkpt><trkpt lat="44.0053442" lon="7.9845415"><ele>477.59999999999997</ele><time>2026-04-10T16:15:33.294Z</time></trkpt><trkpt lat="44.0052598" lon="7.9844537"><ele>478.0</ele><time>2026-04-10T16:15:34.293Z</time></trkpt><trkpt lat="44.0051712" lon="7.9843498"><ele>478.0</ele><time>2026-04-10T16:15:35.294Z</time></trkpt><trkpt lat="44.0050613" lon="7.9842301"><ele>478.0</ele><time>2026-04-10T16:15:36.293Z</time></trkpt><trkpt lat="44.0049172" lon="7.9841032"><ele>478.0</ele><time>2026-04-10T16:15:37.294Z</time></trkpt><trkpt lat="44.0047874" lon="7.9839883"><ele>468.6666666666667</ele><time>2026-04-10T16:15:38.293Z</time></trkpt><trkpt lat="44.0046503" lon="7.9838516"><ele>459.33333333333337</ele><time>2026-04-10T16:15:39.292Z</time></trkpt><trkpt lat="44.0045229" lon="7.983724"><ele>450.0</ele><time>2026-04-10T16:15:40.293Z</time></trkpt><trkpt lat="44.0044152" lon="7.9835806"><ele>450.0</ele><time>2026-04-10T16:15:41.293Z</time></trkpt><trkpt lat="44.0043196" lon="7.9834422"><ele>450.0</ele><time>2026-04-10T16:15:42.292Z</time></trkpt><trkpt lat="44.00424" lon="7.9833153"><ele>450.0</ele><time>2026-04-10T16:15:43.293Z</time></trkpt><trkpt lat="44.0041576" lon="7.9832214"><ele>450.0</ele><time>2026-04-10T16:15:44.293Z</time></trkpt><trkpt lat="44.0040694" lon="7.983167"><ele>447.8</ele><time>2026-04-10T16:15:45.293Z</time></trkpt><trkpt lat="44.0039774" lon="7.9831546"><ele>445.6</ele><time>2026-04-10T16:15:46.293Z</time></trkpt><trkpt lat="44.0038914" lon="7.9831845"><ele>443.4</ele><time>2026-04-10T16:15:47.292Z</time></trkpt><trkpt lat="44.0038104" lon="7.9832408"><ele>441.2</ele><time>2026-04-10T16:15:48.292Z</time></trkpt><trkpt lat="44.0037197" lon="7.9833085"><ele>439.0</ele><time>2026-04-10T16:15:49.293Z</time></trkpt><trkpt lat="44.0036286" lon="7.9833845"><ele>439.0</ele><time>2026-04-10T16:15:50.292Z</time></trkpt><trkpt lat="44.0035448" lon="7.9834595"><ele>439.0</ele><time>2026-04-10T16:15:51.292Z</time></trkpt><trkpt lat="44.0034563" lon="7.9835439"><ele>439.0</ele><time>2026-04-10T16:15:52.294Z</time></trkpt><trkpt lat="44.0033672" lon="7.9836317"><ele>439.0</ele><time>2026-04-10T16:15:53.293Z</time></trkpt><trkpt lat="44.0032836" lon="7.9837091"><ele>439.0</ele><time>2026-04-10T16:15:54.293Z</time></trkpt><trkpt lat="44.0032024" lon="7.9837876"><ele>438.00000000000006</ele><time>2026-04-10T16:15:55.292Z</time></trkpt><trkpt lat="44.0031223" lon="7.9838469"><ele>437.0</ele><time>2026-04-10T16:15:56.293Z</time></trkpt><trkpt lat="44.0030414" lon="7.983881"><ele>436.0</ele><time>2026-04-10T16:15:57.292Z</time></trkpt><trkpt lat="44.0029633" lon="7.9838497"><ele>435.0</ele><time>2026-04-10T16:15:58.294Z</time></trkpt><trkpt lat="44.0028879" lon="7.9837894"><ele>434.00000000000006</ele><time>2026-04-10T16:15:59.292Z</time></trkpt><trkpt lat="44.00281" lon="7.9837023"><ele>433.0</ele><time>2026-04-10T16:16:00.293Z</time></trkpt><trkpt lat="44.00272" lon="7.9835957"><ele>433.0</ele><time>2026-04-10T16:16:01.295Z</time></trkpt><trkpt lat="44.0026346" lon="7.983505"><ele>432.99999999999994</ele><time>2026-04-10T16:16:02.293Z</time></trkpt><trkpt lat="44.0025489" lon="7.9834343"><ele>432.99999999999994</ele><time>2026-04-10T16:16:03.293Z</time></trkpt><trkpt lat="44.0024616" lon="7.9833736"><ele>433.0</ele><time>2026-04-10T16:16:04.292Z</time></trkpt><trkpt lat="44.0023771" lon="7.9833591"><ele>433.0</ele><time>2026-04-10T16:16:05.294Z</time></trkpt><trkpt lat="44.002308" lon="7.9834291"><ele>429.1666666666667</ele><time>2026-04-10T16:16:06.293Z</time></trkpt><trkpt lat="44.0022429" lon="7.9834985"><ele>425.33333333333337</ele><time>2026-04-10T16:16:07.295Z</time></trkpt><trkpt lat="44.0022137" lon="7.9835852"><ele>421.5</ele><time>2026-04-10T16:16:08.292Z</time></trkpt><trkpt lat="44.0021801" lon="7.9837085"><ele>417.66666666666663</ele><time>2026-04-10T16:16:10.294Z</time></trkpt><trkpt lat="44.0022175" lon="7.9838187"><ele>413.8333333333333</ele><time>2026-04-10T16:16:12.292Z</time></trkpt><trkpt lat="44.0022563" lon="7.9839337"><ele>410.0</ele><time>2026-04-10T16:16:14.292Z</time></trkpt><trkpt lat="44.0022345" lon="7.9840322"><ele>410.0</ele><time>2026-04-10T16:16:16.293Z</time></trkpt><trkpt lat="44.0021623" lon="7.9841452"><ele>410.0</ele><time>2026-04-10T16:16:18.293Z</time></trkpt><trkpt lat="44.0021436" lon="7.9842424"><ele>410.0</ele><time>2026-04-10T16:16:31.293Z</time></trkpt><trkpt lat="44.0021406" lon="7.9843392"><ele>410.0</ele><time>2026-04-10T16:16:33.293Z</time></trkpt><trkpt lat="44.0021494" lon="7.9844761"><ele>410.0</ele><time>2026-04-10T16:16:35.293Z</time></trkpt><trkpt lat="44.0021269" lon="7.9846129"><ele>410.0</ele><time>2026-04-10T16:16:37.293Z</time></trkpt><trkpt lat="44.0020911" lon="7.9847055"><ele>410.0</ele><time>2026-04-10T16:16:39.294Z</time></trkpt><trkpt lat="44.0021265" lon="7.9845995"><ele>410.0</ele><time>2026-04-10T16:17:23.292Z</time></trkpt><trkpt lat="44.0021495" lon="7.9844481"><ele>410.0</ele><time>2026-04-10T16:17:25.293Z</time></trkpt><trkpt lat="44.0021471" lon="7.9842867"><ele>410.0</ele><time>2026-04-10T16:17:27.293Z</time></trkpt><trkpt lat="44.0021499" lon="7.9841773"><ele>410.0</ele><time>2026-04-10T16:17:29.294Z</time></trkpt><trkpt lat="44.0022056" lon="7.9840567"><ele>410.0</ele><time>2026-04-10T16:17:31.293Z</time></trkpt><trkpt lat="44.0022451" lon="7.9839866"><ele>410.0</ele><time>2026-04-10T16:17:32.293Z</time></trkpt><trkpt lat="44.0022503" lon="7.9838807"><ele>410.0</ele><time>2026-04-10T16:17:34.294Z</time></trkpt><trkpt lat="44.0022141" lon="7.9837583"><ele>410.0</ele><time>2026-04-10T16:17:36.292Z</time></trkpt><trkpt lat="44.0022348" lon="7.983576"><ele>409.99999999999994</ele><time>2026-04-10T16:17:38.292Z</time></trkpt><trkpt lat="44.002285" lon="7.9834957"><ele>410.0</ele><time>2026-04-10T16:17:39.294Z</time></trkpt><trkpt lat="44.0023575" lon="7.9834373"><ele>410.0</ele><time>2026-04-10T16:17:40.293Z</time></trkpt><trkpt lat="44.0024372" lon="7.9834216"><ele>410.0</ele><time>2026-04-10T16:17:41.294Z</time></trkpt><trkpt lat="44.0025148" lon="7.9834475"><ele>409.99999999999994</ele><time>2026-04-10T16:17:42.292Z</time></trkpt><trkpt lat="44.0026031" lon="7.9835317"><ele>410.0</ele><time>2026-04-10T16:17:43.292Z</time></trkpt><trkpt lat="44.0026912" lon="7.9836198"><ele>414.6</ele><time>2026-04-10T16:17:44.293Z</time></trkpt><trkpt lat="44.0027913" lon="7.9837302"><ele>419.2</ele><time>2026-04-10T16:17:45.295Z</time></trkpt><trkpt lat="44.0028897" lon="7.98382"><ele>423.79999999999995</ele><time>2026-04-10T16:17:46.292Z</time></trkpt><trkpt lat="44.0029817" lon="7.9838653"><ele>428.4</ele><time>2026-04-10T16:17:47.294Z</time></trkpt><trkpt lat="44.0030803" lon="7.9838621"><ele>433.0</ele><time>2026-04-10T16:17:48.292Z</time></trkpt><trkpt lat="44.0031803" lon="7.9838104"><ele>433.0</ele><time>2026-04-10T16:17:49.294Z</time></trkpt><trkpt lat="44.0032874" lon="7.9837217"><ele>433.0</ele><time>2026-04-10T16:17:50.293Z</time></trkpt><trkpt lat="44.0034" lon="7.9836226"><ele>433.0</ele><time>2026-04-10T16:17:51.293Z</time></trkpt><trkpt lat="44.0035193" lon="7.9835211"><ele>433.0</ele><time>2026-04-10T16:17:52.293Z</time></trkpt><trkpt lat="44.0036393" lon="7.9834184"><ele>431.0</ele><time>2026-04-10T16:17:53.292Z</time></trkpt><trkpt lat="44.0037527" lon="7.9833233"><ele>429.0</ele><time>2026-04-10T16:17:54.292Z</time></trkpt><trkpt lat="44.0038597" lon="7.9832502"><ele>427.0</ele><time>2026-04-10T16:17:55.293Z</time></trkpt><trkpt lat="44.0039712" lon="7.9832108"><ele>425.0</ele><time>2026-04-10T16:17:56.292Z</time></trkpt><trkpt lat="44.0040801" lon="7.983216"><ele>426.5</ele><time>2026-04-10T16:17:57.293Z</time></trkpt><trkpt lat="44.0041717" lon="7.9832849"><ele>428.0</ele><time>2026-04-10T16:17:58.293Z</time></trkpt><trkpt lat="44.0042563" lon="7.9834015"><ele>429.5</ele><time>2026-04-10T16:17:59.294Z</time></trkpt><trkpt lat="44.0043497" lon="7.9835412"><ele>431.0</ele><time>2026-04-10T16:18:00.293Z</time></trkpt><trkpt lat="44.0044658" lon="7.983682"><ele>437.3333333333333</ele><time>2026-04-10T16:18:01.293Z</time></trkpt><trkpt lat="44.0045906" lon="7.9838161"><ele>443.66666666666663</ele><time>2026-04-10T16:18:02.293Z</time></trkpt><trkpt lat="44.0047208" lon="7.9839432"><ele>450.0</ele><time>2026-04-10T16:18:03.293Z</time></trkpt><trkpt lat="44.004851" lon="7.9840628"><ele>450.0</ele><time>2026-04-10T16:18:04.294Z</time></trkpt><trkpt lat="44.0049815" lon="7.9841752"><ele>450.0</ele><time>2026-04-10T16:18:05.292Z</time></trkpt><trkpt lat="44.0051079" lon="7.9842922"><ele>450.0</ele><time>2026-04-10T16:18:06.293Z</time></trkpt><trkpt lat="44.0052123" lon="7.9844151"><ele>450.0</ele><time>2026-04-10T16:18:07.293Z</time></trkpt><trkpt lat="44.0052929" lon="7.9845119"><ele>455.6</ele><time>2026-04-10T16:18:08.292Z</time></trkpt><trkpt lat="44.0053798" lon="7.9845906"><ele>461.2</ele><time>2026-04-10T16:18:09.292Z</time></trkpt><trkpt lat="44.0054667" lon="7.9846425"><ele>466.79999999999995</ele><time>2026-04-10T16:18:10.292Z</time></trkpt><trkpt lat="44.0055568" lon="7.9845967"><ele>472.4</ele><time>2026-04-10T16:18:11.294Z</time></trkpt><trkpt lat="44.0056492" lon="7.9845205"><ele>478.0</ele><time>2026-04-10T16:18:12.294Z</time></trkpt><trkpt lat="44.005757" lon="7.9844353"><ele>477.33333333333337</ele><time>2026-04-10T16:18:13.294Z</time></trkpt><trkpt lat="44.0058773" lon="7.9843355"><ele>476.66666666666663</ele><time>2026-04-10T16:18:14.292Z</time></trkpt><trkpt lat="44.0060124" lon="7.984212"><ele>476.0</ele><time>2026-04-10T16:18:15.294Z</time></trkpt><trkpt lat="44.0061314" lon="7.9840761"><ele>470.0</ele><time>2026-04-10T16:18:16.293Z</time></trkpt><trkpt lat="44.0062218" lon="7.9839199"><ele>464.0</ele><time>2026-04-10T16:18:17.295Z</time></trkpt><trkpt lat="44.0062509" lon="7.9837343"><ele>458.0</ele><time>2026-04-10T16:18:18.294Z</time></trkpt><trkpt lat="44.0062739" lon="7.9835276"><ele>452.0</ele><time>2026-04-10T16:18:19.293Z</time></trkpt><trkpt lat="44.0062814" lon="7.9832918"><ele>448.3333333333333</ele><time>2026-04-10T16:18:20.292Z</time></trkpt><trkpt lat="44.0062856" lon="7.9830233"><ele>444.66666666666663</ele><time>2026-04-10T16:18:21.294Z</time></trkpt><trkpt lat="44.0062899" lon="7.9827388"><ele>441.0</ele><time>2026-04-10T16:18:22.293Z</time></trkpt><trkpt lat="44.0062944" lon="7.9824496"><ele>441.0</ele><time>2026-04-10T16:18:23.294Z</time></trkpt><trkpt lat="44.0063044" lon="7.982185"><ele>441.0</ele><time>2026-04-10T16:18:24.292Z</time></trkpt><trkpt lat="44.0063069" lon="7.9819486"><ele>441.0</ele><time>2026-04-10T16:18:25.292Z</time></trkpt><trkpt lat="44.0062963" lon="7.9817322"><ele>443.25</ele><time>2026-04-10T16:18:26.295Z</time></trkpt><trkpt lat="44.0062669" lon="7.9815416"><ele>445.5</ele><time>2026-04-10T16:18:27.294Z</time></trkpt><trkpt lat="44.0062102" lon="7.9813679"><ele>447.75</ele><time>2026-04-10T16:18:28.292Z</time></trkpt><trkpt lat="44.0061382" lon="7.9811957"><ele>450.0</ele><time>2026-04-10T16:18:29.293Z</time></trkpt><trkpt lat="44.0060637" lon="7.9810525"><ele>450.0</ele><time>2026-04-10T16:18:30.294Z</time></trkpt><trkpt lat="44.0060233" lon="7.9809079"><ele>450.0</ele><time>2026-04-10T16:18:31.292Z</time></trkpt><trkpt lat="44.0060241" lon="7.9807746"><ele>450.0</ele><time>2026-04-10T16:18:32.294Z</time></trkpt><trkpt lat="44.006062" lon="7.9806514"><ele>450.0</ele><time>2026-04-10T16:18:33.292Z</time></trkpt><trkpt lat="44.0061337" lon="7.9805362"><ele>450.0</ele><time>2026-04-10T16:18:34.293Z</time></trkpt><trkpt lat="44.0062353" lon="7.980425"><ele>452.66666666666663</ele><time>2026-04-10T16:18:35.293Z</time></trkpt><trkpt lat="44.0063546" lon="7.9803097"><ele>455.3333333333333</ele><time>2026-04-10T16:18:36.293Z</time></trkpt><trkpt lat="44.0064911" lon="7.9801752"><ele>458.0</ele><time>2026-04-10T16:18:37.293Z</time></trkpt><trkpt lat="44.0066397" lon="7.9800147"><ele>466.0</ele><time>2026-04-10T16:18:38.292Z</time></trkpt><trkpt lat="44.006787" lon="7.9798281"><ele>474.0</ele><time>2026-04-10T16:18:39.293Z</time></trkpt><trkpt lat="44.0069146" lon="7.9796084"><ele>482.0</ele><time>2026-04-10T16:18:40.292Z</time></trkpt><trkpt lat="44.0069926" lon="7.9793768"><ele>475.66666666666663</ele><time>2026-04-10T16:18:41.294Z</time></trkpt><trkpt lat="44.0070571" lon="7.9791505"><ele>469.33333333333337</ele><time>2026-04-10T16:18:42.293Z</time></trkpt><trkpt lat="44.0071057" lon="7.9789139"><ele>463.0</ele><time>2026-04-10T16:18:43.294Z</time></trkpt><trkpt lat="44.007146" lon="7.9786962"><ele>463.0</ele><time>2026-04-10T16:18:44.294Z</time></trkpt><trkpt lat="44.0072158" lon="7.9785223"><ele>463.0</ele><time>2026-04-10T16:18:45.293Z</time></trkpt><trkpt lat="44.0072882" lon="7.9783866"><ele>463.0</ele><time>2026-04-10T16:18:46.293Z</time></trkpt><trkpt lat="44.0073626" lon="7.9782827"><ele>463.0</ele><time>2026-04-10T16:18:47.293Z</time></trkpt><trkpt lat="44.0074592" lon="7.9782598"><ele>468.5</ele><time>2026-04-10T16:18:48.294Z</time></trkpt><trkpt lat="44.0075775" lon="7.9782757"><ele>474.0</ele><time>2026-04-10T16:18:49.293Z</time></trkpt><trkpt lat="44.0076955" lon="7.9782739"><ele>479.5</ele><time>2026-04-10T16:18:50.293Z</time></trkpt><trkpt lat="44.007812" lon="7.9782349"><ele>485.0</ele><time>2026-04-10T16:18:51.293Z</time></trkpt><trkpt lat="44.0079066" lon="7.9781697"><ele>485.0</ele><time>2026-04-10T16:18:52.293Z</time></trkpt><trkpt lat="44.0079862" lon="7.9780612"><ele>485.0</ele><time>2026-04-10T16:18:53.294Z</time></trkpt><trkpt lat="44.0080618" lon="7.9779125"><ele>485.0</ele><time>2026-04-10T16:18:54.294Z</time></trkpt><trkpt lat="44.0081441" lon="7.9777628"><ele>485.0</ele><time>2026-04-10T16:18:55.293Z</time></trkpt><trkpt lat="44.0082422" lon="7.977656"><ele>487.2</ele><time>2026-04-10T16:18:56.294Z</time></trkpt><trkpt lat="44.0083464" lon="7.9775502"><ele>489.4</ele><time>2026-04-10T16:18:57.293Z</time></trkpt><trkpt lat="44.0084241" lon="7.9774356"><ele>491.6</ele><time>2026-04-10T16:18:58.292Z</time></trkpt><trkpt lat="44.0084648" lon="7.977314"><ele>493.8</ele><time>2026-04-10T16:18:59.293Z</time></trkpt><trkpt lat="44.0084657" lon="7.9771845"><ele>496.0</ele><time>2026-04-10T16:19:00.293Z</time></trkpt><trkpt lat="44.0084273" lon="7.9770495"><ele>496.0</ele><time>2026-04-10T16:19:01.294Z</time></trkpt><trkpt lat="44.0083678" lon="7.9769061"><ele>496.0</ele><time>2026-04-10T16:19:02.293Z</time></trkpt><trkpt lat="44.0082474" lon="7.9767751"><ele>496.0</ele><time>2026-04-10T16:19:03.293Z</time></trkpt><trkpt lat="44.0081354" lon="7.9766499"><ele>496.0</ele><time>2026-04-10T16:19:04.294Z</time></trkpt><trkpt lat="44.0080357" lon="7.9765279"><ele>493.0</ele><time>2026-04-10T16:19:05.292Z</time></trkpt><trkpt lat="44.0079689" lon="7.9763971"><ele>490.0</ele><time>2026-04-10T16:19:06.292Z</time></trkpt><trkpt lat="44.0079754" lon="7.9762454"><ele>487.0</ele><time>2026-04-10T16:19:07.293Z</time></trkpt><trkpt lat="44.0079855" lon="7.9761026"><ele>484.0</ele><time>2026-04-10T16:19:08.294Z</time></trkpt><trkpt lat="44.0080144" lon="7.9759501"><ele>481.0</ele><time>2026-04-10T16:19:09.294Z</time></trkpt><trkpt lat="44.0080691" lon="7.9757904"><ele>481.0</ele><time>2026-04-10T16:19:10.293Z</time></trkpt><trkpt lat="44.0081167" lon="7.975638"><ele>481.0</ele><time>2026-04-10T16:19:11.294Z</time></trkpt><trkpt lat="44.0081369" lon="7.9755322"><ele>481.0</ele><time>2026-04-10T16:19:12.293Z</time></trkpt><trkpt lat="44.0081462" lon="7.9754312"><ele>481.0</ele><time>2026-04-10T16:19:13.293Z</time></trkpt><trkpt lat="44.0081514" lon="7.9752822"><ele>481.0</ele><time>2026-04-10T16:19:15.292Z</time></trkpt><trkpt lat="44.0081387" lon="7.9751711"><ele>481.0</ele><time>2026-04-10T16:19:17.293Z</time></trkpt><trkpt lat="44.008117" lon="7.9753305"><ele>481.0</ele><time>2026-04-10T16:19:23.292Z</time></trkpt><trkpt lat="44.0081158" lon="7.9754389"><ele>481.0</ele><time>2026-04-10T16:19:24.293Z</time></trkpt><trkpt lat="44.0081037" lon="7.9755652"><ele>481.0</ele><time>2026-04-10T16:19:25.294Z</time></trkpt><trkpt lat="44.0080762" lon="7.9756966"><ele>481.0</ele><time>2026-04-10T16:19:26.293Z</time></trkpt><trkpt lat="44.0080438" lon="7.9758339"><ele>479.4</ele><time>2026-04-10T16:19:27.293Z</time></trkpt><trkpt lat="44.0079936" lon="7.9759601"><ele>477.8</ele><time>2026-04-10T16:19:28.293Z</time></trkpt><trkpt lat="44.0079579" lon="7.9760985"><ele>476.19999999999993</ele><time>2026-04-10T16:19:29.294Z</time></trkpt><trkpt lat="44.0079465" lon="7.9762428"><ele>474.59999999999997</ele><time>2026-04-10T16:19:30.294Z</time></trkpt><trkpt lat="44.0079633" lon="7.9763657"><ele>473.0</ele><time>2026-04-10T16:19:31.292Z</time></trkpt><trkpt lat="44.0079896" lon="7.9764975"><ele>473.0</ele><time>2026-04-10T16:19:32.293Z</time></trkpt><trkpt lat="44.008068" lon="7.9765772"><ele>472.99999999999994</ele><time>2026-04-10T16:19:33.292Z</time></trkpt><trkpt lat="44.0081455" lon="7.9766624"><ele>472.99999999999994</ele><time>2026-04-10T16:19:34.294Z</time></trkpt><trkpt lat="44.0082313" lon="7.9767651"><ele>473.0</ele><time>2026-04-10T16:19:35.293Z</time></trkpt><trkpt lat="44.0083235" lon="7.9768991"><ele>473.0</ele><time>2026-04-10T16:19:36.293Z</time></trkpt><trkpt lat="44.0083973" lon="7.9770478"><ele>475.4</ele><time>2026-04-10T16:19:37.293Z</time></trkpt><trkpt lat="44.00844" lon="7.9771855"><ele>477.79999999999995</ele><time>2026-04-10T16:19:38.293Z</time></trkpt><trkpt lat="44.0084478" lon="7.9773287"><ele>480.2</ele><time>2026-04-10T16:19:39.293Z</time></trkpt><trkpt lat="44.0084094" lon="7.9774462"><ele>482.6</ele><time>2026-04-10T16:19:40.295Z</time></trkpt><trkpt lat="44.0083475" lon="7.9775206"><ele>485.0</ele><time>2026-04-10T16:19:41.293Z</time></trkpt><trkpt lat="44.0082616" lon="7.9775925"><ele>485.0</ele><time>2026-04-10T16:19:42.293Z</time></trkpt><trkpt lat="44.0081716" lon="7.9776905"><ele>485.0</ele><time>2026-04-10T16:19:43.293Z</time></trkpt><trkpt lat="44.0080871" lon="7.9778254"><ele>485.0</ele><time>2026-04-10T16:19:44.293Z</time></trkpt><trkpt lat="44.0080147" lon="7.9779673"><ele>485.0</ele><time>2026-04-10T16:19:45.295Z</time></trkpt><trkpt lat="44.0079369" lon="7.9780948"><ele>485.0</ele><time>2026-04-10T16:19:46.292Z</time></trkpt><trkpt lat="44.0078517" lon="7.9781894"><ele>485.0</ele><time>2026-04-10T16:19:47.294Z</time></trkpt><trkpt lat="44.0077544" lon="7.9782404"><ele>485.0</ele><time>2026-04-10T16:19:48.294Z</time></trkpt><trkpt lat="44.0076479" lon="7.9782535"><ele>485.0</ele><time>2026-04-10T16:19:49.292Z</time></trkpt><trkpt lat="44.007531" lon="7.9782544"><ele>485.0</ele><time>2026-04-10T16:19:50.294Z</time></trkpt><trkpt lat="44.0074168" lon="7.9782686"><ele>479.5</ele><time>2026-04-10T16:19:51.294Z</time></trkpt><trkpt lat="44.007309" lon="7.9783036"><ele>474.0</ele><time>2026-04-10T16:19:52.293Z</time></trkpt><trkpt lat="44.0072324" lon="7.9784073"><ele>468.5</ele><time>2026-04-10T16:19:53.293Z</time></trkpt><trkpt lat="44.0071656" lon="7.9785429"><ele>463.0</ele><time>2026-04-10T16:19:54.294Z</time></trkpt><trkpt lat="44.0071107" lon="7.9787164"><ele>463.0</ele><time>2026-04-10T16:19:55.292Z</time></trkpt><trkpt lat="44.0070712" lon="7.9789055"><ele>463.0</ele><time>2026-04-10T16:19:56.292Z</time></trkpt><trkpt lat="44.0070366" lon="7.9790956"><ele>463.0</ele><time>2026-04-10T16:19:57.293Z</time></trkpt><trkpt lat="44.0069883" lon="7.9792824"><ele>463.0</ele><time>2026-04-10T16:19:58.294Z</time></trkpt><trkpt lat="44.0069131" lon="7.9794771"><ele>469.33333333333337</ele><time>2026-04-10T16:19:59.293Z</time></trkpt><trkpt lat="44.0068351" lon="7.9796636"><ele>475.66666666666663</ele><time>2026-04-10T16:20:00.292Z</time></trkpt><trkpt lat="44.0067416" lon="7.9798246"><ele>482.0</ele><time>2026-04-10T16:20:01.293Z</time></trkpt><trkpt lat="44.0066409" lon="7.9799862"><ele>476.0</ele><time>2026-04-10T16:20:02.295Z</time></trkpt><trkpt lat="44.0065142" lon="7.9801184"><ele>470.0</ele><time>2026-04-10T16:20:03.293Z</time></trkpt><trkpt lat="44.0063969" lon="7.9802402"><ele>464.0</ele><time>2026-04-10T16:20:04.294Z</time></trkpt><trkpt lat="44.0062827" lon="7.9803519"><ele>458.0</ele><time>2026-04-10T16:20:05.293Z</time></trkpt><trkpt lat="44.0061748" lon="7.9804518"><ele>458.0</ele><time>2026-04-10T16:20:06.294Z</time></trkpt><trkpt lat="44.0060824" lon="7.9805581"><ele>457.99999999999994</ele><time>2026-04-10T16:20:07.293Z</time></trkpt><trkpt lat="44.0060141" lon="7.9806792"><ele>457.99999999999994</ele><time>2026-04-10T16:20:08.293Z</time></trkpt><trkpt lat="44.0059787" lon="7.9808169"><ele>458.0</ele><time>2026-04-10T16:20:09.293Z</time></trkpt><trkpt lat="44.0059802" lon="7.9809566"><ele>458.0</ele><time>2026-04-10T16:20:10.294Z</time></trkpt><trkpt lat="44.006018" lon="7.9810914"><ele>456.0</ele><time>2026-04-10T16:20:11.294Z</time></trkpt><trkpt lat="44.0060913" lon="7.9812315"><ele>454.0</ele><time>2026-04-10T16:20:12.293Z</time></trkpt><trkpt lat="44.006167" lon="7.9813772"><ele>452.0</ele><time>2026-04-10T16:20:13.293Z</time></trkpt><trkpt lat="44.0062237" lon="7.981561"><ele>450.0</ele><time>2026-04-10T16:20:14.293Z</time></trkpt><trkpt lat="44.0062582" lon="7.9817423"><ele>447.75</ele><time>2026-04-10T16:20:15.292Z</time></trkpt><trkpt lat="44.0062741" lon="7.9819372"><ele>445.5</ele><time>2026-04-10T16:20:16.293Z</time></trkpt><trkpt lat="44.0062766" lon="7.9821418"><ele>443.25</ele><time>2026-04-10T16:20:17.293Z</time></trkpt><trkpt lat="44.0062772" lon="7.9823468"><ele>441.0</ele><time>2026-04-10T16:20:18.294Z</time></trkpt><trkpt lat="44.0062762" lon="7.9825583"><ele>440.33333333333337</ele><time>2026-04-10T16:20:19.294Z</time></trkpt><trkpt lat="44.0062719" lon="7.9827827"><ele>439.6666666666667</ele><time>2026-04-10T16:20:20.294Z</time></trkpt><trkpt lat="44.0062681" lon="7.9830054"><ele>439.0</ele><time>2026-04-10T16:20:21.293Z</time></trkpt><trkpt lat="44.0062575" lon="7.9832161"><ele>442.25</ele><time>2026-04-10T16:20:22.293Z</time></trkpt><trkpt lat="44.0062475" lon="7.9834189"><ele>445.5</ele><time>2026-04-10T16:20:23.294Z</time></trkpt><trkpt lat="44.0062374" lon="7.9836114"><ele>448.75</ele><time>2026-04-10T16:20:24.293Z</time></trkpt><trkpt lat="44.0062179" lon="7.9837942"><ele>452.0</ele><time>2026-04-10T16:20:25.292Z</time></trkpt><trkpt lat="44.0061718" lon="7.9839489"><ele>452.0</ele><time>2026-04-10T16:20:26.295Z</time></trkpt><trkpt lat="44.0060925" lon="7.984078"><ele>452.0</ele><time>2026-04-10T16:20:27.294Z</time></trkpt><trkpt lat="44.0059895" lon="7.984194"><ele>452.0</ele><time>2026-04-10T16:20:28.292Z</time></trkpt><trkpt lat="44.0058739" lon="7.9843045"><ele>452.0</ele><time>2026-04-10T16:20:29.293Z</time></trkpt><trkpt lat="44.0057605" lon="7.9844049"><ele>457.20000000000005</ele><time>2026-04-10T16:20:30.294Z</time></trkpt><trkpt lat="44.0056558" lon="7.9844906"><ele>462.40000000000003</ele><time>2026-04-10T16:20:31.293Z</time></trkpt><trkpt lat="44.0055544" lon="7.9845587"><ele>467.59999999999997</ele><time>2026-04-10T16:20:32.293Z</time></trkpt><trkpt lat="44.0054574" lon="7.9845742"><ele>472.79999999999995</ele><time>2026-04-10T16:20:33.293Z</time></trkpt><trkpt lat="44.0053648" lon="7.9845705"><ele>478.0</ele><time>2026-04-10T16:20:34.294Z</time></trkpt><trkpt lat="44.0052714" lon="7.9844685"><ele>478.0</ele><time>2026-04-10T16:20:35.293Z</time></trkpt><trkpt lat="44.0051646" lon="7.9843612"><ele>478.0</ele><time>2026-04-10T16:20:36.293Z</time></trkpt><trkpt lat="44.005029" lon="7.9842284"><ele>478.0</ele><time>2026-04-10T16:20:37.293Z</time></trkpt><trkpt lat="44.0048689" lon="7.9840791"><ele>468.6666666666667</ele><time>2026-04-10T16:20:38.292Z</time></trkpt><trkpt lat="44.0047196" lon="7.983929"><ele>459.33333333333337</ele><time>2026-04-10T16:20:39.293Z</time></trkpt><trkpt lat="44.0045777" lon="7.9837927"><ele>450.0</ele><time>2026-04-10T16:20:40.294Z</time></trkpt><trkpt lat="44.0044499" lon="7.9836444"><ele>450.0</ele><time>2026-04-10T16:20:41.294Z</time></trkpt><trkpt lat="44.0043508" lon="7.983505"><ele>450.0</ele><time>2026-04-10T16:20:42.293Z</time></trkpt><trkpt lat="44.0042603" lon="7.9833758"><ele>450.0</ele><time>2026-04-10T16:20:43.293Z</time></trkpt><trkpt lat="44.0041672" lon="7.9832689"><ele>450.0</ele><time>2026-04-10T16:20:44.295Z</time></trkpt><trkpt lat="44.0040709" lon="7.9831955"><ele>447.25</ele><time>2026-04-10T16:20:45.293Z</time></trkpt><trkpt lat="44.0039649" lon="7.9831759"><ele>444.5</ele><time>2026-04-10T16:20:46.293Z</time></trkpt><trkpt lat="44.0038608" lon="7.9831965"><ele>441.75</ele><time>2026-04-10T16:20:47.293Z</time></trkpt><trkpt lat="44.0037441" lon="7.9832919"><ele>439.0</ele><time>2026-04-10T16:20:48.295Z</time></trkpt><trkpt lat="44.0036157" lon="7.9834074"><ele>439.0</ele><time>2026-04-10T16:20:49.293Z</time></trkpt><trkpt lat="44.0034846" lon="7.9835233"><ele>439.0</ele><time>2026-04-10T16:20:50.292Z</time></trkpt><trkpt lat="44.0033538" lon="7.9836323"><ele>439.0</ele><time>2026-04-10T16:20:51.293Z</time></trkpt><trkpt lat="44.003242" lon="7.98373"><ele>439.0</ele><time>2026-04-10T16:20:52.293Z</time></trkpt><trkpt lat="44.0031461" lon="7.9838106"><ele>437.79999999999995</ele><time>2026-04-10T16:20:53.293Z</time></trkpt><trkpt lat="44.0030561" lon="7.9838564"><ele>436.59999999999997</ele><time>2026-04-10T16:20:54.293Z</time></trkpt><trkpt lat="44.002969" lon="7.9838425"><ele>435.4</ele><time>2026-04-10T16:20:55.294Z</time></trkpt><trkpt lat="44.0028803" lon="7.9837704"><ele>434.2</ele><time>2026-04-10T16:20:56.293Z</time></trkpt><trkpt lat="44.0027736" lon="7.9836584"><ele>433.0</ele><time>2026-04-10T16:20:57.294Z</time></trkpt><trkpt lat="44.0026669" lon="7.9835447"><ele>433.0</ele><time>2026-04-10T16:20:58.294Z</time></trkpt><trkpt lat="44.0025655" lon="7.9834526"><ele>432.99999999999994</ele><time>2026-04-10T16:20:59.294Z</time></trkpt><trkpt lat="44.0024694" lon="7.9833837"><ele>432.99999999999994</ele><time>2026-04-10T16:21:00.294Z</time></trkpt><trkpt lat="44.0023825" lon="7.9833729"><ele>433.0</ele><time>2026-04-10T16:21:01.293Z</time></trkpt><trkpt lat="44.0023026" lon="7.9834071"><ele>433.0</ele><time>2026-04-10T16:21:02.293Z</time></trkpt><trkpt lat="44.0022462" lon="7.9834811"><ele>429.1666666666667</ele><time>2026-04-10T16:21:03.294Z</time></trkpt><trkpt lat="44.0022039" lon="7.9835659"><ele>425.33333333333337</ele><time>2026-04-10T16:21:04.293Z</time></trkpt><trkpt lat="44.0021891" lon="7.9836608"><ele>421.5</ele><time>2026-04-10T16:21:05.294Z</time></trkpt><trkpt lat="44.0022094" lon="7.9837992"><ele>417.66666666666663</ele><time>2026-04-10T16:21:07.293Z</time></trkpt><trkpt lat="44.002255" lon="7.9839244"><ele>413.8333333333333</ele><time>2026-04-10T16:21:09.294Z</time></trkpt><trkpt lat="44.0022539" lon="7.9840409"><ele>410.0</ele><time>2026-04-10T16:21:11.293Z</time></trkpt><trkpt lat="44.0022046" lon="7.9841049"><ele>410.0</ele><time>2026-04-10T16:21:12.293Z</time></trkpt><trkpt lat="44.0021532" lon="7.9842038"><ele>410.0</ele><time>2026-04-10T16:21:14.294Z</time></trkpt><trkpt lat="44.0022363" lon="7.9841868"><ele>410.0</ele><time>2026-04-10T16:21:18.294Z</time></trkpt><trkpt lat="44.0023445" lon="7.9841287"><ele>410.0</ele><time>2026-04-10T16:21:20.294Z</time></trkpt><trkpt lat="44.0024753" lon="7.9841619"><ele>410.0</ele><time>2026-04-10T16:21:22.292Z</time></trkpt><trkpt lat="44.002551" lon="7.9842238"><ele>418.0</ele><time>2026-04-10T16:21:23.294Z</time></trkpt><trkpt lat="44.0026313" lon="7.9843144"><ele>426.0</ele><time>2026-04-10T16:21:24.295Z</time></trkpt><trkpt lat="44.0027052" lon="7.9844048"><ele>434.0</ele><time>2026-04-10T16:21:25.295Z</time></trkpt><trkpt lat="44.0027577" lon="7.9844729"><ele>442.0</ele><time>2026-04-10T16:21:26.295Z</time></trkpt><trkpt lat="44.0027876" lon="7.9845794"><ele>450.0</ele><time>2026-04-10T16:21:28.293Z</time></trkpt><trkpt lat="44.0026834" lon="7.9845441"><ele>450.0</ele><time>2026-04-10T16:21:30.292Z</time></trkpt><trkpt lat="44.0026188" lon="7.9844961"><ele>450.0</ele><time>2026-04-10T16:21:31.293Z</time></trkpt><trkpt lat="44.0025506" lon="7.9844721"><ele>450.0</ele><time>2026-04-10T16:21:32.293Z</time></trkpt><trkpt lat="44.0024878" lon="7.9844598"><ele>450.0</ele><time>2026-04-10T16:21:33.295Z</time></trkpt><trkpt lat="44.0024266" lon="7.9844993"><ele>450.0</ele><time>2026-04-10T16:21:35.294Z</time></trkpt><trkpt lat="44.0023592" lon="7.9846179"><ele>450.0</ele><time>2026-04-10T16:21:52.294Z</time></trkpt><trkpt lat="44.0023056" lon="7.9848016"><ele>449.0</ele><time>2026-04-10T16:21:54.293Z</time></trkpt><trkpt lat="44.002274" lon="7.9848967"><ele>448.0</ele><time>2026-04-10T16:21:55.293Z</time></trkpt><trkpt lat="44.0022557" lon="7.9850049"><ele>447.0</ele><time>2026-04-10T16:21:56.293Z</time></trkpt><trkpt lat="44.0022315" lon="7.9851361"><ele>446.0</ele><time>2026-04-10T16:21:57.293Z</time></trkpt><trkpt lat="44.0021964" lon="7.9852646"><ele>445.0</ele><time>2026-04-10T16:21:58.293Z</time></trkpt><trkpt lat="44.0021572" lon="7.9853959"><ele>445.0</ele><time>2026-04-10T16:21:59.294Z</time></trkpt><trkpt lat="44.0021045" lon="7.9855341"><ele>445.0</ele><time>2026-04-10T16:22:00.293Z</time></trkpt><trkpt lat="44.0020693" lon="7.9856484"><ele>445.0</ele><time>2026-04-10T16:22:01.294Z</time></trkpt><trkpt lat="44.0020415" lon="7.9857747"><ele>445.0</ele><time>2026-04-10T16:22:02.295Z</time></trkpt><trkpt lat="44.0020162" lon="7.9858937"><ele>445.0</ele><time>2026-04-10T16:22:03.293Z</time></trkpt><trkpt lat="44.0019856" lon="7.9859971"><ele>448.2</ele><time>2026-04-10T16:22:04.294Z</time></trkpt><trkpt lat="44.001874" lon="7.9861106"><ele>451.4</ele><time>2026-04-10T16:22:06.294Z</time></trkpt><trkpt lat="44.0018241" lon="7.9861896"><ele>454.6</ele><time>2026-04-10T16:22:07.293Z</time></trkpt><trkpt lat="44.0017698" lon="7.9862963"><ele>457.8</ele><time>2026-04-10T16:22:08.295Z</time></trkpt><trkpt lat="44.0017287" lon="7.9864205"><ele>461.0</ele><time>2026-04-10T16:22:09.293Z</time></trkpt><trkpt lat="44.0016869" lon="7.9865234"><ele>459.66666666666663</ele><time>2026-04-10T16:22:10.294Z</time></trkpt><trkpt lat="44.0016424" lon="7.9866042"><ele>458.3333333333333</ele><time>2026-04-10T16:22:11.293Z</time></trkpt><trkpt lat="44.0015687" lon="7.9866803"><ele>457.0</ele><time>2026-04-10T16:22:12.293Z</time></trkpt><trkpt lat="44.0014936" lon="7.9867542"><ele>455.66666666666663</ele><time>2026-04-10T16:22:13.294Z</time></trkpt><trkpt lat="44.0014346" lon="7.9868177"><ele>454.3333333333333</ele><time>2026-04-10T16:22:14.295Z</time></trkpt><trkpt lat="44.001365" lon="7.9868812"><ele>453.0</ele><time>2026-04-10T16:22:15.294Z</time></trkpt><trkpt lat="44.001291" lon="7.9869538"><ele>456.5</ele><time>2026-04-10T16:22:16.293Z</time></trkpt><trkpt lat="44.0012285" lon="7.9870286"><ele>460.0</ele><time>2026-04-10T16:22:17.294Z</time></trkpt><trkpt lat="44.0011665" lon="7.9871231"><ele>463.5</ele><time>2026-04-10T16:22:18.3Z</time></trkpt><trkpt lat="44.0011118" lon="7.98722"><ele>467.0</ele><time>2026-04-10T16:22:19.293Z</time></trkpt><trkpt lat="44.0010613" lon="7.9873163"><ele>470.5</ele><time>2026-04-10T16:22:20.294Z</time></trkpt><trkpt lat="44.0010126" lon="7.9873819"><ele>474.0</ele><time>2026-04-10T16:22:21.3Z</time></trkpt><trkpt lat="44.0009221" lon="7.9873451"><ele>474.0</ele><time>2026-04-10T16:22:24.293Z</time></trkpt><trkpt lat="44.0009076" lon="7.9872495"><ele>474.0</ele><time>2026-04-10T16:22:25.295Z</time></trkpt><trkpt lat="44.0008737" lon="7.9871243"><ele>474.0</ele><time>2026-04-10T16:22:27.293Z</time></trkpt><trkpt lat="44.0007754" lon="7.9871532"><ele>474.0</ele><time>2026-04-10T16:22:30.293Z</time></trkpt><trkpt lat="44.0006876" lon="7.987244"><ele>474.0</ele><time>2026-04-10T16:22:32.294Z</time></trkpt><trkpt lat="44.000649" lon="7.9873613"><ele>473.3333333333333</ele><time>2026-04-10T16:22:34.293Z</time></trkpt><trkpt lat="44.0007086" lon="7.9874414"><ele>472.66666666666663</ele><time>2026-04-10T16:22:36.293Z</time></trkpt><trkpt lat="44.0006776" lon="7.987561"><ele>472.0</ele><time>2026-04-10T16:22:39.293Z</time></trkpt><trkpt lat="44.0006152" lon="7.9876239"><ele>471.3333333333333</ele><time>2026-04-10T16:22:40.294Z</time></trkpt><trkpt lat="44.0005589" lon="7.9876975"><ele>470.66666666666663</ele><time>2026-04-10T16:22:41.294Z</time></trkpt><trkpt lat="44.0005062" lon="7.9877682"><ele>470.0</ele><time>2026-04-10T16:22:42.293Z</time></trkpt><trkpt lat="44.0004707" lon="7.9878486"><ele>471.49999999999994</ele><time>2026-04-10T16:22:43.295Z</time></trkpt><trkpt lat="44.0004534" lon="7.9879362"><ele>473.0</ele><time>2026-04-10T16:22:44.293Z</time></trkpt><trkpt lat="44.0004626" lon="7.9880643"><ele>474.5</ele><time>2026-04-10T16:22:45.294Z</time></trkpt><trkpt lat="44.0004482" lon="7.9881672"><ele>476.0</ele><time>2026-04-10T16:22:46.293Z</time></trkpt><trkpt lat="44.0004186" lon="7.9882919"><ele>477.49999999999994</ele><time>2026-04-10T16:22:48.293Z</time></trkpt><trkpt lat="44.0003817" lon="7.9883914"><ele>479.0</ele><time>2026-04-10T16:22:52.293Z</time></trkpt><trkpt lat="44.0004465" lon="7.9883557"><ele>479.0</ele><time>2026-04-10T16:23:04.294Z</time></trkpt><trkpt lat="44.0005061" lon="7.9882568"><ele>479.0</ele><time>2026-04-10T16:23:06.294Z</time></trkpt><trkpt lat="44.0005283" lon="7.9883465"><ele>479.0</ele><time>2026-04-10T16:23:10.293Z</time></trkpt><trkpt lat="44.0005312" lon="7.9884941"><ele>479.0</ele><time>2026-04-10T16:23:12.293Z</time></trkpt><trkpt lat="44.0005689" lon="7.9886437"><ele>479.0</ele><time>2026-04-10T16:23:14.294Z</time></trkpt><trkpt lat="44.0005382" lon="7.9887606"><ele>481.2</ele><time>2026-04-10T16:23:16.295Z</time></trkpt><trkpt lat="44.0005346" lon="7.9888964"><ele>483.4</ele><time>2026-04-10T16:23:18.294Z</time></trkpt><trkpt lat="44.000619" lon="7.9888886"><ele>485.6</ele><time>2026-04-10T16:23:21.293Z</time></trkpt><trkpt lat="44.0006265" lon="7.9890083"><ele>487.8</ele><time>2026-04-10T16:23:25.293Z</time></trkpt><trkpt lat="44.0007143" lon="7.9889913"><ele>490.0</ele><time>2026-04-10T16:23:29.294Z</time></trkpt><trkpt lat="44.0007627" lon="7.9891481"><ele>493.2</ele><time>2026-04-10T16:23:33.295Z</time></trkpt><trkpt lat="44.000814" lon="7.9892722"><ele>496.4</ele><time>2026-04-10T16:23:35.294Z</time></trkpt><trkpt lat="44.0008912" lon="7.9892784"><ele>499.6</ele><time>2026-04-10T16:23:37.293Z</time></trkpt><trkpt lat="44.0008228" lon="7.9894197"><ele>502.8</ele><time>2026-04-10T16:23:42.294Z</time></trkpt><trkpt lat="44.0007897" lon="7.9895559"><ele>506.0</ele><time>2026-04-10T16:23:44.294Z</time></trkpt><trkpt lat="44.000786" lon="7.9896685"><ele>505.99999999999994</ele><time>2026-04-10T16:23:45.294Z</time></trkpt><trkpt lat="44.0007762" lon="7.9897723"><ele>506.0</ele><time>2026-04-10T16:23:46.294Z</time></trkpt><trkpt lat="44.0007717" lon="7.9898859"><ele>506.0</ele><time>2026-04-10T16:23:47.294Z</time></trkpt><trkpt lat="44.0007397" lon="7.9900124"><ele>506.0</ele><time>2026-04-10T16:23:48.294Z</time></trkpt><trkpt lat="44.0007219" lon="7.9901241"><ele>505.99999999999994</ele><time>2026-04-10T16:23:49.294Z</time></trkpt><trkpt lat="44.0007015" lon="7.9902226"><ele>506.0</ele><time>2026-04-10T16:23:50.294Z</time></trkpt><trkpt lat="44.0006355" lon="7.9903358"><ele>509.49999999999994</ele><time>2026-04-10T16:23:52.295Z</time></trkpt><trkpt lat="44.0005595" lon="7.9904299"><ele>513.0</ele><time>2026-04-10T16:23:54.295Z</time></trkpt><trkpt lat="44.0005109" lon="7.9905139"><ele>516.5</ele><time>2026-04-10T16:23:55.293Z</time></trkpt><trkpt lat="44.000467" lon="7.990592"><ele>520.0</ele><time>2026-04-10T16:23:56.294Z</time></trkpt><trkpt lat="44.0004325" lon="7.9907008"><ele>523.5</ele><time>2026-04-10T16:23:57.294Z</time></trkpt><trkpt lat="44.0004011" lon="7.9908396"><ele>527.0</ele><time>2026-04-10T16:23:58.294Z</time></trkpt><trkpt lat="44.0003639" lon="7.990956"><ele>530.0</ele><time>2026-04-10T16:23:59.293Z</time></trkpt><trkpt lat="44.0003362" lon="7.9910533"><ele>533.0</ele><time>2026-04-10T16:24:00.294Z</time></trkpt><trkpt lat="44.0003312" lon="7.9912021"><ele>536.0</ele><time>2026-04-10T16:24:02.294Z</time></trkpt><trkpt lat="44.0002875" lon="7.9913015"><ele>539.0</ele><time>2026-04-10T16:24:04.293Z</time></trkpt><trkpt lat="44.0002175" lon="7.991326"><ele>542.0</ele><time>2026-04-10T16:24:05.293Z</time></trkpt><trkpt lat="44.0001297" lon="7.9913428"><ele>545.0</ele><time>2026-04-10T16:24:06.294Z</time></trkpt><trkpt lat="44.0000477" lon="7.99137"><ele>545.0</ele><time>2026-04-10T16:24:07.293Z</time></trkpt><trkpt lat="43.9999775" lon="7.9914037"><ele>545.0</ele><time>2026-04-10T16:24:08.294Z</time></trkpt><trkpt lat="43.9998822" lon="7.9915163"><ele>545.0</ele><time>2026-04-10T16:24:10.293Z</time></trkpt><trkpt lat="43.9998416" lon="7.9916269"><ele>545.0</ele><time>2026-04-10T16:24:11.294Z</time></trkpt><trkpt lat="43.9998198" lon="7.9917123"><ele>545.0</ele><time>2026-04-10T16:24:13.295Z</time></trkpt><trkpt lat="43.9998838" lon="7.9918229"><ele>548.0</ele><time>2026-04-10T16:24:15.294Z</time></trkpt><trkpt lat="43.9999183" lon="7.9919307"><ele>551.0</ele><time>2026-04-10T16:24:17.294Z</time></trkpt><trkpt lat="43.9998297" lon="7.9919651"><ele>554.0</ele><time>2026-04-10T16:24:19.294Z</time></trkpt><trkpt lat="43.9997321" lon="7.9920483"><ele>557.0</ele><time>2026-04-10T16:24:21.293Z</time></trkpt><trkpt lat="43.9997263" lon="7.9921372"><ele>560.0</ele><time>2026-04-10T16:24:22.293Z</time></trkpt><trkpt lat="43.9996888" lon="7.992224"><ele>563.0</ele><time>2026-04-10T16:24:23.294Z</time></trkpt><trkpt lat="43.999625" lon="7.9923454"><ele>563.0</ele><time>2026-04-10T16:24:25.295Z</time></trkpt><trkpt lat="43.99957" lon="7.9924226"><ele>563.0</ele><time>2026-04-10T16:24:27.293Z</time></trkpt><trkpt lat="43.9994861" lon="7.9924648"><ele>563.0</ele><time>2026-04-10T16:24:29.294Z</time></trkpt><trkpt lat="43.9994221" lon="7.9924639"><ele>563.0</ele><time>2026-04-10T16:24:30.293Z</time></trkpt><trkpt lat="43.9993583" lon="7.9924752"><ele>563.0</ele><time>2026-04-10T16:24:31.293Z</time></trkpt><trkpt lat="43.9992606" lon="7.9925812"><ele>563.0</ele><time>2026-04-10T16:24:33.294Z</time></trkpt><trkpt lat="43.99922" lon="7.9926536"><ele>565.4</ele><time>2026-04-10T16:24:34.294Z</time></trkpt><trkpt lat="43.9991495" lon="7.9927442"><ele>567.8</ele><time>2026-04-10T16:24:36.293Z</time></trkpt><trkpt lat="43.9992476" lon="7.9927656"><ele>570.2</ele><time>2026-04-10T16:24:39.294Z</time></trkpt><trkpt lat="43.999343" lon="7.9927495"><ele>572.6</ele><time>2026-04-10T16:24:41.294Z</time></trkpt><trkpt lat="43.9993935" lon="7.9928273"><ele>575.0</ele><time>2026-04-10T16:24:44.294Z</time></trkpt><trkpt lat="43.9993065" lon="7.9928709"><ele>575.0</ele><time>2026-04-10T16:24:46.293Z</time></trkpt><trkpt lat="43.9992559" lon="7.9929294"><ele>575.0</ele><time>2026-04-10T16:24:47.294Z</time></trkpt><trkpt lat="43.9992027" lon="7.9930052"><ele>575.0</ele><time>2026-04-10T16:24:48.293Z</time></trkpt><trkpt lat="43.9991503" lon="7.9930725"><ele>575.0</ele><time>2026-04-10T16:24:49.294Z</time></trkpt><trkpt lat="43.9990269" lon="7.9930939"><ele>575.0</ele><time>2026-04-10T16:24:51.294Z</time></trkpt><trkpt lat="43.9989712" lon="7.9931383"><ele>575.0</ele><time>2026-04-10T16:24:54.294Z</time></trkpt><trkpt lat="43.9990583" lon="7.9932544"><ele>578.3333333333333</ele><time>2026-04-10T16:24:56.295Z</time></trkpt><trkpt lat="43.9991425" lon="7.9933444"><ele>581.6666666666666</ele><time>2026-04-10T16:24:58.295Z</time></trkpt><trkpt lat="43.9992149" lon="7.9933562"><ele>585.0</ele><time>2026-04-10T16:24:59.295Z</time></trkpt><trkpt lat="43.9993024" lon="7.9934573"><ele>588.3333333333334</ele><time>2026-04-10T16:25:01.294Z</time></trkpt><trkpt lat="43.999337" lon="7.9935375"><ele>591.6666666666667</ele><time>2026-04-10T16:25:02.294Z</time></trkpt><trkpt lat="43.9993754" lon="7.9936147"><ele>595.0</ele><time>2026-04-10T16:25:03.293Z</time></trkpt><trkpt lat="43.9993673" lon="7.9937399"><ele>595.0</ele><time>2026-04-10T16:25:05.294Z</time></trkpt><trkpt lat="43.9993119" lon="7.9938004"><ele>595.0</ele><time>2026-04-10T16:25:07.295Z</time></trkpt><trkpt lat="43.999196" lon="7.9937744"><ele>595.0</ele><time>2026-04-10T16:25:09.296Z</time></trkpt><trkpt lat="43.9991236" lon="7.9937638"><ele>595.0</ele><time>2026-04-10T16:25:10.293Z</time></trkpt><trkpt lat="43.9990607" lon="7.9937706"><ele>595.0</ele><time>2026-04-10T16:25:11.293Z</time></trkpt><trkpt lat="43.9990036" lon="7.9939084"><ele>595.0</ele><time>2026-04-10T16:25:13.294Z</time></trkpt><trkpt lat="43.9989999" lon="7.9940048"><ele>595.0</ele><time>2026-04-10T16:25:14.295Z</time></trkpt><trkpt lat="43.9990017" lon="7.9941055"><ele>595.0</ele><time>2026-04-10T16:25:15.296Z</time></trkpt><trkpt lat="43.9990028" lon="7.9942"><ele>595.0</ele><time>2026-04-10T16:25:16.295Z</time></trkpt><trkpt lat="43.9990119" lon="7.9942968"><ele>595.0</ele><time>2026-04-10T16:25:17.294Z</time></trkpt><trkpt lat="43.9990902" lon="7.9944319"><ele>595.0</ele><time>2026-04-10T16:25:19.294Z</time></trkpt><trkpt lat="43.9991421" lon="7.9944845"><ele>595.0</ele><time>2026-04-10T16:25:20.294Z</time></trkpt><trkpt lat="43.9992168" lon="7.9945156"><ele>604.0</ele><time>2026-04-10T16:25:21.294Z</time></trkpt><trkpt lat="43.9993128" lon="7.9945605"><ele>613.0</ele><time>2026-04-10T16:25:22.293Z</time></trkpt><trkpt lat="43.9994205" lon="7.9945877"><ele>622.0</ele><time>2026-04-10T16:25:23.294Z</time></trkpt><trkpt lat="43.9994984" lon="7.9945825"><ele>631.0</ele><time>2026-04-10T16:25:24.293Z</time></trkpt><trkpt lat="43.9995826" lon="7.9945587"><ele>640.0</ele><time>2026-04-10T16:25:26.294Z</time></trkpt><trkpt lat="43.9995331" lon="7.9946735"><ele>640.0</ele><time>2026-04-10T16:25:35.295Z</time></trkpt><trkpt lat="43.9994763" lon="7.9947316"><ele>640.0</ele><time>2026-04-10T16:26:47.293Z</time></trkpt><trkpt lat="43.9994118" lon="7.994775"><ele>640.0</ele><time>2026-04-10T16:26:49.295Z</time></trkpt><trkpt lat="43.9993497" lon="7.9948161"><ele>640.0</ele><time>2026-04-10T16:26:50.293Z</time></trkpt><trkpt lat="43.9992781" lon="7.9948897"><ele>640.0</ele><time>2026-04-10T16:26:51.294Z</time></trkpt><trkpt lat="43.9992061" lon="7.9949603"><ele>640.0</ele><time>2026-04-10T16:26:52.294Z</time></trkpt><trkpt lat="43.9991186" lon="7.9950028"><ele>639.6666666666667</ele><time>2026-04-10T16:26:53.293Z</time></trkpt><trkpt lat="43.9990377" lon="7.9950287"><ele>639.3333333333334</ele><time>2026-04-10T16:26:54.295Z</time></trkpt><trkpt lat="43.9989778" lon="7.9950634"><ele>639.0</ele><time>2026-04-10T16:26:55.295Z</time></trkpt><trkpt lat="43.9989253" lon="7.9951733"><ele>638.6666666666666</ele><time>2026-04-10T16:26:57.295Z</time></trkpt><trkpt lat="43.9989178" lon="7.995305"><ele>638.3333333333333</ele><time>2026-04-10T16:26:59.295Z</time></trkpt><trkpt lat="43.9988981" lon="7.9953954"><ele>638.0</ele><time>2026-04-10T16:27:01.294Z</time></trkpt><trkpt lat="43.9988591" lon="7.9955345"><ele>638.0</ele><time>2026-04-10T16:27:32.295Z</time></trkpt><trkpt lat="43.9988192" lon="7.9956177"><ele>638.0</ele><time>2026-04-10T16:27:34.295Z</time></trkpt><trkpt lat="43.998733" lon="7.9956055"><ele>638.0</ele><time>2026-04-10T16:27:38.295Z</time></trkpt><trkpt lat="43.9986826" lon="7.9955017"><ele>638.0</ele><time>2026-04-10T16:27:40.295Z</time></trkpt><trkpt lat="43.9986198" lon="7.9954552"><ele>638.0</ele><time>2026-04-10T16:27:44.294Z</time></trkpt><trkpt lat="43.9985493" lon="7.9954218"><ele>638.0</ele><time>2026-04-10T16:27:47.294Z</time></trkpt><trkpt lat="43.9984707" lon="7.9954646"><ele>638.0</ele><time>2026-04-10T16:27:50.294Z</time></trkpt><trkpt lat="43.998393" lon="7.9955027"><ele>638.0</ele><time>2026-04-10T16:27:53.295Z</time></trkpt><trkpt lat="43.9983301" lon="7.9955396"><ele>638.0</ele><time>2026-04-10T16:28:03.296Z</time></trkpt><trkpt lat="43.9982528" lon="7.9955367"><ele>638.0</ele><time>2026-04-10T16:28:18.294Z</time></trkpt><trkpt lat="43.9981948" lon="7.9955776"><ele>638.0</ele><time>2026-04-10T16:28:27.294Z</time></trkpt><trkpt lat="43.9981521" lon="7.9956451"><ele>638.0</ele><time>2026-04-10T16:28:30.295Z</time></trkpt><trkpt lat="43.9980933" lon="7.9956924"><ele>638.0</ele><time>2026-04-10T16:28:49.295Z</time></trkpt><trkpt lat="43.9980243" lon="7.9956411"><ele>635.4</ele><time>2026-04-10T16:29:04.296Z</time></trkpt><trkpt lat="43.9980048" lon="7.9955349"><ele>632.8</ele><time>2026-04-10T16:29:07.294Z</time></trkpt><trkpt lat="43.9979875" lon="7.9954433"><ele>630.2</ele><time>2026-04-10T16:29:09.293Z</time></trkpt><trkpt lat="43.9979117" lon="7.9953056"><ele>627.6</ele><time>2026-04-10T16:29:11.294Z</time></trkpt><trkpt lat="43.9978283" lon="7.9952244"><ele>625.0</ele><time>2026-04-10T16:29:13.294Z</time></trkpt><trkpt lat="43.997734" lon="7.9951977"><ele>625.0</ele><time>2026-04-10T16:29:15.293Z</time></trkpt><trkpt lat="43.9976637" lon="7.9952075"><ele>625.0</ele><time>2026-04-10T16:29:17.294Z</time></trkpt><trkpt lat="43.9975957" lon="7.9951926"><ele>625.0</ele><time>2026-04-10T16:29:19.294Z</time></trkpt><trkpt lat="43.9975932" lon="7.9950835"><ele>625.0</ele><time>2026-04-10T16:29:23.294Z</time></trkpt><trkpt lat="43.9976647" lon="7.9949189"><ele>625.0</ele><time>2026-04-10T16:29:41.293Z</time></trkpt><trkpt lat="43.9977065" lon="7.9947763"><ele>621.4</ele><time>2026-04-10T16:29:43.295Z</time></trkpt><trkpt lat="43.9977594" lon="7.9946108"><ele>617.8</ele><time>2026-04-10T16:29:45.293Z</time></trkpt><trkpt lat="43.997798" lon="7.9945377"><ele>614.2</ele><time>2026-04-10T16:29:46.295Z</time></trkpt><trkpt lat="43.9978459" lon="7.9943804"><ele>610.6</ele><time>2026-04-10T16:29:48.293Z</time></trkpt><trkpt lat="43.9978511" lon="7.9942737"><ele>607.0</ele><time>2026-04-10T16:29:49.294Z</time></trkpt><trkpt lat="43.9978677" lon="7.9941641"><ele>604.6666666666667</ele><time>2026-04-10T16:29:50.294Z</time></trkpt><trkpt lat="43.9978881" lon="7.9940716"><ele>602.3333333333334</ele><time>2026-04-10T16:29:51.295Z</time></trkpt><trkpt lat="43.9979345" lon="7.9939804"><ele>600.0</ele><time>2026-04-10T16:29:52.294Z</time></trkpt><trkpt lat="43.9979749" lon="7.9939104"><ele>597.6666666666666</ele><time>2026-04-10T16:29:53.294Z</time></trkpt><trkpt lat="43.9979685" lon="7.9938231"><ele>595.3333333333333</ele><time>2026-04-10T16:29:54.294Z</time></trkpt><trkpt lat="43.9979151" lon="7.9936946"><ele>593.0</ele><time>2026-04-10T16:29:56.296Z</time></trkpt><trkpt lat="43.9978567" lon="7.9936475"><ele>593.0</ele><time>2026-04-10T16:29:57.294Z</time></trkpt><trkpt lat="43.9977407" lon="7.9935607"><ele>593.0</ele><time>2026-04-10T16:29:59.296Z</time></trkpt><trkpt lat="43.9976792" lon="7.9934699"><ele>593.0</ele><time>2026-04-10T16:30:01.294Z</time></trkpt><trkpt lat="43.997683" lon="7.9933339"><ele>593.0</ele><time>2026-04-10T16:30:04.294Z</time></trkpt><trkpt lat="43.9977172" lon="7.9931511"><ele>590.5</ele><time>2026-04-10T16:30:06.295Z</time></trkpt><trkpt lat="43.9977237" lon="7.9930582"><ele>588.0</ele><time>2026-04-10T16:30:07.296Z</time></trkpt><trkpt lat="43.9976688" lon="7.9928982"><ele>585.5</ele><time>2026-04-10T16:30:09.295Z</time></trkpt><trkpt lat="43.9976357" lon="7.9927942"><ele>583.0</ele><time>2026-04-10T16:30:11.294Z</time></trkpt><trkpt lat="43.9977004" lon="7.9927978"><ele>580.5</ele><time>2026-04-10T16:30:14.294Z</time></trkpt><trkpt lat="43.9977461" lon="7.9928643"><ele>578.0</ele><time>2026-04-10T16:30:15.294Z</time></trkpt><trkpt lat="43.9977927" lon="7.9929493"><ele>578.0</ele><time>2026-04-10T16:30:16.294Z</time></trkpt><trkpt lat="43.9978409" lon="7.9930202"><ele>578.0</ele><time>2026-04-10T16:30:17.294Z</time></trkpt><trkpt lat="43.9979052" lon="7.9931149"><ele>578.0</ele><time>2026-04-10T16:30:19.295Z</time></trkpt><trkpt lat="43.9979687" lon="7.9931264"><ele>578.0</ele><time>2026-04-10T16:30:21.295Z</time></trkpt><trkpt lat="43.9980163" lon="7.9930265"><ele>578.0</ele><time>2026-04-10T16:30:24.295Z</time></trkpt><trkpt lat="43.9979637" lon="7.9928744"><ele>578.0</ele><time>2026-04-10T16:30:26.295Z</time></trkpt><trkpt lat="43.9979108" lon="7.9927316"><ele>578.0</ele><time>2026-04-10T16:30:28.294Z</time></trkpt><trkpt lat="43.9978897" lon="7.9926456"><ele>578.0</ele><time>2026-04-10T16:30:29.294Z</time></trkpt><trkpt lat="43.9978666" lon="7.9925331"><ele>578.0</ele><time>2026-04-10T16:30:30.295Z</time></trkpt><trkpt lat="43.9978436" lon="7.9924513"><ele>578.0</ele><time>2026-04-10T16:30:31.293Z</time></trkpt><trkpt lat="43.9977947" lon="7.9923781"><ele>578.0</ele><time>2026-04-10T16:30:32.294Z</time></trkpt><trkpt lat="43.997744" lon="7.9922648"><ele>578.0</ele><time>2026-04-10T16:30:34.295Z</time></trkpt><trkpt lat="43.9977363" lon="7.9921331"><ele>576.1999999999999</ele><time>2026-04-10T16:30:36.294Z</time></trkpt><trkpt lat="43.9977498" lon="7.9919777"><ele>574.4</ele><time>2026-04-10T16:30:37.294Z</time></trkpt><trkpt lat="43.9977514" lon="7.9918298"><ele>572.5999999999999</ele><time>2026-04-10T16:30:38.294Z</time></trkpt><trkpt lat="43.9977586" lon="7.9916584"><ele>570.8</ele><time>2026-04-10T16:30:39.296Z</time></trkpt><trkpt lat="43.9977827" lon="7.9915157"><ele>569.0</ele><time>2026-04-10T16:30:40.296Z</time></trkpt><trkpt lat="43.9977917" lon="7.9913767"><ele>567.6666666666666</ele><time>2026-04-10T16:30:41.294Z</time></trkpt><trkpt lat="43.9978214" lon="7.9912643"><ele>566.3333333333333</ele><time>2026-04-10T16:30:42.293Z</time></trkpt><trkpt lat="43.9978276" lon="7.9911479"><ele>565.0</ele><time>2026-04-10T16:30:43.294Z</time></trkpt><trkpt lat="43.9978187" lon="7.9910498"><ele>563.6666666666666</ele><time>2026-04-10T16:30:44.296Z</time></trkpt><trkpt lat="43.9978225" lon="7.9909346"><ele>562.3333333333334</ele><time>2026-04-10T16:30:45.294Z</time></trkpt><trkpt lat="43.9978202" lon="7.9908208"><ele>561.0</ele><time>2026-04-10T16:30:46.294Z</time></trkpt><trkpt lat="43.9978225" lon="7.9907007"><ele>560.0</ele><time>2026-04-10T16:30:47.295Z</time></trkpt><trkpt lat="43.9978316" lon="7.9905685"><ele>559.0</ele><time>2026-04-10T16:30:48.294Z</time></trkpt><trkpt lat="43.9978589" lon="7.9904651"><ele>558.0</ele><time>2026-04-10T16:30:49.295Z</time></trkpt><trkpt lat="43.997905" lon="7.9903663"><ele>557.0</ele><time>2026-04-10T16:30:50.294Z</time></trkpt><trkpt lat="43.9979595" lon="7.9902625"><ele>556.0</ele><time>2026-04-10T16:30:51.294Z</time></trkpt><trkpt lat="43.9980189" lon="7.9901686"><ele>555.0</ele><time>2026-04-10T16:30:52.295Z</time></trkpt><trkpt lat="43.9980874" lon="7.9900729"><ele>555.6666666666666</ele><time>2026-04-10T16:30:53.294Z</time></trkpt><trkpt lat="43.9981442" lon="7.989992"><ele>556.3333333333334</ele><time>2026-04-10T16:30:54.294Z</time></trkpt><trkpt lat="43.9982086" lon="7.9899252"><ele>557.0</ele><time>2026-04-10T16:30:55.294Z</time></trkpt><trkpt lat="43.9982773" lon="7.9898645"><ele>557.6666666666667</ele><time>2026-04-10T16:30:56.295Z</time></trkpt><trkpt lat="43.9983455" lon="7.9898283"><ele>558.3333333333334</ele><time>2026-04-10T16:30:57.295Z</time></trkpt><trkpt lat="43.9984488" lon="7.9897587"><ele>559.0</ele><time>2026-04-10T16:30:59.294Z</time></trkpt><trkpt lat="43.998444" lon="7.9896243"><ele>559.4</ele><time>2026-04-10T16:31:01.295Z</time></trkpt><trkpt lat="43.9984264" lon="7.9895275"><ele>559.8</ele><time>2026-04-10T16:31:02.294Z</time></trkpt><trkpt lat="43.9983881" lon="7.9894137"><ele>560.2</ele><time>2026-04-10T16:31:03.295Z</time></trkpt><trkpt lat="43.9983401" lon="7.9892545"><ele>560.6</ele><time>2026-04-10T16:31:04.295Z</time></trkpt><trkpt lat="43.998297" lon="7.9891078"><ele>561.0</ele><time>2026-04-10T16:31:05.295Z</time></trkpt><trkpt lat="43.99828" lon="7.9889677"><ele>561.0</ele><time>2026-04-10T16:31:06.295Z</time></trkpt><trkpt lat="43.9982566" lon="7.9888405"><ele>561.0</ele><time>2026-04-10T16:31:07.294Z</time></trkpt><trkpt lat="43.9982276" lon="7.9887248"><ele>561.0</ele><time>2026-04-10T16:31:08.294Z</time></trkpt><trkpt lat="43.9981584" lon="7.9886401"><ele>561.0</ele><time>2026-04-10T16:31:09.294Z</time></trkpt><trkpt lat="43.9980978" lon="7.988543"><ele>561.0</ele><time>2026-04-10T16:31:10.295Z</time></trkpt><trkpt lat="43.9980255" lon="7.9884348"><ele>558.8</ele><time>2026-04-10T16:31:11.295Z</time></trkpt><trkpt lat="43.9979773" lon="7.9883247"><ele>556.6</ele><time>2026-04-10T16:31:12.294Z</time></trkpt><trkpt lat="43.9979392" lon="7.9882012"><ele>554.4</ele><time>2026-04-10T16:31:13.293Z</time></trkpt><trkpt lat="43.9979048" lon="7.9880803"><ele>552.2</ele><time>2026-04-10T16:31:14.294Z</time></trkpt><trkpt lat="43.9978551" lon="7.9879708"><ele>550.0</ele><time>2026-04-10T16:31:15.295Z</time></trkpt><trkpt lat="43.9978071" lon="7.9878722"><ele>550.0</ele><time>2026-04-10T16:31:16.295Z</time></trkpt><trkpt lat="43.9977531" lon="7.9877633"><ele>550.0</ele><time>2026-04-10T16:31:17.294Z</time></trkpt><trkpt lat="43.9977004" lon="7.9876543"><ele>550.0</ele><time>2026-04-10T16:31:18.294Z</time></trkpt><trkpt lat="43.997667" lon="7.9875244"><ele>550.0</ele><time>2026-04-10T16:31:19.294Z</time></trkpt><trkpt lat="43.9976291" lon="7.9874156"><ele>550.0</ele><time>2026-04-10T16:31:20.294Z</time></trkpt><trkpt lat="43.9976104" lon="7.9873037"><ele>551.8333333333334</ele><time>2026-04-10T16:31:21.295Z</time></trkpt><trkpt lat="43.9975553" lon="7.9872158"><ele>553.6666666666667</ele><time>2026-04-10T16:31:22.295Z</time></trkpt><trkpt lat="43.9974904" lon="7.9871378"><ele>555.5</ele><time>2026-04-10T16:31:23.295Z</time></trkpt><trkpt lat="43.9974177" lon="7.9870484"><ele>557.3333333333334</ele><time>2026-04-10T16:31:24.294Z</time></trkpt><trkpt lat="43.9973425" lon="7.9869734"><ele>559.1666666666666</ele><time>2026-04-10T16:31:25.295Z</time></trkpt><trkpt lat="43.9972688" lon="7.9869081"><ele>561.0</ele><time>2026-04-10T16:31:26.295Z</time></trkpt><trkpt lat="43.9971965" lon="7.9868507"><ele>561.0</ele><time>2026-04-10T16:31:27.295Z</time></trkpt><trkpt lat="43.9971316" lon="7.9867846"><ele>561.0</ele><time>2026-04-10T16:31:28.294Z</time></trkpt><trkpt lat="43.9970746" lon="7.9866666"><ele>561.0</ele><time>2026-04-10T16:31:30.295Z</time></trkpt><trkpt lat="43.9971279" lon="7.9864823"><ele>561.0</ele><time>2026-04-10T16:31:32.295Z</time></trkpt><trkpt lat="43.9971469" lon="7.986358"><ele>561.0</ele><time>2026-04-10T16:31:33.294Z</time></trkpt><trkpt lat="43.9971684" lon="7.9862349"><ele>558.6666666666666</ele><time>2026-04-10T16:31:34.294Z</time></trkpt><trkpt lat="43.997197" lon="7.9861264"><ele>556.3333333333334</ele><time>2026-04-10T16:31:35.294Z</time></trkpt><trkpt lat="43.9972007" lon="7.9860285"><ele>554.0</ele><time>2026-04-10T16:31:36.295Z</time></trkpt><trkpt lat="43.9971653" lon="7.9858901"><ele>551.6666666666667</ele><time>2026-04-10T16:31:38.296Z</time></trkpt><trkpt lat="43.9971114" lon="7.9858149"><ele>549.3333333333334</ele><time>2026-04-10T16:31:39.294Z</time></trkpt><trkpt lat="43.9970475" lon="7.9857508"><ele>547.0</ele><time>2026-04-10T16:31:40.294Z</time></trkpt><trkpt lat="43.9969736" lon="7.9856193"><ele>543.0</ele><time>2026-04-10T16:31:41.295Z</time></trkpt><trkpt lat="43.996908" lon="7.9854813"><ele>539.0</ele><time>2026-04-10T16:31:42.295Z</time></trkpt><trkpt lat="43.9968404" lon="7.9853405"><ele>535.0</ele><time>2026-04-10T16:31:43.294Z</time></trkpt><trkpt lat="43.9967836" lon="7.9852075"><ele>531.0</ele><time>2026-04-10T16:31:44.294Z</time></trkpt><trkpt lat="43.9967171" lon="7.9850992"><ele>533.1666666666666</ele><time>2026-04-10T16:31:45.295Z</time></trkpt><trkpt lat="43.9966719" lon="7.9850057"><ele>535.3333333333334</ele><time>2026-04-10T16:31:46.295Z</time></trkpt><trkpt lat="43.9966699" lon="7.9849154"><ele>537.5</ele><time>2026-04-10T16:31:47.295Z</time></trkpt><trkpt lat="43.996661" lon="7.984801"><ele>539.6666666666667</ele><time>2026-04-10T16:31:48.295Z</time></trkpt><trkpt lat="43.9966447" lon="7.9846599"><ele>541.8333333333334</ele><time>2026-04-10T16:31:49.295Z</time></trkpt><trkpt lat="43.9966216" lon="7.9845268"><ele>544.0</ele><time>2026-04-10T16:31:50.295Z</time></trkpt><trkpt lat="43.9965964" lon="7.9844056"><ele>544.0</ele><time>2026-04-10T16:31:51.294Z</time></trkpt><trkpt lat="43.9965657" lon="7.9843087"><ele>544.0</ele><time>2026-04-10T16:31:52.296Z</time></trkpt><trkpt lat="43.9965264" lon="7.9842101"><ele>544.0</ele><time>2026-04-10T16:31:53.294Z</time></trkpt><trkpt lat="43.9964638" lon="7.9841253"><ele>544.0</ele><time>2026-04-10T16:31:54.295Z</time></trkpt><trkpt lat="43.9963672" lon="7.9840584"><ele>544.0</ele><time>2026-04-10T16:31:55.296Z</time></trkpt><trkpt lat="43.9962777" lon="7.9840103"><ele>544.0</ele><time>2026-04-10T16:31:56.295Z</time></trkpt><trkpt lat="43.9961984" lon="7.9839768"><ele>542.6</ele><time>2026-04-10T16:31:57.295Z</time></trkpt><trkpt lat="43.9961137" lon="7.98397"><ele>541.2</ele><time>2026-04-10T16:31:58.295Z</time></trkpt><trkpt lat="43.9960189" lon="7.9840249"><ele>539.8000000000001</ele><time>2026-04-10T16:31:59.295Z</time></trkpt><trkpt lat="43.9959238" lon="7.9840741"><ele>538.4</ele><time>2026-04-10T16:32:00.295Z</time></trkpt><trkpt lat="43.9958351" lon="7.9841243"><ele>537.0</ele><time>2026-04-10T16:32:01.295Z</time></trkpt><trkpt lat="43.9957515" lon="7.9841744"><ele>540.8000000000001</ele><time>2026-04-10T16:32:02.296Z</time></trkpt><trkpt lat="43.9956958" lon="7.9842532"><ele>544.6</ele><time>2026-04-10T16:32:03.294Z</time></trkpt><trkpt lat="43.9956417" lon="7.9843265"><ele>548.4000000000001</ele><time>2026-04-10T16:32:04.295Z</time></trkpt><trkpt lat="43.9955951" lon="7.984397"><ele>552.2</ele><time>2026-04-10T16:32:05.295Z</time></trkpt><trkpt lat="43.9955098" lon="7.9844473"><ele>556.0</ele><time>2026-04-10T16:32:07.295Z</time></trkpt><trkpt lat="43.9953694" lon="7.9843432"><ele>556.0</ele><time>2026-04-10T16:32:09.295Z</time></trkpt><trkpt lat="43.9952901" lon="7.9842634"><ele>556.0</ele><time>2026-04-10T16:32:10.294Z</time></trkpt><trkpt lat="43.9952046" lon="7.98417"><ele>556.0</ele><time>2026-04-10T16:32:11.294Z</time></trkpt><trkpt lat="43.9951246" lon="7.9840977"><ele>556.0</ele><time>2026-04-10T16:32:12.294Z</time></trkpt><trkpt lat="43.9950558" lon="7.9840354"><ele>556.0</ele><time>2026-04-10T16:32:13.294Z</time></trkpt><trkpt lat="43.9949581" lon="7.9840293"><ele>556.1666666666667</ele><time>2026-04-10T16:32:15.295Z</time></trkpt><trkpt lat="43.9948716" lon="7.9840794"><ele>556.3333333333334</ele><time>2026-04-10T16:32:16.294Z</time></trkpt><trkpt lat="43.9947907" lon="7.9841409"><ele>556.5</ele><time>2026-04-10T16:32:17.294Z</time></trkpt><trkpt lat="43.9947252" lon="7.9841924"><ele>556.6666666666666</ele><time>2026-04-10T16:32:18.297Z</time></trkpt><trkpt lat="43.9946626" lon="7.9842296"><ele>556.8333333333333</ele><time>2026-04-10T16:32:19.295Z</time></trkpt><trkpt lat="43.9945603" lon="7.9841693"><ele>557.0</ele><time>2026-04-10T16:32:21.295Z</time></trkpt><trkpt lat="43.9944727" lon="7.9840588"><ele>554.4</ele><time>2026-04-10T16:32:22.296Z</time></trkpt><trkpt lat="43.9943939" lon="7.9839613"><ele>551.8000000000001</ele><time>2026-04-10T16:32:23.295Z</time></trkpt><trkpt lat="43.994311" lon="7.9838815"><ele>549.2</ele><time>2026-04-10T16:32:24.295Z</time></trkpt><trkpt lat="43.9942315" lon="7.9837942"><ele>546.6</ele><time>2026-04-10T16:32:25.295Z</time></trkpt><trkpt lat="43.9941553" lon="7.9837221"><ele>544.0</ele><time>2026-04-10T16:32:26.295Z</time></trkpt><trkpt lat="43.9940667" lon="7.983674"><ele>544.0</ele><time>2026-04-10T16:32:27.294Z</time></trkpt><trkpt lat="43.9939653" lon="7.9836758"><ele>544.0</ele><time>2026-04-10T16:32:28.295Z</time></trkpt><trkpt lat="43.9938608" lon="7.9836681"><ele>544.0</ele><time>2026-04-10T16:32:29.294Z</time></trkpt><trkpt lat="43.9937577" lon="7.9836479"><ele>544.0</ele><time>2026-04-10T16:32:30.296Z</time></trkpt><trkpt lat="43.9936588" lon="7.9836045"><ele>544.0</ele><time>2026-04-10T16:32:31.296Z</time></trkpt><trkpt lat="43.9935647" lon="7.9835671"><ele>544.0</ele><time>2026-04-10T16:32:32.296Z</time></trkpt><trkpt lat="43.9935023" lon="7.9834949"><ele>544.0</ele><time>2026-04-10T16:32:33.296Z</time></trkpt><trkpt lat="43.9934789" lon="7.9833494"><ele>544.0</ele><time>2026-04-10T16:32:35.294Z</time></trkpt><trkpt lat="43.9934809" lon="7.9832301"><ele>544.0</ele><time>2026-04-10T16:32:36.294Z</time></trkpt><trkpt lat="43.9934938" lon="7.9831092"><ele>544.0</ele><time>2026-04-10T16:32:37.296Z</time></trkpt><trkpt lat="43.9935062" lon="7.982969"><ele>539.8</ele><time>2026-04-10T16:32:38.295Z</time></trkpt><trkpt lat="43.993523" lon="7.9828288"><ele>535.5999999999999</ele><time>2026-04-10T16:32:39.295Z</time></trkpt><trkpt lat="43.993535" lon="7.9826683"><ele>531.4</ele><time>2026-04-10T16:32:40.294Z</time></trkpt><trkpt lat="43.9935442" lon="7.9825089"><ele>527.1999999999999</ele><time>2026-04-10T16:32:41.295Z</time></trkpt><trkpt lat="43.9935556" lon="7.9823639"><ele>523.0</ele><time>2026-04-10T16:32:42.295Z</time></trkpt><trkpt lat="43.993564" lon="7.982243"><ele>525.4</ele><time>2026-04-10T16:32:43.295Z</time></trkpt><trkpt lat="43.9935621" lon="7.9821223"><ele>527.8</ele><time>2026-04-10T16:32:44.295Z</time></trkpt><trkpt lat="43.9935136" lon="7.9820064"><ele>530.2</ele><time>2026-04-10T16:32:45.294Z</time></trkpt><trkpt lat="43.9934774" lon="7.9819073"><ele>532.6</ele><time>2026-04-10T16:32:46.295Z</time></trkpt><trkpt lat="43.9933744" lon="7.9818461"><ele>535.0</ele><time>2026-04-10T16:32:48.296Z</time></trkpt><trkpt lat="43.9932667" lon="7.9819166"><ele>535.0</ele><time>2026-04-10T16:32:50.295Z</time></trkpt><trkpt lat="43.9932078" lon="7.9819851"><ele>535.0</ele><time>2026-04-10T16:32:51.295Z</time></trkpt><trkpt lat="43.9931467" lon="7.9821173"><ele>535.0</ele><time>2026-04-10T16:32:52.294Z</time></trkpt><trkpt lat="43.9930938" lon="7.9822145"><ele>535.0</ele><time>2026-04-10T16:32:53.296Z</time></trkpt><trkpt lat="43.9930505" lon="7.9822832"><ele>535.0</ele><time>2026-04-10T16:32:54.295Z</time></trkpt><trkpt lat="43.9929004" lon="7.9822994"><ele>535.0</ele><time>2026-04-10T16:32:56.295Z</time></trkpt><trkpt lat="43.9928177" lon="7.9823092"><ele>535.0</ele><time>2026-04-10T16:32:57.296Z</time></trkpt><trkpt lat="43.9927373" lon="7.9823038"><ele>535.0</ele><time>2026-04-10T16:32:58.295Z</time></trkpt><trkpt lat="43.9926683" lon="7.9822896"><ele>535.0</ele><time>2026-04-10T16:32:59.295Z</time></trkpt><trkpt lat="43.992608" lon="7.9822434"><ele>535.0</ele><time>2026-04-10T16:33:00.294Z</time></trkpt><trkpt lat="43.9925416" lon="7.9821647"><ele>535.0</ele><time>2026-04-10T16:33:01.296Z</time></trkpt><trkpt lat="43.992487" lon="7.9820804"><ele>537.2</ele><time>2026-04-10T16:33:02.294Z</time></trkpt><trkpt lat="43.9924334" lon="7.9819871"><ele>539.4</ele><time>2026-04-10T16:33:03.294Z</time></trkpt><trkpt lat="43.9923846" lon="7.9818753"><ele>541.6</ele><time>2026-04-10T16:33:04.294Z</time></trkpt><trkpt lat="43.9923466" lon="7.9817543"><ele>543.8</ele><time>2026-04-10T16:33:05.295Z</time></trkpt><trkpt lat="43.9923202" lon="7.9816297"><ele>546.0</ele><time>2026-04-10T16:33:06.294Z</time></trkpt><trkpt lat="43.9923107" lon="7.9815055"><ele>541.4</ele><time>2026-04-10T16:33:07.294Z</time></trkpt><trkpt lat="43.9923064" lon="7.9813844"><ele>536.8</ele><time>2026-04-10T16:33:08.294Z</time></trkpt><trkpt lat="43.992306" lon="7.9812634"><ele>532.1999999999999</ele><time>2026-04-10T16:33:09.294Z</time></trkpt><trkpt lat="43.9922863" lon="7.9811219"><ele>527.6</ele><time>2026-04-10T16:33:10.296Z</time></trkpt><trkpt lat="43.9922545" lon="7.9809798"><ele>523.0</ele><time>2026-04-10T16:33:11.294Z</time></trkpt><trkpt lat="43.9922271" lon="7.98084"><ele>519.0</ele><time>2026-04-10T16:33:12.295Z</time></trkpt><trkpt lat="43.9921861" lon="7.9806817"><ele>515.0</ele><time>2026-04-10T16:33:13.295Z</time></trkpt><trkpt lat="43.9921529" lon="7.9805289"><ele>510.99999999999994</ele><time>2026-04-10T16:33:14.296Z</time></trkpt><trkpt lat="43.9921165" lon="7.980388"><ele>507.0</ele><time>2026-04-10T16:33:15.295Z</time></trkpt><trkpt lat="43.9920742" lon="7.9802579"><ele>503.0</ele><time>2026-04-10T16:33:16.295Z</time></trkpt><trkpt lat="43.9920272" lon="7.9801445"><ele>503.0</ele><time>2026-04-10T16:33:17.294Z</time></trkpt><trkpt lat="43.9919738" lon="7.9800384"><ele>502.99999999999994</ele><time>2026-04-10T16:33:18.295Z</time></trkpt><trkpt lat="43.9919064" lon="7.9799437"><ele>502.99999999999994</ele><time>2026-04-10T16:33:19.295Z</time></trkpt><trkpt lat="43.9918299" lon="7.9798552"><ele>503.0</ele><time>2026-04-10T16:33:20.296Z</time></trkpt><trkpt lat="43.991739" lon="7.9797853"><ele>503.0</ele><time>2026-04-10T16:33:21.295Z</time></trkpt><trkpt lat="43.9916408" lon="7.9797256"><ele>503.75</ele><time>2026-04-10T16:33:22.295Z</time></trkpt><trkpt lat="43.9915361" lon="7.9796701"><ele>504.5</ele><time>2026-04-10T16:33:23.296Z</time></trkpt><trkpt lat="43.9914172" lon="7.9796527"><ele>505.25</ele><time>2026-04-10T16:33:24.296Z</time></trkpt><trkpt lat="43.9912932" lon="7.9796339"><ele>506.0</ele><time>2026-04-10T16:33:25.294Z</time></trkpt><trkpt lat="43.9911698" lon="7.9796018"><ele>506.0</ele><time>2026-04-10T16:33:26.297Z</time></trkpt><trkpt lat="43.9910662" lon="7.9795591"><ele>506.0</ele><time>2026-04-10T16:33:27.296Z</time></trkpt><trkpt lat="43.9909669" lon="7.9795086"><ele>506.0</ele><time>2026-04-10T16:33:28.295Z</time></trkpt><trkpt lat="43.9908669" lon="7.9794392"><ele>506.0</ele><time>2026-04-10T16:33:29.295Z</time></trkpt><trkpt lat="43.9907671" lon="7.9793723"><ele>506.0</ele><time>2026-04-10T16:33:30.294Z</time></trkpt><trkpt lat="43.9906764" lon="7.9793129"><ele>509.6</ele><time>2026-04-10T16:33:31.295Z</time></trkpt><trkpt lat="43.9905864" lon="7.9792653"><ele>513.2</ele><time>2026-04-10T16:33:32.294Z</time></trkpt><trkpt lat="43.9904935" lon="7.9792221"><ele>516.8</ele><time>2026-04-10T16:33:33.295Z</time></trkpt><trkpt lat="43.9904049" lon="7.9791876"><ele>520.4</ele><time>2026-04-10T16:33:34.295Z</time></trkpt><trkpt lat="43.9903145" lon="7.9791695"><ele>524.0</ele><time>2026-04-10T16:33:35.294Z</time></trkpt><trkpt lat="43.990222" lon="7.9791349"><ele>519.0</ele><time>2026-04-10T16:33:36.295Z</time></trkpt><trkpt lat="43.9901412" lon="7.9790727"><ele>514.0</ele><time>2026-04-10T16:33:37.295Z</time></trkpt><trkpt lat="43.9900521" lon="7.9790315"><ele>509.0</ele><time>2026-04-10T16:33:38.294Z</time></trkpt><trkpt lat="43.9899696" lon="7.9790096"><ele>504.0</ele><time>2026-04-10T16:33:39.296Z</time></trkpt><trkpt lat="43.9898879" lon="7.9789893"><ele>498.99999999999994</ele><time>2026-04-10T16:33:40.296Z</time></trkpt><trkpt lat="43.9898042" lon="7.9789786"><ele>494.0</ele><time>2026-04-10T16:33:41.294Z</time></trkpt><trkpt lat="43.989718" lon="7.9789615"><ele>494.0</ele><time>2026-04-10T16:33:42.294Z</time></trkpt><trkpt lat="43.9896359" lon="7.9789129"><ele>494.0</ele><time>2026-04-10T16:33:43.295Z</time></trkpt><trkpt lat="43.9895449" lon="7.9788676"><ele>494.0</ele><time>2026-04-10T16:33:44.294Z</time></trkpt><trkpt lat="43.9894519" lon="7.9788286"><ele>494.0</ele><time>2026-04-10T16:33:45.295Z</time></trkpt><trkpt lat="43.9893409" lon="7.9787645"><ele>494.0</ele><time>2026-04-10T16:33:46.296Z</time></trkpt><trkpt lat="43.9892577" lon="7.9786901"><ele>494.0</ele><time>2026-04-10T16:33:47.296Z</time></trkpt><trkpt lat="43.9891879" lon="7.9786174"><ele>494.0</ele><time>2026-04-10T16:33:48.295Z</time></trkpt><trkpt lat="43.9891094" lon="7.9785543"><ele>494.0</ele><time>2026-04-10T16:33:49.296Z</time></trkpt><trkpt lat="43.9890269" lon="7.9785186"><ele>494.0</ele><time>2026-04-10T16:33:50.295Z</time></trkpt><trkpt lat="43.9889289" lon="7.9784934"><ele>494.0</ele><time>2026-04-10T16:33:51.295Z</time></trkpt><trkpt lat="43.988831" lon="7.978479"><ele>494.0</ele><time>2026-04-10T16:33:52.295Z</time></trkpt><trkpt lat="43.9887285" lon="7.9784691"><ele>494.0</ele><time>2026-04-10T16:33:53.294Z</time></trkpt><trkpt lat="43.9886242" lon="7.9784844"><ele>494.0</ele><time>2026-04-10T16:33:54.296Z</time></trkpt><trkpt lat="43.9885225" lon="7.9785075"><ele>494.0</ele><time>2026-04-10T16:33:55.295Z</time></trkpt><trkpt lat="43.9884228" lon="7.9785368"><ele>494.0</ele><time>2026-04-10T16:33:56.295Z</time></trkpt><trkpt lat="43.9883178" lon="7.9785583"><ele>491.79999999999995</ele><time>2026-04-10T16:33:57.294Z</time></trkpt><trkpt lat="43.9882188" lon="7.9785901"><ele>489.59999999999997</ele><time>2026-04-10T16:33:58.294Z</time></trkpt><trkpt lat="43.9881193" lon="7.9786198"><ele>487.4</ele><time>2026-04-10T16:33:59.295Z</time></trkpt><trkpt lat="43.988017" lon="7.9786478"><ele>485.2</ele><time>2026-04-10T16:34:00.295Z</time></trkpt><trkpt lat="43.9879152" lon="7.9786893"><ele>483.0</ele><time>2026-04-10T16:34:01.294Z</time></trkpt><trkpt lat="43.9878113" lon="7.9787458"><ele>483.0</ele><time>2026-04-10T16:34:02.296Z</time></trkpt><trkpt lat="43.9877063" lon="7.9788036"><ele>483.0</ele><time>2026-04-10T16:34:03.294Z</time></trkpt><trkpt lat="43.9875969" lon="7.9788533"><ele>483.0</ele><time>2026-04-10T16:34:04.295Z</time></trkpt><trkpt lat="43.9874687" lon="7.9788997"><ele>483.0</ele><time>2026-04-10T16:34:05.295Z</time></trkpt><trkpt lat="43.9873271" lon="7.9789422"><ele>478.5</ele><time>2026-04-10T16:34:06.295Z</time></trkpt><trkpt lat="43.987203" lon="7.978986"><ele>474.0</ele><time>2026-04-10T16:34:07.295Z</time></trkpt><trkpt lat="43.9870834" lon="7.9790365"><ele>469.5</ele><time>2026-04-10T16:34:08.295Z</time></trkpt><trkpt lat="43.9869557" lon="7.9790957"><ele>465.0</ele><time>2026-04-10T16:34:09.295Z</time></trkpt><trkpt lat="43.9868217" lon="7.9791689"><ele>469.66666666666663</ele><time>2026-04-10T16:34:10.296Z</time></trkpt><trkpt lat="43.9866768" lon="7.9792347"><ele>474.3333333333333</ele><time>2026-04-10T16:34:11.294Z</time></trkpt><trkpt lat="43.9865292" lon="7.9792991"><ele>479.0</ele><time>2026-04-10T16:34:12.294Z</time></trkpt><trkpt lat="43.9863813" lon="7.9793688"><ele>479.0</ele><time>2026-04-10T16:34:13.296Z</time></trkpt><trkpt lat="43.9862434" lon="7.9794353"><ele>479.0</ele><time>2026-04-10T16:34:14.296Z</time></trkpt><trkpt lat="43.9861082" lon="7.9794881"><ele>479.0</ele><time>2026-04-10T16:34:15.296Z</time></trkpt><trkpt lat="43.9859796" lon="7.9795311"><ele>479.0</ele><time>2026-04-10T16:34:16.295Z</time></trkpt><trkpt lat="43.9858757" lon="7.9795212"><ele>479.5</ele><time>2026-04-10T16:34:17.295Z</time></trkpt><trkpt lat="43.9857473" lon="7.979467"><ele>480.0</ele><time>2026-04-10T16:34:18.294Z</time></trkpt><trkpt lat="43.9856193" lon="7.9793922"><ele>480.5</ele><time>2026-04-10T16:34:19.295Z</time></trkpt><trkpt lat="43.985491" lon="7.9793068"><ele>481.0</ele><time>2026-04-10T16:34:20.296Z</time></trkpt><trkpt lat="43.9853787" lon="7.979227"><ele>475.6</ele><time>2026-04-10T16:34:21.296Z</time></trkpt><trkpt lat="43.9852982" lon="7.9791675"><ele>470.20000000000005</ele><time>2026-04-10T16:34:22.295Z</time></trkpt><trkpt lat="43.9852241" lon="7.9791302"><ele>464.79999999999995</ele><time>2026-04-10T16:34:23.296Z</time></trkpt><trkpt lat="43.9851269" lon="7.9791021"><ele>459.4</ele><time>2026-04-10T16:34:24.294Z</time></trkpt><trkpt lat="43.9850256" lon="7.9790835"><ele>454.0</ele><time>2026-04-10T16:34:25.295Z</time></trkpt><trkpt lat="43.9849325" lon="7.9790569"><ele>454.0</ele><time>2026-04-10T16:34:26.295Z</time></trkpt><trkpt lat="43.984843" lon="7.9790364"><ele>454.0</ele><time>2026-04-10T16:34:27.297Z</time></trkpt><trkpt lat="43.9847407" lon="7.9790267"><ele>454.0</ele><time>2026-04-10T16:34:28.294Z</time></trkpt><trkpt lat="43.9846305" lon="7.9790366"><ele>454.0</ele><time>2026-04-10T16:34:29.295Z</time></trkpt><trkpt lat="43.9845041" lon="7.9790596"><ele>454.0</ele><time>2026-04-10T16:34:30.295Z</time></trkpt><trkpt lat="43.9843889" lon="7.9790635"><ele>454.0</ele><time>2026-04-10T16:34:31.295Z</time></trkpt><trkpt lat="43.9842822" lon="7.9790557"><ele>454.0</ele><time>2026-04-10T16:34:32.294Z</time></trkpt><trkpt lat="43.9841753" lon="7.9790435"><ele>454.0</ele><time>2026-04-10T16:34:33.295Z</time></trkpt><trkpt lat="43.9840779" lon="7.9790497"><ele>454.0</ele><time>2026-04-10T16:34:34.295Z</time></trkpt><trkpt lat="43.9839761" lon="7.9790725"><ele>454.0</ele><time>2026-04-10T16:34:35.295Z</time></trkpt><trkpt lat="43.9838748" lon="7.9791294"><ele>461.75</ele><time>2026-04-10T16:34:36.294Z</time></trkpt><trkpt lat="43.98377" lon="7.9792076"><ele>469.5</ele><time>2026-04-10T16:34:37.295Z</time></trkpt><trkpt lat="43.9836706" lon="7.9792847"><ele>477.25</ele><time>2026-04-10T16:34:38.294Z</time></trkpt><trkpt lat="43.9835865" lon="7.9793813"><ele>485.0</ele><time>2026-04-10T16:34:39.295Z</time></trkpt><trkpt lat="43.9835018" lon="7.9794848"><ele>485.0</ele><time>2026-04-10T16:34:40.296Z</time></trkpt><trkpt lat="43.983408" lon="7.9795898"><ele>485.0</ele><time>2026-04-10T16:34:41.295Z</time></trkpt><trkpt lat="43.9833159" lon="7.9796784"><ele>485.0</ele><time>2026-04-10T16:34:42.296Z</time></trkpt><trkpt lat="43.9832255" lon="7.9797638"><ele>485.0</ele><time>2026-04-10T16:34:43.296Z</time></trkpt><trkpt lat="43.9831431" lon="7.9798668"><ele>488.0</ele><time>2026-04-10T16:34:44.294Z</time></trkpt><trkpt lat="43.9830543" lon="7.9799843"><ele>491.0</ele><time>2026-04-10T16:34:45.294Z</time></trkpt><trkpt lat="43.9829695" lon="7.9800715"><ele>494.0</ele><time>2026-04-10T16:34:46.295Z</time></trkpt><trkpt lat="43.9828909" lon="7.9801453"><ele>497.0</ele><time>2026-04-10T16:34:47.294Z</time></trkpt><trkpt lat="43.9828143" lon="7.9802099"><ele>500.0</ele><time>2026-04-10T16:34:48.296Z</time></trkpt><trkpt lat="43.9827411" lon="7.9802652"><ele>499.99999999999994</ele><time>2026-04-10T16:34:49.295Z</time></trkpt><trkpt lat="43.9826608" lon="7.9802916"><ele>500.0</ele><time>2026-04-10T16:34:50.294Z</time></trkpt><trkpt lat="43.9825868" lon="7.9802982"><ele>500.0</ele><time>2026-04-10T16:34:51.294Z</time></trkpt><trkpt lat="43.9825032" lon="7.9803005"><ele>500.0</ele><time>2026-04-10T16:34:52.294Z</time></trkpt><trkpt lat="43.9824213" lon="7.9803088"><ele>499.99999999999994</ele><time>2026-04-10T16:34:53.294Z</time></trkpt><trkpt lat="43.9823375" lon="7.9803094"><ele>500.0</ele><time>2026-04-10T16:34:54.296Z</time></trkpt><trkpt lat="43.9822531" lon="7.9803006"><ele>495.49999999999994</ele><time>2026-04-10T16:34:55.297Z</time></trkpt><trkpt lat="43.9821745" lon="7.9803034"><ele>491.0</ele><time>2026-04-10T16:34:56.296Z</time></trkpt><trkpt lat="43.9820909" lon="7.9803092"><ele>486.5</ele><time>2026-04-10T16:34:57.295Z</time></trkpt><trkpt lat="43.9820036" lon="7.980321"><ele>482.0</ele><time>2026-04-10T16:34:58.296Z</time></trkpt><trkpt lat="43.9819246" lon="7.9803441"><ele>477.49999999999994</ele><time>2026-04-10T16:34:59.294Z</time></trkpt><trkpt lat="43.9818489" lon="7.9803633"><ele>473.0</ele><time>2026-04-10T16:35:00.295Z</time></trkpt><trkpt lat="43.9817781" lon="7.9803906"><ele>472.99999999999994</ele><time>2026-04-10T16:35:01.296Z</time></trkpt><trkpt lat="43.9817036" lon="7.9803892"><ele>473.0</ele><time>2026-04-10T16:35:02.295Z</time></trkpt><trkpt lat="43.9816302" lon="7.9803973"><ele>473.0</ele><time>2026-04-10T16:35:03.296Z</time></trkpt><trkpt lat="43.9815558" lon="7.9803997"><ele>473.0</ele><time>2026-04-10T16:35:04.297Z</time></trkpt><trkpt lat="43.9814734" lon="7.9803832"><ele>472.99999999999994</ele><time>2026-04-10T16:35:05.296Z</time></trkpt><trkpt lat="43.9814005" lon="7.9803541"><ele>473.0</ele><time>2026-04-10T16:35:06.296Z</time></trkpt><trkpt lat="43.981331" lon="7.9803195"><ele>468.3333333333333</ele><time>2026-04-10T16:35:07.295Z</time></trkpt><trkpt lat="43.9812569" lon="7.980293"><ele>463.66666666666663</ele><time>2026-04-10T16:35:08.295Z</time></trkpt><trkpt lat="43.9811928" lon="7.9802615"><ele>459.0</ele><time>2026-04-10T16:35:09.294Z</time></trkpt><trkpt lat="43.9811303" lon="7.9802142"><ele>454.33333333333337</ele><time>2026-04-10T16:35:10.296Z</time></trkpt><trkpt lat="43.9810558" lon="7.9801107"><ele>449.6666666666667</ele><time>2026-04-10T16:35:12.294Z</time></trkpt><trkpt lat="43.9810642" lon="7.9799576"><ele>445.0</ele><time>2026-04-10T16:35:14.294Z</time></trkpt><trkpt lat="43.9810683" lon="7.9798638"><ele>444.00000000000006</ele><time>2026-04-10T16:35:16.296Z</time></trkpt><trkpt lat="43.980969" lon="7.9797961"><ele>443.0</ele><time>2026-04-10T16:35:19.296Z</time></trkpt><trkpt lat="43.9808542" lon="7.9798037"><ele>442.0</ele><time>2026-04-10T16:35:21.294Z</time></trkpt><trkpt lat="43.9807902" lon="7.979818"><ele>441.0</ele><time>2026-04-10T16:35:22.294Z</time></trkpt><trkpt lat="43.9807277" lon="7.9798359"><ele>440.00000000000006</ele><time>2026-04-10T16:35:23.296Z</time></trkpt><trkpt lat="43.9806553" lon="7.9798357"><ele>439.0</ele><time>2026-04-10T16:35:24.295Z</time></trkpt><trkpt lat="43.980542" lon="7.9798194"><ele>438.50000000000006</ele><time>2026-04-10T16:35:26.296Z</time></trkpt><trkpt lat="43.9804522" lon="7.9797864"><ele>438.0</ele><time>2026-04-10T16:35:28.295Z</time></trkpt><trkpt lat="43.9803787" lon="7.9797495"><ele>437.5</ele><time>2026-04-10T16:35:30.296Z</time></trkpt><trkpt lat="43.980299" lon="7.9797355"><ele>437.0</ele><time>2026-04-10T16:35:32.296Z</time></trkpt><trkpt lat="43.9802317" lon="7.9797822"><ele>436.50000000000006</ele><time>2026-04-10T16:35:34.297Z</time></trkpt><trkpt lat="43.9802372" lon="7.9798869"><ele>436.0</ele><time>2026-04-10T16:35:36.295Z</time></trkpt><trkpt lat="43.9802943" lon="7.9799399"><ele>436.00000000000006</ele><time>2026-04-10T16:35:37.294Z</time></trkpt><trkpt lat="43.9803627" lon="7.979965"><ele>436.0</ele><time>2026-04-10T16:35:38.296Z</time></trkpt><trkpt lat="43.9804431" lon="7.9800057"><ele>436.0</ele><time>2026-04-10T16:35:39.294Z</time></trkpt><trkpt lat="43.9805321" lon="7.980054"><ele>436.0</ele><time>2026-04-10T16:35:40.295Z</time></trkpt><trkpt lat="43.9806245" lon="7.9801078"><ele>436.00000000000006</ele><time>2026-04-10T16:35:41.294Z</time></trkpt><trkpt lat="43.9807148" lon="7.9801479"><ele>436.0</ele><time>2026-04-10T16:35:42.294Z</time></trkpt><trkpt lat="43.9808066" lon="7.9801815"><ele>438.25</ele><time>2026-04-10T16:35:43.295Z</time></trkpt><trkpt lat="43.9809024" lon="7.9802205"><ele>440.5</ele><time>2026-04-10T16:35:44.295Z</time></trkpt><trkpt lat="43.9809789" lon="7.9803218"><ele>442.75</ele><time>2026-04-10T16:35:45.294Z</time></trkpt><trkpt lat="43.9810602" lon="7.980452"><ele>445.0</ele><time>2026-04-10T16:35:46.296Z</time></trkpt><trkpt lat="43.9811342" lon="7.9806131"><ele>445.0</ele><time>2026-04-10T16:35:47.295Z</time></trkpt><trkpt lat="43.9812013" lon="7.9807773"><ele>445.0</ele><time>2026-04-10T16:35:48.296Z</time></trkpt><trkpt lat="43.9812643" lon="7.9809404"><ele>445.0</ele><time>2026-04-10T16:35:49.295Z</time></trkpt><trkpt lat="43.9813153" lon="7.9811041"><ele>445.0</ele><time>2026-04-10T16:35:50.295Z</time></trkpt><trkpt lat="43.9813554" lon="7.9812942"><ele>442.0</ele><time>2026-04-10T16:35:51.295Z</time></trkpt><trkpt lat="43.9813991" lon="7.9814974"><ele>439.0</ele><time>2026-04-10T16:35:52.295Z</time></trkpt><trkpt lat="43.9814379" lon="7.9816936"><ele>436.0</ele><time>2026-04-10T16:35:53.295Z</time></trkpt><trkpt lat="43.9814838" lon="7.9818702"><ele>433.0</ele><time>2026-04-10T16:35:54.295Z</time></trkpt><trkpt lat="43.9815362" lon="7.9820343"><ele>430.5</ele><time>2026-04-10T16:35:55.295Z</time></trkpt><trkpt lat="43.9815989" lon="7.9821864"><ele>428.0</ele><time>2026-04-10T16:35:56.294Z</time></trkpt><trkpt lat="43.9816695" lon="7.9823266"><ele>425.5</ele><time>2026-04-10T16:35:57.295Z</time></trkpt><trkpt lat="43.98174" lon="7.9824604"><ele>423.0</ele><time>2026-04-10T16:35:58.296Z</time></trkpt><trkpt lat="43.9818072" lon="7.9826056"><ele>430.75</ele><time>2026-04-10T16:35:59.294Z</time></trkpt><trkpt lat="43.9818629" lon="7.982766"><ele>438.5</ele><time>2026-04-10T16:36:00.295Z</time></trkpt><trkpt lat="43.9819045" lon="7.9829286"><ele>446.25</ele><time>2026-04-10T16:36:01.295Z</time></trkpt><trkpt lat="43.9819275" lon="7.9831008"><ele>454.0</ele><time>2026-04-10T16:36:02.295Z</time></trkpt><trkpt lat="43.9819416" lon="7.983279"><ele>454.25</ele><time>2026-04-10T16:36:03.294Z</time></trkpt><trkpt lat="43.9819446" lon="7.9834524"><ele>454.5</ele><time>2026-04-10T16:36:04.296Z</time></trkpt><trkpt lat="43.9819461" lon="7.9836286"><ele>454.75</ele><time>2026-04-10T16:36:05.296Z</time></trkpt><trkpt lat="43.9819327" lon="7.9838026"><ele>455.0</ele><time>2026-04-10T16:36:06.294Z</time></trkpt><trkpt lat="43.981891" lon="7.9839615"><ele>455.0</ele><time>2026-04-10T16:36:07.295Z</time></trkpt><trkpt lat="43.9818293" lon="7.9841068"><ele>455.0</ele><time>2026-04-10T16:36:08.296Z</time></trkpt><trkpt lat="43.981753" lon="7.9842397"><ele>455.0</ele><time>2026-04-10T16:36:09.295Z</time></trkpt><trkpt lat="43.9816841" lon="7.9843635"><ele>455.0</ele><time>2026-04-10T16:36:10.296Z</time></trkpt><trkpt lat="43.9816396" lon="7.9844987"><ele>447.0</ele><time>2026-04-10T16:36:11.295Z</time></trkpt><trkpt lat="43.9816047" lon="7.9846505"><ele>439.0</ele><time>2026-04-10T16:36:12.295Z</time></trkpt><trkpt lat="43.981593" lon="7.9848314"><ele>431.0</ele><time>2026-04-10T16:36:13.296Z</time></trkpt><trkpt lat="43.9815684" lon="7.9850134"><ele>423.0</ele><time>2026-04-10T16:36:14.295Z</time></trkpt><trkpt lat="43.9815345" lon="7.985205"><ele>423.0</ele><time>2026-04-10T16:36:15.295Z</time></trkpt><trkpt lat="43.9814933" lon="7.9853975"><ele>423.0</ele><time>2026-04-10T16:36:16.294Z</time></trkpt><trkpt lat="43.9814523" lon="7.985583"><ele>423.0</ele><time>2026-04-10T16:36:17.295Z</time></trkpt><trkpt lat="43.9814064" lon="7.9857542"><ele>423.0</ele><time>2026-04-10T16:36:18.296Z</time></trkpt><trkpt lat="43.9813484" lon="7.9859148"><ele>424.75</ele><time>2026-04-10T16:36:19.296Z</time></trkpt><trkpt lat="43.9812731" lon="7.9860637"><ele>426.5</ele><time>2026-04-10T16:36:20.295Z</time></trkpt><trkpt lat="43.9811886" lon="7.9862014"><ele>428.25</ele><time>2026-04-10T16:36:21.295Z</time></trkpt><trkpt lat="43.9811053" lon="7.9863406"><ele>430.0</ele><time>2026-04-10T16:36:22.295Z</time></trkpt><trkpt lat="43.9810311" lon="7.9864867"><ele>430.0</ele><time>2026-04-10T16:36:23.295Z</time></trkpt><trkpt lat="43.9809682" lon="7.9866303"><ele>430.0</ele><time>2026-04-10T16:36:24.295Z</time></trkpt><trkpt lat="43.9809222" lon="7.9867879"><ele>430.0</ele><time>2026-04-10T16:36:25.295Z</time></trkpt><trkpt lat="43.9808928" lon="7.9869502"><ele>430.0</ele><time>2026-04-10T16:36:26.296Z</time></trkpt><trkpt lat="43.9808778" lon="7.9871109"><ele>428.75</ele><time>2026-04-10T16:36:27.295Z</time></trkpt><trkpt lat="43.9808787" lon="7.9872599"><ele>427.5</ele><time>2026-04-10T16:36:28.294Z</time></trkpt><trkpt lat="43.9809047" lon="7.987411"><ele>426.25</ele><time>2026-04-10T16:36:29.295Z</time></trkpt><trkpt lat="43.980954" lon="7.9875557"><ele>425.0</ele><time>2026-04-10T16:36:30.297Z</time></trkpt><trkpt lat="43.9810262" lon="7.9876983"><ele>421.5</ele><time>2026-04-10T16:36:31.295Z</time></trkpt><trkpt lat="43.981105" lon="7.9878465"><ele>418.0</ele><time>2026-04-10T16:36:32.295Z</time></trkpt><trkpt lat="43.9811729" lon="7.9880107"><ele>414.5</ele><time>2026-04-10T16:36:33.294Z</time></trkpt><trkpt lat="43.9812305" lon="7.9882027"><ele>411.0</ele><time>2026-04-10T16:36:34.295Z</time></trkpt><trkpt lat="43.9812903" lon="7.9883987"><ele>405.0</ele><time>2026-04-10T16:36:35.295Z</time></trkpt><trkpt lat="43.9813519" lon="7.9886057"><ele>399.0</ele><time>2026-04-10T16:36:36.296Z</time></trkpt><trkpt lat="43.9814165" lon="7.9888157"><ele>393.0</ele><time>2026-04-10T16:36:37.295Z</time></trkpt><trkpt lat="43.9814802" lon="7.9890207"><ele>397.5</ele><time>2026-04-10T16:36:38.294Z</time></trkpt><trkpt lat="43.9815503" lon="7.9892113"><ele>402.0</ele><time>2026-04-10T16:36:39.296Z</time></trkpt><trkpt lat="43.9816186" lon="7.9893937"><ele>406.5</ele><time>2026-04-10T16:36:40.295Z</time></trkpt><trkpt lat="43.9816797" lon="7.989572"><ele>411.0</ele><time>2026-04-10T16:36:41.294Z</time></trkpt><trkpt lat="43.9817446" lon="7.9897391"><ele>411.0</ele><time>2026-04-10T16:36:42.295Z</time></trkpt><trkpt lat="43.9818269" lon="7.9898996"><ele>411.0</ele><time>2026-04-10T16:36:43.294Z</time></trkpt><trkpt lat="43.9819233" lon="7.9900625"><ele>411.0</ele><time>2026-04-10T16:36:44.295Z</time></trkpt><trkpt lat="43.9820236" lon="7.9902353"><ele>402.33333333333337</ele><time>2026-04-10T16:36:45.296Z</time></trkpt><trkpt lat="43.9821242" lon="7.9904305"><ele>393.6666666666667</ele><time>2026-04-10T16:36:46.295Z</time></trkpt><trkpt lat="43.9822291" lon="7.9906461"><ele>385.0</ele><time>2026-04-10T16:36:47.295Z</time></trkpt><trkpt lat="43.9823326" lon="7.9908528"><ele>379.0</ele><time>2026-04-10T16:36:48.296Z</time></trkpt><trkpt lat="43.982431" lon="7.9910487"><ele>373.0</ele><time>2026-04-10T16:36:49.295Z</time></trkpt><trkpt lat="43.9825219" lon="7.9912444"><ele>367.0</ele><time>2026-04-10T16:36:50.295Z</time></trkpt><trkpt lat="43.9826026" lon="7.9914548"><ele>375.3333333333333</ele><time>2026-04-10T16:36:51.295Z</time></trkpt><trkpt lat="43.9826781" lon="7.991677"><ele>383.66666666666663</ele><time>2026-04-10T16:36:52.295Z</time></trkpt><trkpt lat="43.9827474" lon="7.9918916"><ele>392.0</ele><time>2026-04-10T16:36:53.296Z</time></trkpt><trkpt lat="43.9828127" lon="7.9920846"><ele>392.0</ele><time>2026-04-10T16:36:54.296Z</time></trkpt><trkpt lat="43.9828717" lon="7.9922573"><ele>392.0</ele><time>2026-04-10T16:36:55.295Z</time></trkpt><trkpt lat="43.9829245" lon="7.9924126"><ele>392.0</ele><time>2026-04-10T16:36:56.295Z</time></trkpt><trkpt lat="43.9829627" lon="7.9925452"><ele>392.0</ele><time>2026-04-10T16:36:57.294Z</time></trkpt><trkpt lat="43.982982" lon="7.9926596"><ele>392.0</ele><time>2026-04-10T16:36:58.295Z</time></trkpt><trkpt lat="43.9829238" lon="7.9927989"><ele>392.0</ele><time>2026-04-10T16:37:00.295Z</time></trkpt><trkpt lat="43.9828605" lon="7.9928104"><ele>392.0</ele><time>2026-04-10T16:37:01.3Z</time></trkpt><trkpt lat="43.9827817" lon="7.9927833"><ele>392.0</ele><time>2026-04-10T16:37:02.303Z</time></trkpt><trkpt lat="43.9826791" lon="7.9927134"><ele>392.0</ele><time>2026-04-10T16:37:03.307Z</time></trkpt><trkpt lat="43.9825728" lon="7.992623"><ele>392.0</ele><time>2026-04-10T16:37:04.295Z</time></trkpt><trkpt lat="43.9824844" lon="7.9924901"><ele>387.75</ele><time>2026-04-10T16:37:05.295Z</time></trkpt><trkpt lat="43.9823921" lon="7.9923512"><ele>383.5</ele><time>2026-04-10T16:37:06.297Z</time></trkpt><trkpt lat="43.9822867" lon="7.992221"><ele>379.25</ele><time>2026-04-10T16:37:07.296Z</time></trkpt><trkpt lat="43.9821576" lon="7.992108"><ele>375.0</ele><time>2026-04-10T16:37:08.295Z</time></trkpt><trkpt lat="43.9820092" lon="7.9920001"><ele>375.0</ele><time>2026-04-10T16:37:09.295Z</time></trkpt><trkpt lat="43.9818517" lon="7.9919059"><ele>375.0</ele><time>2026-04-10T16:37:10.295Z</time></trkpt><trkpt lat="43.9817025" lon="7.9918098"><ele>375.0</ele><time>2026-04-10T16:37:11.295Z</time></trkpt><trkpt lat="43.9815558" lon="7.9917228"><ele>370.75</ele><time>2026-04-10T16:37:12.296Z</time></trkpt><trkpt lat="43.9814199" lon="7.9916448"><ele>366.5</ele><time>2026-04-10T16:37:13.294Z</time></trkpt><trkpt lat="43.9812993" lon="7.9915942"><ele>362.25</ele><time>2026-04-10T16:37:14.295Z</time></trkpt><trkpt lat="43.9811956" lon="7.9915795"><ele>358.0</ele><time>2026-04-10T16:37:15.294Z</time></trkpt><trkpt lat="43.9810832" lon="7.9915928"><ele>358.0</ele><time>2026-04-10T16:37:16.295Z</time></trkpt><trkpt lat="43.9809667" lon="7.9916584"><ele>358.0</ele><time>2026-04-10T16:37:17.297Z</time></trkpt><trkpt lat="43.9808397" lon="7.9917468"><ele>358.0</ele><time>2026-04-10T16:37:18.295Z</time></trkpt><trkpt lat="43.9806992" lon="7.9918393"><ele>358.0</ele><time>2026-04-10T16:37:19.296Z</time></trkpt><trkpt lat="43.9805551" lon="7.9919358"><ele>372.3333333333333</ele><time>2026-04-10T16:37:20.294Z</time></trkpt><trkpt lat="43.9804093" lon="7.9920242"><ele>386.66666666666663</ele><time>2026-04-10T16:37:21.294Z</time></trkpt><trkpt lat="43.9802612" lon="7.9920898"><ele>401.0</ele><time>2026-04-10T16:37:22.295Z</time></trkpt><trkpt lat="43.9801009" lon="7.9921392"><ele>396.66666666666663</ele><time>2026-04-10T16:37:23.294Z</time></trkpt><trkpt lat="43.9799293" lon="7.9921798"><ele>392.33333333333337</ele><time>2026-04-10T16:37:24.294Z</time></trkpt><trkpt lat="43.9797635" lon="7.9922167"><ele>388.0</ele><time>2026-04-10T16:37:25.297Z</time></trkpt><trkpt lat="43.9796112" lon="7.9922587"><ele>388.0</ele><time>2026-04-10T16:37:26.294Z</time></trkpt><trkpt lat="43.9794791" lon="7.9922977"><ele>388.0</ele><time>2026-04-10T16:37:27.295Z</time></trkpt><trkpt lat="43.9793553" lon="7.9923306"><ele>388.0</ele><time>2026-04-10T16:37:28.295Z</time></trkpt><trkpt lat="43.9792297" lon="7.9923227"><ele>388.0</ele><time>2026-04-10T16:37:29.3Z</time></trkpt><trkpt lat="43.9790955" lon="7.9922911"><ele>387.6666666666667</ele><time>2026-04-10T16:37:30.296Z</time></trkpt><trkpt lat="43.9789332" lon="7.9922293"><ele>387.33333333333337</ele><time>2026-04-10T16:37:31.296Z</time></trkpt><trkpt lat="43.9787728" lon="7.9921641"><ele>387.0</ele><time>2026-04-10T16:37:32.297Z</time></trkpt><trkpt lat="43.97862" lon="7.992073"><ele>387.0</ele><time>2026-04-10T16:37:33.296Z</time></trkpt><trkpt lat="43.9784698" lon="7.9919738"><ele>387.0</ele><time>2026-04-10T16:37:34.297Z</time></trkpt><trkpt lat="43.9783518" lon="7.9918491"><ele>387.0</ele><time>2026-04-10T16:37:35.296Z</time></trkpt><trkpt lat="43.978243" lon="7.9917429"><ele>387.0</ele><time>2026-04-10T16:37:36.294Z</time></trkpt><trkpt lat="43.9781946" lon="7.9916749"><ele>383.8</ele><time>2026-04-10T16:37:37.294Z</time></trkpt><trkpt lat="43.9781402" lon="7.9916083"><ele>380.6</ele><time>2026-04-10T16:37:38.295Z</time></trkpt><trkpt lat="43.9780774" lon="7.9914663"><ele>377.40000000000003</ele><time>2026-04-10T16:51:33.298Z</time></trkpt><trkpt lat="43.9780306" lon="7.9913793"><ele>374.20000000000005</ele><time>2026-04-10T16:51:34.297Z</time></trkpt><trkpt lat="43.9779769" lon="7.991285"><ele>371.0</ele><time>2026-04-10T16:51:35.297Z</time></trkpt><trkpt lat="43.9778963" lon="7.9911711"><ele>371.0</ele><time>2026-04-10T16:51:36.298Z</time></trkpt><trkpt lat="43.9778047" lon="7.9910907"><ele>371.0</ele><time>2026-04-10T16:51:37.296Z</time></trkpt><trkpt lat="43.9776972" lon="7.9910352"><ele>371.0</ele><time>2026-04-10T16:51:38.297Z</time></trkpt><trkpt lat="43.9775746" lon="7.9910035"><ele>371.0</ele><time>2026-04-10T16:51:39.296Z</time></trkpt><trkpt lat="43.9774412" lon="7.9909955"><ele>376.0</ele><time>2026-04-10T16:51:40.297Z</time></trkpt><trkpt lat="43.977313" lon="7.9910194"><ele>381.0</ele><time>2026-04-10T16:51:41.297Z</time></trkpt><trkpt lat="43.9771795" lon="7.9910438"><ele>386.0</ele><time>2026-04-10T16:51:42.298Z</time></trkpt><trkpt lat="43.9770521" lon="7.9910575"><ele>391.0</ele><time>2026-04-10T16:51:43.296Z</time></trkpt><trkpt lat="43.9769333" lon="7.9910513"><ele>391.0</ele><time>2026-04-10T16:51:44.297Z</time></trkpt><trkpt lat="43.9768245" lon="7.9910358"><ele>391.0</ele><time>2026-04-10T16:51:45.297Z</time></trkpt><trkpt lat="43.9767278" lon="7.9910274"><ele>391.0</ele><time>2026-04-10T16:51:46.296Z</time></trkpt><trkpt lat="43.9766337" lon="7.9910153"><ele>391.0</ele><time>2026-04-10T16:51:47.296Z</time></trkpt><trkpt lat="43.976526" lon="7.9910203"><ele>391.0</ele><time>2026-04-10T16:51:48.298Z</time></trkpt><trkpt lat="43.976414" lon="7.9910354"><ele>392.20000000000005</ele><time>2026-04-10T16:51:49.296Z</time></trkpt><trkpt lat="43.97631" lon="7.9911224"><ele>393.40000000000003</ele><time>2026-04-10T16:51:50.298Z</time></trkpt><trkpt lat="43.9762062" lon="7.9911877"><ele>394.6</ele><time>2026-04-10T16:51:51.298Z</time></trkpt><trkpt lat="43.9761143" lon="7.991261"><ele>395.8</ele><time>2026-04-10T16:51:52.296Z</time></trkpt><trkpt lat="43.9760217" lon="7.9913061"><ele>397.0</ele><time>2026-04-10T16:51:53.296Z</time></trkpt><trkpt lat="43.9759311" lon="7.9913558"><ele>394.20000000000005</ele><time>2026-04-10T16:51:54.298Z</time></trkpt><trkpt lat="43.975815" lon="7.991306"><ele>391.4</ele><time>2026-04-10T16:51:55.298Z</time></trkpt><trkpt lat="43.9757166" lon="7.9912749"><ele>388.6</ele><time>2026-04-10T16:51:56.296Z</time></trkpt><trkpt lat="43.9756194" lon="7.9912637"><ele>385.79999999999995</ele><time>2026-04-10T16:51:57.297Z</time></trkpt><trkpt lat="43.9755214" lon="7.9913235"><ele>383.0</ele><time>2026-04-10T16:51:58.296Z</time></trkpt><trkpt lat="43.9754299" lon="7.9914032"><ele>383.0</ele><time>2026-04-10T16:51:59.296Z</time></trkpt><trkpt lat="43.9753454" lon="7.9914827"><ele>383.0</ele><time>2026-04-10T16:52:00.296Z</time></trkpt><trkpt lat="43.975261" lon="7.9915365"><ele>383.0</ele><time>2026-04-10T16:52:01.299Z</time></trkpt><trkpt lat="43.9751713" lon="7.9915492"><ele>383.0</ele><time>2026-04-10T16:52:02.298Z</time></trkpt><trkpt lat="43.9750706" lon="7.9915246"><ele>383.0</ele><time>2026-04-10T16:52:03.298Z</time></trkpt><trkpt lat="43.9749596" lon="7.9914635"><ele>382.59999999999997</ele><time>2026-04-10T16:52:04.297Z</time></trkpt><trkpt lat="43.9748468" lon="7.9913986"><ele>382.2</ele><time>2026-04-10T16:52:05.296Z</time></trkpt><trkpt lat="43.9747512" lon="7.991331"><ele>381.8</ele><time>2026-04-10T16:52:06.296Z</time></trkpt><trkpt lat="43.9746602" lon="7.9912877"><ele>381.4</ele><time>2026-04-10T16:52:07.297Z</time></trkpt><trkpt lat="43.9745635" lon="7.9912734"><ele>381.0</ele><time>2026-04-10T16:52:08.296Z</time></trkpt><trkpt lat="43.9744656" lon="7.9913021"><ele>381.0</ele><time>2026-04-10T16:52:09.297Z</time></trkpt><trkpt lat="43.9743643" lon="7.9913441"><ele>381.0</ele><time>2026-04-10T16:52:10.296Z</time></trkpt><trkpt lat="43.9742573" lon="7.9913995"><ele>381.0</ele><time>2026-04-10T16:52:11.296Z</time></trkpt><trkpt lat="43.9741524" lon="7.9914507"><ele>381.0</ele><time>2026-04-10T16:52:12.298Z</time></trkpt><trkpt lat="43.9740297" lon="7.9915037"><ele>381.0</ele><time>2026-04-10T16:52:13.296Z</time></trkpt><trkpt lat="43.9738978" lon="7.9915423"><ele>381.0</ele><time>2026-04-10T16:52:14.297Z</time></trkpt><trkpt lat="43.9737738" lon="7.9915703"><ele>381.0</ele><time>2026-04-10T16:52:15.297Z</time></trkpt><trkpt lat="43.9736521" lon="7.9915898"><ele>381.0</ele><time>2026-04-10T16:52:16.298Z</time></trkpt><trkpt lat="43.9735203" lon="7.9915618"><ele>381.0</ele><time>2026-04-10T16:52:17.297Z</time></trkpt><trkpt lat="43.9733893" lon="7.9915297"><ele>381.0</ele><time>2026-04-10T16:52:18.297Z</time></trkpt><trkpt lat="43.9732624" lon="7.9914402"><ele>381.0</ele><time>2026-04-10T16:52:19.297Z</time></trkpt><trkpt lat="43.973134" lon="7.9913658"><ele>381.0</ele><time>2026-04-10T16:52:20.296Z</time></trkpt><trkpt lat="43.9730194" lon="7.9912863"><ele>379.5</ele><time>2026-04-10T16:52:21.296Z</time></trkpt><trkpt lat="43.9729099" lon="7.9912225"><ele>378.0</ele><time>2026-04-10T16:52:22.297Z</time></trkpt><trkpt lat="43.9728088" lon="7.9911667"><ele>376.5</ele><time>2026-04-10T16:52:23.298Z</time></trkpt><trkpt lat="43.9726881" lon="7.9911421"><ele>375.0</ele><time>2026-04-10T16:52:24.297Z</time></trkpt><trkpt lat="43.9725494" lon="7.9911388"><ele>375.0</ele><time>2026-04-10T16:52:25.296Z</time></trkpt><trkpt lat="43.9723846" lon="7.9911731"><ele>375.0</ele><time>2026-04-10T16:52:26.299Z</time></trkpt><trkpt lat="43.9722336" lon="7.9912045"><ele>375.0</ele><time>2026-04-10T16:52:27.297Z</time></trkpt><trkpt lat="43.9720967" lon="7.9912329"><ele>375.0</ele><time>2026-04-10T16:52:28.297Z</time></trkpt><trkpt lat="43.9719741" lon="7.9912544"><ele>375.0</ele><time>2026-04-10T16:52:29.298Z</time></trkpt><trkpt lat="43.9718604" lon="7.9912612"><ele>375.0</ele><time>2026-04-10T16:52:30.297Z</time></trkpt><trkpt lat="43.971754" lon="7.9912415"><ele>375.0</ele><time>2026-04-10T16:52:31.298Z</time></trkpt><trkpt lat="43.971669" lon="7.9911701"><ele>375.0</ele><time>2026-04-10T16:52:32.297Z</time></trkpt><trkpt lat="43.9715856" lon="7.9910645"><ele>375.5</ele><time>2026-04-10T16:52:33.298Z</time></trkpt><trkpt lat="43.9715209" lon="7.9908904"><ele>376.0</ele><time>2026-04-10T16:52:34.299Z</time></trkpt><trkpt lat="43.9714483" lon="7.9907533"><ele>376.5</ele><time>2026-04-10T16:52:35.297Z</time></trkpt><trkpt lat="43.9713743" lon="7.9906306"><ele>377.0</ele><time>2026-04-10T16:52:36.296Z</time></trkpt><trkpt lat="43.9712697" lon="7.9905695"><ele>370.75</ele><time>2026-04-10T16:52:37.298Z</time></trkpt><trkpt lat="43.9711485" lon="7.9905429"><ele>364.5</ele><time>2026-04-10T16:52:38.297Z</time></trkpt><trkpt lat="43.9710205" lon="7.9905785"><ele>358.25</ele><time>2026-04-10T16:52:39.297Z</time></trkpt><trkpt lat="43.9708779" lon="7.99065"><ele>352.0</ele><time>2026-04-10T16:52:40.298Z</time></trkpt><trkpt lat="43.9707354" lon="7.9907136"><ele>352.0</ele><time>2026-04-10T16:52:41.296Z</time></trkpt><trkpt lat="43.9705954" lon="7.9907679"><ele>352.0</ele><time>2026-04-10T16:52:42.297Z</time></trkpt><trkpt lat="43.9704449" lon="7.9907913"><ele>352.0</ele><time>2026-04-10T16:52:43.298Z</time></trkpt><trkpt lat="43.9702764" lon="7.9907641"><ele>352.0</ele><time>2026-04-10T16:52:44.299Z</time></trkpt><trkpt lat="43.9701193" lon="7.9907493"><ele>352.0</ele><time>2026-04-10T16:52:45.297Z</time></trkpt><trkpt lat="43.9699767" lon="7.9907074"><ele>352.0</ele><time>2026-04-10T16:52:46.298Z</time></trkpt><trkpt lat="43.9698371" lon="7.9906593"><ele>352.0</ele><time>2026-04-10T16:52:47.297Z</time></trkpt><trkpt lat="43.9697053" lon="7.9906215"><ele>353.25</ele><time>2026-04-10T16:52:48.296Z</time></trkpt><trkpt lat="43.9695738" lon="7.9905974"><ele>354.5</ele><time>2026-04-10T16:52:49.297Z</time></trkpt><trkpt lat="43.9694514" lon="7.9906518"><ele>355.75</ele><time>2026-04-10T16:52:50.298Z</time></trkpt><trkpt lat="43.9693155" lon="7.9907282"><ele>357.0</ele><time>2026-04-10T16:52:51.298Z</time></trkpt><trkpt lat="43.9691729" lon="7.9908496"><ele>357.0</ele><time>2026-04-10T16:52:52.297Z</time></trkpt><trkpt lat="43.9690355" lon="7.9909757"><ele>357.0</ele><time>2026-04-10T16:52:53.298Z</time></trkpt><trkpt lat="43.9689011" lon="7.9910913"><ele>357.0</ele><time>2026-04-10T16:52:54.298Z</time></trkpt><trkpt lat="43.9687705" lon="7.991184"><ele>357.0</ele><time>2026-04-10T16:52:55.297Z</time></trkpt><trkpt lat="43.9686519" lon="7.9912717"><ele>357.0</ele><time>2026-04-10T16:52:56.297Z</time></trkpt><trkpt lat="43.9685527" lon="7.9913608"><ele>357.0</ele><time>2026-04-10T16:52:57.298Z</time></trkpt><trkpt lat="43.9684791" lon="7.9914743"><ele>357.0</ele><time>2026-04-10T16:52:58.296Z</time></trkpt><trkpt lat="43.9684439" lon="7.9916147"><ele>359.0</ele><time>2026-04-10T16:52:59.297Z</time></trkpt><trkpt lat="43.9684389" lon="7.9917842"><ele>361.0</ele><time>2026-04-10T16:53:00.298Z</time></trkpt><trkpt lat="43.9684464" lon="7.9919525"><ele>363.0</ele><time>2026-04-10T16:53:01.298Z</time></trkpt><trkpt lat="43.9684456" lon="7.9921151"><ele>365.0</ele><time>2026-04-10T16:53:02.297Z</time></trkpt><trkpt lat="43.968421" lon="7.9922641"><ele>365.0</ele><time>2026-04-10T16:53:03.296Z</time></trkpt><trkpt lat="43.9683728" lon="7.9924146"><ele>365.0</ele><time>2026-04-10T16:53:04.297Z</time></trkpt><trkpt lat="43.9683134" lon="7.9925515"><ele>365.0</ele><time>2026-04-10T16:53:05.297Z</time></trkpt><trkpt lat="43.9682555" lon="7.9926877"><ele>365.0</ele><time>2026-04-10T16:53:06.297Z</time></trkpt><trkpt lat="43.9682191" lon="7.9928368"><ele>354.5</ele><time>2026-04-10T16:53:07.296Z</time></trkpt><trkpt lat="43.9681958" lon="7.9929884"><ele>344.0</ele><time>2026-04-10T16:53:08.296Z</time></trkpt><trkpt lat="43.9682058" lon="7.9931462"><ele>333.5</ele><time>2026-04-10T16:53:09.297Z</time></trkpt><trkpt lat="43.9682424" lon="7.9933026"><ele>323.0</ele><time>2026-04-10T16:53:10.297Z</time></trkpt><trkpt lat="43.968311" lon="7.9934601"><ele>331.6666666666667</ele><time>2026-04-10T16:53:11.298Z</time></trkpt><trkpt lat="43.9684093" lon="7.9936424"><ele>340.3333333333333</ele><time>2026-04-10T16:53:12.298Z</time></trkpt><trkpt lat="43.9685095" lon="7.9938307"><ele>349.0</ele><time>2026-04-10T16:53:13.296Z</time></trkpt><trkpt lat="43.9686082" lon="7.9940094"><ele>342.0</ele><time>2026-04-10T16:53:14.297Z</time></trkpt><trkpt lat="43.9686983" lon="7.9941842"><ele>335.0</ele><time>2026-04-10T16:53:15.297Z</time></trkpt><trkpt lat="43.9687827" lon="7.9943604"><ele>328.0</ele><time>2026-04-10T16:53:16.297Z</time></trkpt><trkpt lat="43.9688409" lon="7.9945563"><ele>328.0</ele><time>2026-04-10T16:53:17.297Z</time></trkpt><trkpt lat="43.9688892" lon="7.9947709"><ele>328.0</ele><time>2026-04-10T16:53:18.297Z</time></trkpt><trkpt lat="43.9689283" lon="7.9950347"><ele>328.0</ele><time>2026-04-10T16:53:19.297Z</time></trkpt><trkpt lat="43.9689652" lon="7.9952901"><ele>323.0</ele><time>2026-04-10T16:53:20.297Z</time></trkpt><trkpt lat="43.9689977" lon="7.9955362"><ele>318.0</ele><time>2026-04-10T16:53:21.296Z</time></trkpt><trkpt lat="43.9690307" lon="7.9957658"><ele>313.0</ele><time>2026-04-10T16:53:22.298Z</time></trkpt><trkpt lat="43.9690556" lon="7.9959831"><ele>311.25</ele><time>2026-04-10T16:53:23.299Z</time></trkpt><trkpt lat="43.969087" lon="7.9961714"><ele>309.5</ele><time>2026-04-10T16:53:24.298Z</time></trkpt><trkpt lat="43.9691147" lon="7.9963533"><ele>307.75</ele><time>2026-04-10T16:53:25.297Z</time></trkpt><trkpt lat="43.9691404" lon="7.9965219"><ele>306.0</ele><time>2026-04-10T16:53:26.298Z</time></trkpt><trkpt lat="43.9691728" lon="7.9966873"><ele>308.5</ele><time>2026-04-10T16:53:27.297Z</time></trkpt><trkpt lat="43.9692149" lon="7.9968555"><ele>311.0</ele><time>2026-04-10T16:53:28.297Z</time></trkpt><trkpt lat="43.9692637" lon="7.9970261"><ele>313.5</ele><time>2026-04-10T16:53:29.297Z</time></trkpt><trkpt lat="43.9693188" lon="7.9971884"><ele>316.0</ele><time>2026-04-10T16:53:30.298Z</time></trkpt><trkpt lat="43.9693704" lon="7.9973389"><ele>316.0</ele><time>2026-04-10T16:53:31.296Z</time></trkpt><trkpt lat="43.9694199" lon="7.9974864"><ele>316.0</ele><time>2026-04-10T16:53:32.297Z</time></trkpt><trkpt lat="43.9694618" lon="7.9976254"><ele>316.0</ele><time>2026-04-10T16:53:33.297Z</time></trkpt><trkpt lat="43.9694882" lon="7.9977668"><ele>316.0</ele><time>2026-04-10T16:53:34.297Z</time></trkpt><trkpt lat="43.969498" lon="7.9979045"><ele>316.0</ele><time>2026-04-10T16:53:35.296Z</time></trkpt><trkpt lat="43.9694759" lon="7.9980307"><ele>316.0</ele><time>2026-04-10T16:53:36.297Z</time></trkpt><trkpt lat="43.9694367" lon="7.9981488"><ele>316.0</ele><time>2026-04-10T16:53:37.297Z</time></trkpt><trkpt lat="43.9693846" lon="7.9982673"><ele>316.0</ele><time>2026-04-10T16:53:38.297Z</time></trkpt><trkpt lat="43.9693305" lon="7.998377"><ele>316.0</ele><time>2026-04-10T16:53:39.297Z</time></trkpt><trkpt lat="43.9692783" lon="7.9984836"><ele>316.0</ele><time>2026-04-10T16:53:40.297Z</time></trkpt><trkpt lat="43.9692227" lon="7.9985879"><ele>313.8</ele><time>2026-04-10T16:53:41.297Z</time></trkpt><trkpt lat="43.96917" lon="7.998702"><ele>311.6</ele><time>2026-04-10T16:53:42.298Z</time></trkpt><trkpt lat="43.9691237" lon="7.9988222"><ele>309.4</ele><time>2026-04-10T16:53:43.297Z</time></trkpt><trkpt lat="43.9690903" lon="7.9989574"><ele>307.2</ele><time>2026-04-10T16:53:44.298Z</time></trkpt><trkpt lat="43.9690631" lon="7.9990855"><ele>305.0</ele><time>2026-04-10T16:53:45.297Z</time></trkpt><trkpt lat="43.9690347" lon="7.9991977"><ele>305.0</ele><time>2026-04-10T16:53:46.297Z</time></trkpt><trkpt lat="43.968998" lon="7.9993178"><ele>305.0</ele><time>2026-04-10T16:53:47.298Z</time></trkpt><trkpt lat="43.9689561" lon="7.9994341"><ele>305.0</ele><time>2026-04-10T16:53:48.298Z</time></trkpt><trkpt lat="43.9688981" lon="7.9995431"><ele>305.0</ele><time>2026-04-10T16:53:49.298Z</time></trkpt><trkpt lat="43.9688306" lon="7.999644"><ele>305.0</ele><time>2026-04-10T16:53:50.297Z</time></trkpt><trkpt lat="43.9687651" lon="7.9997374"><ele>305.0</ele><time>2026-04-10T16:53:51.298Z</time></trkpt><trkpt lat="43.9687015" lon="7.9998464"><ele>305.0</ele><time>2026-04-10T16:53:52.297Z</time></trkpt><trkpt lat="43.9686372" lon="7.9999725"><ele>305.0</ele><time>2026-04-10T16:53:53.297Z</time></trkpt><trkpt lat="43.9685793" lon="8.0001002"><ele>305.0</ele><time>2026-04-10T16:53:54.297Z</time></trkpt><trkpt lat="43.9685311" lon="8.0002283"><ele>305.0</ele><time>2026-04-10T16:53:55.298Z</time></trkpt><trkpt lat="43.9684888" lon="8.0003587"><ele>305.0</ele><time>2026-04-10T16:53:56.296Z</time></trkpt><trkpt lat="43.9684685" lon="8.0005029"><ele>305.0</ele><time>2026-04-10T16:53:57.298Z</time></trkpt><trkpt lat="43.9684623" lon="8.0006364"><ele>305.0</ele><time>2026-04-10T16:53:58.297Z</time></trkpt><trkpt lat="43.9684698" lon="8.0007602"><ele>305.0</ele><time>2026-04-10T16:53:59.298Z</time></trkpt><trkpt lat="43.968498" lon="8.000875"><ele>305.0</ele><time>2026-04-10T16:54:00.296Z</time></trkpt><trkpt lat="43.9685358" lon="8.0009667"><ele>306.33333333333337</ele><time>2026-04-10T16:54:01.297Z</time></trkpt><trkpt lat="43.9685715" lon="8.0010505"><ele>307.6666666666667</ele><time>2026-04-10T16:54:02.297Z</time></trkpt><trkpt lat="43.9685961" lon="8.0011313"><ele>309.0</ele><time>2026-04-10T16:54:03.298Z</time></trkpt><trkpt lat="43.9685593" lon="8.001204"><ele>310.3333333333333</ele><time>2026-04-10T16:54:04.297Z</time></trkpt><trkpt lat="43.9685123" lon="8.0012635"><ele>311.66666666666663</ele><time>2026-04-10T16:54:05.297Z</time></trkpt><trkpt lat="43.9684454" lon="8.0012827"><ele>313.0</ele><time>2026-04-10T16:54:06.298Z</time></trkpt><trkpt lat="43.9683329" lon="8.0011997"><ele>309.0</ele><time>2026-04-10T16:54:08.297Z</time></trkpt><trkpt lat="43.9682801" lon="8.0011231"><ele>305.0</ele><time>2026-04-10T16:54:09.297Z</time></trkpt><trkpt lat="43.9682388" lon="8.00104"><ele>301.0</ele><time>2026-04-10T16:54:10.298Z</time></trkpt><trkpt lat="43.968194" lon="8.0009505"><ele>297.0</ele><time>2026-04-10T16:54:11.298Z</time></trkpt><trkpt lat="43.968138" lon="8.0008671"><ele>293.0</ele><time>2026-04-10T16:54:12.296Z</time></trkpt><trkpt lat="43.9680614" lon="8.000798"><ele>289.0</ele><time>2026-04-10T16:54:13.297Z</time></trkpt><trkpt lat="43.9679821" lon="8.0007478"><ele>286.4</ele><time>2026-04-10T16:54:14.298Z</time></trkpt><trkpt lat="43.9678953" lon="8.0007168"><ele>283.79999999999995</ele><time>2026-04-10T16:54:15.298Z</time></trkpt><trkpt lat="43.9678068" lon="8.0006841"><ele>281.20000000000005</ele><time>2026-04-10T16:54:16.298Z</time></trkpt><trkpt lat="43.9677144" lon="8.0006606"><ele>278.6</ele><time>2026-04-10T16:54:17.297Z</time></trkpt><trkpt lat="43.9676255" lon="8.0006377"><ele>276.0</ele><time>2026-04-10T16:54:18.297Z</time></trkpt><trkpt lat="43.9675335" lon="8.0006111"><ele>272.5</ele><time>2026-04-10T16:54:19.298Z</time></trkpt><trkpt lat="43.9674402" lon="8.0006021"><ele>269.0</ele><time>2026-04-10T16:54:20.298Z</time></trkpt><trkpt lat="43.9673342" lon="8.0006148"><ele>265.5</ele><time>2026-04-10T16:54:21.298Z</time></trkpt><trkpt lat="43.9671763" lon="8.0006748"><ele>262.0</ele><time>2026-04-10T16:54:22.298Z</time></trkpt><trkpt lat="43.9670046" lon="8.0007263"><ele>262.0</ele><time>2026-04-10T16:54:23.297Z</time></trkpt><trkpt lat="43.9668463" lon="8.000776"><ele>262.0</ele><time>2026-04-10T16:54:24.297Z</time></trkpt><trkpt lat="43.9666962" lon="8.0008107"><ele>262.0</ele><time>2026-04-10T16:54:25.298Z</time></trkpt><trkpt lat="43.9665636" lon="8.0007967"><ele>262.0</ele><time>2026-04-10T16:54:26.298Z</time></trkpt><trkpt lat="43.9664153" lon="8.0007554"><ele>261.75</ele><time>2026-04-10T16:54:27.299Z</time></trkpt><trkpt lat="43.9662835" lon="8.0006956"><ele>261.5</ele><time>2026-04-10T16:54:28.298Z</time></trkpt><trkpt lat="43.9661705" lon="8.0006107"><ele>261.25</ele><time>2026-04-10T16:54:29.299Z</time></trkpt><trkpt lat="43.9660661" lon="8.0005051"><ele>261.0</ele><time>2026-04-10T16:54:30.297Z</time></trkpt><trkpt lat="43.9659718" lon="8.0003682"><ele>261.0</ele><time>2026-04-10T16:54:31.298Z</time></trkpt><trkpt lat="43.9658809" lon="8.0002087"><ele>261.0</ele><time>2026-04-10T16:54:32.298Z</time></trkpt><trkpt lat="43.9658017" lon="8.0000288"><ele>261.0</ele><time>2026-04-10T16:54:33.297Z</time></trkpt><trkpt lat="43.9657158" lon="7.9998566"><ele>261.0</ele><time>2026-04-10T16:54:34.297Z</time></trkpt><trkpt lat="43.9656072" lon="7.999686"><ele>267.0</ele><time>2026-04-10T16:54:35.297Z</time></trkpt><trkpt lat="43.9654979" lon="7.9995297"><ele>273.0</ele><time>2026-04-10T16:54:36.298Z</time></trkpt><trkpt lat="43.9653914" lon="7.9993778"><ele>279.0</ele><time>2026-04-10T16:54:37.297Z</time></trkpt><trkpt lat="43.9652686" lon="7.9992427"><ele>279.6666666666667</ele><time>2026-04-10T16:54:38.297Z</time></trkpt><trkpt lat="43.9651179" lon="7.9991091"><ele>280.33333333333337</ele><time>2026-04-10T16:54:39.296Z</time></trkpt><trkpt lat="43.9649638" lon="7.9989711"><ele>281.0</ele><time>2026-04-10T16:54:40.299Z</time></trkpt><trkpt lat="43.9648198" lon="7.9988329"><ele>281.0</ele><time>2026-04-10T16:54:41.297Z</time></trkpt><trkpt lat="43.96469" lon="7.99869"><ele>281.0</ele><time>2026-04-10T16:54:42.297Z</time></trkpt><trkpt lat="43.9645754" lon="7.9985294"><ele>281.0</ele><time>2026-04-10T16:54:43.299Z</time></trkpt><trkpt lat="43.9644777" lon="7.9983734"><ele>280.5</ele><time>2026-04-10T16:54:44.298Z</time></trkpt><trkpt lat="43.9643873" lon="7.9982296"><ele>280.0</ele><time>2026-04-10T16:54:45.297Z</time></trkpt><trkpt lat="43.964299" lon="7.9981106"><ele>279.5</ele><time>2026-04-10T16:54:46.297Z</time></trkpt><trkpt lat="43.9642047" lon="7.998021"><ele>279.0</ele><time>2026-04-10T16:54:47.296Z</time></trkpt><trkpt lat="43.9641015" lon="7.9979808"><ele>279.0</ele><time>2026-04-10T16:54:48.298Z</time></trkpt><trkpt lat="43.963979" lon="7.9979842"><ele>279.0</ele><time>2026-04-10T16:54:49.296Z</time></trkpt><trkpt lat="43.963853" lon="7.9980089"><ele>279.0</ele><time>2026-04-10T16:54:50.297Z</time></trkpt><trkpt lat="43.9637265" lon="7.998039"><ele>279.0</ele><time>2026-04-10T16:54:51.296Z</time></trkpt><trkpt lat="43.9636101" lon="7.9980679"><ele>279.0</ele><time>2026-04-10T16:54:52.296Z</time></trkpt><trkpt lat="43.9635096" lon="7.9981127"><ele>279.0</ele><time>2026-04-10T16:54:53.298Z</time></trkpt><trkpt lat="43.9634241" lon="7.9981929"><ele>279.0</ele><time>2026-04-10T16:54:54.298Z</time></trkpt><trkpt lat="43.9633611" lon="7.9983002"><ele>279.0</ele><time>2026-04-10T16:54:55.297Z</time></trkpt><trkpt lat="43.9633201" lon="7.9984344"><ele>279.0</ele><time>2026-04-10T16:54:56.297Z</time></trkpt><trkpt lat="43.9633089" lon="7.998618"><ele>278.0</ele><time>2026-04-10T16:54:57.296Z</time></trkpt><trkpt lat="43.9633175" lon="7.9988298"><ele>277.0</ele><time>2026-04-10T16:54:58.297Z</time></trkpt><trkpt lat="43.9633338" lon="7.999052"><ele>276.0</ele><time>2026-04-10T16:54:59.297Z</time></trkpt><trkpt lat="43.9633414" lon="7.9992587"><ele>276.0</ele><time>2026-04-10T16:55:00.296Z</time></trkpt><trkpt lat="43.9633332" lon="7.9994461"><ele>276.0</ele><time>2026-04-10T16:55:01.298Z</time></trkpt><trkpt lat="43.963312" lon="7.999626"><ele>276.0</ele><time>2026-04-10T16:55:02.297Z</time></trkpt><trkpt lat="43.9632737" lon="7.9997819"><ele>276.0</ele><time>2026-04-10T16:55:03.297Z</time></trkpt><trkpt lat="43.9632202" lon="7.9999155"><ele>276.0</ele><time>2026-04-10T16:55:04.298Z</time></trkpt><trkpt lat="43.9631474" lon="8.0000112"><ele>276.0</ele><time>2026-04-10T16:55:05.298Z</time></trkpt><trkpt lat="43.9630536" lon="8.0000656"><ele>276.0</ele><time>2026-04-10T16:55:06.297Z</time></trkpt><trkpt lat="43.9629512" lon="8.0000778"><ele>276.0</ele><time>2026-04-10T16:55:07.298Z</time></trkpt><trkpt lat="43.9628437" lon="8.0000489"><ele>276.0</ele><time>2026-04-10T16:55:08.298Z</time></trkpt><trkpt lat="43.9627289" lon="7.999973"><ele>276.0</ele><time>2026-04-10T16:55:09.296Z</time></trkpt><trkpt lat="43.9626017" lon="7.999854"><ele>276.0</ele><time>2026-04-10T16:55:10.298Z</time></trkpt><trkpt lat="43.9624671" lon="7.9997084"><ele>276.0</ele><time>2026-04-10T16:55:11.298Z</time></trkpt><trkpt lat="43.9623305" lon="7.9995532"><ele>278.0</ele><time>2026-04-10T16:55:12.297Z</time></trkpt><trkpt lat="43.962196" lon="7.9993968"><ele>280.0</ele><time>2026-04-10T16:55:13.297Z</time></trkpt><trkpt lat="43.9620653" lon="7.9992467"><ele>282.0</ele><time>2026-04-10T16:55:14.297Z</time></trkpt><trkpt lat="43.9619425" lon="7.9991074"><ele>281.25</ele><time>2026-04-10T16:55:15.297Z</time></trkpt><trkpt lat="43.9618281" lon="7.9989766"><ele>280.5</ele><time>2026-04-10T16:55:16.297Z</time></trkpt><trkpt lat="43.961725" lon="7.9988573"><ele>279.75</ele><time>2026-04-10T16:55:17.297Z</time></trkpt><trkpt lat="43.9616298" lon="7.99875"><ele>279.0</ele><time>2026-04-10T16:55:18.298Z</time></trkpt><trkpt lat="43.9615394" lon="7.9986512"><ele>279.0</ele><time>2026-04-10T16:55:19.298Z</time></trkpt><trkpt lat="43.96146" lon="7.9985563"><ele>279.0</ele><time>2026-04-10T16:55:20.297Z</time></trkpt><trkpt lat="43.9613934" lon="7.9984572"><ele>279.0</ele><time>2026-04-10T16:55:21.297Z</time></trkpt><trkpt lat="43.9613496" lon="7.9983517"><ele>279.0</ele><time>2026-04-10T16:55:22.297Z</time></trkpt><trkpt lat="43.9613216" lon="7.9982357"><ele>279.0</ele><time>2026-04-10T16:55:23.297Z</time></trkpt><trkpt lat="43.9613167" lon="7.9980866"><ele>275.25</ele><time>2026-04-10T16:55:24.297Z</time></trkpt><trkpt lat="43.9613331" lon="7.9979116"><ele>271.5</ele><time>2026-04-10T16:55:25.299Z</time></trkpt><trkpt lat="43.9613613" lon="7.9977267"><ele>267.75</ele><time>2026-04-10T16:55:26.296Z</time></trkpt><trkpt lat="43.9613954" lon="7.9975186"><ele>264.0</ele><time>2026-04-10T16:55:27.297Z</time></trkpt><trkpt lat="43.96144" lon="7.9973061"><ele>263.6666666666667</ele><time>2026-04-10T16:55:28.297Z</time></trkpt><trkpt lat="43.961488" lon="7.9971023"><ele>263.33333333333337</ele><time>2026-04-10T16:55:29.298Z</time></trkpt><trkpt lat="43.9615363" lon="7.9969026"><ele>263.0</ele><time>2026-04-10T16:55:30.297Z</time></trkpt><trkpt lat="43.9615957" lon="7.9966989"><ele>263.0</ele><time>2026-04-10T16:55:31.297Z</time></trkpt><trkpt lat="43.9616531" lon="7.996486"><ele>263.0</ele><time>2026-04-10T16:55:32.299Z</time></trkpt><trkpt lat="43.9617014" lon="7.9962796"><ele>263.0</ele><time>2026-04-10T16:55:33.296Z</time></trkpt><trkpt lat="43.9617515" lon="7.9960856"><ele>259.5</ele><time>2026-04-10T16:55:34.299Z</time></trkpt><trkpt lat="43.9617883" lon="7.9959183"><ele>256.0</ele><time>2026-04-10T16:55:35.298Z</time></trkpt><trkpt lat="43.961822" lon="7.9957568"><ele>252.5</ele><time>2026-04-10T16:55:36.298Z</time></trkpt><trkpt lat="43.9618378" lon="7.9956068"><ele>249.0</ele><time>2026-04-10T16:55:37.297Z</time></trkpt><trkpt lat="43.9618177" lon="7.9954602"><ele>249.6</ele><time>2026-04-10T16:55:38.297Z</time></trkpt><trkpt lat="43.9617774" lon="7.9953327"><ele>250.2</ele><time>2026-04-10T16:55:39.298Z</time></trkpt><trkpt lat="43.9617174" lon="7.995234"><ele>250.79999999999998</ele><time>2026-04-10T16:55:40.298Z</time></trkpt><trkpt lat="43.9616149" lon="7.9951792"><ele>251.39999999999998</ele><time>2026-04-10T16:55:41.297Z</time></trkpt><trkpt lat="43.9614953" lon="7.9951554"><ele>252.0</ele><time>2026-04-10T16:55:42.298Z</time></trkpt><trkpt lat="43.9613758" lon="7.9951534"><ele>252.0</ele><time>2026-04-10T16:55:43.298Z</time></trkpt><trkpt lat="43.9612717" lon="7.9951752"><ele>252.0</ele><time>2026-04-10T16:55:44.298Z</time></trkpt><trkpt lat="43.9611896" lon="7.9952421"><ele>252.0</ele><time>2026-04-10T16:55:45.297Z</time></trkpt><trkpt lat="43.9611357" lon="7.9953563"><ele>252.0</ele><time>2026-04-10T16:55:46.298Z</time></trkpt><trkpt lat="43.9610828" lon="7.9955267"><ele>252.0</ele><time>2026-04-10T16:55:47.297Z</time></trkpt><trkpt lat="43.9610188" lon="7.9956773"><ele>252.0</ele><time>2026-04-10T16:55:48.296Z</time></trkpt><trkpt lat="43.9609404" lon="7.9958047"><ele>252.0</ele><time>2026-04-10T16:55:49.298Z</time></trkpt><trkpt lat="43.9608446" lon="7.9958952"><ele>252.0</ele><time>2026-04-10T16:55:50.297Z</time></trkpt><trkpt lat="43.9607395" lon="7.9959767"><ele>252.0</ele><time>2026-04-10T16:55:51.298Z</time></trkpt><trkpt lat="43.9606234" lon="7.9960484"><ele>256.25</ele><time>2026-04-10T16:55:52.297Z</time></trkpt><trkpt lat="43.9605012" lon="7.9961221"><ele>260.5</ele><time>2026-04-10T16:55:53.298Z</time></trkpt><trkpt lat="43.9603722" lon="7.9962006"><ele>264.75</ele><time>2026-04-10T16:55:54.299Z</time></trkpt><trkpt lat="43.9602455" lon="7.9962887"><ele>269.0</ele><time>2026-04-10T16:55:55.297Z</time></trkpt><trkpt lat="43.9601217" lon="7.9963768"><ele>265.5</ele><time>2026-04-10T16:55:56.296Z</time></trkpt><trkpt lat="43.9600059" lon="7.9964514"><ele>262.0</ele><time>2026-04-10T16:55:57.297Z</time></trkpt><trkpt lat="43.9599006" lon="7.9965292"><ele>258.5</ele><time>2026-04-10T16:55:58.298Z</time></trkpt><trkpt lat="43.9597957" lon="7.9966601"><ele>255.0</ele><time>2026-04-10T16:55:59.297Z</time></trkpt><trkpt lat="43.959707" lon="7.9968034"><ele>255.0</ele><time>2026-04-10T16:56:00.298Z</time></trkpt><trkpt lat="43.9596325" lon="7.9969597"><ele>255.0</ele><time>2026-04-10T16:56:01.296Z</time></trkpt><trkpt lat="43.9595677" lon="7.9971217"><ele>255.0</ele><time>2026-04-10T16:56:02.298Z</time></trkpt><trkpt lat="43.9595274" lon="7.9972936"><ele>255.0</ele><time>2026-04-10T16:56:03.298Z</time></trkpt><trkpt lat="43.959495" lon="7.9974643"><ele>255.4</ele><time>2026-04-10T16:56:04.298Z</time></trkpt><trkpt lat="43.9594722" lon="7.9976354"><ele>255.8</ele><time>2026-04-10T16:56:05.297Z</time></trkpt><trkpt lat="43.9594598" lon="7.9977925"><ele>256.2</ele><time>2026-04-10T16:56:06.299Z</time></trkpt><trkpt lat="43.9594387" lon="7.9979389"><ele>256.6</ele><time>2026-04-10T16:56:07.296Z</time></trkpt><trkpt lat="43.9593739" lon="7.9980352"><ele>257.0</ele><time>2026-04-10T16:56:08.297Z</time></trkpt><trkpt lat="43.9592953" lon="7.9981085"><ele>257.0</ele><time>2026-04-10T16:56:09.297Z</time></trkpt><trkpt lat="43.9592032" lon="7.9981564"><ele>257.0</ele><time>2026-04-10T16:56:10.297Z</time></trkpt><trkpt lat="43.9591036" lon="7.9981922"><ele>257.0</ele><time>2026-04-10T16:56:11.296Z</time></trkpt><trkpt lat="43.9589843" lon="7.998174"><ele>257.0</ele><time>2026-04-10T16:56:12.297Z</time></trkpt><trkpt lat="43.958865" lon="7.9981998"><ele>257.0</ele><time>2026-04-10T16:56:13.298Z</time></trkpt><trkpt lat="43.9587183" lon="7.9982796"><ele>257.5</ele><time>2026-04-10T16:56:14.298Z</time></trkpt><trkpt lat="43.9585849" lon="7.9983597"><ele>258.0</ele><time>2026-04-10T16:56:15.297Z</time></trkpt><trkpt lat="43.9584557" lon="7.9984354"><ele>258.5</ele><time>2026-04-10T16:56:16.298Z</time></trkpt><trkpt lat="43.9583515" lon="7.998521"><ele>259.0</ele><time>2026-04-10T16:56:17.297Z</time></trkpt><trkpt lat="43.9582604" lon="7.9986142"><ele>254.0</ele><time>2026-04-10T16:56:18.297Z</time></trkpt><trkpt lat="43.9581803" lon="7.9987381"><ele>249.0</ele><time>2026-04-10T16:56:19.298Z</time></trkpt><trkpt lat="43.9581028" lon="7.9989093"><ele>244.0</ele><time>2026-04-10T16:56:20.298Z</time></trkpt><trkpt lat="43.9579996" lon="7.9990564"><ele>239.0</ele><time>2026-04-10T16:56:21.298Z</time></trkpt><trkpt lat="43.9578945" lon="7.9992048"><ele>239.0</ele><time>2026-04-10T16:56:22.297Z</time></trkpt><trkpt lat="43.9578062" lon="7.9993465"><ele>239.0</ele><time>2026-04-10T16:56:23.297Z</time></trkpt><trkpt lat="43.9577276" lon="7.9994835"><ele>239.0</ele><time>2026-04-10T16:56:24.298Z</time></trkpt><trkpt lat="43.9576482" lon="7.9995998"><ele>239.0</ele><time>2026-04-10T16:56:25.296Z</time></trkpt><trkpt lat="43.9575496" lon="7.999679"><ele>231.5</ele><time>2026-04-10T16:56:26.297Z</time></trkpt><trkpt lat="43.9574384" lon="7.999758"><ele>224.0</ele><time>2026-04-10T16:56:27.297Z</time></trkpt><trkpt lat="43.9573199" lon="7.9998372"><ele>216.5</ele><time>2026-04-10T16:56:28.298Z</time></trkpt><trkpt lat="43.9572214" lon="7.999943"><ele>209.0</ele><time>2026-04-10T16:56:29.299Z</time></trkpt><trkpt lat="43.9571257" lon="8.0000755"><ele>209.0</ele><time>2026-04-10T16:56:30.298Z</time></trkpt><trkpt lat="43.95703" lon="8.0002726"><ele>209.0</ele><time>2026-04-10T16:56:31.299Z</time></trkpt><trkpt lat="43.956946" lon="8.0004899"><ele>209.0</ele><time>2026-04-10T16:56:32.297Z</time></trkpt><trkpt lat="43.9568459" lon="8.0006942"><ele>214.0</ele><time>2026-04-10T16:56:33.298Z</time></trkpt><trkpt lat="43.9567396" lon="8.0008795"><ele>219.0</ele><time>2026-04-10T16:56:34.297Z</time></trkpt><trkpt lat="43.9566336" lon="8.0010403"><ele>224.0</ele><time>2026-04-10T16:56:35.297Z</time></trkpt><trkpt lat="43.956537" lon="8.0011929"><ele>217.2</ele><time>2026-04-10T16:56:36.299Z</time></trkpt><trkpt lat="43.9564685" lon="8.0013407"><ele>210.39999999999998</ele><time>2026-04-10T16:56:37.298Z</time></trkpt><trkpt lat="43.9564006" lon="8.0014656"><ele>203.6</ele><time>2026-04-10T16:56:38.298Z</time></trkpt><trkpt lat="43.9563241" lon="8.0015492"><ele>196.8</ele><time>2026-04-10T16:56:39.298Z</time></trkpt><trkpt lat="43.9562389" lon="8.0015688"><ele>190.0</ele><time>2026-04-10T16:56:40.297Z</time></trkpt><trkpt lat="43.9561447" lon="8.0015648"><ele>190.0</ele><time>2026-04-10T16:56:41.298Z</time></trkpt><trkpt lat="43.9560441" lon="8.0015353"><ele>190.0</ele><time>2026-04-10T16:56:42.298Z</time></trkpt><trkpt lat="43.9559399" lon="8.0015354"><ele>190.0</ele><time>2026-04-10T16:56:43.297Z</time></trkpt><trkpt lat="43.9558532" lon="8.0016388"><ele>190.0</ele><time>2026-04-10T16:56:44.298Z</time></trkpt><trkpt lat="43.9557521" lon="8.0017604"><ele>188.0</ele><time>2026-04-10T16:56:45.297Z</time></trkpt><trkpt lat="43.955657" lon="8.001908"><ele>186.0</ele><time>2026-04-10T16:56:46.298Z</time></trkpt><trkpt lat="43.955582" lon="8.0020739"><ele>184.0</ele><time>2026-04-10T16:56:47.298Z</time></trkpt><trkpt lat="43.9555272" lon="8.0022483"><ele>182.0</ele><time>2026-04-10T16:56:48.297Z</time></trkpt><trkpt lat="43.9554867" lon="8.0024207"><ele>184.2</ele><time>2026-04-10T16:56:49.297Z</time></trkpt><trkpt lat="43.9554629" lon="8.002591"><ele>186.39999999999998</ele><time>2026-04-10T16:56:50.298Z</time></trkpt><trkpt lat="43.9554678" lon="8.0027424"><ele>188.60000000000002</ele><time>2026-04-10T16:56:51.298Z</time></trkpt><trkpt lat="43.9555089" lon="8.0028798"><ele>190.8</ele><time>2026-04-10T16:56:52.298Z</time></trkpt><trkpt lat="43.9555715" lon="8.0029895"><ele>193.0</ele><time>2026-04-10T16:56:53.298Z</time></trkpt><trkpt lat="43.9556289" lon="8.0030962"><ele>193.0</ele><time>2026-04-10T16:56:54.297Z</time></trkpt><trkpt lat="43.9556508" lon="8.0032068"><ele>193.0</ele><time>2026-04-10T16:56:55.297Z</time></trkpt><trkpt lat="43.9555944" lon="8.0032663"><ele>193.0</ele><time>2026-04-10T16:56:56.297Z</time></trkpt><trkpt lat="43.9554782" lon="8.0032435"><ele>193.0</ele><time>2026-04-10T16:56:58.297Z</time></trkpt><trkpt lat="43.955399" lon="8.0031746"><ele>193.0</ele><time>2026-04-10T16:56:59.298Z</time></trkpt><trkpt lat="43.9553055" lon="8.0031289"><ele>193.0</ele><time>2026-04-10T16:57:00.297Z</time></trkpt><trkpt lat="43.955216" lon="8.0031142"><ele>193.0</ele><time>2026-04-10T16:57:01.297Z</time></trkpt><trkpt lat="43.955129" lon="8.0031534"><ele>193.0</ele><time>2026-04-10T16:57:02.297Z</time></trkpt><trkpt lat="43.9550409" lon="8.0031743"><ele>193.0</ele><time>2026-04-10T16:57:03.298Z</time></trkpt><trkpt lat="43.9549505" lon="8.0031481"><ele>193.0</ele><time>2026-04-10T16:57:04.298Z</time></trkpt><trkpt lat="43.9548623" lon="8.0030699"><ele>188.4</ele><time>2026-04-10T16:57:05.297Z</time></trkpt><trkpt lat="43.9547879" lon="8.0029721"><ele>183.8</ele><time>2026-04-10T16:57:06.297Z</time></trkpt><trkpt lat="43.9547215" lon="8.0028727"><ele>179.2</ele><time>2026-04-10T16:57:07.298Z</time></trkpt><trkpt lat="43.954665" lon="8.0027716"><ele>174.6</ele><time>2026-04-10T16:57:08.299Z</time></trkpt><trkpt lat="43.954639" lon="8.0026522"><ele>170.0</ele><time>2026-04-10T16:57:09.297Z</time></trkpt><trkpt lat="43.9546235" lon="8.002532"><ele>168.0</ele><time>2026-04-10T16:57:10.297Z</time></trkpt><trkpt lat="43.9546093" lon="8.0023926"><ele>166.0</ele><time>2026-04-10T16:57:11.297Z</time></trkpt><trkpt lat="43.9546085" lon="8.0022651"><ele>164.0</ele><time>2026-04-10T16:57:12.298Z</time></trkpt><trkpt lat="43.9546217" lon="8.002119"><ele>162.0</ele><time>2026-04-10T16:57:13.297Z</time></trkpt><trkpt lat="43.9546412" lon="8.0019787"><ele>160.0</ele><time>2026-04-10T16:57:14.298Z</time></trkpt><trkpt lat="43.9546719" lon="8.0018393"><ele>160.0</ele><time>2026-04-10T16:57:15.298Z</time></trkpt><trkpt lat="43.9547084" lon="8.0016991"><ele>160.0</ele><time>2026-04-10T16:57:16.297Z</time></trkpt><trkpt lat="43.9547635" lon="8.0015944"><ele>160.0</ele><time>2026-04-10T16:57:17.298Z</time></trkpt><trkpt lat="43.9548229" lon="8.0014984"><ele>160.0</ele><time>2026-04-10T16:57:18.297Z</time></trkpt><trkpt lat="43.9549073" lon="8.0014462"><ele>160.0</ele><time>2026-04-10T16:57:19.298Z</time></trkpt><trkpt lat="43.9549918" lon="8.0014054"><ele>161.5</ele><time>2026-04-10T16:57:20.298Z</time></trkpt><trkpt lat="43.9550941" lon="8.0013635"><ele>163.0</ele><time>2026-04-10T16:57:21.297Z</time></trkpt><trkpt lat="43.9551956" lon="8.0012937"><ele>164.5</ele><time>2026-04-10T16:57:22.298Z</time></trkpt><trkpt lat="43.955287" lon="8.0011855"><ele>166.0</ele><time>2026-04-10T16:57:23.297Z</time></trkpt><trkpt lat="43.9553642" lon="8.0010545"><ele>166.0</ele><time>2026-04-10T16:57:24.298Z</time></trkpt><trkpt lat="43.9554174" lon="8.0009171"><ele>166.0</ele><time>2026-04-10T16:57:25.298Z</time></trkpt><trkpt lat="43.9554612" lon="8.0007769"><ele>166.0</ele><time>2026-04-10T16:57:26.298Z</time></trkpt><trkpt lat="43.9554962" lon="8.0006457"><ele>166.0</ele><time>2026-04-10T16:57:27.298Z</time></trkpt><trkpt lat="43.9555279" lon="8.0004887"><ele>166.0</ele><time>2026-04-10T16:57:28.297Z</time></trkpt><trkpt lat="43.9555666" lon="8.0003039"><ele>163.0</ele><time>2026-04-10T16:57:29.297Z</time></trkpt><trkpt lat="43.9556037" lon="8.0000999"><ele>160.0</ele><time>2026-04-10T16:57:30.298Z</time></trkpt><trkpt lat="43.9556404" lon="7.9998953"><ele>157.0</ele><time>2026-04-10T16:57:31.297Z</time></trkpt><trkpt lat="43.9556632" lon="7.9996993"><ele>154.0</ele><time>2026-04-10T16:57:32.297Z</time></trkpt><trkpt lat="43.9556885" lon="7.9995341"><ele>154.0</ele><time>2026-04-10T16:57:33.298Z</time></trkpt><trkpt lat="43.9557173" lon="7.9993945"><ele>154.0</ele><time>2026-04-10T16:57:34.298Z</time></trkpt><trkpt lat="43.9557688" lon="7.9992751"><ele>154.0</ele><time>2026-04-10T16:57:35.297Z</time></trkpt><trkpt lat="43.9558544" lon="7.9991634"><ele>154.0</ele><time>2026-04-10T16:57:36.297Z</time></trkpt><trkpt lat="43.9559179" lon="7.9990286"><ele>154.0</ele><time>2026-04-10T16:57:37.298Z</time></trkpt><trkpt lat="43.9559681" lon="7.9988618"><ele>158.0</ele><time>2026-04-10T16:57:38.297Z</time></trkpt><trkpt lat="43.9560095" lon="7.9987106"><ele>162.0</ele><time>2026-04-10T16:57:39.298Z</time></trkpt><trkpt lat="43.9560228" lon="7.9985954"><ele>166.0</ele><time>2026-04-10T16:57:40.298Z</time></trkpt><trkpt lat="43.9559671" lon="7.9984881"><ele>170.0</ele><time>2026-04-10T16:57:42.298Z</time></trkpt><trkpt lat="43.9559011" lon="7.9985949"><ele>174.0</ele><time>2026-04-10T16:57:44.297Z</time></trkpt><trkpt lat="43.9558702" lon="7.9987121"><ele>166.79999999999998</ele><time>2026-04-10T16:57:45.298Z</time></trkpt><trkpt lat="43.9558159" lon="7.9988428"><ele>159.6</ele><time>2026-04-10T16:57:46.297Z</time></trkpt><trkpt lat="43.9557333" lon="7.9989356"><ele>152.4</ele><time>2026-04-10T16:57:47.298Z</time></trkpt><trkpt lat="43.9556333" lon="7.9989968"><ele>145.2</ele><time>2026-04-10T16:57:48.298Z</time></trkpt><trkpt lat="43.9555377" lon="7.9990663"><ele>138.0</ele><time>2026-04-10T16:57:49.297Z</time></trkpt><trkpt lat="43.9554525" lon="7.9991631"><ele>142.0</ele><time>2026-04-10T16:57:50.297Z</time></trkpt><trkpt lat="43.9553833" lon="7.9992692"><ele>146.0</ele><time>2026-04-10T16:57:51.298Z</time></trkpt><trkpt lat="43.9553651" lon="7.9994349"><ele>150.0</ele><time>2026-04-10T16:57:52.298Z</time></trkpt><trkpt lat="43.9553393" lon="7.9995893"><ele>154.0</ele><time>2026-04-10T16:57:53.297Z</time></trkpt><trkpt lat="43.9552987" lon="7.9997374"><ele>154.0</ele><time>2026-04-10T16:57:54.297Z</time></trkpt><trkpt lat="43.9552382" lon="7.9998519"><ele>154.0</ele><time>2026-04-10T16:57:55.297Z</time></trkpt><trkpt lat="43.9551462" lon="7.9999608"><ele>154.0</ele><time>2026-04-10T16:57:56.297Z</time></trkpt><trkpt lat="43.9550305" lon="8.0000788"><ele>154.0</ele><time>2026-04-10T16:57:57.298Z</time></trkpt><trkpt lat="43.9549215" lon="8.0001945"><ele>146.0</ele><time>2026-04-10T16:57:58.298Z</time></trkpt><trkpt lat="43.9548028" lon="8.0002884"><ele>138.0</ele><time>2026-04-10T16:57:59.298Z</time></trkpt><trkpt lat="43.9546921" lon="8.0003511"><ele>130.0</ele><time>2026-04-10T16:58:00.298Z</time></trkpt><trkpt lat="43.9545648" lon="8.0003885"><ele>122.0</ele><time>2026-04-10T16:58:01.298Z</time></trkpt><trkpt lat="43.9544432" lon="8.0004058"><ele>122.0</ele><time>2026-04-10T16:58:02.297Z</time></trkpt><trkpt lat="43.9543082" lon="8.0003885"><ele>122.0</ele><time>2026-04-10T16:58:03.297Z</time></trkpt><trkpt lat="43.9541649" lon="8.0003403"><ele>122.0</ele><time>2026-04-10T16:58:04.299Z</time></trkpt><trkpt lat="43.9540235" lon="8.0002792"><ele>122.0</ele><time>2026-04-10T16:58:05.298Z</time></trkpt><trkpt lat="43.9538794" lon="8.0002163"><ele>119.0</ele><time>2026-04-10T16:58:06.299Z</time></trkpt><trkpt lat="43.9537512" lon="8.0001942"><ele>116.0</ele><time>2026-04-10T16:58:07.298Z</time></trkpt><trkpt lat="43.9536242" lon="8.0001804"><ele>113.0</ele><time>2026-04-10T16:58:08.298Z</time></trkpt><trkpt lat="43.9535066" lon="8.0001606"><ele>110.0</ele><time>2026-04-10T16:58:09.3Z</time></trkpt><trkpt lat="43.9534183" lon="8.0001297"><ele>110.0</ele><time>2026-04-10T16:58:10.298Z</time></trkpt><trkpt lat="43.9533425" lon="8.0000864"><ele>110.0</ele><time>2026-04-10T16:58:11.297Z</time></trkpt><trkpt lat="43.9533448" lon="7.9999055"><ele>110.0</ele><time>2026-04-10T16:58:13.297Z</time></trkpt><trkpt lat="43.9533983" lon="7.9997651"><ele>110.0</ele><time>2026-04-10T16:58:14.298Z</time></trkpt><trkpt lat="43.9534228" lon="7.9996427"><ele>110.0</ele><time>2026-04-10T16:58:15.297Z</time></trkpt><trkpt lat="43.9533996" lon="7.9995571"><ele>110.0</ele><time>2026-04-10T16:58:16.297Z</time></trkpt><trkpt lat="43.9532613" lon="7.9994897"><ele>110.0</ele><time>2026-04-10T16:58:18.299Z</time></trkpt><trkpt lat="43.9531414" lon="7.9994867"><ele>110.0</ele><time>2026-04-10T16:58:19.298Z</time></trkpt><trkpt lat="43.9529961" lon="7.9994887"><ele>110.0</ele><time>2026-04-10T16:58:20.297Z</time></trkpt><trkpt lat="43.9528533" lon="7.9994879"><ele>110.0</ele><time>2026-04-10T16:58:21.298Z</time></trkpt><trkpt lat="43.9527332" lon="7.9994867"><ele>110.0</ele><time>2026-04-10T16:58:22.297Z</time></trkpt><trkpt lat="43.9526287" lon="7.9995038"><ele>110.0</ele><time>2026-04-10T16:58:23.297Z</time></trkpt><trkpt lat="43.9525437" lon="7.9995452"><ele>110.0</ele><time>2026-04-10T16:58:24.297Z</time></trkpt><trkpt lat="43.9524825" lon="7.9996154"><ele>110.0</ele><time>2026-04-10T16:58:25.297Z</time></trkpt><trkpt lat="43.9524499" lon="7.999776"><ele>108.6</ele><time>2026-04-10T16:58:26.297Z</time></trkpt><trkpt lat="43.9524129" lon="7.999914"><ele>107.2</ele><time>2026-04-10T16:58:27.298Z</time></trkpt><trkpt lat="43.9523754" lon="8.0000309"><ele>105.80000000000001</ele><time>2026-04-10T16:58:28.297Z</time></trkpt><trkpt lat="43.9523304" lon="8.0001261"><ele>104.4</ele><time>2026-04-10T16:58:29.298Z</time></trkpt><trkpt lat="43.9522695" lon="8.0002219"><ele>103.0</ele><time>2026-04-10T16:58:30.298Z</time></trkpt><trkpt lat="43.9521944" lon="8.0003478"><ele>103.0</ele><time>2026-04-10T16:58:31.297Z</time></trkpt><trkpt lat="43.9521074" lon="8.0005177"><ele>103.0</ele><time>2026-04-10T16:58:32.298Z</time></trkpt><trkpt lat="43.9520129" lon="8.0007201"><ele>103.0</ele><time>2026-04-10T16:58:33.299Z</time></trkpt><trkpt lat="43.9519128" lon="8.0009474"><ele>101.0</ele><time>2026-04-10T16:58:34.298Z</time></trkpt><trkpt lat="43.9517992" lon="8.0011963"><ele>99.0</ele><time>2026-04-10T16:58:35.299Z</time></trkpt><trkpt lat="43.9516801" lon="8.0014554"><ele>97.0</ele><time>2026-04-10T16:58:36.298Z</time></trkpt><trkpt lat="43.9515667" lon="8.0016937"><ele>97.0</ele><time>2026-04-10T16:58:37.298Z</time></trkpt><trkpt lat="43.9514597" lon="8.0019179"><ele>97.0</ele><time>2026-04-10T16:58:38.298Z</time></trkpt><trkpt lat="43.9513603" lon="8.0021244"><ele>97.0</ele><time>2026-04-10T16:58:39.298Z</time></trkpt><trkpt lat="43.9512735" lon="8.0023072"><ele>97.0</ele><time>2026-04-10T16:58:40.299Z</time></trkpt><trkpt lat="43.9511968" lon="8.0024652"><ele>97.0</ele><time>2026-04-10T16:58:41.299Z</time></trkpt><trkpt lat="43.9511215" lon="8.0026012"><ele>97.0</ele><time>2026-04-10T16:58:42.299Z</time></trkpt><trkpt lat="43.9510417" lon="8.0027124"><ele>97.0</ele><time>2026-04-10T16:58:43.297Z</time></trkpt><trkpt lat="43.9509451" lon="8.0027678"><ele>95.0</ele><time>2026-04-10T16:58:44.299Z</time></trkpt><trkpt lat="43.9508221" lon="8.0027876"><ele>93.0</ele><time>2026-04-10T16:58:45.298Z</time></trkpt><trkpt lat="43.9506709" lon="8.0027782"><ele>91.0</ele><time>2026-04-10T16:58:46.297Z</time></trkpt><trkpt lat="43.9504935" lon="8.0027626"><ele>91.0</ele><time>2026-04-10T16:58:47.298Z</time></trkpt><trkpt lat="43.9502932" lon="8.0027453"><ele>91.0</ele><time>2026-04-10T16:58:48.299Z</time></trkpt><trkpt lat="43.9500799" lon="8.0027381"><ele>91.0</ele><time>2026-04-10T16:58:49.298Z</time></trkpt><trkpt lat="43.9498599" lon="8.0027281"><ele>90.0</ele><time>2026-04-10T16:58:50.297Z</time></trkpt><trkpt lat="43.9496306" lon="8.0027052"><ele>89.0</ele><time>2026-04-10T16:58:51.297Z</time></trkpt><trkpt lat="43.9493804" lon="8.002666"><ele>90.0</ele><time>2026-04-10T16:58:52.297Z</time></trkpt><trkpt lat="43.9491274" lon="8.0026186"><ele>91.0</ele><time>2026-04-10T16:58:53.299Z</time></trkpt><trkpt lat="43.9488821" lon="8.0025714"><ele>91.0</ele><time>2026-04-10T16:58:54.297Z</time></trkpt><trkpt lat="43.9486553" lon="8.0025267"><ele>91.0</ele><time>2026-04-10T16:58:55.298Z</time></trkpt><trkpt lat="43.9484455" lon="8.002485"><ele>91.0</ele><time>2026-04-10T16:58:56.298Z</time></trkpt><trkpt lat="43.9482508" lon="8.0024497"><ele>89.33333333333333</ele><time>2026-04-10T16:58:57.297Z</time></trkpt><trkpt lat="43.9480702" lon="8.0024122"><ele>87.66666666666667</ele><time>2026-04-10T16:58:58.297Z</time></trkpt><trkpt lat="43.9479026" lon="8.0023776"><ele>86.0</ele><time>2026-04-10T16:58:59.297Z</time></trkpt><trkpt lat="43.9477516" lon="8.0023431"><ele>86.0</ele><time>2026-04-10T16:59:00.299Z</time></trkpt><trkpt lat="43.9476145" lon="8.0023182"><ele>86.0</ele><time>2026-04-10T16:59:01.297Z</time></trkpt><trkpt lat="43.9474942" lon="8.0022945"><ele>86.0</ele><time>2026-04-10T16:59:02.299Z</time></trkpt><trkpt lat="43.9473977" lon="8.0022773"><ele>86.0</ele><time>2026-04-10T16:59:03.298Z</time></trkpt><trkpt lat="43.9473286" lon="8.0022643"><ele>86.0</ele><time>2026-04-10T16:59:04.297Z</time></trkpt><trkpt lat="43.947262" lon="8.0022593"><ele>85.0</ele><time>2026-04-10T16:59:05.298Z</time></trkpt><trkpt lat="43.9471721" lon="8.0022681"><ele>84.0</ele><time>2026-04-10T16:59:06.297Z</time></trkpt><trkpt lat="43.9470792" lon="8.0023059"><ele>83.0</ele><time>2026-04-10T16:59:07.297Z</time></trkpt><trkpt lat="43.9469911" lon="8.0023432"><ele>82.0</ele><time>2026-04-10T16:59:08.298Z</time></trkpt><trkpt lat="43.9469141" lon="8.0023685"><ele>81.0</ele><time>2026-04-10T16:59:09.298Z</time></trkpt><trkpt lat="43.9468212" lon="8.0023801"><ele>81.0</ele><time>2026-04-10T16:59:11.298Z</time></trkpt></trkseg></trk></gpx>